<?xml version="1.0" encoding="UTF-8" standalone="no" ?>
<gpx xmlns="http://www.topografix.com/GPX/1/1" xmlns:xsi="http://www.w3.org/2001/XMLSchema-instance" xsi:schemaLocation="http://www.topografix.com/GPX/1/1 http://www.topografix.com/GPX/1/1/gpx.xsd" version="1.1" creator="VisuGPX - https://www.visugpx.com">
  <metadata>
    <name>[20/12/2015] Evreux Bike Tour Inversé</name>
    <desc><![CDATA[Dernière rando 2015 pour SpeedEure VTT - 35 km]]></desc>
  </metadata>
  <trk>
    <name><![CDATA[2015-12-20-01]]></name>
    <trkseg>
      <trkpt lat="49.02233" lon="1.14076">
        <ele>64.4</ele>
        <time>2015-12-20T07:45:36Z</time>
      </trkpt>
      <trkpt lat="49.02233" lon="1.14076">
        <ele>64.4</ele>
        <time>2015-12-20T07:45:37Z</time>
      </trkpt>
      <trkpt lat="49.02224" lon="1.14083">
        <ele>64.3</ele>
        <time>2015-12-20T07:52:15Z</time>
      </trkpt>
      <trkpt lat="49.02214" lon="1.14089">
        <ele>64.3</ele>
        <time>2015-12-20T07:52:20Z</time>
      </trkpt>
      <trkpt lat="49.02205" lon="1.14096">
        <ele>64.3</ele>
        <time>2015-12-20T07:52:24Z</time>
      </trkpt>
      <trkpt lat="49.02196" lon="1.14104">
        <ele>64.3</ele>
        <time>2015-12-20T07:52:28Z</time>
      </trkpt>
      <trkpt lat="49.02195" lon="1.14123">
        <ele>64.3</ele>
        <time>2015-12-20T07:52:32Z</time>
      </trkpt>
      <trkpt lat="49.02195" lon="1.14139">
        <ele>64.3</ele>
        <time>2015-12-20T07:52:35Z</time>
      </trkpt>
      <trkpt lat="49.02196" lon="1.14157">
        <ele>64.3</ele>
        <time>2015-12-20T07:52:38Z</time>
      </trkpt>
      <trkpt lat="49.02197" lon="1.14176">
        <ele>64.2</ele>
        <time>2015-12-20T07:52:41Z</time>
      </trkpt>
      <trkpt lat="49.02198" lon="1.14195">
        <ele>64.1</ele>
        <time>2015-12-20T07:52:44Z</time>
      </trkpt>
      <trkpt lat="49.02199" lon="1.14214">
        <ele>64</ele>
        <time>2015-12-20T07:52:47Z</time>
      </trkpt>
      <trkpt lat="49.022" lon="1.14234">
        <ele>64</ele>
        <time>2015-12-20T07:52:50Z</time>
      </trkpt>
      <trkpt lat="49.02202" lon="1.14253">
        <ele>63.9</ele>
        <time>2015-12-20T07:52:53Z</time>
      </trkpt>
      <trkpt lat="49.02203" lon="1.14272">
        <ele>63.9</ele>
        <time>2015-12-20T07:52:56Z</time>
      </trkpt>
      <trkpt lat="49.02203" lon="1.14292">
        <ele>63.8</ele>
        <time>2015-12-20T07:52:59Z</time>
      </trkpt>
      <trkpt lat="49.02204" lon="1.14312">
        <ele>63.6</ele>
        <time>2015-12-20T07:53:02Z</time>
      </trkpt>
      <trkpt lat="49.02205" lon="1.14326">
        <ele>63.5</ele>
        <time>2015-12-20T07:53:04Z</time>
      </trkpt>
      <trkpt lat="49.02206" lon="1.14347">
        <ele>63.4</ele>
        <time>2015-12-20T07:53:07Z</time>
      </trkpt>
      <trkpt lat="49.02207" lon="1.14367">
        <ele>63.2</ele>
        <time>2015-12-20T07:53:10Z</time>
      </trkpt>
      <trkpt lat="49.02208" lon="1.14381">
        <ele>63.1</ele>
        <time>2015-12-20T07:53:12Z</time>
      </trkpt>
      <trkpt lat="49.02208" lon="1.14395">
        <ele>63</ele>
        <time>2015-12-20T07:53:14Z</time>
      </trkpt>
      <trkpt lat="49.0221" lon="1.14415">
        <ele>62.9</ele>
        <time>2015-12-20T07:53:17Z</time>
      </trkpt>
      <trkpt lat="49.0221" lon="1.14429">
        <ele>62.8</ele>
        <time>2015-12-20T07:53:19Z</time>
      </trkpt>
      <trkpt lat="49.02211" lon="1.14443">
        <ele>62.7</ele>
        <time>2015-12-20T07:53:21Z</time>
      </trkpt>
      <trkpt lat="49.02212" lon="1.14463">
        <ele>62.6</ele>
        <time>2015-12-20T07:53:24Z</time>
      </trkpt>
      <trkpt lat="49.02213" lon="1.14477">
        <ele>62.6</ele>
        <time>2015-12-20T07:53:26Z</time>
      </trkpt>
      <trkpt lat="49.02213" lon="1.14491">
        <ele>62.5</ele>
        <time>2015-12-20T07:53:28Z</time>
      </trkpt>
      <trkpt lat="49.02214" lon="1.14505">
        <ele>62.5</ele>
        <time>2015-12-20T07:53:30Z</time>
      </trkpt>
      <trkpt lat="49.02215" lon="1.14519">
        <ele>62.4</ele>
        <time>2015-12-20T07:53:32Z</time>
      </trkpt>
      <trkpt lat="49.02216" lon="1.14533">
        <ele>62.4</ele>
        <time>2015-12-20T07:53:34Z</time>
      </trkpt>
      <trkpt lat="49.02216" lon="1.14553">
        <ele>62.3</ele>
        <time>2015-12-20T07:53:37Z</time>
      </trkpt>
      <trkpt lat="49.02217" lon="1.14573">
        <ele>62.3</ele>
        <time>2015-12-20T07:53:40Z</time>
      </trkpt>
      <trkpt lat="49.02218" lon="1.14593">
        <ele>62.3</ele>
        <time>2015-12-20T07:53:43Z</time>
      </trkpt>
      <trkpt lat="49.02219" lon="1.14613">
        <ele>62.2</ele>
        <time>2015-12-20T07:53:46Z</time>
      </trkpt>
      <trkpt lat="49.0222" lon="1.14633">
        <ele>62.2</ele>
        <time>2015-12-20T07:53:49Z</time>
      </trkpt>
      <trkpt lat="49.02221" lon="1.14652">
        <ele>62.1</ele>
        <time>2015-12-20T07:53:52Z</time>
      </trkpt>
      <trkpt lat="49.02222" lon="1.14672">
        <ele>62.1</ele>
        <time>2015-12-20T07:53:55Z</time>
      </trkpt>
      <trkpt lat="49.02223" lon="1.1469">
        <ele>62.1</ele>
        <time>2015-12-20T07:53:58Z</time>
      </trkpt>
      <trkpt lat="49.02224" lon="1.14708">
        <ele>62.1</ele>
        <time>2015-12-20T07:54:01Z</time>
      </trkpt>
      <trkpt lat="49.02225" lon="1.14722">
        <ele>62</ele>
        <time>2015-12-20T07:54:04Z</time>
      </trkpt>
      <trkpt lat="49.02236" lon="1.14719">
        <ele>62</ele>
        <time>2015-12-20T07:54:11Z</time>
      </trkpt>
      <trkpt lat="49.02246" lon="1.14717">
        <ele>62</ele>
        <time>2015-12-20T07:54:14Z</time>
      </trkpt>
      <trkpt lat="49.02257" lon="1.14714">
        <ele>62</ele>
        <time>2015-12-20T07:54:17Z</time>
      </trkpt>
      <trkpt lat="49.02268" lon="1.14713">
        <ele>62</ele>
        <time>2015-12-20T07:54:20Z</time>
      </trkpt>
      <trkpt lat="49.02279" lon="1.1471">
        <ele>62</ele>
        <time>2015-12-20T07:54:23Z</time>
      </trkpt>
      <trkpt lat="49.02291" lon="1.14708">
        <ele>62</ele>
        <time>2015-12-20T07:54:26Z</time>
      </trkpt>
      <trkpt lat="49.02301" lon="1.14705">
        <ele>62.1</ele>
        <time>2015-12-20T07:54:29Z</time>
      </trkpt>
      <trkpt lat="49.02313" lon="1.14703">
        <ele>62.3</ele>
        <time>2015-12-20T07:54:32Z</time>
      </trkpt>
      <trkpt lat="49.02325" lon="1.14701">
        <ele>62.4</ele>
        <time>2015-12-20T07:54:35Z</time>
      </trkpt>
      <trkpt lat="49.02337" lon="1.14698">
        <ele>62.5</ele>
        <time>2015-12-20T07:54:38Z</time>
      </trkpt>
      <trkpt lat="49.02349" lon="1.14696">
        <ele>62.5</ele>
        <time>2015-12-20T07:54:41Z</time>
      </trkpt>
      <trkpt lat="49.02358" lon="1.14691">
        <ele>62.6</ele>
        <time>2015-12-20T07:54:44Z</time>
      </trkpt>
      <trkpt lat="49.0237" lon="1.14689">
        <ele>62.6</ele>
        <time>2015-12-20T07:54:47Z</time>
      </trkpt>
      <trkpt lat="49.02379" lon="1.14686">
        <ele>62.7</ele>
        <time>2015-12-20T07:54:50Z</time>
      </trkpt>
      <trkpt lat="49.02387" lon="1.14699">
        <ele>62.7</ele>
        <time>2015-12-20T07:54:54Z</time>
      </trkpt>
      <trkpt lat="49.02389" lon="1.14714">
        <ele>62.7</ele>
        <time>2015-12-20T07:54:57Z</time>
      </trkpt>
      <trkpt lat="49.02391" lon="1.1473">
        <ele>62.7</ele>
        <time>2015-12-20T07:55:00Z</time>
      </trkpt>
      <trkpt lat="49.02394" lon="1.14745">
        <ele>62.6</ele>
        <time>2015-12-20T07:55:03Z</time>
      </trkpt>
      <trkpt lat="49.02387" lon="1.14754">
        <ele>62.6</ele>
        <time>2015-12-20T07:55:09Z</time>
      </trkpt>
      <trkpt lat="49.02378" lon="1.14764">
        <ele>62.6</ele>
        <time>2015-12-20T07:55:13Z</time>
      </trkpt>
      <trkpt lat="49.02368" lon="1.14769">
        <ele>62.6</ele>
        <time>2015-12-20T07:55:16Z</time>
      </trkpt>
      <trkpt lat="49.02357" lon="1.14773">
        <ele>62.6</ele>
        <time>2015-12-20T07:55:19Z</time>
      </trkpt>
      <trkpt lat="49.02347" lon="1.14779">
        <ele>62.6</ele>
        <time>2015-12-20T07:55:22Z</time>
      </trkpt>
      <trkpt lat="49.02335" lon="1.14783">
        <ele>62.6</ele>
        <time>2015-12-20T07:55:25Z</time>
      </trkpt>
      <trkpt lat="49.02324" lon="1.14788">
        <ele>62.6</ele>
        <time>2015-12-20T07:55:28Z</time>
      </trkpt>
      <trkpt lat="49.02314" lon="1.14794">
        <ele>62.6</ele>
        <time>2015-12-20T07:55:31Z</time>
      </trkpt>
      <trkpt lat="49.02312" lon="1.14812">
        <ele>62.5</ele>
        <time>2015-12-20T07:55:37Z</time>
      </trkpt>
      <trkpt lat="49.02314" lon="1.14829">
        <ele>62.5</ele>
        <time>2015-12-20T07:55:40Z</time>
      </trkpt>
      <trkpt lat="49.02318" lon="1.14841">
        <ele>62.5</ele>
        <time>2015-12-20T07:55:44Z</time>
      </trkpt>
      <trkpt lat="49.02321" lon="1.14858">
        <ele>62.5</ele>
        <time>2015-12-20T07:55:48Z</time>
      </trkpt>
      <trkpt lat="49.02324" lon="1.14875">
        <ele>62.5</ele>
        <time>2015-12-20T07:55:51Z</time>
      </trkpt>
      <trkpt lat="49.02327" lon="1.1489">
        <ele>62.5</ele>
        <time>2015-12-20T07:55:54Z</time>
      </trkpt>
      <trkpt lat="49.02332" lon="1.14903">
        <ele>62.5</ele>
        <time>2015-12-20T07:55:57Z</time>
      </trkpt>
      <trkpt lat="49.02338" lon="1.14916">
        <ele>62.5</ele>
        <time>2015-12-20T07:56:00Z</time>
      </trkpt>
      <trkpt lat="49.02344" lon="1.1493">
        <ele>62.5</ele>
        <time>2015-12-20T07:56:04Z</time>
      </trkpt>
      <trkpt lat="49.02349" lon="1.14942">
        <ele>62.5</ele>
        <time>2015-12-20T07:56:07Z</time>
      </trkpt>
      <trkpt lat="49.02355" lon="1.14954">
        <ele>62.5</ele>
        <time>2015-12-20T07:56:10Z</time>
      </trkpt>
      <trkpt lat="49.02365" lon="1.14963">
        <ele>62.5</ele>
        <time>2015-12-20T07:56:13Z</time>
      </trkpt>
      <trkpt lat="49.02376" lon="1.14968">
        <ele>62.5</ele>
        <time>2015-12-20T07:56:16Z</time>
      </trkpt>
      <trkpt lat="49.02387" lon="1.14968">
        <ele>62.5</ele>
        <time>2015-12-20T07:56:19Z</time>
      </trkpt>
      <trkpt lat="49.02398" lon="1.14963">
        <ele>62.5</ele>
        <time>2015-12-20T07:56:22Z</time>
      </trkpt>
      <trkpt lat="49.02409" lon="1.14957">
        <ele>62.5</ele>
        <time>2015-12-20T07:56:25Z</time>
      </trkpt>
      <trkpt lat="49.02419" lon="1.14951">
        <ele>62.5</ele>
        <time>2015-12-20T07:56:28Z</time>
      </trkpt>
      <trkpt lat="49.02428" lon="1.14947">
        <ele>62.5</ele>
        <time>2015-12-20T07:56:31Z</time>
      </trkpt>
      <trkpt lat="49.02438" lon="1.14942">
        <ele>62.5</ele>
        <time>2015-12-20T07:56:34Z</time>
      </trkpt>
      <trkpt lat="49.0245" lon="1.14937">
        <ele>62.5</ele>
        <time>2015-12-20T07:56:37Z</time>
      </trkpt>
      <trkpt lat="49.02462" lon="1.1493">
        <ele>62.5</ele>
        <time>2015-12-20T07:56:40Z</time>
      </trkpt>
      <trkpt lat="49.02473" lon="1.14923">
        <ele>62.5</ele>
        <time>2015-12-20T07:56:43Z</time>
      </trkpt>
      <trkpt lat="49.02486" lon="1.14915">
        <ele>62.5</ele>
        <time>2015-12-20T07:56:46Z</time>
      </trkpt>
      <trkpt lat="49.02498" lon="1.14907">
        <ele>62.5</ele>
        <time>2015-12-20T07:56:49Z</time>
      </trkpt>
      <trkpt lat="49.02506" lon="1.14901">
        <ele>62.5</ele>
        <time>2015-12-20T07:56:51Z</time>
      </trkpt>
      <trkpt lat="49.02515" lon="1.14896">
        <ele>62.5</ele>
        <time>2015-12-20T07:56:53Z</time>
      </trkpt>
      <trkpt lat="49.02523" lon="1.1489">
        <ele>62.5</ele>
        <time>2015-12-20T07:56:55Z</time>
      </trkpt>
      <trkpt lat="49.02531" lon="1.14884">
        <ele>62.5</ele>
        <time>2015-12-20T07:56:57Z</time>
      </trkpt>
      <trkpt lat="49.0254" lon="1.14878">
        <ele>62.4</ele>
        <time>2015-12-20T07:56:59Z</time>
      </trkpt>
      <trkpt lat="49.02551" lon="1.1487">
        <ele>62.4</ele>
        <time>2015-12-20T07:57:02Z</time>
      </trkpt>
      <trkpt lat="49.02563" lon="1.14861">
        <ele>62.3</ele>
        <time>2015-12-20T07:57:05Z</time>
      </trkpt>
      <trkpt lat="49.02576" lon="1.14855">
        <ele>62.3</ele>
        <time>2015-12-20T07:57:08Z</time>
      </trkpt>
      <trkpt lat="49.02588" lon="1.1485">
        <ele>62.3</ele>
        <time>2015-12-20T07:57:11Z</time>
      </trkpt>
      <trkpt lat="49.026" lon="1.1485">
        <ele>62.3</ele>
        <time>2015-12-20T07:57:14Z</time>
      </trkpt>
      <trkpt lat="49.0261" lon="1.14852">
        <ele>62.3</ele>
        <time>2015-12-20T07:57:18Z</time>
      </trkpt>
      <trkpt lat="49.02619" lon="1.14857">
        <ele>62.2</ele>
        <time>2015-12-20T07:57:22Z</time>
      </trkpt>
      <trkpt lat="49.02631" lon="1.14861">
        <ele>62.2</ele>
        <time>2015-12-20T07:57:25Z</time>
      </trkpt>
      <trkpt lat="49.02641" lon="1.14872">
        <ele>62.2</ele>
        <time>2015-12-20T07:57:28Z</time>
      </trkpt>
      <trkpt lat="49.02649" lon="1.14888">
        <ele>62.2</ele>
        <time>2015-12-20T07:57:31Z</time>
      </trkpt>
      <trkpt lat="49.02655" lon="1.14899">
        <ele>62</ele>
        <time>2015-12-20T07:57:35Z</time>
      </trkpt>
      <trkpt lat="49.02662" lon="1.14909">
        <ele>61.7</ele>
        <time>2015-12-20T07:57:40Z</time>
      </trkpt>
      <trkpt lat="49.0267" lon="1.14919">
        <ele>61.6</ele>
        <time>2015-12-20T07:57:44Z</time>
      </trkpt>
      <trkpt lat="49.02678" lon="1.14926">
        <ele>61.5</ele>
        <time>2015-12-20T07:57:49Z</time>
      </trkpt>
      <trkpt lat="49.02687" lon="1.1492">
        <ele>61.4</ele>
        <time>2015-12-20T07:57:54Z</time>
      </trkpt>
      <trkpt lat="49.02696" lon="1.14913">
        <ele>61.3</ele>
        <time>2015-12-20T07:57:59Z</time>
      </trkpt>
      <trkpt lat="49.02705" lon="1.14905">
        <ele>61.3</ele>
        <time>2015-12-20T07:58:04Z</time>
      </trkpt>
      <trkpt lat="49.02714" lon="1.14896">
        <ele>61.2</ele>
        <time>2015-12-20T07:58:08Z</time>
      </trkpt>
      <trkpt lat="49.02723" lon="1.14891">
        <ele>61.2</ele>
        <time>2015-12-20T07:58:11Z</time>
      </trkpt>
      <trkpt lat="49.02729" lon="1.14879">
        <ele>61.2</ele>
        <time>2015-12-20T07:58:14Z</time>
      </trkpt>
      <trkpt lat="49.02737" lon="1.14868">
        <ele>61.2</ele>
        <time>2015-12-20T07:58:17Z</time>
      </trkpt>
      <trkpt lat="49.02736" lon="1.14852">
        <ele>61.1</ele>
        <time>2015-12-20T07:58:20Z</time>
      </trkpt>
      <trkpt lat="49.02732" lon="1.14836">
        <ele>61.1</ele>
        <time>2015-12-20T07:58:23Z</time>
      </trkpt>
      <trkpt lat="49.02726" lon="1.1482">
        <ele>61.1</ele>
        <time>2015-12-20T07:58:26Z</time>
      </trkpt>
      <trkpt lat="49.02721" lon="1.14805">
        <ele>61</ele>
        <time>2015-12-20T07:58:29Z</time>
      </trkpt>
      <trkpt lat="49.02726" lon="1.14791">
        <ele>60.9</ele>
        <time>2015-12-20T07:58:32Z</time>
      </trkpt>
      <trkpt lat="49.02732" lon="1.14778">
        <ele>60.8</ele>
        <time>2015-12-20T07:58:35Z</time>
      </trkpt>
      <trkpt lat="49.02739" lon="1.14769">
        <ele>60.8</ele>
        <time>2015-12-20T07:58:38Z</time>
      </trkpt>
      <trkpt lat="49.0275" lon="1.14761">
        <ele>60.7</ele>
        <time>2015-12-20T07:58:42Z</time>
      </trkpt>
      <trkpt lat="49.02759" lon="1.14754">
        <ele>60.7</ele>
        <time>2015-12-20T07:58:45Z</time>
      </trkpt>
      <trkpt lat="49.02766" lon="1.14744">
        <ele>60.6</ele>
        <time>2015-12-20T07:58:49Z</time>
      </trkpt>
      <trkpt lat="49.02765" lon="1.1473">
        <ele>60.5</ele>
        <time>2015-12-20T07:58:55Z</time>
      </trkpt>
      <trkpt lat="49.02758" lon="1.14721">
        <ele>60.4</ele>
        <time>2015-12-20T07:59:00Z</time>
      </trkpt>
      <trkpt lat="49.02763" lon="1.14709">
        <ele>60.2</ele>
        <time>2015-12-20T07:59:08Z</time>
      </trkpt>
      <trkpt lat="49.0277" lon="1.14702">
        <ele>60.2</ele>
        <time>2015-12-20T07:59:11Z</time>
      </trkpt>
      <trkpt lat="49.0278" lon="1.14694">
        <ele>60.2</ele>
        <time>2015-12-20T07:59:14Z</time>
      </trkpt>
      <trkpt lat="49.02789" lon="1.14686">
        <ele>60.1</ele>
        <time>2015-12-20T07:59:17Z</time>
      </trkpt>
      <trkpt lat="49.02798" lon="1.14678">
        <ele>60.1</ele>
        <time>2015-12-20T07:59:20Z</time>
      </trkpt>
      <trkpt lat="49.02807" lon="1.14671">
        <ele>60.1</ele>
        <time>2015-12-20T07:59:23Z</time>
      </trkpt>
      <trkpt lat="49.02817" lon="1.14667">
        <ele>60.1</ele>
        <time>2015-12-20T07:59:27Z</time>
      </trkpt>
      <trkpt lat="49.02825" lon="1.14657">
        <ele>60.1</ele>
        <time>2015-12-20T07:59:30Z</time>
      </trkpt>
      <trkpt lat="49.02828" lon="1.14643">
        <ele>60.1</ele>
        <time>2015-12-20T07:59:33Z</time>
      </trkpt>
      <trkpt lat="49.02835" lon="1.14634">
        <ele>60.1</ele>
        <time>2015-12-20T07:59:36Z</time>
      </trkpt>
      <trkpt lat="49.02845" lon="1.14627">
        <ele>60.1</ele>
        <time>2015-12-20T07:59:39Z</time>
      </trkpt>
      <trkpt lat="49.02856" lon="1.14622">
        <ele>60</ele>
        <time>2015-12-20T07:59:42Z</time>
      </trkpt>
      <trkpt lat="49.02867" lon="1.14627">
        <ele>60</ele>
        <time>2015-12-20T07:59:45Z</time>
      </trkpt>
      <trkpt lat="49.0287" lon="1.14644">
        <ele>60</ele>
        <time>2015-12-20T07:59:48Z</time>
      </trkpt>
      <trkpt lat="49.02876" lon="1.14661">
        <ele>60</ele>
        <time>2015-12-20T07:59:51Z</time>
      </trkpt>
      <trkpt lat="49.02884" lon="1.14676">
        <ele>60</ele>
        <time>2015-12-20T07:59:54Z</time>
      </trkpt>
      <trkpt lat="49.02891" lon="1.1469">
        <ele>60</ele>
        <time>2015-12-20T07:59:57Z</time>
      </trkpt>
      <trkpt lat="49.02898" lon="1.14701">
        <ele>59.9</ele>
        <time>2015-12-20T08:00:00Z</time>
      </trkpt>
      <trkpt lat="49.02909" lon="1.14711">
        <ele>59.8</ele>
        <time>2015-12-20T08:00:03Z</time>
      </trkpt>
      <trkpt lat="49.02917" lon="1.1472">
        <ele>59.7</ele>
        <time>2015-12-20T08:00:06Z</time>
      </trkpt>
      <trkpt lat="49.02927" lon="1.14728">
        <ele>59.6</ele>
        <time>2015-12-20T08:00:09Z</time>
      </trkpt>
      <trkpt lat="49.02936" lon="1.14733">
        <ele>59.6</ele>
        <time>2015-12-20T08:00:11Z</time>
      </trkpt>
      <trkpt lat="49.02945" lon="1.14738">
        <ele>59.5</ele>
        <time>2015-12-20T08:00:13Z</time>
      </trkpt>
      <trkpt lat="49.02954" lon="1.14741">
        <ele>59.5</ele>
        <time>2015-12-20T08:00:15Z</time>
      </trkpt>
      <trkpt lat="49.02963" lon="1.14744">
        <ele>59.5</ele>
        <time>2015-12-20T08:00:17Z</time>
      </trkpt>
      <trkpt lat="49.02974" lon="1.14749">
        <ele>59.4</ele>
        <time>2015-12-20T08:00:20Z</time>
      </trkpt>
      <trkpt lat="49.02982" lon="1.14757">
        <ele>59.4</ele>
        <time>2015-12-20T08:00:23Z</time>
      </trkpt>
      <trkpt lat="49.02989" lon="1.14769">
        <ele>59.4</ele>
        <time>2015-12-20T08:00:26Z</time>
      </trkpt>
      <trkpt lat="49.02997" lon="1.14783">
        <ele>59.4</ele>
        <time>2015-12-20T08:00:29Z</time>
      </trkpt>
      <trkpt lat="49.03003" lon="1.14794">
        <ele>59.4</ele>
        <time>2015-12-20T08:00:31Z</time>
      </trkpt>
      <trkpt lat="49.0301" lon="1.14809">
        <ele>59.3</ele>
        <time>2015-12-20T08:00:34Z</time>
      </trkpt>
      <trkpt lat="49.03019" lon="1.14824">
        <ele>59.3</ele>
        <time>2015-12-20T08:00:37Z</time>
      </trkpt>
      <trkpt lat="49.03029" lon="1.14832">
        <ele>59.3</ele>
        <time>2015-12-20T08:00:40Z</time>
      </trkpt>
      <trkpt lat="49.0304" lon="1.14823">
        <ele>59.2</ele>
        <time>2015-12-20T08:00:43Z</time>
      </trkpt>
      <trkpt lat="49.0305" lon="1.14815">
        <ele>59.2</ele>
        <time>2015-12-20T08:00:46Z</time>
      </trkpt>
      <trkpt lat="49.03059" lon="1.14824">
        <ele>59.2</ele>
        <time>2015-12-20T08:00:50Z</time>
      </trkpt>
      <trkpt lat="49.03065" lon="1.14839">
        <ele>59.1</ele>
        <time>2015-12-20T08:00:53Z</time>
      </trkpt>
      <trkpt lat="49.03072" lon="1.14855">
        <ele>59.1</ele>
        <time>2015-12-20T08:00:56Z</time>
      </trkpt>
      <trkpt lat="49.03078" lon="1.14872">
        <ele>59.1</ele>
        <time>2015-12-20T08:00:59Z</time>
      </trkpt>
      <trkpt lat="49.03084" lon="1.14883">
        <ele>59</ele>
        <time>2015-12-20T08:01:01Z</time>
      </trkpt>
      <trkpt lat="49.0309" lon="1.14894">
        <ele>59</ele>
        <time>2015-12-20T08:01:03Z</time>
      </trkpt>
      <trkpt lat="49.03097" lon="1.14911">
        <ele>59</ele>
        <time>2015-12-20T08:01:06Z</time>
      </trkpt>
      <trkpt lat="49.03103" lon="1.14922">
        <ele>59</ele>
        <time>2015-12-20T08:01:08Z</time>
      </trkpt>
      <trkpt lat="49.0311" lon="1.14939">
        <ele>59.1</ele>
        <time>2015-12-20T08:01:11Z</time>
      </trkpt>
      <trkpt lat="49.03115" lon="1.14951">
        <ele>59.1</ele>
        <time>2015-12-20T08:01:13Z</time>
      </trkpt>
      <trkpt lat="49.0312" lon="1.14963">
        <ele>59.1</ele>
        <time>2015-12-20T08:01:15Z</time>
      </trkpt>
      <trkpt lat="49.03125" lon="1.14974">
        <ele>59.1</ele>
        <time>2015-12-20T08:01:17Z</time>
      </trkpt>
      <trkpt lat="49.0313" lon="1.14987">
        <ele>59.1</ele>
        <time>2015-12-20T08:01:19Z</time>
      </trkpt>
      <trkpt lat="49.03135" lon="1.15">
        <ele>59.1</ele>
        <time>2015-12-20T08:01:21Z</time>
      </trkpt>
      <trkpt lat="49.0314" lon="1.15012">
        <ele>59.1</ele>
        <time>2015-12-20T08:01:23Z</time>
      </trkpt>
      <trkpt lat="49.03145" lon="1.15024">
        <ele>59.1</ele>
        <time>2015-12-20T08:01:25Z</time>
      </trkpt>
      <trkpt lat="49.03151" lon="1.15037">
        <ele>59.1</ele>
        <time>2015-12-20T08:01:27Z</time>
      </trkpt>
      <trkpt lat="49.03157" lon="1.1505">
        <ele>59.1</ele>
        <time>2015-12-20T08:01:29Z</time>
      </trkpt>
      <trkpt lat="49.03162" lon="1.15062">
        <ele>59.2</ele>
        <time>2015-12-20T08:01:31Z</time>
      </trkpt>
      <trkpt lat="49.03168" lon="1.15075">
        <ele>59.2</ele>
        <time>2015-12-20T08:01:33Z</time>
      </trkpt>
      <trkpt lat="49.03174" lon="1.15087">
        <ele>59.2</ele>
        <time>2015-12-20T08:01:35Z</time>
      </trkpt>
      <trkpt lat="49.03179" lon="1.15099">
        <ele>59.2</ele>
        <time>2015-12-20T08:01:37Z</time>
      </trkpt>
      <trkpt lat="49.03185" lon="1.15111">
        <ele>59.2</ele>
        <time>2015-12-20T08:01:39Z</time>
      </trkpt>
      <trkpt lat="49.0319" lon="1.15123">
        <ele>59.2</ele>
        <time>2015-12-20T08:01:41Z</time>
      </trkpt>
      <trkpt lat="49.03195" lon="1.15135">
        <ele>59.2</ele>
        <time>2015-12-20T08:01:43Z</time>
      </trkpt>
      <trkpt lat="49.032" lon="1.15147">
        <ele>59.2</ele>
        <time>2015-12-20T08:01:45Z</time>
      </trkpt>
      <trkpt lat="49.03206" lon="1.15159">
        <ele>59.2</ele>
        <time>2015-12-20T08:01:47Z</time>
      </trkpt>
      <trkpt lat="49.03211" lon="1.15171">
        <ele>59.2</ele>
        <time>2015-12-20T08:01:49Z</time>
      </trkpt>
      <trkpt lat="49.03217" lon="1.15183">
        <ele>59.2</ele>
        <time>2015-12-20T08:01:51Z</time>
      </trkpt>
      <trkpt lat="49.03222" lon="1.15194">
        <ele>59.2</ele>
        <time>2015-12-20T08:01:53Z</time>
      </trkpt>
      <trkpt lat="49.03227" lon="1.15206">
        <ele>59.2</ele>
        <time>2015-12-20T08:01:55Z</time>
      </trkpt>
      <trkpt lat="49.03233" lon="1.15218">
        <ele>59.2</ele>
        <time>2015-12-20T08:01:57Z</time>
      </trkpt>
      <trkpt lat="49.03238" lon="1.1523">
        <ele>59.2</ele>
        <time>2015-12-20T08:01:59Z</time>
      </trkpt>
      <trkpt lat="49.03243" lon="1.15242">
        <ele>59.2</ele>
        <time>2015-12-20T08:02:01Z</time>
      </trkpt>
      <trkpt lat="49.03249" lon="1.15254">
        <ele>59.2</ele>
        <time>2015-12-20T08:02:03Z</time>
      </trkpt>
      <trkpt lat="49.03254" lon="1.15266">
        <ele>59.2</ele>
        <time>2015-12-20T08:02:05Z</time>
      </trkpt>
      <trkpt lat="49.03259" lon="1.15278">
        <ele>59.2</ele>
        <time>2015-12-20T08:02:07Z</time>
      </trkpt>
      <trkpt lat="49.03264" lon="1.1529">
        <ele>59.2</ele>
        <time>2015-12-20T08:02:09Z</time>
      </trkpt>
      <trkpt lat="49.0327" lon="1.15302">
        <ele>59.2</ele>
        <time>2015-12-20T08:02:11Z</time>
      </trkpt>
      <trkpt lat="49.03276" lon="1.15314">
        <ele>59.2</ele>
        <time>2015-12-20T08:02:13Z</time>
      </trkpt>
      <trkpt lat="49.03281" lon="1.15326">
        <ele>59.2</ele>
        <time>2015-12-20T08:02:15Z</time>
      </trkpt>
      <trkpt lat="49.03286" lon="1.15338">
        <ele>59.2</ele>
        <time>2015-12-20T08:02:17Z</time>
      </trkpt>
      <trkpt lat="49.03292" lon="1.1535">
        <ele>59.2</ele>
        <time>2015-12-20T08:02:19Z</time>
      </trkpt>
      <trkpt lat="49.03298" lon="1.15362">
        <ele>59.2</ele>
        <time>2015-12-20T08:02:21Z</time>
      </trkpt>
      <trkpt lat="49.03303" lon="1.15375">
        <ele>59.2</ele>
        <time>2015-12-20T08:02:23Z</time>
      </trkpt>
      <trkpt lat="49.03309" lon="1.15388">
        <ele>59.2</ele>
        <time>2015-12-20T08:02:25Z</time>
      </trkpt>
      <trkpt lat="49.03315" lon="1.15401">
        <ele>59.1</ele>
        <time>2015-12-20T08:02:27Z</time>
      </trkpt>
      <trkpt lat="49.03319" lon="1.15415">
        <ele>59.1</ele>
        <time>2015-12-20T08:02:29Z</time>
      </trkpt>
      <trkpt lat="49.0332" lon="1.15429">
        <ele>59</ele>
        <time>2015-12-20T08:02:31Z</time>
      </trkpt>
      <trkpt lat="49.03319" lon="1.15444">
        <ele>59</ele>
        <time>2015-12-20T08:02:33Z</time>
      </trkpt>
      <trkpt lat="49.03318" lon="1.15458">
        <ele>58.9</ele>
        <time>2015-12-20T08:02:35Z</time>
      </trkpt>
      <trkpt lat="49.03316" lon="1.15472">
        <ele>58.8</ele>
        <time>2015-12-20T08:02:37Z</time>
      </trkpt>
      <trkpt lat="49.03314" lon="1.15486">
        <ele>58.7</ele>
        <time>2015-12-20T08:02:39Z</time>
      </trkpt>
      <trkpt lat="49.03313" lon="1.15499">
        <ele>58.6</ele>
        <time>2015-12-20T08:02:41Z</time>
      </trkpt>
      <trkpt lat="49.0331" lon="1.15519">
        <ele>58.5</ele>
        <time>2015-12-20T08:02:44Z</time>
      </trkpt>
      <trkpt lat="49.03309" lon="1.15535">
        <ele>58.4</ele>
        <time>2015-12-20T08:02:47Z</time>
      </trkpt>
      <trkpt lat="49.03306" lon="1.15551">
        <ele>58.3</ele>
        <time>2015-12-20T08:02:51Z</time>
      </trkpt>
      <trkpt lat="49.03295" lon="1.15549">
        <ele>58.2</ele>
        <time>2015-12-20T08:02:55Z</time>
      </trkpt>
      <trkpt lat="49.03284" lon="1.15549">
        <ele>58.2</ele>
        <time>2015-12-20T08:02:58Z</time>
      </trkpt>
      <trkpt lat="49.03282" lon="1.15563">
        <ele>58.1</ele>
        <time>2015-12-20T08:03:01Z</time>
      </trkpt>
      <trkpt lat="49.03291" lon="1.15569">
        <ele>58.1</ele>
        <time>2015-12-20T08:03:04Z</time>
      </trkpt>
      <trkpt lat="49.03301" lon="1.15566">
        <ele>58</ele>
        <time>2015-12-20T08:03:07Z</time>
      </trkpt>
      <trkpt lat="49.03312" lon="1.15564">
        <ele>58</ele>
        <time>2015-12-20T08:03:10Z</time>
      </trkpt>
      <trkpt lat="49.03324" lon="1.15566">
        <ele>58</ele>
        <time>2015-12-20T08:03:13Z</time>
      </trkpt>
      <trkpt lat="49.03337" lon="1.15569">
        <ele>58</ele>
        <time>2015-12-20T08:03:16Z</time>
      </trkpt>
      <trkpt lat="49.03349" lon="1.15571">
        <ele>57.9</ele>
        <time>2015-12-20T08:03:19Z</time>
      </trkpt>
      <trkpt lat="49.0336" lon="1.1557">
        <ele>57.9</ele>
        <time>2015-12-20T08:03:22Z</time>
      </trkpt>
      <trkpt lat="49.03371" lon="1.15566">
        <ele>57.8</ele>
        <time>2015-12-20T08:03:25Z</time>
      </trkpt>
      <trkpt lat="49.03381" lon="1.15562">
        <ele>57.7</ele>
        <time>2015-12-20T08:03:28Z</time>
      </trkpt>
      <trkpt lat="49.0339" lon="1.15559">
        <ele>57.6</ele>
        <time>2015-12-20T08:03:31Z</time>
      </trkpt>
      <trkpt lat="49.03399" lon="1.15558">
        <ele>57.4</ele>
        <time>2015-12-20T08:03:34Z</time>
      </trkpt>
      <trkpt lat="49.03409" lon="1.15555">
        <ele>57.2</ele>
        <time>2015-12-20T08:03:37Z</time>
      </trkpt>
      <trkpt lat="49.0342" lon="1.15554">
        <ele>57.1</ele>
        <time>2015-12-20T08:03:41Z</time>
      </trkpt>
      <trkpt lat="49.03431" lon="1.15552">
        <ele>57</ele>
        <time>2015-12-20T08:03:45Z</time>
      </trkpt>
      <trkpt lat="49.0344" lon="1.15549">
        <ele>56.9</ele>
        <time>2015-12-20T08:03:49Z</time>
      </trkpt>
      <trkpt lat="49.03451" lon="1.15545">
        <ele>57.4</ele>
        <time>2015-12-20T08:04:50Z</time>
      </trkpt>
      <trkpt lat="49.0346" lon="1.15547">
        <ele>57.4</ele>
        <time>2015-12-20T08:04:54Z</time>
      </trkpt>
      <trkpt lat="49.03468" lon="1.15535">
        <ele>57.5</ele>
        <time>2015-12-20T08:04:57Z</time>
      </trkpt>
      <trkpt lat="49.03471" lon="1.15519">
        <ele>57.6</ele>
        <time>2015-12-20T08:05:00Z</time>
      </trkpt>
      <trkpt lat="49.03473" lon="1.15504">
        <ele>57.8</ele>
        <time>2015-12-20T08:05:03Z</time>
      </trkpt>
      <trkpt lat="49.03472" lon="1.15487">
        <ele>58.1</ele>
        <time>2015-12-20T08:05:07Z</time>
      </trkpt>
      <trkpt lat="49.03469" lon="1.15471">
        <ele>58.5</ele>
        <time>2015-12-20T08:05:11Z</time>
      </trkpt>
      <trkpt lat="49.03464" lon="1.15457">
        <ele>58.9</ele>
        <time>2015-12-20T08:05:15Z</time>
      </trkpt>
      <trkpt lat="49.03459" lon="1.15443">
        <ele>59.4</ele>
        <time>2015-12-20T08:05:19Z</time>
      </trkpt>
      <trkpt lat="49.03453" lon="1.15428">
        <ele>60</ele>
        <time>2015-12-20T08:05:23Z</time>
      </trkpt>
      <trkpt lat="49.03448" lon="1.15413">
        <ele>60.5</ele>
        <time>2015-12-20T08:05:27Z</time>
      </trkpt>
      <trkpt lat="49.03443" lon="1.15399">
        <ele>61.1</ele>
        <time>2015-12-20T08:05:31Z</time>
      </trkpt>
      <trkpt lat="49.03437" lon="1.15384">
        <ele>61.7</ele>
        <time>2015-12-20T08:05:35Z</time>
      </trkpt>
      <trkpt lat="49.03431" lon="1.15369">
        <ele>62.4</ele>
        <time>2015-12-20T08:05:39Z</time>
      </trkpt>
      <trkpt lat="49.03426" lon="1.15354">
        <ele>63.1</ele>
        <time>2015-12-20T08:05:43Z</time>
      </trkpt>
      <trkpt lat="49.03421" lon="1.15339">
        <ele>63.9</ele>
        <time>2015-12-20T08:05:47Z</time>
      </trkpt>
      <trkpt lat="49.03416" lon="1.15324">
        <ele>64.7</ele>
        <time>2015-12-20T08:05:51Z</time>
      </trkpt>
      <trkpt lat="49.03412" lon="1.15308">
        <ele>65.4</ele>
        <time>2015-12-20T08:05:55Z</time>
      </trkpt>
      <trkpt lat="49.0341" lon="1.15292">
        <ele>66.1</ele>
        <time>2015-12-20T08:05:59Z</time>
      </trkpt>
      <trkpt lat="49.03408" lon="1.15276">
        <ele>66.8</ele>
        <time>2015-12-20T08:06:03Z</time>
      </trkpt>
      <trkpt lat="49.03407" lon="1.1526">
        <ele>67.6</ele>
        <time>2015-12-20T08:06:07Z</time>
      </trkpt>
      <trkpt lat="49.03406" lon="1.15244">
        <ele>68.2</ele>
        <time>2015-12-20T08:06:11Z</time>
      </trkpt>
      <trkpt lat="49.03406" lon="1.15229">
        <ele>69</ele>
        <time>2015-12-20T08:06:15Z</time>
      </trkpt>
      <trkpt lat="49.03407" lon="1.15214">
        <ele>69.7</ele>
        <time>2015-12-20T08:06:19Z</time>
      </trkpt>
      <trkpt lat="49.03408" lon="1.15197">
        <ele>70.4</ele>
        <time>2015-12-20T08:06:23Z</time>
      </trkpt>
      <trkpt lat="49.03409" lon="1.1518">
        <ele>71.1</ele>
        <time>2015-12-20T08:06:27Z</time>
      </trkpt>
      <trkpt lat="49.0341" lon="1.15165">
        <ele>71.9</ele>
        <time>2015-12-20T08:06:31Z</time>
      </trkpt>
      <trkpt lat="49.03411" lon="1.15148">
        <ele>72.6</ele>
        <time>2015-12-20T08:06:35Z</time>
      </trkpt>
      <trkpt lat="49.03412" lon="1.15132">
        <ele>73.5</ele>
        <time>2015-12-20T08:06:39Z</time>
      </trkpt>
      <trkpt lat="49.03413" lon="1.15115">
        <ele>74.2</ele>
        <time>2015-12-20T08:06:43Z</time>
      </trkpt>
      <trkpt lat="49.03415" lon="1.15098">
        <ele>74.9</ele>
        <time>2015-12-20T08:06:47Z</time>
      </trkpt>
      <trkpt lat="49.03417" lon="1.15082">
        <ele>75.7</ele>
        <time>2015-12-20T08:06:51Z</time>
      </trkpt>
      <trkpt lat="49.03419" lon="1.15066">
        <ele>76.5</ele>
        <time>2015-12-20T08:06:55Z</time>
      </trkpt>
      <trkpt lat="49.0342" lon="1.1505">
        <ele>77.2</ele>
        <time>2015-12-20T08:06:59Z</time>
      </trkpt>
      <trkpt lat="49.03414" lon="1.15037">
        <ele>78.1</ele>
        <time>2015-12-20T08:07:04Z</time>
      </trkpt>
      <trkpt lat="49.03404" lon="1.15034">
        <ele>78.9</ele>
        <time>2015-12-20T08:07:08Z</time>
      </trkpt>
      <trkpt lat="49.03396" lon="1.15042">
        <ele>79.9</ele>
        <time>2015-12-20T08:07:13Z</time>
      </trkpt>
      <trkpt lat="49.03388" lon="1.15049">
        <ele>80.7</ele>
        <time>2015-12-20T08:07:17Z</time>
      </trkpt>
      <trkpt lat="49.03379" lon="1.15058">
        <ele>81.5</ele>
        <time>2015-12-20T08:07:22Z</time>
      </trkpt>
      <trkpt lat="49.03371" lon="1.15068">
        <ele>82.3</ele>
        <time>2015-12-20T08:07:27Z</time>
      </trkpt>
      <trkpt lat="49.03363" lon="1.15077">
        <ele>83.2</ele>
        <time>2015-12-20T08:07:32Z</time>
      </trkpt>
      <trkpt lat="49.03358" lon="1.15089">
        <ele>84</ele>
        <time>2015-12-20T08:07:37Z</time>
      </trkpt>
      <trkpt lat="49.03355" lon="1.15104">
        <ele>84.9</ele>
        <time>2015-12-20T08:07:42Z</time>
      </trkpt>
      <trkpt lat="49.03352" lon="1.15118">
        <ele>85.6</ele>
        <time>2015-12-20T08:07:46Z</time>
      </trkpt>
      <trkpt lat="49.0335" lon="1.15134">
        <ele>86.4</ele>
        <time>2015-12-20T08:07:50Z</time>
      </trkpt>
      <trkpt lat="49.03351" lon="1.1515">
        <ele>87.1</ele>
        <time>2015-12-20T08:07:54Z</time>
      </trkpt>
      <trkpt lat="49.03352" lon="1.15164">
        <ele>87.5</ele>
        <time>2015-12-20T08:07:57Z</time>
      </trkpt>
      <trkpt lat="49.03351" lon="1.15181">
        <ele>87.9</ele>
        <time>2015-12-20T08:08:00Z</time>
      </trkpt>
      <trkpt lat="49.03348" lon="1.15195">
        <ele>88.2</ele>
        <time>2015-12-20T08:08:03Z</time>
      </trkpt>
      <trkpt lat="49.03341" lon="1.15203">
        <ele>88.4</ele>
        <time>2015-12-20T08:08:06Z</time>
      </trkpt>
      <trkpt lat="49.03329" lon="1.15205">
        <ele>88.6</ele>
        <time>2015-12-20T08:08:09Z</time>
      </trkpt>
      <trkpt lat="49.03319" lon="1.15198">
        <ele>88.7</ele>
        <time>2015-12-20T08:08:12Z</time>
      </trkpt>
      <trkpt lat="49.03311" lon="1.15189">
        <ele>88.8</ele>
        <time>2015-12-20T08:08:15Z</time>
      </trkpt>
      <trkpt lat="49.03306" lon="1.15178">
        <ele>88.8</ele>
        <time>2015-12-20T08:08:18Z</time>
      </trkpt>
      <trkpt lat="49.03302" lon="1.15162">
        <ele>88.9</ele>
        <time>2015-12-20T08:08:22Z</time>
      </trkpt>
      <trkpt lat="49.03297" lon="1.15147">
        <ele>89</ele>
        <time>2015-12-20T08:08:26Z</time>
      </trkpt>
      <trkpt lat="49.03293" lon="1.15134">
        <ele>89.5</ele>
        <time>2015-12-20T08:08:30Z</time>
      </trkpt>
      <trkpt lat="49.03288" lon="1.15119">
        <ele>90.4</ele>
        <time>2015-12-20T08:08:35Z</time>
      </trkpt>
      <trkpt lat="49.03283" lon="1.15104">
        <ele>91.6</ele>
        <time>2015-12-20T08:08:40Z</time>
      </trkpt>
      <trkpt lat="49.03278" lon="1.15089">
        <ele>92.8</ele>
        <time>2015-12-20T08:08:45Z</time>
      </trkpt>
      <trkpt lat="49.03273" lon="1.15077">
        <ele>93.7</ele>
        <time>2015-12-20T08:08:49Z</time>
      </trkpt>
      <trkpt lat="49.03268" lon="1.15063">
        <ele>94.6</ele>
        <time>2015-12-20T08:08:53Z</time>
      </trkpt>
      <trkpt lat="49.03263" lon="1.15051">
        <ele>95.1</ele>
        <time>2015-12-20T08:08:56Z</time>
      </trkpt>
      <trkpt lat="49.03258" lon="1.15039">
        <ele>95.6</ele>
        <time>2015-12-20T08:08:59Z</time>
      </trkpt>
      <trkpt lat="49.03254" lon="1.15026">
        <ele>95.9</ele>
        <time>2015-12-20T08:09:02Z</time>
      </trkpt>
      <trkpt lat="49.03249" lon="1.15014">
        <ele>96.3</ele>
        <time>2015-12-20T08:09:05Z</time>
      </trkpt>
      <trkpt lat="49.03244" lon="1.14999">
        <ele>96.7</ele>
        <time>2015-12-20T08:09:09Z</time>
      </trkpt>
      <trkpt lat="49.03238" lon="1.14983">
        <ele>97.2</ele>
        <time>2015-12-20T08:09:13Z</time>
      </trkpt>
      <trkpt lat="49.03233" lon="1.14971">
        <ele>97.5</ele>
        <time>2015-12-20T08:09:16Z</time>
      </trkpt>
      <trkpt lat="49.03229" lon="1.14958">
        <ele>97.8</ele>
        <time>2015-12-20T08:09:19Z</time>
      </trkpt>
      <trkpt lat="49.03224" lon="1.14946">
        <ele>98.1</ele>
        <time>2015-12-20T08:09:22Z</time>
      </trkpt>
      <trkpt lat="49.03218" lon="1.14932">
        <ele>98.8</ele>
        <time>2015-12-20T08:09:26Z</time>
      </trkpt>
      <trkpt lat="49.03212" lon="1.14919">
        <ele>99.5</ele>
        <time>2015-12-20T08:09:30Z</time>
      </trkpt>
      <trkpt lat="49.03207" lon="1.14906">
        <ele>100.3</ele>
        <time>2015-12-20T08:09:34Z</time>
      </trkpt>
      <trkpt lat="49.03201" lon="1.14892">
        <ele>101.1</ele>
        <time>2015-12-20T08:09:38Z</time>
      </trkpt>
      <trkpt lat="49.03196" lon="1.14877">
        <ele>102.1</ele>
        <time>2015-12-20T08:09:42Z</time>
      </trkpt>
      <trkpt lat="49.03192" lon="1.14862">
        <ele>102.9</ele>
        <time>2015-12-20T08:09:46Z</time>
      </trkpt>
      <trkpt lat="49.03188" lon="1.14847">
        <ele>103.6</ele>
        <time>2015-12-20T08:09:50Z</time>
      </trkpt>
      <trkpt lat="49.03185" lon="1.14832">
        <ele>104.4</ele>
        <time>2015-12-20T08:09:54Z</time>
      </trkpt>
      <trkpt lat="49.03182" lon="1.14815">
        <ele>105.2</ele>
        <time>2015-12-20T08:09:58Z</time>
      </trkpt>
      <trkpt lat="49.03178" lon="1.148">
        <ele>105.9</ele>
        <time>2015-12-20T08:10:02Z</time>
      </trkpt>
      <trkpt lat="49.03175" lon="1.14784">
        <ele>106.6</ele>
        <time>2015-12-20T08:10:06Z</time>
      </trkpt>
      <trkpt lat="49.03171" lon="1.14769">
        <ele>107.3</ele>
        <time>2015-12-20T08:10:10Z</time>
      </trkpt>
      <trkpt lat="49.03167" lon="1.14754">
        <ele>108.2</ele>
        <time>2015-12-20T08:10:15Z</time>
      </trkpt>
      <trkpt lat="49.03162" lon="1.14742">
        <ele>108.9</ele>
        <time>2015-12-20T08:10:20Z</time>
      </trkpt>
      <trkpt lat="49.03154" lon="1.14728">
        <ele>109.2</ele>
        <time>2015-12-20T08:10:24Z</time>
      </trkpt>
      <trkpt lat="49.03145" lon="1.14713">
        <ele>109</ele>
        <time>2015-12-20T08:10:27Z</time>
      </trkpt>
      <trkpt lat="49.03138" lon="1.14699">
        <ele>108.8</ele>
        <time>2015-12-20T08:10:29Z</time>
      </trkpt>
      <trkpt lat="49.03129" lon="1.14684">
        <ele>108.4</ele>
        <time>2015-12-20T08:10:31Z</time>
      </trkpt>
      <trkpt lat="49.03121" lon="1.1467">
        <ele>107.8</ele>
        <time>2015-12-20T08:10:33Z</time>
      </trkpt>
      <trkpt lat="49.03113" lon="1.14656">
        <ele>107.3</ele>
        <time>2015-12-20T08:10:35Z</time>
      </trkpt>
      <trkpt lat="49.03106" lon="1.14644">
        <ele>106.5</ele>
        <time>2015-12-20T08:10:37Z</time>
      </trkpt>
      <trkpt lat="49.031" lon="1.14633">
        <ele>105.6</ele>
        <time>2015-12-20T08:10:39Z</time>
      </trkpt>
      <trkpt lat="49.03093" lon="1.14621">
        <ele>104</ele>
        <time>2015-12-20T08:10:43Z</time>
      </trkpt>
      <trkpt lat="49.03087" lon="1.14612">
        <ele>99</ele>
        <time>2015-12-20T08:11:00Z</time>
      </trkpt>
      <trkpt lat="49.03083" lon="1.14597">
        <ele>97.8</ele>
        <time>2015-12-20T08:11:07Z</time>
      </trkpt>
      <trkpt lat="49.03082" lon="1.14583">
        <ele>96.7</ele>
        <time>2015-12-20T08:11:19Z</time>
      </trkpt>
      <trkpt lat="49.03081" lon="1.14569">
        <ele>97</ele>
        <time>2015-12-20T08:11:31Z</time>
      </trkpt>
      <trkpt lat="49.03082" lon="1.14555">
        <ele>98.1</ele>
        <time>2015-12-20T08:11:41Z</time>
      </trkpt>
      <trkpt lat="49.03084" lon="1.14541">
        <ele>99.9</ele>
        <time>2015-12-20T08:11:53Z</time>
      </trkpt>
      <trkpt lat="49.03089" lon="1.14529">
        <ele>102.1</ele>
        <time>2015-12-20T08:12:04Z</time>
      </trkpt>
      <trkpt lat="49.03095" lon="1.14517">
        <ele>105</ele>
        <time>2015-12-20T08:12:17Z</time>
      </trkpt>
      <trkpt lat="49.031" lon="1.14505">
        <ele>107.3</ele>
        <time>2015-12-20T08:12:29Z</time>
      </trkpt>
      <trkpt lat="49.03099" lon="1.14491">
        <ele>110.4</ele>
        <time>2015-12-20T08:14:40Z</time>
      </trkpt>
      <trkpt lat="49.03092" lon="1.14475">
        <ele>110.3</ele>
        <time>2015-12-20T08:14:44Z</time>
      </trkpt>
      <trkpt lat="49.03086" lon="1.14463">
        <ele>110.2</ele>
        <time>2015-12-20T08:14:46Z</time>
      </trkpt>
      <trkpt lat="49.0308" lon="1.14448">
        <ele>109.9</ele>
        <time>2015-12-20T08:14:48Z</time>
      </trkpt>
      <trkpt lat="49.03075" lon="1.14432">
        <ele>109.6</ele>
        <time>2015-12-20T08:14:50Z</time>
      </trkpt>
      <trkpt lat="49.03071" lon="1.14414">
        <ele>109.1</ele>
        <time>2015-12-20T08:14:52Z</time>
      </trkpt>
      <trkpt lat="49.03067" lon="1.14397">
        <ele>108.7</ele>
        <time>2015-12-20T08:14:54Z</time>
      </trkpt>
      <trkpt lat="49.03063" lon="1.14381">
        <ele>108.4</ele>
        <time>2015-12-20T08:14:56Z</time>
      </trkpt>
      <trkpt lat="49.03059" lon="1.14366">
        <ele>108.1</ele>
        <time>2015-12-20T08:14:58Z</time>
      </trkpt>
      <trkpt lat="49.03056" lon="1.14352">
        <ele>107.9</ele>
        <time>2015-12-20T08:15:00Z</time>
      </trkpt>
      <trkpt lat="49.03053" lon="1.14337">
        <ele>107.7</ele>
        <time>2015-12-20T08:15:02Z</time>
      </trkpt>
      <trkpt lat="49.03049" lon="1.14324">
        <ele>107.6</ele>
        <time>2015-12-20T08:15:04Z</time>
      </trkpt>
      <trkpt lat="49.03046" lon="1.14311">
        <ele>107.5</ele>
        <time>2015-12-20T08:15:06Z</time>
      </trkpt>
      <trkpt lat="49.0304" lon="1.14293">
        <ele>107.5</ele>
        <time>2015-12-20T08:15:09Z</time>
      </trkpt>
      <trkpt lat="49.03036" lon="1.14277">
        <ele>107.6</ele>
        <time>2015-12-20T08:15:12Z</time>
      </trkpt>
      <trkpt lat="49.03033" lon="1.14264">
        <ele>107.9</ele>
        <time>2015-12-20T08:15:15Z</time>
      </trkpt>
      <trkpt lat="49.0303" lon="1.14251">
        <ele>108.2</ele>
        <time>2015-12-20T08:15:18Z</time>
      </trkpt>
      <trkpt lat="49.03027" lon="1.14238">
        <ele>108.6</ele>
        <time>2015-12-20T08:15:21Z</time>
      </trkpt>
      <trkpt lat="49.03023" lon="1.14224">
        <ele>109</ele>
        <time>2015-12-20T08:15:24Z</time>
      </trkpt>
      <trkpt lat="49.0302" lon="1.1421">
        <ele>109.5</ele>
        <time>2015-12-20T08:15:27Z</time>
      </trkpt>
      <trkpt lat="49.03015" lon="1.14194">
        <ele>109.9</ele>
        <time>2015-12-20T08:15:30Z</time>
      </trkpt>
      <trkpt lat="49.03012" lon="1.1418">
        <ele>110.3</ele>
        <time>2015-12-20T08:15:33Z</time>
      </trkpt>
      <trkpt lat="49.03008" lon="1.14165">
        <ele>110.7</ele>
        <time>2015-12-20T08:15:36Z</time>
      </trkpt>
      <trkpt lat="49.03004" lon="1.14151">
        <ele>111</ele>
        <time>2015-12-20T08:15:39Z</time>
      </trkpt>
      <trkpt lat="49.03" lon="1.14136">
        <ele>111.3</ele>
        <time>2015-12-20T08:15:42Z</time>
      </trkpt>
      <trkpt lat="49.02996" lon="1.1412">
        <ele>111.6</ele>
        <time>2015-12-20T08:15:45Z</time>
      </trkpt>
      <trkpt lat="49.02991" lon="1.14104">
        <ele>111.9</ele>
        <time>2015-12-20T08:15:48Z</time>
      </trkpt>
      <trkpt lat="49.02986" lon="1.14088">
        <ele>112.2</ele>
        <time>2015-12-20T08:15:51Z</time>
      </trkpt>
      <trkpt lat="49.02982" lon="1.14074">
        <ele>112.5</ele>
        <time>2015-12-20T08:15:54Z</time>
      </trkpt>
      <trkpt lat="49.02978" lon="1.1406">
        <ele>112.8</ele>
        <time>2015-12-20T08:15:57Z</time>
      </trkpt>
      <trkpt lat="49.02976" lon="1.14046">
        <ele>113.1</ele>
        <time>2015-12-20T08:16:00Z</time>
      </trkpt>
      <trkpt lat="49.0298" lon="1.14031">
        <ele>114</ele>
        <time>2015-12-20T08:16:05Z</time>
      </trkpt>
      <trkpt lat="49.02974" lon="1.14016">
        <ele>114.7</ele>
        <time>2015-12-20T08:16:09Z</time>
      </trkpt>
      <trkpt lat="49.02969" lon="1.14004">
        <ele>115.2</ele>
        <time>2015-12-20T08:16:12Z</time>
      </trkpt>
      <trkpt lat="49.02963" lon="1.1399">
        <ele>115.6</ele>
        <time>2015-12-20T08:16:15Z</time>
      </trkpt>
      <trkpt lat="49.02957" lon="1.13977">
        <ele>116</ele>
        <time>2015-12-20T08:16:18Z</time>
      </trkpt>
      <trkpt lat="49.02955" lon="1.1396">
        <ele>116.5</ele>
        <time>2015-12-20T08:16:22Z</time>
      </trkpt>
      <trkpt lat="49.02951" lon="1.13945">
        <ele>116.7</ele>
        <time>2015-12-20T08:16:25Z</time>
      </trkpt>
      <trkpt lat="49.02947" lon="1.13931">
        <ele>117</ele>
        <time>2015-12-20T08:16:28Z</time>
      </trkpt>
      <trkpt lat="49.02944" lon="1.13914">
        <ele>117.2</ele>
        <time>2015-12-20T08:16:31Z</time>
      </trkpt>
      <trkpt lat="49.02941" lon="1.13896">
        <ele>117.4</ele>
        <time>2015-12-20T08:16:34Z</time>
      </trkpt>
      <trkpt lat="49.02939" lon="1.13879">
        <ele>117.5</ele>
        <time>2015-12-20T08:16:37Z</time>
      </trkpt>
      <trkpt lat="49.02937" lon="1.13858">
        <ele>117.7</ele>
        <time>2015-12-20T08:16:40Z</time>
      </trkpt>
      <trkpt lat="49.02937" lon="1.13844">
        <ele>117.7</ele>
        <time>2015-12-20T08:16:42Z</time>
      </trkpt>
      <trkpt lat="49.02937" lon="1.1383">
        <ele>117.8</ele>
        <time>2015-12-20T08:16:44Z</time>
      </trkpt>
      <trkpt lat="49.02937" lon="1.13816">
        <ele>117.8</ele>
        <time>2015-12-20T08:16:46Z</time>
      </trkpt>
      <trkpt lat="49.02939" lon="1.13797">
        <ele>117.9</ele>
        <time>2015-12-20T08:16:49Z</time>
      </trkpt>
      <trkpt lat="49.02943" lon="1.13778">
        <ele>117.9</ele>
        <time>2015-12-20T08:16:52Z</time>
      </trkpt>
      <trkpt lat="49.02946" lon="1.13758">
        <ele>117.9</ele>
        <time>2015-12-20T08:16:55Z</time>
      </trkpt>
      <trkpt lat="49.02951" lon="1.13742">
        <ele>117.9</ele>
        <time>2015-12-20T08:16:58Z</time>
      </trkpt>
      <trkpt lat="49.02957" lon="1.13726">
        <ele>117.9</ele>
        <time>2015-12-20T08:17:01Z</time>
      </trkpt>
      <trkpt lat="49.02964" lon="1.13712">
        <ele>117.8</ele>
        <time>2015-12-20T08:17:04Z</time>
      </trkpt>
      <trkpt lat="49.02973" lon="1.13696">
        <ele>117.8</ele>
        <time>2015-12-20T08:17:07Z</time>
      </trkpt>
      <trkpt lat="49.02979" lon="1.13685">
        <ele>117.8</ele>
        <time>2015-12-20T08:17:09Z</time>
      </trkpt>
      <trkpt lat="49.02989" lon="1.13674">
        <ele>117.7</ele>
        <time>2015-12-20T08:17:12Z</time>
      </trkpt>
      <trkpt lat="49.02998" lon="1.13664">
        <ele>117.7</ele>
        <time>2015-12-20T08:17:15Z</time>
      </trkpt>
      <trkpt lat="49.03007" lon="1.13656">
        <ele>117.9</ele>
        <time>2015-12-20T08:17:18Z</time>
      </trkpt>
      <trkpt lat="49.03016" lon="1.13648">
        <ele>118.1</ele>
        <time>2015-12-20T08:17:21Z</time>
      </trkpt>
      <trkpt lat="49.03025" lon="1.13641">
        <ele>118.5</ele>
        <time>2015-12-20T08:17:24Z</time>
      </trkpt>
      <trkpt lat="49.03033" lon="1.13634">
        <ele>118.9</ele>
        <time>2015-12-20T08:17:27Z</time>
      </trkpt>
      <trkpt lat="49.03035" lon="1.13619">
        <ele>119.5</ele>
        <time>2015-12-20T08:17:31Z</time>
      </trkpt>
      <trkpt lat="49.03033" lon="1.13601">
        <ele>120</ele>
        <time>2015-12-20T08:17:35Z</time>
      </trkpt>
      <trkpt lat="49.03032" lon="1.13584">
        <ele>120.4</ele>
        <time>2015-12-20T08:17:38Z</time>
      </trkpt>
      <trkpt lat="49.03032" lon="1.13568">
        <ele>120.7</ele>
        <time>2015-12-20T08:17:41Z</time>
      </trkpt>
      <trkpt lat="49.03031" lon="1.13553">
        <ele>121</ele>
        <time>2015-12-20T08:17:44Z</time>
      </trkpt>
      <trkpt lat="49.03025" lon="1.1354">
        <ele>121.3</ele>
        <time>2015-12-20T08:17:47Z</time>
      </trkpt>
      <trkpt lat="49.03015" lon="1.13534">
        <ele>121.5</ele>
        <time>2015-12-20T08:17:50Z</time>
      </trkpt>
      <trkpt lat="49.03003" lon="1.13531">
        <ele>121.7</ele>
        <time>2015-12-20T08:17:53Z</time>
      </trkpt>
      <trkpt lat="49.02992" lon="1.13529">
        <ele>121.8</ele>
        <time>2015-12-20T08:17:56Z</time>
      </trkpt>
      <trkpt lat="49.0298" lon="1.13531">
        <ele>121.9</ele>
        <time>2015-12-20T08:17:59Z</time>
      </trkpt>
      <trkpt lat="49.0297" lon="1.13534">
        <ele>122</ele>
        <time>2015-12-20T08:18:02Z</time>
      </trkpt>
      <trkpt lat="49.02958" lon="1.13537">
        <ele>122.1</ele>
        <time>2015-12-20T08:18:05Z</time>
      </trkpt>
      <trkpt lat="49.02946" lon="1.13541">
        <ele>122.2</ele>
        <time>2015-12-20T08:18:08Z</time>
      </trkpt>
      <trkpt lat="49.02933" lon="1.13545">
        <ele>122.2</ele>
        <time>2015-12-20T08:18:11Z</time>
      </trkpt>
      <trkpt lat="49.02922" lon="1.13538">
        <ele>122.3</ele>
        <time>2015-12-20T08:18:14Z</time>
      </trkpt>
      <trkpt lat="49.02913" lon="1.13521">
        <ele>122.3</ele>
        <time>2015-12-20T08:18:17Z</time>
      </trkpt>
      <trkpt lat="49.02908" lon="1.13511">
        <ele>122.3</ele>
        <time>2015-12-20T08:18:19Z</time>
      </trkpt>
      <trkpt lat="49.02902" lon="1.135">
        <ele>122.2</ele>
        <time>2015-12-20T08:18:21Z</time>
      </trkpt>
      <trkpt lat="49.02895" lon="1.13491">
        <ele>122.2</ele>
        <time>2015-12-20T08:18:23Z</time>
      </trkpt>
      <trkpt lat="49.02887" lon="1.13483">
        <ele>122.2</ele>
        <time>2015-12-20T08:18:25Z</time>
      </trkpt>
      <trkpt lat="49.0288" lon="1.13474">
        <ele>122.2</ele>
        <time>2015-12-20T08:18:27Z</time>
      </trkpt>
      <trkpt lat="49.02872" lon="1.13467">
        <ele>122.2</ele>
        <time>2015-12-20T08:18:29Z</time>
      </trkpt>
      <trkpt lat="49.0286" lon="1.13458">
        <ele>122</ele>
        <time>2015-12-20T08:18:32Z</time>
      </trkpt>
      <trkpt lat="49.0285" lon="1.1345">
        <ele>121.9</ele>
        <time>2015-12-20T08:18:35Z</time>
      </trkpt>
      <trkpt lat="49.02841" lon="1.13439">
        <ele>121.9</ele>
        <time>2015-12-20T08:18:38Z</time>
      </trkpt>
      <trkpt lat="49.02834" lon="1.13427">
        <ele>121.8</ele>
        <time>2015-12-20T08:18:41Z</time>
      </trkpt>
      <trkpt lat="49.0283" lon="1.13411">
        <ele>121.7</ele>
        <time>2015-12-20T08:18:44Z</time>
      </trkpt>
      <trkpt lat="49.02831" lon="1.13395">
        <ele>121.7</ele>
        <time>2015-12-20T08:18:47Z</time>
      </trkpt>
      <trkpt lat="49.02837" lon="1.13381">
        <ele>121.6</ele>
        <time>2015-12-20T08:18:50Z</time>
      </trkpt>
      <trkpt lat="49.02843" lon="1.1337">
        <ele>121.6</ele>
        <time>2015-12-20T08:18:53Z</time>
      </trkpt>
      <trkpt lat="49.02852" lon="1.1336">
        <ele>121.6</ele>
        <time>2015-12-20T08:18:56Z</time>
      </trkpt>
      <trkpt lat="49.02861" lon="1.13349">
        <ele>121.6</ele>
        <time>2015-12-20T08:18:59Z</time>
      </trkpt>
      <trkpt lat="49.02871" lon="1.13338">
        <ele>121.5</ele>
        <time>2015-12-20T08:19:02Z</time>
      </trkpt>
      <trkpt lat="49.02881" lon="1.13328">
        <ele>121.5</ele>
        <time>2015-12-20T08:19:05Z</time>
      </trkpt>
      <trkpt lat="49.02888" lon="1.13319">
        <ele>121.5</ele>
        <time>2015-12-20T08:19:07Z</time>
      </trkpt>
      <trkpt lat="49.02898" lon="1.13307">
        <ele>121.5</ele>
        <time>2015-12-20T08:19:10Z</time>
      </trkpt>
      <trkpt lat="49.02903" lon="1.13296">
        <ele>121.5</ele>
        <time>2015-12-20T08:19:12Z</time>
      </trkpt>
      <trkpt lat="49.02908" lon="1.13278">
        <ele>121.5</ele>
        <time>2015-12-20T08:19:15Z</time>
      </trkpt>
      <trkpt lat="49.02908" lon="1.13258">
        <ele>121.5</ele>
        <time>2015-12-20T08:19:18Z</time>
      </trkpt>
      <trkpt lat="49.02908" lon="1.1324">
        <ele>121.5</ele>
        <time>2015-12-20T08:19:21Z</time>
      </trkpt>
      <trkpt lat="49.02907" lon="1.13221">
        <ele>121.5</ele>
        <time>2015-12-20T08:19:24Z</time>
      </trkpt>
      <trkpt lat="49.02904" lon="1.13201">
        <ele>121.5</ele>
        <time>2015-12-20T08:19:27Z</time>
      </trkpt>
      <trkpt lat="49.02901" lon="1.13183">
        <ele>121.5</ele>
        <time>2015-12-20T08:19:30Z</time>
      </trkpt>
      <trkpt lat="49.02897" lon="1.13164">
        <ele>121.5</ele>
        <time>2015-12-20T08:19:33Z</time>
      </trkpt>
      <trkpt lat="49.02893" lon="1.13146">
        <ele>121.5</ele>
        <time>2015-12-20T08:19:36Z</time>
      </trkpt>
      <trkpt lat="49.0289" lon="1.13131">
        <ele>121.6</ele>
        <time>2015-12-20T08:19:39Z</time>
      </trkpt>
      <trkpt lat="49.02886" lon="1.13116">
        <ele>121.8</ele>
        <time>2015-12-20T08:19:42Z</time>
      </trkpt>
      <trkpt lat="49.02883" lon="1.131">
        <ele>121.9</ele>
        <time>2015-12-20T08:19:45Z</time>
      </trkpt>
      <trkpt lat="49.02879" lon="1.13087">
        <ele>122</ele>
        <time>2015-12-20T08:19:48Z</time>
      </trkpt>
      <trkpt lat="49.02875" lon="1.1307">
        <ele>122.1</ele>
        <time>2015-12-20T08:19:51Z</time>
      </trkpt>
      <trkpt lat="49.02868" lon="1.13055">
        <ele>122.2</ele>
        <time>2015-12-20T08:19:54Z</time>
      </trkpt>
      <trkpt lat="49.02856" lon="1.13052">
        <ele>122.4</ele>
        <time>2015-12-20T08:19:57Z</time>
      </trkpt>
      <trkpt lat="49.02842" lon="1.13053">
        <ele>122.6</ele>
        <time>2015-12-20T08:20:00Z</time>
      </trkpt>
      <trkpt lat="49.02829" lon="1.13053">
        <ele>122.8</ele>
        <time>2015-12-20T08:20:03Z</time>
      </trkpt>
      <trkpt lat="49.02816" lon="1.13053">
        <ele>123</ele>
        <time>2015-12-20T08:20:06Z</time>
      </trkpt>
      <trkpt lat="49.02806" lon="1.13063">
        <ele>123.1</ele>
        <time>2015-12-20T08:20:09Z</time>
      </trkpt>
      <trkpt lat="49.02798" lon="1.1308">
        <ele>123.3</ele>
        <time>2015-12-20T08:20:12Z</time>
      </trkpt>
      <trkpt lat="49.02796" lon="1.13099">
        <ele>123.4</ele>
        <time>2015-12-20T08:20:15Z</time>
      </trkpt>
      <trkpt lat="49.02798" lon="1.13119">
        <ele>123.5</ele>
        <time>2015-12-20T08:20:18Z</time>
      </trkpt>
      <trkpt lat="49.02797" lon="1.13132">
        <ele>123.5</ele>
        <time>2015-12-20T08:20:20Z</time>
      </trkpt>
      <trkpt lat="49.0279" lon="1.13149">
        <ele>123.6</ele>
        <time>2015-12-20T08:20:23Z</time>
      </trkpt>
      <trkpt lat="49.0278" lon="1.13154">
        <ele>123.6</ele>
        <time>2015-12-20T08:20:25Z</time>
      </trkpt>
      <trkpt lat="49.0277" lon="1.13156">
        <ele>123.6</ele>
        <time>2015-12-20T08:20:27Z</time>
      </trkpt>
      <trkpt lat="49.0276" lon="1.13159">
        <ele>123.5</ele>
        <time>2015-12-20T08:20:29Z</time>
      </trkpt>
      <trkpt lat="49.0275" lon="1.13161">
        <ele>123.4</ele>
        <time>2015-12-20T08:20:31Z</time>
      </trkpt>
      <trkpt lat="49.0274" lon="1.13161">
        <ele>123.4</ele>
        <time>2015-12-20T08:20:33Z</time>
      </trkpt>
      <trkpt lat="49.02732" lon="1.13173">
        <ele>123.1</ele>
        <time>2015-12-20T08:20:36Z</time>
      </trkpt>
      <trkpt lat="49.02725" lon="1.13183">
        <ele>122.9</ele>
        <time>2015-12-20T08:20:39Z</time>
      </trkpt>
      <trkpt lat="49.02712" lon="1.13189">
        <ele>122.6</ele>
        <time>2015-12-20T08:20:42Z</time>
      </trkpt>
      <trkpt lat="49.02703" lon="1.13194">
        <ele>122.4</ele>
        <time>2015-12-20T08:20:44Z</time>
      </trkpt>
      <trkpt lat="49.02694" lon="1.13199">
        <ele>122.2</ele>
        <time>2015-12-20T08:20:46Z</time>
      </trkpt>
      <trkpt lat="49.02685" lon="1.13202">
        <ele>121.8</ele>
        <time>2015-12-20T08:20:48Z</time>
      </trkpt>
      <trkpt lat="49.02676" lon="1.13206">
        <ele>121.2</ele>
        <time>2015-12-20T08:20:50Z</time>
      </trkpt>
      <trkpt lat="49.02667" lon="1.13211">
        <ele>119.8</ele>
        <time>2015-12-20T08:20:54Z</time>
      </trkpt>
      <trkpt lat="49.02658" lon="1.132">
        <ele>116.8</ele>
        <time>2015-12-20T08:21:03Z</time>
      </trkpt>
      <trkpt lat="49.02653" lon="1.13188">
        <ele>116.1</ele>
        <time>2015-12-20T08:21:05Z</time>
      </trkpt>
      <trkpt lat="49.02648" lon="1.13175">
        <ele>115.5</ele>
        <time>2015-12-20T08:21:07Z</time>
      </trkpt>
      <trkpt lat="49.02642" lon="1.13158">
        <ele>114.6</ele>
        <time>2015-12-20T08:21:10Z</time>
      </trkpt>
      <trkpt lat="49.02633" lon="1.13143">
        <ele>113.5</ele>
        <time>2015-12-20T08:21:13Z</time>
      </trkpt>
      <trkpt lat="49.02624" lon="1.13128">
        <ele>112.8</ele>
        <time>2015-12-20T08:21:15Z</time>
      </trkpt>
      <trkpt lat="49.02613" lon="1.13109">
        <ele>111.7</ele>
        <time>2015-12-20T08:21:17Z</time>
      </trkpt>
      <trkpt lat="49.02605" lon="1.13086">
        <ele>110.6</ele>
        <time>2015-12-20T08:21:19Z</time>
      </trkpt>
      <trkpt lat="49.02595" lon="1.13071">
        <ele>109.4</ele>
        <time>2015-12-20T08:21:21Z</time>
      </trkpt>
      <trkpt lat="49.02585" lon="1.13054">
        <ele>108</ele>
        <time>2015-12-20T08:21:23Z</time>
      </trkpt>
      <trkpt lat="49.0258" lon="1.13032">
        <ele>106.5</ele>
        <time>2015-12-20T08:21:25Z</time>
      </trkpt>
      <trkpt lat="49.02578" lon="1.13008">
        <ele>105.1</ele>
        <time>2015-12-20T08:21:27Z</time>
      </trkpt>
      <trkpt lat="49.02579" lon="1.12986">
        <ele>103.8</ele>
        <time>2015-12-20T08:21:29Z</time>
      </trkpt>
      <trkpt lat="49.02582" lon="1.12971">
        <ele>102.7</ele>
        <time>2015-12-20T08:21:31Z</time>
      </trkpt>
      <trkpt lat="49.02581" lon="1.12954">
        <ele>101.7</ele>
        <time>2015-12-20T08:21:33Z</time>
      </trkpt>
      <trkpt lat="49.02577" lon="1.12933">
        <ele>100.8</ele>
        <time>2015-12-20T08:21:35Z</time>
      </trkpt>
      <trkpt lat="49.02572" lon="1.12914">
        <ele>100</ele>
        <time>2015-12-20T08:21:37Z</time>
      </trkpt>
      <trkpt lat="49.02568" lon="1.12893">
        <ele>99.3</ele>
        <time>2015-12-20T08:21:39Z</time>
      </trkpt>
      <trkpt lat="49.02564" lon="1.12873">
        <ele>98.7</ele>
        <time>2015-12-20T08:21:41Z</time>
      </trkpt>
      <trkpt lat="49.02561" lon="1.12855">
        <ele>98.1</ele>
        <time>2015-12-20T08:21:43Z</time>
      </trkpt>
      <trkpt lat="49.02557" lon="1.12837">
        <ele>97.5</ele>
        <time>2015-12-20T08:21:45Z</time>
      </trkpt>
      <trkpt lat="49.02555" lon="1.1282">
        <ele>96.9</ele>
        <time>2015-12-20T08:21:47Z</time>
      </trkpt>
      <trkpt lat="49.02553" lon="1.12803">
        <ele>96.5</ele>
        <time>2015-12-20T08:21:49Z</time>
      </trkpt>
      <trkpt lat="49.02551" lon="1.12786">
        <ele>96.1</ele>
        <time>2015-12-20T08:21:51Z</time>
      </trkpt>
      <trkpt lat="49.02548" lon="1.12768">
        <ele>95.7</ele>
        <time>2015-12-20T08:21:53Z</time>
      </trkpt>
      <trkpt lat="49.02547" lon="1.12752">
        <ele>95.5</ele>
        <time>2015-12-20T08:21:55Z</time>
      </trkpt>
      <trkpt lat="49.02546" lon="1.12738">
        <ele>95.3</ele>
        <time>2015-12-20T08:21:57Z</time>
      </trkpt>
      <trkpt lat="49.02546" lon="1.12724">
        <ele>95.1</ele>
        <time>2015-12-20T08:21:59Z</time>
      </trkpt>
      <trkpt lat="49.02545" lon="1.12705">
        <ele>94.9</ele>
        <time>2015-12-20T08:22:02Z</time>
      </trkpt>
      <trkpt lat="49.02545" lon="1.12688">
        <ele>94.8</ele>
        <time>2015-12-20T08:22:05Z</time>
      </trkpt>
      <trkpt lat="49.02546" lon="1.12672">
        <ele>95</ele>
        <time>2015-12-20T08:22:09Z</time>
      </trkpt>
      <trkpt lat="49.02547" lon="1.12657">
        <ele>95.6</ele>
        <time>2015-12-20T08:22:13Z</time>
      </trkpt>
      <trkpt lat="49.02547" lon="1.12642">
        <ele>96.3</ele>
        <time>2015-12-20T08:22:17Z</time>
      </trkpt>
      <trkpt lat="49.02548" lon="1.12628">
        <ele>97.1</ele>
        <time>2015-12-20T08:22:21Z</time>
      </trkpt>
      <trkpt lat="49.02551" lon="1.12612">
        <ele>98.2</ele>
        <time>2015-12-20T08:22:26Z</time>
      </trkpt>
      <trkpt lat="49.02554" lon="1.12597">
        <ele>99.5</ele>
        <time>2015-12-20T08:22:31Z</time>
      </trkpt>
      <trkpt lat="49.0256" lon="1.12584">
        <ele>100.9</ele>
        <time>2015-12-20T08:22:36Z</time>
      </trkpt>
      <trkpt lat="49.02565" lon="1.12571">
        <ele>102.4</ele>
        <time>2015-12-20T08:22:41Z</time>
      </trkpt>
      <trkpt lat="49.02572" lon="1.12557">
        <ele>103.8</ele>
        <time>2015-12-20T08:22:46Z</time>
      </trkpt>
      <trkpt lat="49.0258" lon="1.1255">
        <ele>104.8</ele>
        <time>2015-12-20T08:22:50Z</time>
      </trkpt>
      <trkpt lat="49.0259" lon="1.1255">
        <ele>105.9</ele>
        <time>2015-12-20T08:22:54Z</time>
      </trkpt>
      <trkpt lat="49.02599" lon="1.12549">
        <ele>106.6</ele>
        <time>2015-12-20T08:22:57Z</time>
      </trkpt>
      <trkpt lat="49.02608" lon="1.1255">
        <ele>107</ele>
        <time>2015-12-20T08:22:59Z</time>
      </trkpt>
      <trkpt lat="49.02618" lon="1.12552">
        <ele>107.3</ele>
        <time>2015-12-20T08:23:01Z</time>
      </trkpt>
      <trkpt lat="49.0263" lon="1.12554">
        <ele>107.7</ele>
        <time>2015-12-20T08:23:04Z</time>
      </trkpt>
      <trkpt lat="49.0264" lon="1.12556">
        <ele>107.8</ele>
        <time>2015-12-20T08:23:06Z</time>
      </trkpt>
      <trkpt lat="49.02653" lon="1.12556">
        <ele>108</ele>
        <time>2015-12-20T08:23:09Z</time>
      </trkpt>
      <trkpt lat="49.02664" lon="1.12557">
        <ele>108.2</ele>
        <time>2015-12-20T08:23:12Z</time>
      </trkpt>
      <trkpt lat="49.02674" lon="1.12565">
        <ele>108.4</ele>
        <time>2015-12-20T08:23:16Z</time>
      </trkpt>
      <trkpt lat="49.02679" lon="1.12581">
        <ele>108.6</ele>
        <time>2015-12-20T08:23:20Z</time>
      </trkpt>
      <trkpt lat="49.02683" lon="1.12594">
        <ele>108.6</ele>
        <time>2015-12-20T08:23:23Z</time>
      </trkpt>
      <trkpt lat="49.02687" lon="1.12609">
        <ele>109</ele>
        <time>2015-12-20T08:23:27Z</time>
      </trkpt>
      <trkpt lat="49.02694" lon="1.12621">
        <ele>109.5</ele>
        <time>2015-12-20T08:23:31Z</time>
      </trkpt>
      <trkpt lat="49.02699" lon="1.12633">
        <ele>110.2</ele>
        <time>2015-12-20T08:23:35Z</time>
      </trkpt>
      <trkpt lat="49.02704" lon="1.12645">
        <ele>110.8</ele>
        <time>2015-12-20T08:23:39Z</time>
      </trkpt>
      <trkpt lat="49.02708" lon="1.12659">
        <ele>111.5</ele>
        <time>2015-12-20T08:23:44Z</time>
      </trkpt>
      <trkpt lat="49.02714" lon="1.12672">
        <ele>112</ele>
        <time>2015-12-20T08:23:48Z</time>
      </trkpt>
      <trkpt lat="49.02721" lon="1.12682">
        <ele>112.6</ele>
        <time>2015-12-20T08:23:53Z</time>
      </trkpt>
      <trkpt lat="49.02727" lon="1.12695">
        <ele>113.1</ele>
        <time>2015-12-20T08:23:58Z</time>
      </trkpt>
      <trkpt lat="49.02733" lon="1.12705">
        <ele>113.4</ele>
        <time>2015-12-20T08:24:02Z</time>
      </trkpt>
      <trkpt lat="49.0274" lon="1.12717">
        <ele>113.8</ele>
        <time>2015-12-20T08:24:06Z</time>
      </trkpt>
      <trkpt lat="49.02747" lon="1.12727">
        <ele>114.3</ele>
        <time>2015-12-20T08:24:10Z</time>
      </trkpt>
      <trkpt lat="49.02757" lon="1.12731">
        <ele>114.9</ele>
        <time>2015-12-20T08:24:15Z</time>
      </trkpt>
      <trkpt lat="49.02765" lon="1.12738">
        <ele>115.6</ele>
        <time>2015-12-20T08:24:22Z</time>
      </trkpt>
      <trkpt lat="49.02774" lon="1.12736">
        <ele>115.8</ele>
        <time>2015-12-20T08:24:25Z</time>
      </trkpt>
      <trkpt lat="49.02784" lon="1.12735">
        <ele>115.9</ele>
        <time>2015-12-20T08:24:27Z</time>
      </trkpt>
      <trkpt lat="49.02796" lon="1.12736">
        <ele>116</ele>
        <time>2015-12-20T08:24:30Z</time>
      </trkpt>
      <trkpt lat="49.02806" lon="1.12735">
        <ele>116.1</ele>
        <time>2015-12-20T08:24:33Z</time>
      </trkpt>
      <trkpt lat="49.02816" lon="1.12735">
        <ele>116.2</ele>
        <time>2015-12-20T08:24:37Z</time>
      </trkpt>
      <trkpt lat="49.02828" lon="1.12732">
        <ele>116.3</ele>
        <time>2015-12-20T08:24:41Z</time>
      </trkpt>
      <trkpt lat="49.02835" lon="1.12742">
        <ele>116.4</ele>
        <time>2015-12-20T08:24:46Z</time>
      </trkpt>
      <trkpt lat="49.02845" lon="1.12748">
        <ele>116.7</ele>
        <time>2015-12-20T08:24:52Z</time>
      </trkpt>
      <trkpt lat="49.02854" lon="1.12754">
        <ele>116.9</ele>
        <time>2015-12-20T08:24:56Z</time>
      </trkpt>
      <trkpt lat="49.02863" lon="1.12759">
        <ele>117.2</ele>
        <time>2015-12-20T08:25:01Z</time>
      </trkpt>
      <trkpt lat="49.02874" lon="1.12757">
        <ele>117.3</ele>
        <time>2015-12-20T08:25:05Z</time>
      </trkpt>
      <trkpt lat="49.02885" lon="1.12756">
        <ele>117.4</ele>
        <time>2015-12-20T08:25:08Z</time>
      </trkpt>
      <trkpt lat="49.02895" lon="1.12751">
        <ele>117.6</ele>
        <time>2015-12-20T08:25:12Z</time>
      </trkpt>
      <trkpt lat="49.02907" lon="1.12755">
        <ele>117.8</ele>
        <time>2015-12-20T08:25:15Z</time>
      </trkpt>
      <trkpt lat="49.02918" lon="1.12757">
        <ele>118.2</ele>
        <time>2015-12-20T08:25:19Z</time>
      </trkpt>
      <trkpt lat="49.02927" lon="1.12759">
        <ele>119.2</ele>
        <time>2015-12-20T08:25:25Z</time>
      </trkpt>
      <trkpt lat="49.02937" lon="1.12755">
        <ele>119.8</ele>
        <time>2015-12-20T08:25:29Z</time>
      </trkpt>
      <trkpt lat="49.02946" lon="1.12752">
        <ele>120.2</ele>
        <time>2015-12-20T08:25:32Z</time>
      </trkpt>
      <trkpt lat="49.02956" lon="1.12746">
        <ele>120.6</ele>
        <time>2015-12-20T08:25:36Z</time>
      </trkpt>
      <trkpt lat="49.02966" lon="1.12739">
        <ele>120.9</ele>
        <time>2015-12-20T08:25:39Z</time>
      </trkpt>
      <trkpt lat="49.02978" lon="1.12739">
        <ele>121.1</ele>
        <time>2015-12-20T08:25:43Z</time>
      </trkpt>
      <trkpt lat="49.02987" lon="1.12742">
        <ele>121.2</ele>
        <time>2015-12-20T08:25:46Z</time>
      </trkpt>
      <trkpt lat="49.02997" lon="1.12743">
        <ele>120.8</ele>
        <time>2015-12-20T08:25:49Z</time>
      </trkpt>
      <trkpt lat="49.03007" lon="1.12744">
        <ele>120.3</ele>
        <time>2015-12-20T08:25:52Z</time>
      </trkpt>
      <trkpt lat="49.03019" lon="1.12748">
        <ele>119.8</ele>
        <time>2015-12-20T08:25:55Z</time>
      </trkpt>
      <trkpt lat="49.0303" lon="1.12749">
        <ele>119.5</ele>
        <time>2015-12-20T08:25:57Z</time>
      </trkpt>
      <trkpt lat="49.03041" lon="1.1275">
        <ele>119.2</ele>
        <time>2015-12-20T08:25:59Z</time>
      </trkpt>
      <trkpt lat="49.03052" lon="1.1275">
        <ele>118.8</ele>
        <time>2015-12-20T08:26:03Z</time>
      </trkpt>
      <trkpt lat="49.03062" lon="1.12752">
        <ele>118.5</ele>
        <time>2015-12-20T08:26:06Z</time>
      </trkpt>
      <trkpt lat="49.03073" lon="1.12754">
        <ele>118.5</ele>
        <time>2015-12-20T08:26:09Z</time>
      </trkpt>
      <trkpt lat="49.03084" lon="1.12751">
        <ele>118.6</ele>
        <time>2015-12-20T08:26:13Z</time>
      </trkpt>
      <trkpt lat="49.03094" lon="1.12747">
        <ele>118.7</ele>
        <time>2015-12-20T08:26:16Z</time>
      </trkpt>
      <trkpt lat="49.03103" lon="1.12735">
        <ele>118.8</ele>
        <time>2015-12-20T08:26:19Z</time>
      </trkpt>
      <trkpt lat="49.0311" lon="1.12725">
        <ele>118.9</ele>
        <time>2015-12-20T08:26:22Z</time>
      </trkpt>
      <trkpt lat="49.03116" lon="1.12713">
        <ele>118.2</ele>
        <time>2015-12-20T08:26:27Z</time>
      </trkpt>
      <trkpt lat="49.03124" lon="1.12704">
        <ele>116.4</ele>
        <time>2015-12-20T08:26:32Z</time>
      </trkpt>
      <trkpt lat="49.03134" lon="1.12704">
        <ele>114.9</ele>
        <time>2015-12-20T08:26:37Z</time>
      </trkpt>
      <trkpt lat="49.03143" lon="1.12702">
        <ele>114.1</ele>
        <time>2015-12-20T08:26:40Z</time>
      </trkpt>
      <trkpt lat="49.03149" lon="1.12715">
        <ele>111.3</ele>
        <time>2015-12-20T08:27:08Z</time>
      </trkpt>
      <trkpt lat="49.03149" lon="1.1273">
        <ele>111.6</ele>
        <time>2015-12-20T08:27:14Z</time>
      </trkpt>
      <trkpt lat="49.03151" lon="1.12744">
        <ele>112.4</ele>
        <time>2015-12-20T08:27:19Z</time>
      </trkpt>
      <trkpt lat="49.03153" lon="1.12761">
        <ele>113.2</ele>
        <time>2015-12-20T08:27:24Z</time>
      </trkpt>
      <trkpt lat="49.03149" lon="1.12775">
        <ele>114.3</ele>
        <time>2015-12-20T08:27:30Z</time>
      </trkpt>
      <trkpt lat="49.03146" lon="1.12789">
        <ele>116.3</ele>
        <time>2015-12-20T08:27:39Z</time>
      </trkpt>
      <trkpt lat="49.03141" lon="1.12803">
        <ele>118.1</ele>
        <time>2015-12-20T08:27:50Z</time>
      </trkpt>
      <trkpt lat="49.0315" lon="1.12808">
        <ele>119.3</ele>
        <time>2015-12-20T08:27:58Z</time>
      </trkpt>
      <trkpt lat="49.03159" lon="1.12803">
        <ele>120</ele>
        <time>2015-12-20T08:28:05Z</time>
      </trkpt>
      <trkpt lat="49.03168" lon="1.12797">
        <ele>120.4</ele>
        <time>2015-12-20T08:28:11Z</time>
      </trkpt>
      <trkpt lat="49.03177" lon="1.12797">
        <ele>121.1</ele>
        <time>2015-12-20T08:28:43Z</time>
      </trkpt>
      <trkpt lat="49.03188" lon="1.1277">
        <ele>130.5</ele>
        <time>2015-12-20T08:28:49Z</time>
      </trkpt>
      <trkpt lat="49.03192" lon="1.12768">
        <ele>130.6</ele>
        <time>2015-12-20T08:29:04Z</time>
      </trkpt>
      <trkpt lat="49.03194" lon="1.12794">
        <ele>130.7</ele>
        <time>2015-12-20T08:30:27Z</time>
      </trkpt>
      <trkpt lat="49.03198" lon="1.12802">
        <ele>121.3</ele>
        <time>2015-12-20T08:30:31Z</time>
      </trkpt>
      <trkpt lat="49.03209" lon="1.12797">
        <ele>121.4</ele>
        <time>2015-12-20T08:30:35Z</time>
      </trkpt>
      <trkpt lat="49.03218" lon="1.12792">
        <ele>121.4</ele>
        <time>2015-12-20T08:30:38Z</time>
      </trkpt>
      <trkpt lat="49.03227" lon="1.12788">
        <ele>121.4</ele>
        <time>2015-12-20T08:30:41Z</time>
      </trkpt>
      <trkpt lat="49.03238" lon="1.12782">
        <ele>121.5</ele>
        <time>2015-12-20T08:30:45Z</time>
      </trkpt>
      <trkpt lat="49.03248" lon="1.12778">
        <ele>121.7</ele>
        <time>2015-12-20T08:30:48Z</time>
      </trkpt>
      <trkpt lat="49.03259" lon="1.12777">
        <ele>121.9</ele>
        <time>2015-12-20T08:30:52Z</time>
      </trkpt>
      <trkpt lat="49.0327" lon="1.12777">
        <ele>122.1</ele>
        <time>2015-12-20T08:30:55Z</time>
      </trkpt>
      <trkpt lat="49.03282" lon="1.12779">
        <ele>122.3</ele>
        <time>2015-12-20T08:30:58Z</time>
      </trkpt>
      <trkpt lat="49.03294" lon="1.12782">
        <ele>122.5</ele>
        <time>2015-12-20T08:31:01Z</time>
      </trkpt>
      <trkpt lat="49.03306" lon="1.12788">
        <ele>122.6</ele>
        <time>2015-12-20T08:31:04Z</time>
      </trkpt>
      <trkpt lat="49.03317" lon="1.12798">
        <ele>122.8</ele>
        <time>2015-12-20T08:31:07Z</time>
      </trkpt>
      <trkpt lat="49.03326" lon="1.12812">
        <ele>122.9</ele>
        <time>2015-12-20T08:31:10Z</time>
      </trkpt>
      <trkpt lat="49.03334" lon="1.12828">
        <ele>123</ele>
        <time>2015-12-20T08:31:13Z</time>
      </trkpt>
      <trkpt lat="49.03339" lon="1.1284">
        <ele>123</ele>
        <time>2015-12-20T08:31:15Z</time>
      </trkpt>
      <trkpt lat="49.03343" lon="1.12852">
        <ele>123.1</ele>
        <time>2015-12-20T08:31:17Z</time>
      </trkpt>
      <trkpt lat="49.03348" lon="1.12864">
        <ele>123.1</ele>
        <time>2015-12-20T08:31:19Z</time>
      </trkpt>
      <trkpt lat="49.03355" lon="1.12882">
        <ele>123.2</ele>
        <time>2015-12-20T08:31:22Z</time>
      </trkpt>
      <trkpt lat="49.03363" lon="1.12898">
        <ele>123.2</ele>
        <time>2015-12-20T08:31:25Z</time>
      </trkpt>
      <trkpt lat="49.0337" lon="1.12915">
        <ele>123.3</ele>
        <time>2015-12-20T08:31:28Z</time>
      </trkpt>
      <trkpt lat="49.03376" lon="1.12931">
        <ele>123.3</ele>
        <time>2015-12-20T08:31:31Z</time>
      </trkpt>
      <trkpt lat="49.03384" lon="1.12938">
        <ele>123.3</ele>
        <time>2015-12-20T08:31:34Z</time>
      </trkpt>
      <trkpt lat="49.03394" lon="1.1293">
        <ele>123.4</ele>
        <time>2015-12-20T08:31:37Z</time>
      </trkpt>
      <trkpt lat="49.03405" lon="1.12922">
        <ele>123.4</ele>
        <time>2015-12-20T08:31:40Z</time>
      </trkpt>
      <trkpt lat="49.03416" lon="1.12912">
        <ele>123.4</ele>
        <time>2015-12-20T08:31:43Z</time>
      </trkpt>
      <trkpt lat="49.03424" lon="1.12899">
        <ele>123.4</ele>
        <time>2015-12-20T08:31:46Z</time>
      </trkpt>
      <trkpt lat="49.03431" lon="1.12887">
        <ele>123.4</ele>
        <time>2015-12-20T08:31:49Z</time>
      </trkpt>
      <trkpt lat="49.03436" lon="1.12871">
        <ele>123.4</ele>
        <time>2015-12-20T08:31:53Z</time>
      </trkpt>
      <trkpt lat="49.03436" lon="1.12854">
        <ele>123.4</ele>
        <time>2015-12-20T08:31:57Z</time>
      </trkpt>
      <trkpt lat="49.03437" lon="1.12839">
        <ele>123.5</ele>
        <time>2015-12-20T08:32:00Z</time>
      </trkpt>
      <trkpt lat="49.03439" lon="1.12824">
        <ele>123.5</ele>
        <time>2015-12-20T08:32:03Z</time>
      </trkpt>
      <trkpt lat="49.03441" lon="1.12809">
        <ele>123.5</ele>
        <time>2015-12-20T08:32:06Z</time>
      </trkpt>
      <trkpt lat="49.03446" lon="1.1279">
        <ele>123.5</ele>
        <time>2015-12-20T08:32:09Z</time>
      </trkpt>
      <trkpt lat="49.03454" lon="1.12775">
        <ele>123.4</ele>
        <time>2015-12-20T08:32:12Z</time>
      </trkpt>
      <trkpt lat="49.0346" lon="1.12763">
        <ele>123.4</ele>
        <time>2015-12-20T08:32:14Z</time>
      </trkpt>
      <trkpt lat="49.03466" lon="1.12751">
        <ele>123.4</ele>
        <time>2015-12-20T08:32:16Z</time>
      </trkpt>
      <trkpt lat="49.03472" lon="1.12737">
        <ele>123.2</ele>
        <time>2015-12-20T08:32:18Z</time>
      </trkpt>
      <trkpt lat="49.0348" lon="1.12723">
        <ele>123.1</ele>
        <time>2015-12-20T08:32:20Z</time>
      </trkpt>
      <trkpt lat="49.03486" lon="1.12708">
        <ele>122.9</ele>
        <time>2015-12-20T08:32:22Z</time>
      </trkpt>
      <trkpt lat="49.03494" lon="1.12696">
        <ele>122.6</ele>
        <time>2015-12-20T08:32:24Z</time>
      </trkpt>
      <trkpt lat="49.03503" lon="1.12682">
        <ele>122.3</ele>
        <time>2015-12-20T08:32:27Z</time>
      </trkpt>
      <trkpt lat="49.03509" lon="1.12668">
        <ele>121.5</ele>
        <time>2015-12-20T08:32:33Z</time>
      </trkpt>
      <trkpt lat="49.03516" lon="1.12658">
        <ele>118.4</ele>
        <time>2015-12-20T08:35:00Z</time>
      </trkpt>
      <trkpt lat="49.0352" lon="1.12646">
        <ele>118.4</ele>
        <time>2015-12-20T08:38:03Z</time>
      </trkpt>
      <trkpt lat="49.0353" lon="1.12648">
        <ele>118.4</ele>
        <time>2015-12-20T08:38:27Z</time>
      </trkpt>
      <trkpt lat="49.03532" lon="1.12665">
        <ele>118.4</ele>
        <time>2015-12-20T08:38:31Z</time>
      </trkpt>
      <trkpt lat="49.03534" lon="1.1268">
        <ele>118.5</ele>
        <time>2015-12-20T08:38:34Z</time>
      </trkpt>
      <trkpt lat="49.03536" lon="1.12694">
        <ele>118.7</ele>
        <time>2015-12-20T08:38:38Z</time>
      </trkpt>
      <trkpt lat="49.03544" lon="1.12703">
        <ele>118.9</ele>
        <time>2015-12-20T08:38:42Z</time>
      </trkpt>
      <trkpt lat="49.03553" lon="1.12698">
        <ele>119.1</ele>
        <time>2015-12-20T08:38:46Z</time>
      </trkpt>
      <trkpt lat="49.03561" lon="1.1269">
        <ele>119.4</ele>
        <time>2015-12-20T08:38:50Z</time>
      </trkpt>
      <trkpt lat="49.03555" lon="1.12678">
        <ele>119.6</ele>
        <time>2015-12-20T08:38:54Z</time>
      </trkpt>
      <trkpt lat="49.03548" lon="1.12669">
        <ele>119.7</ele>
        <time>2015-12-20T08:38:58Z</time>
      </trkpt>
      <trkpt lat="49.03555" lon="1.12658">
        <ele>119.8</ele>
        <time>2015-12-20T08:39:06Z</time>
      </trkpt>
      <trkpt lat="49.03553" lon="1.12643">
        <ele>119.9</ele>
        <time>2015-12-20T08:39:12Z</time>
      </trkpt>
      <trkpt lat="49.03551" lon="1.12629">
        <ele>119.9</ele>
        <time>2015-12-20T08:39:16Z</time>
      </trkpt>
      <trkpt lat="49.03555" lon="1.12616">
        <ele>120</ele>
        <time>2015-12-20T08:39:20Z</time>
      </trkpt>
      <trkpt lat="49.0356" lon="1.12603">
        <ele>120</ele>
        <time>2015-12-20T08:39:23Z</time>
      </trkpt>
      <trkpt lat="49.03565" lon="1.1259">
        <ele>120</ele>
        <time>2015-12-20T08:39:26Z</time>
      </trkpt>
      <trkpt lat="49.03572" lon="1.12581">
        <ele>120</ele>
        <time>2015-12-20T08:39:29Z</time>
      </trkpt>
      <trkpt lat="49.03581" lon="1.12576">
        <ele>120</ele>
        <time>2015-12-20T08:39:32Z</time>
      </trkpt>
      <trkpt lat="49.03591" lon="1.1257">
        <ele>120</ele>
        <time>2015-12-20T08:39:35Z</time>
      </trkpt>
      <trkpt lat="49.03601" lon="1.12565">
        <ele>120</ele>
        <time>2015-12-20T08:39:38Z</time>
      </trkpt>
      <trkpt lat="49.03609" lon="1.12557">
        <ele>120</ele>
        <time>2015-12-20T08:39:41Z</time>
      </trkpt>
      <trkpt lat="49.03617" lon="1.12549">
        <ele>120</ele>
        <time>2015-12-20T08:39:44Z</time>
      </trkpt>
      <trkpt lat="49.03626" lon="1.12535">
        <ele>120.1</ele>
        <time>2015-12-20T08:39:48Z</time>
      </trkpt>
      <trkpt lat="49.03635" lon="1.12524">
        <ele>120.1</ele>
        <time>2015-12-20T08:39:51Z</time>
      </trkpt>
      <trkpt lat="49.03643" lon="1.12514">
        <ele>120.1</ele>
        <time>2015-12-20T08:39:54Z</time>
      </trkpt>
      <trkpt lat="49.03652" lon="1.1252">
        <ele>120</ele>
        <time>2015-12-20T08:40:00Z</time>
      </trkpt>
      <trkpt lat="49.03656" lon="1.12536">
        <ele>120.1</ele>
        <time>2015-12-20T08:40:06Z</time>
      </trkpt>
      <trkpt lat="49.03657" lon="1.12552">
        <ele>120.5</ele>
        <time>2015-12-20T08:40:11Z</time>
      </trkpt>
      <trkpt lat="49.03667" lon="1.12551">
        <ele>120.7</ele>
        <time>2015-12-20T08:40:16Z</time>
      </trkpt>
      <trkpt lat="49.03675" lon="1.12541">
        <ele>120.9</ele>
        <time>2015-12-20T08:40:19Z</time>
      </trkpt>
      <trkpt lat="49.03683" lon="1.12536">
        <ele>121.1</ele>
        <time>2015-12-20T08:40:22Z</time>
      </trkpt>
      <trkpt lat="49.03693" lon="1.12532">
        <ele>121.3</ele>
        <time>2015-12-20T08:40:25Z</time>
      </trkpt>
      <trkpt lat="49.03702" lon="1.12526">
        <ele>121.6</ele>
        <time>2015-12-20T08:40:28Z</time>
      </trkpt>
      <trkpt lat="49.03712" lon="1.12522">
        <ele>121.9</ele>
        <time>2015-12-20T08:40:31Z</time>
      </trkpt>
      <trkpt lat="49.03721" lon="1.12512">
        <ele>122.2</ele>
        <time>2015-12-20T08:40:34Z</time>
      </trkpt>
      <trkpt lat="49.0373" lon="1.12503">
        <ele>122.4</ele>
        <time>2015-12-20T08:40:37Z</time>
      </trkpt>
      <trkpt lat="49.03737" lon="1.12492">
        <ele>122.5</ele>
        <time>2015-12-20T08:40:40Z</time>
      </trkpt>
      <trkpt lat="49.03746" lon="1.12484">
        <ele>122.7</ele>
        <time>2015-12-20T08:40:43Z</time>
      </trkpt>
      <trkpt lat="49.03753" lon="1.12472">
        <ele>122.9</ele>
        <time>2015-12-20T08:40:46Z</time>
      </trkpt>
      <trkpt lat="49.0376" lon="1.12461">
        <ele>123.2</ele>
        <time>2015-12-20T08:40:49Z</time>
      </trkpt>
      <trkpt lat="49.0377" lon="1.12451">
        <ele>123.5</ele>
        <time>2015-12-20T08:40:52Z</time>
      </trkpt>
      <trkpt lat="49.03773" lon="1.12435">
        <ele>123.9</ele>
        <time>2015-12-20T08:40:56Z</time>
      </trkpt>
      <trkpt lat="49.03776" lon="1.1242">
        <ele>124.3</ele>
        <time>2015-12-20T08:41:00Z</time>
      </trkpt>
      <trkpt lat="49.03778" lon="1.12402">
        <ele>124.8</ele>
        <time>2015-12-20T08:41:04Z</time>
      </trkpt>
      <trkpt lat="49.03782" lon="1.12389">
        <ele>125</ele>
        <time>2015-12-20T08:41:07Z</time>
      </trkpt>
      <trkpt lat="49.03786" lon="1.12374">
        <ele>125.4</ele>
        <time>2015-12-20T08:41:10Z</time>
      </trkpt>
      <trkpt lat="49.03788" lon="1.12357">
        <ele>125.7</ele>
        <time>2015-12-20T08:41:13Z</time>
      </trkpt>
      <trkpt lat="49.0379" lon="1.12341">
        <ele>126</ele>
        <time>2015-12-20T08:41:16Z</time>
      </trkpt>
      <trkpt lat="49.0379" lon="1.12326">
        <ele>126.2</ele>
        <time>2015-12-20T08:41:19Z</time>
      </trkpt>
      <trkpt lat="49.03792" lon="1.12311">
        <ele>126.4</ele>
        <time>2015-12-20T08:41:22Z</time>
      </trkpt>
      <trkpt lat="49.03795" lon="1.12296">
        <ele>126.7</ele>
        <time>2015-12-20T08:41:25Z</time>
      </trkpt>
      <trkpt lat="49.03801" lon="1.12281">
        <ele>126.9</ele>
        <time>2015-12-20T08:41:28Z</time>
      </trkpt>
      <trkpt lat="49.03799" lon="1.12266">
        <ele>127</ele>
        <time>2015-12-20T08:41:30Z</time>
      </trkpt>
      <trkpt lat="49.038" lon="1.12252">
        <ele>127.2</ele>
        <time>2015-12-20T08:41:33Z</time>
      </trkpt>
      <trkpt lat="49.03804" lon="1.12236">
        <ele>127.5</ele>
        <time>2015-12-20T08:41:37Z</time>
      </trkpt>
      <trkpt lat="49.0381" lon="1.12221">
        <ele>127.6</ele>
        <time>2015-12-20T08:41:41Z</time>
      </trkpt>
      <trkpt lat="49.03821" lon="1.12217">
        <ele>127.8</ele>
        <time>2015-12-20T08:41:45Z</time>
      </trkpt>
      <trkpt lat="49.03831" lon="1.12206">
        <ele>127.9</ele>
        <time>2015-12-20T08:41:48Z</time>
      </trkpt>
      <trkpt lat="49.0384" lon="1.12194">
        <ele>127.9</ele>
        <time>2015-12-20T08:41:51Z</time>
      </trkpt>
      <trkpt lat="49.03849" lon="1.12181">
        <ele>128</ele>
        <time>2015-12-20T08:41:54Z</time>
      </trkpt>
      <trkpt lat="49.03855" lon="1.12166">
        <ele>128</ele>
        <time>2015-12-20T08:41:57Z</time>
      </trkpt>
      <trkpt lat="49.03864" lon="1.12156">
        <ele>128.1</ele>
        <time>2015-12-20T08:42:00Z</time>
      </trkpt>
      <trkpt lat="49.03871" lon="1.12145">
        <ele>128.1</ele>
        <time>2015-12-20T08:42:03Z</time>
      </trkpt>
      <trkpt lat="49.03881" lon="1.12137">
        <ele>128.2</ele>
        <time>2015-12-20T08:42:07Z</time>
      </trkpt>
      <trkpt lat="49.03892" lon="1.12137">
        <ele>128.2</ele>
        <time>2015-12-20T08:42:11Z</time>
      </trkpt>
      <trkpt lat="49.03902" lon="1.12136">
        <ele>128.4</ele>
        <time>2015-12-20T08:42:14Z</time>
      </trkpt>
      <trkpt lat="49.03913" lon="1.12132">
        <ele>128.6</ele>
        <time>2015-12-20T08:42:17Z</time>
      </trkpt>
      <trkpt lat="49.03922" lon="1.12128">
        <ele>128.8</ele>
        <time>2015-12-20T08:42:20Z</time>
      </trkpt>
      <trkpt lat="49.03931" lon="1.1212">
        <ele>128.9</ele>
        <time>2015-12-20T08:42:23Z</time>
      </trkpt>
      <trkpt lat="49.03936" lon="1.12105">
        <ele>129</ele>
        <time>2015-12-20T08:42:26Z</time>
      </trkpt>
      <trkpt lat="49.03939" lon="1.1209">
        <ele>129.1</ele>
        <time>2015-12-20T08:42:29Z</time>
      </trkpt>
      <trkpt lat="49.03943" lon="1.12073">
        <ele>129.2</ele>
        <time>2015-12-20T08:42:32Z</time>
      </trkpt>
      <trkpt lat="49.03946" lon="1.12055">
        <ele>129.3</ele>
        <time>2015-12-20T08:42:35Z</time>
      </trkpt>
      <trkpt lat="49.0395" lon="1.12039">
        <ele>129.3</ele>
        <time>2015-12-20T08:42:38Z</time>
      </trkpt>
      <trkpt lat="49.0395" lon="1.12024">
        <ele>129.4</ele>
        <time>2015-12-20T08:42:40Z</time>
      </trkpt>
      <trkpt lat="49.03952" lon="1.12009">
        <ele>129.4</ele>
        <time>2015-12-20T08:42:42Z</time>
      </trkpt>
      <trkpt lat="49.03956" lon="1.11994">
        <ele>129.3</ele>
        <time>2015-12-20T08:42:45Z</time>
      </trkpt>
      <trkpt lat="49.03958" lon="1.1198">
        <ele>129.2</ele>
        <time>2015-12-20T08:42:47Z</time>
      </trkpt>
      <trkpt lat="49.03961" lon="1.11962">
        <ele>129.1</ele>
        <time>2015-12-20T08:42:50Z</time>
      </trkpt>
      <trkpt lat="49.03964" lon="1.11945">
        <ele>128.9</ele>
        <time>2015-12-20T08:42:53Z</time>
      </trkpt>
      <trkpt lat="49.03966" lon="1.11927">
        <ele>128.5</ele>
        <time>2015-12-20T08:42:56Z</time>
      </trkpt>
      <trkpt lat="49.03968" lon="1.11907">
        <ele>128.1</ele>
        <time>2015-12-20T08:42:59Z</time>
      </trkpt>
      <trkpt lat="49.03968" lon="1.11892">
        <ele>127.9</ele>
        <time>2015-12-20T08:43:01Z</time>
      </trkpt>
      <trkpt lat="49.03969" lon="1.11873">
        <ele>127.6</ele>
        <time>2015-12-20T08:43:04Z</time>
      </trkpt>
      <trkpt lat="49.03977" lon="1.1186">
        <ele>127.3</ele>
        <time>2015-12-20T08:43:08Z</time>
      </trkpt>
      <trkpt lat="49.03987" lon="1.11857">
        <ele>127.1</ele>
        <time>2015-12-20T08:43:11Z</time>
      </trkpt>
      <trkpt lat="49.03997" lon="1.11853">
        <ele>127</ele>
        <time>2015-12-20T08:43:14Z</time>
      </trkpt>
      <trkpt lat="49.04007" lon="1.11857">
        <ele>126.9</ele>
        <time>2015-12-20T08:43:17Z</time>
      </trkpt>
      <trkpt lat="49.04016" lon="1.11864">
        <ele>126.9</ele>
        <time>2015-12-20T08:43:20Z</time>
      </trkpt>
      <trkpt lat="49.04025" lon="1.1187">
        <ele>127</ele>
        <time>2015-12-20T08:43:23Z</time>
      </trkpt>
      <trkpt lat="49.04035" lon="1.11875">
        <ele>127.3</ele>
        <time>2015-12-20T08:43:26Z</time>
      </trkpt>
      <trkpt lat="49.04047" lon="1.11871">
        <ele>127.5</ele>
        <time>2015-12-20T08:43:29Z</time>
      </trkpt>
      <trkpt lat="49.04059" lon="1.11872">
        <ele>127.7</ele>
        <time>2015-12-20T08:43:32Z</time>
      </trkpt>
      <trkpt lat="49.0407" lon="1.11879">
        <ele>127.9</ele>
        <time>2015-12-20T08:43:35Z</time>
      </trkpt>
      <trkpt lat="49.04077" lon="1.11887">
        <ele>128.1</ele>
        <time>2015-12-20T08:43:40Z</time>
      </trkpt>
      <trkpt lat="49.04089" lon="1.11884">
        <ele>128.2</ele>
        <time>2015-12-20T08:43:44Z</time>
      </trkpt>
      <trkpt lat="49.04095" lon="1.11872">
        <ele>128.3</ele>
        <time>2015-12-20T08:43:47Z</time>
      </trkpt>
      <trkpt lat="49.04102" lon="1.11861">
        <ele>128.4</ele>
        <time>2015-12-20T08:43:50Z</time>
      </trkpt>
      <trkpt lat="49.0411" lon="1.11848">
        <ele>128.3</ele>
        <time>2015-12-20T08:43:53Z</time>
      </trkpt>
      <trkpt lat="49.04117" lon="1.11832">
        <ele>128.2</ele>
        <time>2015-12-20T08:43:56Z</time>
      </trkpt>
      <trkpt lat="49.04125" lon="1.11815">
        <ele>128.2</ele>
        <time>2015-12-20T08:43:59Z</time>
      </trkpt>
      <trkpt lat="49.04132" lon="1.11799">
        <ele>128.1</ele>
        <time>2015-12-20T08:44:02Z</time>
      </trkpt>
      <trkpt lat="49.04138" lon="1.11782">
        <ele>128</ele>
        <time>2015-12-20T08:44:05Z</time>
      </trkpt>
      <trkpt lat="49.04144" lon="1.11766">
        <ele>127.9</ele>
        <time>2015-12-20T08:44:08Z</time>
      </trkpt>
      <trkpt lat="49.04149" lon="1.1175">
        <ele>127.9</ele>
        <time>2015-12-20T08:44:11Z</time>
      </trkpt>
      <trkpt lat="49.04155" lon="1.1174">
        <ele>127.7</ele>
        <time>2015-12-20T08:44:15Z</time>
      </trkpt>
      <trkpt lat="49.04164" lon="1.11735">
        <ele>127.4</ele>
        <time>2015-12-20T08:44:22Z</time>
      </trkpt>
      <trkpt lat="49.0417" lon="1.11722">
        <ele>127.3</ele>
        <time>2015-12-20T08:44:27Z</time>
      </trkpt>
      <trkpt lat="49.04174" lon="1.11709">
        <ele>127.1</ele>
        <time>2015-12-20T08:44:31Z</time>
      </trkpt>
      <trkpt lat="49.04177" lon="1.11693">
        <ele>126.9</ele>
        <time>2015-12-20T08:44:35Z</time>
      </trkpt>
      <trkpt lat="49.04182" lon="1.11677">
        <ele>126.8</ele>
        <time>2015-12-20T08:44:39Z</time>
      </trkpt>
      <trkpt lat="49.04189" lon="1.11664">
        <ele>126.7</ele>
        <time>2015-12-20T08:44:45Z</time>
      </trkpt>
      <trkpt lat="49.04193" lon="1.11648">
        <ele>126.6</ele>
        <time>2015-12-20T08:44:51Z</time>
      </trkpt>
      <trkpt lat="49.04195" lon="1.11634">
        <ele>126.4</ele>
        <time>2015-12-20T08:44:56Z</time>
      </trkpt>
      <trkpt lat="49.042" lon="1.11621">
        <ele>126.3</ele>
        <time>2015-12-20T08:45:01Z</time>
      </trkpt>
      <trkpt lat="49.04205" lon="1.11607">
        <ele>126.2</ele>
        <time>2015-12-20T08:45:07Z</time>
      </trkpt>
      <trkpt lat="49.04204" lon="1.11593">
        <ele>126.2</ele>
        <time>2015-12-20T08:45:12Z</time>
      </trkpt>
      <trkpt lat="49.04209" lon="1.11576">
        <ele>126.1</ele>
        <time>2015-12-20T08:45:16Z</time>
      </trkpt>
      <trkpt lat="49.04215" lon="1.11564">
        <ele>126.1</ele>
        <time>2015-12-20T08:45:19Z</time>
      </trkpt>
      <trkpt lat="49.04222" lon="1.11551">
        <ele>126.1</ele>
        <time>2015-12-20T08:45:22Z</time>
      </trkpt>
      <trkpt lat="49.04228" lon="1.1154">
        <ele>126.1</ele>
        <time>2015-12-20T08:45:25Z</time>
      </trkpt>
      <trkpt lat="49.04236" lon="1.1153">
        <ele>126</ele>
        <time>2015-12-20T08:45:32Z</time>
      </trkpt>
      <trkpt lat="49.04244" lon="1.11523">
        <ele>125.9</ele>
        <time>2015-12-20T08:45:34Z</time>
      </trkpt>
      <trkpt lat="49.04254" lon="1.11516">
        <ele>125.7</ele>
        <time>2015-12-20T08:45:36Z</time>
      </trkpt>
      <trkpt lat="49.04262" lon="1.11506">
        <ele>125.4</ele>
        <time>2015-12-20T08:45:39Z</time>
      </trkpt>
      <trkpt lat="49.04268" lon="1.11495">
        <ele>124.4</ele>
        <time>2015-12-20T08:45:48Z</time>
      </trkpt>
      <trkpt lat="49.04277" lon="1.11493">
        <ele>122.5</ele>
        <time>2015-12-20T08:47:25Z</time>
      </trkpt>
      <trkpt lat="49.04282" lon="1.11505">
        <ele>122.4</ele>
        <time>2015-12-20T08:47:29Z</time>
      </trkpt>
      <trkpt lat="49.04282" lon="1.11519">
        <ele>122.4</ele>
        <time>2015-12-20T08:47:32Z</time>
      </trkpt>
      <trkpt lat="49.04282" lon="1.11535">
        <ele>122.2</ele>
        <time>2015-12-20T08:47:35Z</time>
      </trkpt>
      <trkpt lat="49.04278" lon="1.11549">
        <ele>122.1</ele>
        <time>2015-12-20T08:47:38Z</time>
      </trkpt>
      <trkpt lat="49.04271" lon="1.1156">
        <ele>122.1</ele>
        <time>2015-12-20T08:47:41Z</time>
      </trkpt>
      <trkpt lat="49.04265" lon="1.11574">
        <ele>122</ele>
        <time>2015-12-20T08:47:45Z</time>
      </trkpt>
      <trkpt lat="49.0426" lon="1.11592">
        <ele>122</ele>
        <time>2015-12-20T08:47:48Z</time>
      </trkpt>
      <trkpt lat="49.04252" lon="1.11609">
        <ele>122.1</ele>
        <time>2015-12-20T08:47:51Z</time>
      </trkpt>
      <trkpt lat="49.04247" lon="1.11625">
        <ele>122.3</ele>
        <time>2015-12-20T08:47:54Z</time>
      </trkpt>
      <trkpt lat="49.04246" lon="1.11641">
        <ele>122.4</ele>
        <time>2015-12-20T08:47:57Z</time>
      </trkpt>
      <trkpt lat="49.04253" lon="1.11656">
        <ele>122.7</ele>
        <time>2015-12-20T08:48:01Z</time>
      </trkpt>
      <trkpt lat="49.0426" lon="1.11673">
        <ele>122.9</ele>
        <time>2015-12-20T08:48:04Z</time>
      </trkpt>
      <trkpt lat="49.04267" lon="1.11688">
        <ele>123</ele>
        <time>2015-12-20T08:48:07Z</time>
      </trkpt>
      <trkpt lat="49.04274" lon="1.11702">
        <ele>123.1</ele>
        <time>2015-12-20T08:48:10Z</time>
      </trkpt>
      <trkpt lat="49.04279" lon="1.11715">
        <ele>123.3</ele>
        <time>2015-12-20T08:48:13Z</time>
      </trkpt>
      <trkpt lat="49.04288" lon="1.11726">
        <ele>123.5</ele>
        <time>2015-12-20T08:48:16Z</time>
      </trkpt>
      <trkpt lat="49.04296" lon="1.1174">
        <ele>123.6</ele>
        <time>2015-12-20T08:48:19Z</time>
      </trkpt>
      <trkpt lat="49.04299" lon="1.11757">
        <ele>123.7</ele>
        <time>2015-12-20T08:48:22Z</time>
      </trkpt>
      <trkpt lat="49.04292" lon="1.11769">
        <ele>123.7</ele>
        <time>2015-12-20T08:48:25Z</time>
      </trkpt>
      <trkpt lat="49.04284" lon="1.11777">
        <ele>123.8</ele>
        <time>2015-12-20T08:48:28Z</time>
      </trkpt>
      <trkpt lat="49.04276" lon="1.11786">
        <ele>123.8</ele>
        <time>2015-12-20T08:48:31Z</time>
      </trkpt>
      <trkpt lat="49.04272" lon="1.11798">
        <ele>123.9</ele>
        <time>2015-12-20T08:48:34Z</time>
      </trkpt>
      <trkpt lat="49.04266" lon="1.11815">
        <ele>124</ele>
        <time>2015-12-20T08:48:38Z</time>
      </trkpt>
      <trkpt lat="49.04262" lon="1.11833">
        <ele>124.1</ele>
        <time>2015-12-20T08:48:41Z</time>
      </trkpt>
      <trkpt lat="49.04263" lon="1.11849">
        <ele>124.3</ele>
        <time>2015-12-20T08:48:44Z</time>
      </trkpt>
      <trkpt lat="49.04259" lon="1.11862">
        <ele>124.6</ele>
        <time>2015-12-20T08:48:48Z</time>
      </trkpt>
      <trkpt lat="49.04253" lon="1.11876">
        <ele>125.1</ele>
        <time>2015-12-20T08:48:52Z</time>
      </trkpt>
      <trkpt lat="49.04245" lon="1.11885">
        <ele>125.5</ele>
        <time>2015-12-20T08:48:55Z</time>
      </trkpt>
      <trkpt lat="49.04234" lon="1.11891">
        <ele>125.9</ele>
        <time>2015-12-20T08:48:58Z</time>
      </trkpt>
      <trkpt lat="49.04224" lon="1.11897">
        <ele>126.1</ele>
        <time>2015-12-20T08:49:01Z</time>
      </trkpt>
      <trkpt lat="49.04215" lon="1.11906">
        <ele>126.4</ele>
        <time>2015-12-20T08:49:04Z</time>
      </trkpt>
      <trkpt lat="49.04207" lon="1.11917">
        <ele>126.7</ele>
        <time>2015-12-20T08:49:07Z</time>
      </trkpt>
      <trkpt lat="49.042" lon="1.11932">
        <ele>127.1</ele>
        <time>2015-12-20T08:49:10Z</time>
      </trkpt>
      <trkpt lat="49.04193" lon="1.11945">
        <ele>127.4</ele>
        <time>2015-12-20T08:49:13Z</time>
      </trkpt>
      <trkpt lat="49.04186" lon="1.11959">
        <ele>127.8</ele>
        <time>2015-12-20T08:49:16Z</time>
      </trkpt>
      <trkpt lat="49.04176" lon="1.11964">
        <ele>128.2</ele>
        <time>2015-12-20T08:49:19Z</time>
      </trkpt>
      <trkpt lat="49.04164" lon="1.11964">
        <ele>128.6</ele>
        <time>2015-12-20T08:49:22Z</time>
      </trkpt>
      <trkpt lat="49.04152" lon="1.11964">
        <ele>128.8</ele>
        <time>2015-12-20T08:49:25Z</time>
      </trkpt>
      <trkpt lat="49.04152" lon="1.1198">
        <ele>129.3</ele>
        <time>2015-12-20T08:49:31Z</time>
      </trkpt>
      <trkpt lat="49.04158" lon="1.11992">
        <ele>129.5</ele>
        <time>2015-12-20T08:49:35Z</time>
      </trkpt>
      <trkpt lat="49.04163" lon="1.12003">
        <ele>129.6</ele>
        <time>2015-12-20T08:49:38Z</time>
      </trkpt>
      <trkpt lat="49.04171" lon="1.12015">
        <ele>129.8</ele>
        <time>2015-12-20T08:49:42Z</time>
      </trkpt>
      <trkpt lat="49.04178" lon="1.12026">
        <ele>130</ele>
        <time>2015-12-20T08:49:46Z</time>
      </trkpt>
      <trkpt lat="49.04184" lon="1.12037">
        <ele>130.1</ele>
        <time>2015-12-20T08:49:49Z</time>
      </trkpt>
      <trkpt lat="49.04191" lon="1.12048">
        <ele>130.3</ele>
        <time>2015-12-20T08:49:52Z</time>
      </trkpt>
      <trkpt lat="49.04196" lon="1.12059">
        <ele>130.4</ele>
        <time>2015-12-20T08:49:55Z</time>
      </trkpt>
      <trkpt lat="49.04204" lon="1.12071">
        <ele>130.6</ele>
        <time>2015-12-20T08:49:58Z</time>
      </trkpt>
      <trkpt lat="49.04211" lon="1.12082">
        <ele>130.7</ele>
        <time>2015-12-20T08:50:01Z</time>
      </trkpt>
      <trkpt lat="49.0422" lon="1.12095">
        <ele>130.8</ele>
        <time>2015-12-20T08:50:04Z</time>
      </trkpt>
      <trkpt lat="49.0423" lon="1.12091">
        <ele>130.9</ele>
        <time>2015-12-20T08:50:07Z</time>
      </trkpt>
      <trkpt lat="49.0424" lon="1.12082">
        <ele>131</ele>
        <time>2015-12-20T08:50:10Z</time>
      </trkpt>
      <trkpt lat="49.04249" lon="1.12076">
        <ele>131</ele>
        <time>2015-12-20T08:50:12Z</time>
      </trkpt>
      <trkpt lat="49.04257" lon="1.12069">
        <ele>131.1</ele>
        <time>2015-12-20T08:50:14Z</time>
      </trkpt>
      <trkpt lat="49.04266" lon="1.12062">
        <ele>131.1</ele>
        <time>2015-12-20T08:50:16Z</time>
      </trkpt>
      <trkpt lat="49.04274" lon="1.12053">
        <ele>131.1</ele>
        <time>2015-12-20T08:50:18Z</time>
      </trkpt>
      <trkpt lat="49.04283" lon="1.12037">
        <ele>131</ele>
        <time>2015-12-20T08:50:21Z</time>
      </trkpt>
      <trkpt lat="49.04292" lon="1.12027">
        <ele>130.8</ele>
        <time>2015-12-20T08:50:23Z</time>
      </trkpt>
      <trkpt lat="49.04301" lon="1.12016">
        <ele>130.5</ele>
        <time>2015-12-20T08:50:25Z</time>
      </trkpt>
      <trkpt lat="49.04311" lon="1.12007">
        <ele>130.1</ele>
        <time>2015-12-20T08:50:28Z</time>
      </trkpt>
      <trkpt lat="49.04318" lon="1.12017">
        <ele>129.5</ele>
        <time>2015-12-20T08:50:32Z</time>
      </trkpt>
      <trkpt lat="49.04326" lon="1.12034">
        <ele>129</ele>
        <time>2015-12-20T08:50:36Z</time>
      </trkpt>
      <trkpt lat="49.04332" lon="1.1205">
        <ele>128.7</ele>
        <time>2015-12-20T08:50:39Z</time>
      </trkpt>
      <trkpt lat="49.0434" lon="1.12066">
        <ele>128.5</ele>
        <time>2015-12-20T08:50:42Z</time>
      </trkpt>
      <trkpt lat="49.04346" lon="1.12084">
        <ele>128.3</ele>
        <time>2015-12-20T08:50:45Z</time>
      </trkpt>
      <trkpt lat="49.04349" lon="1.12101">
        <ele>128.2</ele>
        <time>2015-12-20T08:50:48Z</time>
      </trkpt>
      <trkpt lat="49.04347" lon="1.12119">
        <ele>128</ele>
        <time>2015-12-20T08:50:51Z</time>
      </trkpt>
      <trkpt lat="49.04345" lon="1.12132">
        <ele>128.1</ele>
        <time>2015-12-20T08:50:54Z</time>
      </trkpt>
      <trkpt lat="49.04346" lon="1.12149">
        <ele>128.2</ele>
        <time>2015-12-20T08:50:57Z</time>
      </trkpt>
      <trkpt lat="49.04342" lon="1.12165">
        <ele>128.5</ele>
        <time>2015-12-20T08:51:00Z</time>
      </trkpt>
      <trkpt lat="49.0434" lon="1.1218">
        <ele>128.8</ele>
        <time>2015-12-20T08:51:03Z</time>
      </trkpt>
      <trkpt lat="49.04337" lon="1.12197">
        <ele>129</ele>
        <time>2015-12-20T08:51:06Z</time>
      </trkpt>
      <trkpt lat="49.04333" lon="1.12215">
        <ele>129.2</ele>
        <time>2015-12-20T08:51:09Z</time>
      </trkpt>
      <trkpt lat="49.04328" lon="1.12232">
        <ele>129.5</ele>
        <time>2015-12-20T08:51:12Z</time>
      </trkpt>
      <trkpt lat="49.04326" lon="1.1225">
        <ele>129.7</ele>
        <time>2015-12-20T08:51:15Z</time>
      </trkpt>
      <trkpt lat="49.04325" lon="1.12266">
        <ele>129.9</ele>
        <time>2015-12-20T08:51:17Z</time>
      </trkpt>
      <trkpt lat="49.04325" lon="1.12285">
        <ele>130.1</ele>
        <time>2015-12-20T08:51:20Z</time>
      </trkpt>
      <trkpt lat="49.04322" lon="1.12298">
        <ele>130.4</ele>
        <time>2015-12-20T08:51:23Z</time>
      </trkpt>
      <trkpt lat="49.04319" lon="1.12315">
        <ele>130.6</ele>
        <time>2015-12-20T08:51:26Z</time>
      </trkpt>
      <trkpt lat="49.0431" lon="1.12331">
        <ele>130.8</ele>
        <time>2015-12-20T08:51:29Z</time>
      </trkpt>
      <trkpt lat="49.04303" lon="1.1234">
        <ele>131</ele>
        <time>2015-12-20T08:51:31Z</time>
      </trkpt>
      <trkpt lat="49.04294" lon="1.1235">
        <ele>131.2</ele>
        <time>2015-12-20T08:51:34Z</time>
      </trkpt>
      <trkpt lat="49.04282" lon="1.12359">
        <ele>131.4</ele>
        <time>2015-12-20T08:51:37Z</time>
      </trkpt>
      <trkpt lat="49.04272" lon="1.12365">
        <ele>131.6</ele>
        <time>2015-12-20T08:51:40Z</time>
      </trkpt>
      <trkpt lat="49.04263" lon="1.12371">
        <ele>131.7</ele>
        <time>2015-12-20T08:51:43Z</time>
      </trkpt>
      <trkpt lat="49.04257" lon="1.1236">
        <ele>132</ele>
        <time>2015-12-20T08:51:49Z</time>
      </trkpt>
      <trkpt lat="49.04256" lon="1.12343">
        <ele>132.2</ele>
        <time>2015-12-20T08:51:54Z</time>
      </trkpt>
      <trkpt lat="49.04252" lon="1.12329">
        <ele>132.3</ele>
        <time>2015-12-20T08:51:58Z</time>
      </trkpt>
      <trkpt lat="49.04249" lon="1.12314">
        <ele>132.4</ele>
        <time>2015-12-20T08:52:03Z</time>
      </trkpt>
      <trkpt lat="49.04246" lon="1.12301">
        <ele>132.4</ele>
        <time>2015-12-20T08:52:06Z</time>
      </trkpt>
      <trkpt lat="49.04243" lon="1.12284">
        <ele>132.5</ele>
        <time>2015-12-20T08:52:10Z</time>
      </trkpt>
      <trkpt lat="49.04241" lon="1.12266">
        <ele>132.6</ele>
        <time>2015-12-20T08:52:14Z</time>
      </trkpt>
      <trkpt lat="49.04238" lon="1.12249">
        <ele>132.6</ele>
        <time>2015-12-20T08:52:18Z</time>
      </trkpt>
      <trkpt lat="49.04233" lon="1.12233">
        <ele>132.7</ele>
        <time>2015-12-20T08:52:22Z</time>
      </trkpt>
      <trkpt lat="49.04228" lon="1.1222">
        <ele>132.7</ele>
        <time>2015-12-20T08:52:25Z</time>
      </trkpt>
      <trkpt lat="49.04222" lon="1.12209">
        <ele>132.7</ele>
        <time>2015-12-20T08:52:28Z</time>
      </trkpt>
      <trkpt lat="49.04216" lon="1.12197">
        <ele>132.7</ele>
        <time>2015-12-20T08:52:31Z</time>
      </trkpt>
      <trkpt lat="49.0421" lon="1.12185">
        <ele>132.6</ele>
        <time>2015-12-20T08:52:34Z</time>
      </trkpt>
      <trkpt lat="49.04199" lon="1.12181">
        <ele>132.5</ele>
        <time>2015-12-20T08:52:38Z</time>
      </trkpt>
      <trkpt lat="49.0419" lon="1.12184">
        <ele>132.4</ele>
        <time>2015-12-20T08:52:41Z</time>
      </trkpt>
      <trkpt lat="49.04179" lon="1.12189">
        <ele>132.3</ele>
        <time>2015-12-20T08:52:45Z</time>
      </trkpt>
      <trkpt lat="49.04171" lon="1.12195">
        <ele>132.2</ele>
        <time>2015-12-20T08:52:57Z</time>
      </trkpt>
      <trkpt lat="49.04164" lon="1.12186">
        <ele>132.7</ele>
        <time>2015-12-20T08:53:50Z</time>
      </trkpt>
      <trkpt lat="49.04155" lon="1.12192">
        <ele>133</ele>
        <time>2015-12-20T08:54:50Z</time>
      </trkpt>
      <trkpt lat="49.04148" lon="1.12203">
        <ele>133</ele>
        <time>2015-12-20T08:54:53Z</time>
      </trkpt>
      <trkpt lat="49.04141" lon="1.12213">
        <ele>133</ele>
        <time>2015-12-20T08:54:56Z</time>
      </trkpt>
      <trkpt lat="49.04132" lon="1.12225">
        <ele>133</ele>
        <time>2015-12-20T08:55:00Z</time>
      </trkpt>
      <trkpt lat="49.04125" lon="1.12234">
        <ele>133</ele>
        <time>2015-12-20T08:55:03Z</time>
      </trkpt>
      <trkpt lat="49.04116" lon="1.12244">
        <ele>133</ele>
        <time>2015-12-20T08:55:06Z</time>
      </trkpt>
      <trkpt lat="49.04106" lon="1.12254">
        <ele>133</ele>
        <time>2015-12-20T08:55:09Z</time>
      </trkpt>
      <trkpt lat="49.04096" lon="1.12264">
        <ele>132.9</ele>
        <time>2015-12-20T08:55:12Z</time>
      </trkpt>
      <trkpt lat="49.04088" lon="1.12277">
        <ele>132.8</ele>
        <time>2015-12-20T08:55:15Z</time>
      </trkpt>
      <trkpt lat="49.04078" lon="1.1229">
        <ele>132.8</ele>
        <time>2015-12-20T08:55:18Z</time>
      </trkpt>
      <trkpt lat="49.04068" lon="1.12302">
        <ele>132.7</ele>
        <time>2015-12-20T08:55:21Z</time>
      </trkpt>
      <trkpt lat="49.0406" lon="1.1231">
        <ele>132.6</ele>
        <time>2015-12-20T08:55:23Z</time>
      </trkpt>
      <trkpt lat="49.04053" lon="1.12318">
        <ele>132.4</ele>
        <time>2015-12-20T08:55:25Z</time>
      </trkpt>
      <trkpt lat="49.04046" lon="1.1233">
        <ele>132.3</ele>
        <time>2015-12-20T08:55:27Z</time>
      </trkpt>
      <trkpt lat="49.04039" lon="1.12339">
        <ele>132.2</ele>
        <time>2015-12-20T08:55:29Z</time>
      </trkpt>
      <trkpt lat="49.04029" lon="1.12351">
        <ele>132</ele>
        <time>2015-12-20T08:55:32Z</time>
      </trkpt>
      <trkpt lat="49.04019" lon="1.12365">
        <ele>131.8</ele>
        <time>2015-12-20T08:55:35Z</time>
      </trkpt>
      <trkpt lat="49.04011" lon="1.12373">
        <ele>131.7</ele>
        <time>2015-12-20T08:55:37Z</time>
      </trkpt>
      <trkpt lat="49.04003" lon="1.12382">
        <ele>131.5</ele>
        <time>2015-12-20T08:55:39Z</time>
      </trkpt>
      <trkpt lat="49.03994" lon="1.12396">
        <ele>131.3</ele>
        <time>2015-12-20T08:55:42Z</time>
      </trkpt>
      <trkpt lat="49.03985" lon="1.12407">
        <ele>131.1</ele>
        <time>2015-12-20T08:55:44Z</time>
      </trkpt>
      <trkpt lat="49.03977" lon="1.12417">
        <ele>130.9</ele>
        <time>2015-12-20T08:55:46Z</time>
      </trkpt>
      <trkpt lat="49.03968" lon="1.12426">
        <ele>130.6</ele>
        <time>2015-12-20T08:55:48Z</time>
      </trkpt>
      <trkpt lat="49.03961" lon="1.12436">
        <ele>130.4</ele>
        <time>2015-12-20T08:55:50Z</time>
      </trkpt>
      <trkpt lat="49.03952" lon="1.12445">
        <ele>130.2</ele>
        <time>2015-12-20T08:55:52Z</time>
      </trkpt>
      <trkpt lat="49.03942" lon="1.12458">
        <ele>129.9</ele>
        <time>2015-12-20T08:55:55Z</time>
      </trkpt>
      <trkpt lat="49.03934" lon="1.12467">
        <ele>129.8</ele>
        <time>2015-12-20T08:55:57Z</time>
      </trkpt>
      <trkpt lat="49.03926" lon="1.12477">
        <ele>129.3</ele>
        <time>2015-12-20T08:55:59Z</time>
      </trkpt>
      <trkpt lat="49.03919" lon="1.12486">
        <ele>129</ele>
        <time>2015-12-20T08:56:01Z</time>
      </trkpt>
      <trkpt lat="49.03909" lon="1.12499">
        <ele>128.6</ele>
        <time>2015-12-20T08:56:04Z</time>
      </trkpt>
      <trkpt lat="49.03899" lon="1.12511">
        <ele>128.4</ele>
        <time>2015-12-20T08:56:07Z</time>
      </trkpt>
      <trkpt lat="49.0389" lon="1.12524">
        <ele>128.1</ele>
        <time>2015-12-20T08:56:10Z</time>
      </trkpt>
      <trkpt lat="49.0388" lon="1.12536">
        <ele>127.9</ele>
        <time>2015-12-20T08:56:13Z</time>
      </trkpt>
      <trkpt lat="49.0387" lon="1.12547">
        <ele>127.7</ele>
        <time>2015-12-20T08:56:16Z</time>
      </trkpt>
      <trkpt lat="49.0386" lon="1.1256">
        <ele>127.5</ele>
        <time>2015-12-20T08:56:19Z</time>
      </trkpt>
      <trkpt lat="49.03851" lon="1.12571">
        <ele>127.3</ele>
        <time>2015-12-20T08:56:22Z</time>
      </trkpt>
      <trkpt lat="49.0384" lon="1.12584">
        <ele>127</ele>
        <time>2015-12-20T08:56:25Z</time>
      </trkpt>
      <trkpt lat="49.03833" lon="1.12592">
        <ele>126.8</ele>
        <time>2015-12-20T08:56:27Z</time>
      </trkpt>
      <trkpt lat="49.03825" lon="1.12602">
        <ele>126.6</ele>
        <time>2015-12-20T08:56:29Z</time>
      </trkpt>
      <trkpt lat="49.03815" lon="1.12614">
        <ele>126.3</ele>
        <time>2015-12-20T08:56:32Z</time>
      </trkpt>
      <trkpt lat="49.03807" lon="1.12623">
        <ele>126.2</ele>
        <time>2015-12-20T08:56:34Z</time>
      </trkpt>
      <trkpt lat="49.03799" lon="1.12631">
        <ele>126</ele>
        <time>2015-12-20T08:56:36Z</time>
      </trkpt>
      <trkpt lat="49.03792" lon="1.1264">
        <ele>125.9</ele>
        <time>2015-12-20T08:56:38Z</time>
      </trkpt>
      <trkpt lat="49.03783" lon="1.12652">
        <ele>125.7</ele>
        <time>2015-12-20T08:56:40Z</time>
      </trkpt>
      <trkpt lat="49.03776" lon="1.12662">
        <ele>125.6</ele>
        <time>2015-12-20T08:56:42Z</time>
      </trkpt>
      <trkpt lat="49.03768" lon="1.12673">
        <ele>125.3</ele>
        <time>2015-12-20T08:56:45Z</time>
      </trkpt>
      <trkpt lat="49.03758" lon="1.12684">
        <ele>124.9</ele>
        <time>2015-12-20T08:56:48Z</time>
      </trkpt>
      <trkpt lat="49.03749" lon="1.12696">
        <ele>124.6</ele>
        <time>2015-12-20T08:56:51Z</time>
      </trkpt>
      <trkpt lat="49.0374" lon="1.12708">
        <ele>124.3</ele>
        <time>2015-12-20T08:56:54Z</time>
      </trkpt>
      <trkpt lat="49.0373" lon="1.12719">
        <ele>124</ele>
        <time>2015-12-20T08:56:57Z</time>
      </trkpt>
      <trkpt lat="49.0372" lon="1.12732">
        <ele>123.8</ele>
        <time>2015-12-20T08:57:00Z</time>
      </trkpt>
      <trkpt lat="49.03709" lon="1.12746">
        <ele>123.5</ele>
        <time>2015-12-20T08:57:03Z</time>
      </trkpt>
      <trkpt lat="49.03702" lon="1.12756">
        <ele>123.2</ele>
        <time>2015-12-20T08:57:05Z</time>
      </trkpt>
      <trkpt lat="49.03695" lon="1.12765">
        <ele>123.1</ele>
        <time>2015-12-20T08:57:07Z</time>
      </trkpt>
      <trkpt lat="49.03685" lon="1.12776">
        <ele>122.8</ele>
        <time>2015-12-20T08:57:10Z</time>
      </trkpt>
      <trkpt lat="49.03675" lon="1.12787">
        <ele>122.5</ele>
        <time>2015-12-20T08:57:13Z</time>
      </trkpt>
      <trkpt lat="49.03665" lon="1.12799">
        <ele>122.3</ele>
        <time>2015-12-20T08:57:16Z</time>
      </trkpt>
      <trkpt lat="49.03655" lon="1.12812">
        <ele>122.1</ele>
        <time>2015-12-20T08:57:19Z</time>
      </trkpt>
      <trkpt lat="49.03646" lon="1.12824">
        <ele>121.9</ele>
        <time>2015-12-20T08:57:22Z</time>
      </trkpt>
      <trkpt lat="49.03643" lon="1.12838">
        <ele>121.8</ele>
        <time>2015-12-20T08:57:25Z</time>
      </trkpt>
      <trkpt lat="49.03646" lon="1.12854">
        <ele>121.7</ele>
        <time>2015-12-20T08:57:28Z</time>
      </trkpt>
      <trkpt lat="49.03651" lon="1.12867">
        <ele>121.6</ele>
        <time>2015-12-20T08:57:31Z</time>
      </trkpt>
      <trkpt lat="49.03657" lon="1.12879">
        <ele>121.5</ele>
        <time>2015-12-20T08:57:34Z</time>
      </trkpt>
      <trkpt lat="49.03666" lon="1.1289">
        <ele>121.4</ele>
        <time>2015-12-20T08:57:37Z</time>
      </trkpt>
      <trkpt lat="49.03674" lon="1.12899">
        <ele>121.4</ele>
        <time>2015-12-20T08:57:40Z</time>
      </trkpt>
      <trkpt lat="49.03673" lon="1.12916">
        <ele>121.3</ele>
        <time>2015-12-20T08:57:43Z</time>
      </trkpt>
      <trkpt lat="49.03673" lon="1.12933">
        <ele>121.3</ele>
        <time>2015-12-20T08:57:46Z</time>
      </trkpt>
      <trkpt lat="49.03679" lon="1.12947">
        <ele>121.3</ele>
        <time>2015-12-20T08:57:49Z</time>
      </trkpt>
      <trkpt lat="49.03682" lon="1.12965">
        <ele>121.3</ele>
        <time>2015-12-20T08:57:53Z</time>
      </trkpt>
      <trkpt lat="49.03689" lon="1.12978">
        <ele>121.2</ele>
        <time>2015-12-20T08:57:57Z</time>
      </trkpt>
      <trkpt lat="49.03699" lon="1.12974">
        <ele>121.2</ele>
        <time>2015-12-20T08:58:01Z</time>
      </trkpt>
      <trkpt lat="49.03707" lon="1.12967">
        <ele>121.2</ele>
        <time>2015-12-20T08:58:04Z</time>
      </trkpt>
      <trkpt lat="49.03716" lon="1.12962">
        <ele>121.2</ele>
        <time>2015-12-20T08:58:07Z</time>
      </trkpt>
      <trkpt lat="49.03725" lon="1.12965">
        <ele>121.2</ele>
        <time>2015-12-20T08:58:12Z</time>
      </trkpt>
      <trkpt lat="49.03716" lon="1.12977">
        <ele>121.2</ele>
        <time>2015-12-20T08:58:16Z</time>
      </trkpt>
      <trkpt lat="49.03707" lon="1.12985">
        <ele>121.2</ele>
        <time>2015-12-20T08:58:19Z</time>
      </trkpt>
      <trkpt lat="49.03698" lon="1.12993">
        <ele>121.2</ele>
        <time>2015-12-20T08:58:22Z</time>
      </trkpt>
      <trkpt lat="49.03689" lon="1.13002">
        <ele>121.2</ele>
        <time>2015-12-20T08:58:25Z</time>
      </trkpt>
      <trkpt lat="49.03691" lon="1.13018">
        <ele>121.2</ele>
        <time>2015-12-20T08:58:29Z</time>
      </trkpt>
      <trkpt lat="49.03701" lon="1.13015">
        <ele>121.2</ele>
        <time>2015-12-20T08:58:32Z</time>
      </trkpt>
      <trkpt lat="49.03711" lon="1.13009">
        <ele>121.2</ele>
        <time>2015-12-20T08:58:35Z</time>
      </trkpt>
      <trkpt lat="49.03722" lon="1.13003">
        <ele>121.2</ele>
        <time>2015-12-20T08:58:38Z</time>
      </trkpt>
      <trkpt lat="49.03734" lon="1.12997">
        <ele>121.2</ele>
        <time>2015-12-20T08:58:41Z</time>
      </trkpt>
      <trkpt lat="49.03746" lon="1.12992">
        <ele>121.2</ele>
        <time>2015-12-20T08:58:44Z</time>
      </trkpt>
      <trkpt lat="49.03757" lon="1.12987">
        <ele>121.2</ele>
        <time>2015-12-20T08:58:47Z</time>
      </trkpt>
      <trkpt lat="49.03763" lon="1.13001">
        <ele>121.3</ele>
        <time>2015-12-20T08:58:50Z</time>
      </trkpt>
      <trkpt lat="49.03761" lon="1.13018">
        <ele>121.3</ele>
        <time>2015-12-20T08:58:53Z</time>
      </trkpt>
      <trkpt lat="49.03762" lon="1.13035">
        <ele>121.3</ele>
        <time>2015-12-20T08:58:56Z</time>
      </trkpt>
      <trkpt lat="49.03765" lon="1.13052">
        <ele>121.3</ele>
        <time>2015-12-20T08:58:59Z</time>
      </trkpt>
      <trkpt lat="49.03764" lon="1.1307">
        <ele>121.3</ele>
        <time>2015-12-20T08:59:02Z</time>
      </trkpt>
      <trkpt lat="49.03764" lon="1.13089">
        <ele>121.3</ele>
        <time>2015-12-20T08:59:05Z</time>
      </trkpt>
      <trkpt lat="49.0376" lon="1.13106">
        <ele>121.3</ele>
        <time>2015-12-20T08:59:08Z</time>
      </trkpt>
      <trkpt lat="49.03752" lon="1.13118">
        <ele>121.3</ele>
        <time>2015-12-20T08:59:11Z</time>
      </trkpt>
      <trkpt lat="49.03742" lon="1.13128">
        <ele>121.3</ele>
        <time>2015-12-20T08:59:14Z</time>
      </trkpt>
      <trkpt lat="49.03742" lon="1.13142">
        <ele>121.2</ele>
        <time>2015-12-20T08:59:18Z</time>
      </trkpt>
      <trkpt lat="49.03744" lon="1.13156">
        <ele>121</ele>
        <time>2015-12-20T08:59:21Z</time>
      </trkpt>
      <trkpt lat="49.03737" lon="1.13171">
        <ele>120.8</ele>
        <time>2015-12-20T08:59:24Z</time>
      </trkpt>
      <trkpt lat="49.03726" lon="1.13184">
        <ele>120.6</ele>
        <time>2015-12-20T08:59:27Z</time>
      </trkpt>
      <trkpt lat="49.0372" lon="1.13197">
        <ele>120.5</ele>
        <time>2015-12-20T08:59:30Z</time>
      </trkpt>
      <trkpt lat="49.03722" lon="1.13214">
        <ele>119.6</ele>
        <time>2015-12-20T09:00:12Z</time>
      </trkpt>
      <trkpt lat="49.03725" lon="1.13233">
        <ele>119.6</ele>
        <time>2015-12-20T09:00:16Z</time>
      </trkpt>
      <trkpt lat="49.03722" lon="1.13251">
        <ele>119.6</ele>
        <time>2015-12-20T09:00:19Z</time>
      </trkpt>
      <trkpt lat="49.03719" lon="1.13264">
        <ele>119.6</ele>
        <time>2015-12-20T09:00:21Z</time>
      </trkpt>
      <trkpt lat="49.03714" lon="1.13278">
        <ele>119.6</ele>
        <time>2015-12-20T09:00:23Z</time>
      </trkpt>
      <trkpt lat="49.03708" lon="1.1329">
        <ele>119.6</ele>
        <time>2015-12-20T09:00:25Z</time>
      </trkpt>
      <trkpt lat="49.037" lon="1.133">
        <ele>119.6</ele>
        <time>2015-12-20T09:00:27Z</time>
      </trkpt>
      <trkpt lat="49.0369" lon="1.13306">
        <ele>119.6</ele>
        <time>2015-12-20T09:00:29Z</time>
      </trkpt>
      <trkpt lat="49.0368" lon="1.13311">
        <ele>119.5</ele>
        <time>2015-12-20T09:00:31Z</time>
      </trkpt>
      <trkpt lat="49.03669" lon="1.13315">
        <ele>119.5</ele>
        <time>2015-12-20T09:00:33Z</time>
      </trkpt>
      <trkpt lat="49.03658" lon="1.1332">
        <ele>119.4</ele>
        <time>2015-12-20T09:00:35Z</time>
      </trkpt>
      <trkpt lat="49.03647" lon="1.13325">
        <ele>119.4</ele>
        <time>2015-12-20T09:00:37Z</time>
      </trkpt>
      <trkpt lat="49.03637" lon="1.13332">
        <ele>119.2</ele>
        <time>2015-12-20T09:00:39Z</time>
      </trkpt>
      <trkpt lat="49.03628" lon="1.13339">
        <ele>119.1</ele>
        <time>2015-12-20T09:00:41Z</time>
      </trkpt>
      <trkpt lat="49.03619" lon="1.13346">
        <ele>119</ele>
        <time>2015-12-20T09:00:43Z</time>
      </trkpt>
      <trkpt lat="49.03611" lon="1.13356">
        <ele>118.9</ele>
        <time>2015-12-20T09:00:45Z</time>
      </trkpt>
      <trkpt lat="49.03604" lon="1.13366">
        <ele>118.8</ele>
        <time>2015-12-20T09:00:47Z</time>
      </trkpt>
      <trkpt lat="49.03598" lon="1.13376">
        <ele>118.7</ele>
        <time>2015-12-20T09:00:49Z</time>
      </trkpt>
      <trkpt lat="49.03592" lon="1.13392">
        <ele>118.5</ele>
        <time>2015-12-20T09:00:52Z</time>
      </trkpt>
      <trkpt lat="49.03589" lon="1.13408">
        <ele>118.3</ele>
        <time>2015-12-20T09:00:55Z</time>
      </trkpt>
      <trkpt lat="49.03588" lon="1.13424">
        <ele>118.1</ele>
        <time>2015-12-20T09:00:58Z</time>
      </trkpt>
      <trkpt lat="49.03588" lon="1.13444">
        <ele>117.9</ele>
        <time>2015-12-20T09:01:01Z</time>
      </trkpt>
      <trkpt lat="49.03589" lon="1.13458">
        <ele>117.7</ele>
        <time>2015-12-20T09:01:03Z</time>
      </trkpt>
      <trkpt lat="49.03589" lon="1.13473">
        <ele>117.6</ele>
        <time>2015-12-20T09:01:05Z</time>
      </trkpt>
      <trkpt lat="49.03589" lon="1.13489">
        <ele>117.5</ele>
        <time>2015-12-20T09:01:07Z</time>
      </trkpt>
      <trkpt lat="49.03588" lon="1.13503">
        <ele>117.4</ele>
        <time>2015-12-20T09:01:09Z</time>
      </trkpt>
      <trkpt lat="49.03583" lon="1.13516">
        <ele>117.3</ele>
        <time>2015-12-20T09:01:11Z</time>
      </trkpt>
      <trkpt lat="49.03576" lon="1.13531">
        <ele>117.2</ele>
        <time>2015-12-20T09:01:14Z</time>
      </trkpt>
      <trkpt lat="49.03576" lon="1.13549">
        <ele>117.1</ele>
        <time>2015-12-20T09:01:17Z</time>
      </trkpt>
      <trkpt lat="49.03586" lon="1.13561">
        <ele>117</ele>
        <time>2015-12-20T09:01:20Z</time>
      </trkpt>
      <trkpt lat="49.03595" lon="1.13572">
        <ele>117</ele>
        <time>2015-12-20T09:01:23Z</time>
      </trkpt>
      <trkpt lat="49.03604" lon="1.1358">
        <ele>116.9</ele>
        <time>2015-12-20T09:01:26Z</time>
      </trkpt>
      <trkpt lat="49.03614" lon="1.13587">
        <ele>116.9</ele>
        <time>2015-12-20T09:01:29Z</time>
      </trkpt>
      <trkpt lat="49.03622" lon="1.13596">
        <ele>116.8</ele>
        <time>2015-12-20T09:01:32Z</time>
      </trkpt>
      <trkpt lat="49.03631" lon="1.13603">
        <ele>116.8</ele>
        <time>2015-12-20T09:01:35Z</time>
      </trkpt>
      <trkpt lat="49.0364" lon="1.13609">
        <ele>116.7</ele>
        <time>2015-12-20T09:01:38Z</time>
      </trkpt>
      <trkpt lat="49.03649" lon="1.13615">
        <ele>116.9</ele>
        <time>2015-12-20T09:01:41Z</time>
      </trkpt>
      <trkpt lat="49.0366" lon="1.13622">
        <ele>117</ele>
        <time>2015-12-20T09:01:44Z</time>
      </trkpt>
      <trkpt lat="49.03669" lon="1.13629">
        <ele>117.3</ele>
        <time>2015-12-20T09:01:47Z</time>
      </trkpt>
      <trkpt lat="49.03679" lon="1.13635">
        <ele>117.4</ele>
        <time>2015-12-20T09:01:50Z</time>
      </trkpt>
      <trkpt lat="49.03688" lon="1.13638">
        <ele>117.6</ele>
        <time>2015-12-20T09:01:53Z</time>
      </trkpt>
      <trkpt lat="49.03691" lon="1.13655">
        <ele>117.9</ele>
        <time>2015-12-20T09:01:58Z</time>
      </trkpt>
      <trkpt lat="49.03698" lon="1.13667">
        <ele>118.1</ele>
        <time>2015-12-20T09:02:01Z</time>
      </trkpt>
      <trkpt lat="49.03706" lon="1.13675">
        <ele>118.4</ele>
        <time>2015-12-20T09:02:04Z</time>
      </trkpt>
      <trkpt lat="49.03717" lon="1.13684">
        <ele>118.7</ele>
        <time>2015-12-20T09:02:07Z</time>
      </trkpt>
      <trkpt lat="49.03729" lon="1.13691">
        <ele>119</ele>
        <time>2015-12-20T09:02:10Z</time>
      </trkpt>
      <trkpt lat="49.0374" lon="1.13699">
        <ele>119.3</ele>
        <time>2015-12-20T09:02:13Z</time>
      </trkpt>
      <trkpt lat="49.03752" lon="1.13707">
        <ele>119.5</ele>
        <time>2015-12-20T09:02:16Z</time>
      </trkpt>
      <trkpt lat="49.0376" lon="1.13714">
        <ele>119.6</ele>
        <time>2015-12-20T09:02:18Z</time>
      </trkpt>
      <trkpt lat="49.03769" lon="1.13722">
        <ele>119.7</ele>
        <time>2015-12-20T09:02:20Z</time>
      </trkpt>
      <trkpt lat="49.03777" lon="1.13729">
        <ele>119</ele>
        <time>2015-12-20T09:02:22Z</time>
      </trkpt>
      <trkpt lat="49.0379" lon="1.13739">
        <ele>120.3</ele>
        <time>2015-12-20T09:02:25Z</time>
      </trkpt>
      <trkpt lat="49.038" lon="1.13746">
        <ele>120.5</ele>
        <time>2015-12-20T09:02:27Z</time>
      </trkpt>
      <trkpt lat="49.03809" lon="1.13754">
        <ele>120.7</ele>
        <time>2015-12-20T09:02:29Z</time>
      </trkpt>
      <trkpt lat="49.03819" lon="1.13761">
        <ele>120.8</ele>
        <time>2015-12-20T09:02:31Z</time>
      </trkpt>
      <trkpt lat="49.03831" lon="1.13768">
        <ele>121</ele>
        <time>2015-12-20T09:02:34Z</time>
      </trkpt>
      <trkpt lat="49.0384" lon="1.13775">
        <ele>121.2</ele>
        <time>2015-12-20T09:02:36Z</time>
      </trkpt>
      <trkpt lat="49.03851" lon="1.13782">
        <ele>121.5</ele>
        <time>2015-12-20T09:02:39Z</time>
      </trkpt>
      <trkpt lat="49.03861" lon="1.1379">
        <ele>121.7</ele>
        <time>2015-12-20T09:02:42Z</time>
      </trkpt>
      <trkpt lat="49.03868" lon="1.13798">
        <ele>121.9</ele>
        <time>2015-12-20T09:02:44Z</time>
      </trkpt>
      <trkpt lat="49.03876" lon="1.13806">
        <ele>122</ele>
        <time>2015-12-20T09:02:46Z</time>
      </trkpt>
      <trkpt lat="49.03885" lon="1.13815">
        <ele>122.1</ele>
        <time>2015-12-20T09:02:48Z</time>
      </trkpt>
      <trkpt lat="49.03894" lon="1.13822">
        <ele>122.2</ele>
        <time>2015-12-20T09:02:50Z</time>
      </trkpt>
      <trkpt lat="49.03903" lon="1.13829">
        <ele>122.3</ele>
        <time>2015-12-20T09:02:52Z</time>
      </trkpt>
      <trkpt lat="49.03912" lon="1.13837">
        <ele>122.4</ele>
        <time>2015-12-20T09:02:54Z</time>
      </trkpt>
      <trkpt lat="49.03924" lon="1.13846">
        <ele>122.6</ele>
        <time>2015-12-20T09:02:57Z</time>
      </trkpt>
      <trkpt lat="49.03932" lon="1.13855">
        <ele>122.6</ele>
        <time>2015-12-20T09:02:59Z</time>
      </trkpt>
      <trkpt lat="49.03941" lon="1.13863">
        <ele>122.7</ele>
        <time>2015-12-20T09:03:01Z</time>
      </trkpt>
      <trkpt lat="49.0395" lon="1.13869">
        <ele>122.8</ele>
        <time>2015-12-20T09:03:03Z</time>
      </trkpt>
      <trkpt lat="49.03961" lon="1.13878">
        <ele>122.8</ele>
        <time>2015-12-20T09:03:05Z</time>
      </trkpt>
      <trkpt lat="49.03971" lon="1.13887">
        <ele>122.8</ele>
        <time>2015-12-20T09:03:07Z</time>
      </trkpt>
      <trkpt lat="49.03979" lon="1.13894">
        <ele>122.9</ele>
        <time>2015-12-20T09:03:09Z</time>
      </trkpt>
      <trkpt lat="49.0399" lon="1.13902">
        <ele>122.9</ele>
        <time>2015-12-20T09:03:12Z</time>
      </trkpt>
      <trkpt lat="49.03994" lon="1.13915">
        <ele>123</ele>
        <time>2015-12-20T09:03:14Z</time>
      </trkpt>
      <trkpt lat="49.03995" lon="1.13933">
        <ele>123</ele>
        <time>2015-12-20T09:03:17Z</time>
      </trkpt>
      <trkpt lat="49.03994" lon="1.13949">
        <ele>123</ele>
        <time>2015-12-20T09:03:20Z</time>
      </trkpt>
      <trkpt lat="49.03991" lon="1.13963">
        <ele>123</ele>
        <time>2015-12-20T09:03:23Z</time>
      </trkpt>
      <trkpt lat="49.03986" lon="1.13977">
        <ele>123.1</ele>
        <time>2015-12-20T09:03:26Z</time>
      </trkpt>
      <trkpt lat="49.03981" lon="1.13991">
        <ele>123</ele>
        <time>2015-12-20T09:03:29Z</time>
      </trkpt>
      <trkpt lat="49.03983" lon="1.1401">
        <ele>123</ele>
        <time>2015-12-20T09:03:32Z</time>
      </trkpt>
      <trkpt lat="49.03985" lon="1.14034">
        <ele>123</ele>
        <time>2015-12-20T09:03:35Z</time>
      </trkpt>
      <trkpt lat="49.03979" lon="1.14049">
        <ele>122.9</ele>
        <time>2015-12-20T09:03:38Z</time>
      </trkpt>
      <trkpt lat="49.03974" lon="1.14064">
        <ele>122.8</ele>
        <time>2015-12-20T09:03:42Z</time>
      </trkpt>
      <trkpt lat="49.03971" lon="1.14077">
        <ele>122.5</ele>
        <time>2015-12-20T09:03:47Z</time>
      </trkpt>
      <trkpt lat="49.03976" lon="1.1409">
        <ele>122.4</ele>
        <time>2015-12-20T09:03:51Z</time>
      </trkpt>
      <trkpt lat="49.03977" lon="1.14104">
        <ele>122.2</ele>
        <time>2015-12-20T09:04:01Z</time>
      </trkpt>
      <trkpt lat="49.03976" lon="1.14118">
        <ele>121.9</ele>
        <time>2015-12-20T09:04:34Z</time>
      </trkpt>
      <trkpt lat="49.03969" lon="1.1413">
        <ele>121.9</ele>
        <time>2015-12-20T09:04:39Z</time>
      </trkpt>
      <trkpt lat="49.03963" lon="1.14141">
        <ele>121.9</ele>
        <time>2015-12-20T09:04:42Z</time>
      </trkpt>
      <trkpt lat="49.03955" lon="1.14153">
        <ele>121.9</ele>
        <time>2015-12-20T09:04:45Z</time>
      </trkpt>
      <trkpt lat="49.03942" lon="1.14154">
        <ele>121.9</ele>
        <time>2015-12-20T09:04:48Z</time>
      </trkpt>
      <trkpt lat="49.0393" lon="1.14159">
        <ele>121.9</ele>
        <time>2015-12-20T09:04:52Z</time>
      </trkpt>
      <trkpt lat="49.0392" lon="1.14164">
        <ele>121.9</ele>
        <time>2015-12-20T09:04:55Z</time>
      </trkpt>
      <trkpt lat="49.03907" lon="1.14176">
        <ele>121.9</ele>
        <time>2015-12-20T09:04:58Z</time>
      </trkpt>
      <trkpt lat="49.039" lon="1.14184">
        <ele>121.9</ele>
        <time>2015-12-20T09:05:00Z</time>
      </trkpt>
      <trkpt lat="49.03891" lon="1.14189">
        <ele>122</ele>
        <time>2015-12-20T09:05:02Z</time>
      </trkpt>
      <trkpt lat="49.03884" lon="1.14207">
        <ele>122</ele>
        <time>2015-12-20T09:05:05Z</time>
      </trkpt>
      <trkpt lat="49.03881" lon="1.14227">
        <ele>122</ele>
        <time>2015-12-20T09:05:08Z</time>
      </trkpt>
      <trkpt lat="49.03884" lon="1.14243">
        <ele>122</ele>
        <time>2015-12-20T09:05:10Z</time>
      </trkpt>
      <trkpt lat="49.0389" lon="1.14261">
        <ele>121.9</ele>
        <time>2015-12-20T09:05:13Z</time>
      </trkpt>
      <trkpt lat="49.0389" lon="1.14282">
        <ele>121.9</ele>
        <time>2015-12-20T09:05:16Z</time>
      </trkpt>
      <trkpt lat="49.03888" lon="1.14302">
        <ele>121.9</ele>
        <time>2015-12-20T09:05:19Z</time>
      </trkpt>
      <trkpt lat="49.0389" lon="1.14317">
        <ele>121.8</ele>
        <time>2015-12-20T09:05:21Z</time>
      </trkpt>
      <trkpt lat="49.03891" lon="1.14335">
        <ele>121.6</ele>
        <time>2015-12-20T09:05:23Z</time>
      </trkpt>
      <trkpt lat="49.03887" lon="1.14351">
        <ele>121.5</ele>
        <time>2015-12-20T09:05:25Z</time>
      </trkpt>
      <trkpt lat="49.03882" lon="1.14365">
        <ele>121.3</ele>
        <time>2015-12-20T09:05:27Z</time>
      </trkpt>
      <trkpt lat="49.03878" lon="1.14379">
        <ele>121.2</ele>
        <time>2015-12-20T09:05:29Z</time>
      </trkpt>
      <trkpt lat="49.0387" lon="1.14395">
        <ele>121.2</ele>
        <time>2015-12-20T09:05:32Z</time>
      </trkpt>
      <trkpt lat="49.03863" lon="1.14403">
        <ele>121.2</ele>
        <time>2015-12-20T09:05:34Z</time>
      </trkpt>
      <trkpt lat="49.03859" lon="1.1442">
        <ele>121.2</ele>
        <time>2015-12-20T09:05:37Z</time>
      </trkpt>
      <trkpt lat="49.03858" lon="1.14435">
        <ele>121.2</ele>
        <time>2015-12-20T09:05:39Z</time>
      </trkpt>
      <trkpt lat="49.03861" lon="1.14451">
        <ele>121.1</ele>
        <time>2015-12-20T09:05:41Z</time>
      </trkpt>
      <trkpt lat="49.03858" lon="1.1447">
        <ele>121.1</ele>
        <time>2015-12-20T09:05:44Z</time>
      </trkpt>
      <trkpt lat="49.03851" lon="1.14481">
        <ele>121.1</ele>
        <time>2015-12-20T09:05:46Z</time>
      </trkpt>
      <trkpt lat="49.03847" lon="1.14495">
        <ele>121</ele>
        <time>2015-12-20T09:05:48Z</time>
      </trkpt>
      <trkpt lat="49.03844" lon="1.1451">
        <ele>120.8</ele>
        <time>2015-12-20T09:05:50Z</time>
      </trkpt>
      <trkpt lat="49.0384" lon="1.14523">
        <ele>120.7</ele>
        <time>2015-12-20T09:05:52Z</time>
      </trkpt>
      <trkpt lat="49.03834" lon="1.14539">
        <ele>120.5</ele>
        <time>2015-12-20T09:05:54Z</time>
      </trkpt>
      <trkpt lat="49.03834" lon="1.14557">
        <ele>120.3</ele>
        <time>2015-12-20T09:05:56Z</time>
      </trkpt>
      <trkpt lat="49.03835" lon="1.14574">
        <ele>120.2</ele>
        <time>2015-12-20T09:05:58Z</time>
      </trkpt>
      <trkpt lat="49.0383" lon="1.1459">
        <ele>120.1</ele>
        <time>2015-12-20T09:06:00Z</time>
      </trkpt>
      <trkpt lat="49.03826" lon="1.14604">
        <ele>119.9</ele>
        <time>2015-12-20T09:06:02Z</time>
      </trkpt>
      <trkpt lat="49.0382" lon="1.14618">
        <ele>119.8</ele>
        <time>2015-12-20T09:06:04Z</time>
      </trkpt>
      <trkpt lat="49.03812" lon="1.14636">
        <ele>119.6</ele>
        <time>2015-12-20T09:06:07Z</time>
      </trkpt>
      <trkpt lat="49.03806" lon="1.1465">
        <ele>119.4</ele>
        <time>2015-12-20T09:06:09Z</time>
      </trkpt>
      <trkpt lat="49.03799" lon="1.14664">
        <ele>119.3</ele>
        <time>2015-12-20T09:06:11Z</time>
      </trkpt>
      <trkpt lat="49.03798" lon="1.14679">
        <ele>119.2</ele>
        <time>2015-12-20T09:06:13Z</time>
      </trkpt>
      <trkpt lat="49.03796" lon="1.14695">
        <ele>119</ele>
        <time>2015-12-20T09:06:15Z</time>
      </trkpt>
      <trkpt lat="49.03788" lon="1.14704">
        <ele>118.8</ele>
        <time>2015-12-20T09:06:18Z</time>
      </trkpt>
      <trkpt lat="49.03777" lon="1.14712">
        <ele>118.6</ele>
        <time>2015-12-20T09:06:20Z</time>
      </trkpt>
      <trkpt lat="49.03769" lon="1.14722">
        <ele>118.5</ele>
        <time>2015-12-20T09:06:22Z</time>
      </trkpt>
      <trkpt lat="49.03758" lon="1.14723">
        <ele>118.3</ele>
        <time>2015-12-20T09:06:25Z</time>
      </trkpt>
      <trkpt lat="49.03749" lon="1.14727">
        <ele>118.2</ele>
        <time>2015-12-20T09:06:27Z</time>
      </trkpt>
      <trkpt lat="49.0374" lon="1.14732">
        <ele>118.1</ele>
        <time>2015-12-20T09:06:29Z</time>
      </trkpt>
      <trkpt lat="49.03729" lon="1.14737">
        <ele>118</ele>
        <time>2015-12-20T09:06:31Z</time>
      </trkpt>
      <trkpt lat="49.0372" lon="1.14742">
        <ele>117.7</ele>
        <time>2015-12-20T09:06:33Z</time>
      </trkpt>
      <trkpt lat="49.03711" lon="1.14751">
        <ele>117.4</ele>
        <time>2015-12-20T09:06:35Z</time>
      </trkpt>
      <trkpt lat="49.03701" lon="1.14757">
        <ele>117</ele>
        <time>2015-12-20T09:06:38Z</time>
      </trkpt>
      <trkpt lat="49.03692" lon="1.14762">
        <ele>116.6</ele>
        <time>2015-12-20T09:06:41Z</time>
      </trkpt>
      <trkpt lat="49.03684" lon="1.14771">
        <ele>116.3</ele>
        <time>2015-12-20T09:06:44Z</time>
      </trkpt>
      <trkpt lat="49.0367" lon="1.14776">
        <ele>115.9</ele>
        <time>2015-12-20T09:06:47Z</time>
      </trkpt>
      <trkpt lat="49.03661" lon="1.14783">
        <ele>115.7</ele>
        <time>2015-12-20T09:06:49Z</time>
      </trkpt>
      <trkpt lat="49.03648" lon="1.14787">
        <ele>115.3</ele>
        <time>2015-12-20T09:06:51Z</time>
      </trkpt>
      <trkpt lat="49.03636" lon="1.14788">
        <ele>115</ele>
        <time>2015-12-20T09:06:53Z</time>
      </trkpt>
      <trkpt lat="49.03627" lon="1.14792">
        <ele>114.6</ele>
        <time>2015-12-20T09:06:55Z</time>
      </trkpt>
      <trkpt lat="49.0362" lon="1.14802">
        <ele>113.8</ele>
        <time>2015-12-20T09:06:59Z</time>
      </trkpt>
      <trkpt lat="49.03614" lon="1.14816">
        <ele>112.9</ele>
        <time>2015-12-20T09:07:04Z</time>
      </trkpt>
      <trkpt lat="49.0361" lon="1.14832">
        <ele>112.2</ele>
        <time>2015-12-20T09:07:07Z</time>
      </trkpt>
      <trkpt lat="49.03604" lon="1.14843">
        <ele>111.7</ele>
        <time>2015-12-20T09:07:09Z</time>
      </trkpt>
      <trkpt lat="49.03595" lon="1.14853">
        <ele>110.9</ele>
        <time>2015-12-20T09:07:11Z</time>
      </trkpt>
      <trkpt lat="49.03589" lon="1.14872">
        <ele>110</ele>
        <time>2015-12-20T09:07:13Z</time>
      </trkpt>
      <trkpt lat="49.03588" lon="1.14895">
        <ele>108.8</ele>
        <time>2015-12-20T09:07:15Z</time>
      </trkpt>
      <trkpt lat="49.03587" lon="1.14918">
        <ele>107.7</ele>
        <time>2015-12-20T09:07:17Z</time>
      </trkpt>
      <trkpt lat="49.03589" lon="1.1494">
        <ele>106.7</ele>
        <time>2015-12-20T09:07:19Z</time>
      </trkpt>
      <trkpt lat="49.03588" lon="1.14957">
        <ele>105.8</ele>
        <time>2015-12-20T09:07:21Z</time>
      </trkpt>
      <trkpt lat="49.03584" lon="1.14975">
        <ele>105</ele>
        <time>2015-12-20T09:07:23Z</time>
      </trkpt>
      <trkpt lat="49.03578" lon="1.14995">
        <ele>104.3</ele>
        <time>2015-12-20T09:07:25Z</time>
      </trkpt>
      <trkpt lat="49.0357" lon="1.15012">
        <ele>103.3</ele>
        <time>2015-12-20T09:07:27Z</time>
      </trkpt>
      <trkpt lat="49.0356" lon="1.15026">
        <ele>102.2</ele>
        <time>2015-12-20T09:07:29Z</time>
      </trkpt>
      <trkpt lat="49.03552" lon="1.15048">
        <ele>100.9</ele>
        <time>2015-12-20T09:07:31Z</time>
      </trkpt>
      <trkpt lat="49.03543" lon="1.15071">
        <ele>99.6</ele>
        <time>2015-12-20T09:07:33Z</time>
      </trkpt>
      <trkpt lat="49.03538" lon="1.15083">
        <ele>99</ele>
        <time>2015-12-20T09:07:34Z</time>
      </trkpt>
      <trkpt lat="49.03533" lon="1.15096">
        <ele>98.3</ele>
        <time>2015-12-20T09:07:35Z</time>
      </trkpt>
      <trkpt lat="49.03528" lon="1.15108">
        <ele>97.6</ele>
        <time>2015-12-20T09:07:36Z</time>
      </trkpt>
      <trkpt lat="49.03523" lon="1.15121">
        <ele>96.9</ele>
        <time>2015-12-20T09:07:37Z</time>
      </trkpt>
      <trkpt lat="49.03518" lon="1.15134">
        <ele>96.2</ele>
        <time>2015-12-20T09:07:38Z</time>
      </trkpt>
      <trkpt lat="49.03512" lon="1.15146">
        <ele>95.5</ele>
        <time>2015-12-20T09:07:39Z</time>
      </trkpt>
      <trkpt lat="49.03507" lon="1.15159">
        <ele>94.8</ele>
        <time>2015-12-20T09:07:40Z</time>
      </trkpt>
      <trkpt lat="49.03502" lon="1.15171">
        <ele>94.1</ele>
        <time>2015-12-20T09:07:41Z</time>
      </trkpt>
      <trkpt lat="49.03497" lon="1.15184">
        <ele>93.4</ele>
        <time>2015-12-20T09:07:42Z</time>
      </trkpt>
      <trkpt lat="49.03492" lon="1.15197">
        <ele>92.7</ele>
        <time>2015-12-20T09:07:43Z</time>
      </trkpt>
      <trkpt lat="49.03486" lon="1.15209">
        <ele>92.1</ele>
        <time>2015-12-20T09:07:44Z</time>
      </trkpt>
      <trkpt lat="49.03479" lon="1.15229">
        <ele>90.7</ele>
        <time>2015-12-20T09:07:46Z</time>
      </trkpt>
      <trkpt lat="49.03473" lon="1.1524">
        <ele>89.2</ele>
        <time>2015-12-20T09:07:48Z</time>
      </trkpt>
      <trkpt lat="49.03462" lon="1.15239">
        <ele>87</ele>
        <time>2015-12-20T09:07:51Z</time>
      </trkpt>
      <trkpt lat="49.03449" lon="1.15238">
        <ele>85.1</ele>
        <time>2015-12-20T09:07:54Z</time>
      </trkpt>
      <trkpt lat="49.03442" lon="1.15249">
        <ele>83.6</ele>
        <time>2015-12-20T09:07:56Z</time>
      </trkpt>
      <trkpt lat="49.03434" lon="1.15256">
        <ele>82.1</ele>
        <time>2015-12-20T09:07:58Z</time>
      </trkpt>
      <trkpt lat="49.03424" lon="1.15253">
        <ele>80.4</ele>
        <time>2015-12-20T09:08:00Z</time>
      </trkpt>
      <trkpt lat="49.03415" lon="1.15251">
        <ele>78.8</ele>
        <time>2015-12-20T09:08:02Z</time>
      </trkpt>
      <trkpt lat="49.03413" lon="1.15269">
        <ele>75.9</ele>
        <time>2015-12-20T09:08:06Z</time>
      </trkpt>
      <trkpt lat="49.03414" lon="1.15285">
        <ele>73.4</ele>
        <time>2015-12-20T09:08:10Z</time>
      </trkpt>
      <trkpt lat="49.0341" lon="1.153">
        <ele>63.5</ele>
        <time>2015-12-20T09:09:59Z</time>
      </trkpt>
      <trkpt lat="49.03411" lon="1.15315">
        <ele>63.5</ele>
        <time>2015-12-20T09:10:02Z</time>
      </trkpt>
      <trkpt lat="49.03414" lon="1.15329">
        <ele>63.5</ele>
        <time>2015-12-20T09:10:04Z</time>
      </trkpt>
      <trkpt lat="49.0342" lon="1.15344">
        <ele>63.5</ele>
        <time>2015-12-20T09:10:06Z</time>
      </trkpt>
      <trkpt lat="49.03426" lon="1.15361">
        <ele>63.4</ele>
        <time>2015-12-20T09:10:08Z</time>
      </trkpt>
      <trkpt lat="49.03432" lon="1.15379">
        <ele>63.1</ele>
        <time>2015-12-20T09:10:10Z</time>
      </trkpt>
      <trkpt lat="49.0344" lon="1.15398">
        <ele>62.8</ele>
        <time>2015-12-20T09:10:12Z</time>
      </trkpt>
      <trkpt lat="49.03448" lon="1.15418">
        <ele>62.5</ele>
        <time>2015-12-20T09:10:14Z</time>
      </trkpt>
      <trkpt lat="49.03456" lon="1.15439">
        <ele>62</ele>
        <time>2015-12-20T09:10:16Z</time>
      </trkpt>
      <trkpt lat="49.03464" lon="1.1546">
        <ele>61.5</ele>
        <time>2015-12-20T09:10:18Z</time>
      </trkpt>
      <trkpt lat="49.03471" lon="1.15481">
        <ele>60.9</ele>
        <time>2015-12-20T09:10:20Z</time>
      </trkpt>
      <trkpt lat="49.03473" lon="1.15503">
        <ele>60.3</ele>
        <time>2015-12-20T09:10:22Z</time>
      </trkpt>
      <trkpt lat="49.03469" lon="1.15523">
        <ele>59.6</ele>
        <time>2015-12-20T09:10:24Z</time>
      </trkpt>
      <trkpt lat="49.0346" lon="1.15538">
        <ele>58.9</ele>
        <time>2015-12-20T09:10:26Z</time>
      </trkpt>
      <trkpt lat="49.03449" lon="1.15546">
        <ele>58.3</ele>
        <time>2015-12-20T09:10:28Z</time>
      </trkpt>
      <trkpt lat="49.03437" lon="1.1555">
        <ele>57.5</ele>
        <time>2015-12-20T09:10:30Z</time>
      </trkpt>
      <trkpt lat="49.03425" lon="1.15552">
        <ele>56.9</ele>
        <time>2015-12-20T09:10:32Z</time>
      </trkpt>
      <trkpt lat="49.03413" lon="1.15555">
        <ele>56.3</ele>
        <time>2015-12-20T09:10:34Z</time>
      </trkpt>
      <trkpt lat="49.03401" lon="1.15558">
        <ele>55.8</ele>
        <time>2015-12-20T09:10:36Z</time>
      </trkpt>
      <trkpt lat="49.0339" lon="1.1556">
        <ele>55.3</ele>
        <time>2015-12-20T09:10:38Z</time>
      </trkpt>
      <trkpt lat="49.0338" lon="1.15564">
        <ele>54.9</ele>
        <time>2015-12-20T09:10:40Z</time>
      </trkpt>
      <trkpt lat="49.0337" lon="1.15567">
        <ele>54.4</ele>
        <time>2015-12-20T09:10:42Z</time>
      </trkpt>
      <trkpt lat="49.03361" lon="1.15566">
        <ele>54.1</ele>
        <time>2015-12-20T09:10:44Z</time>
      </trkpt>
      <trkpt lat="49.03351" lon="1.15564">
        <ele>53.8</ele>
        <time>2015-12-20T09:10:46Z</time>
      </trkpt>
      <trkpt lat="49.03341" lon="1.15562">
        <ele>53.5</ele>
        <time>2015-12-20T09:10:48Z</time>
      </trkpt>
      <trkpt lat="49.03331" lon="1.15559">
        <ele>53.2</ele>
        <time>2015-12-20T09:10:50Z</time>
      </trkpt>
      <trkpt lat="49.03322" lon="1.15557">
        <ele>53</ele>
        <time>2015-12-20T09:10:52Z</time>
      </trkpt>
      <trkpt lat="49.03313" lon="1.15556">
        <ele>52.8</ele>
        <time>2015-12-20T09:10:54Z</time>
      </trkpt>
      <trkpt lat="49.033" lon="1.15554">
        <ele>52.5</ele>
        <time>2015-12-20T09:10:57Z</time>
      </trkpt>
      <trkpt lat="49.03287" lon="1.1555">
        <ele>52.3</ele>
        <time>2015-12-20T09:11:00Z</time>
      </trkpt>
      <trkpt lat="49.03279" lon="1.15558">
        <ele>52.2</ele>
        <time>2015-12-20T09:11:02Z</time>
      </trkpt>
      <trkpt lat="49.03274" lon="1.15571">
        <ele>52.1</ele>
        <time>2015-12-20T09:11:04Z</time>
      </trkpt>
      <trkpt lat="49.03269" lon="1.15586">
        <ele>52</ele>
        <time>2015-12-20T09:11:06Z</time>
      </trkpt>
      <trkpt lat="49.03263" lon="1.156">
        <ele>51.9</ele>
        <time>2015-12-20T09:11:08Z</time>
      </trkpt>
      <trkpt lat="49.03257" lon="1.15615">
        <ele>51.8</ele>
        <time>2015-12-20T09:11:10Z</time>
      </trkpt>
      <trkpt lat="49.03251" lon="1.15629">
        <ele>51.7</ele>
        <time>2015-12-20T09:11:12Z</time>
      </trkpt>
      <trkpt lat="49.03244" lon="1.15644">
        <ele>51.6</ele>
        <time>2015-12-20T09:11:15Z</time>
      </trkpt>
      <trkpt lat="49.03238" lon="1.15657">
        <ele>50.7</ele>
        <time>2015-12-20T09:11:57Z</time>
      </trkpt>
      <trkpt lat="49.03233" lon="1.15671">
        <ele>50.7</ele>
        <time>2015-12-20T09:12:00Z</time>
      </trkpt>
      <trkpt lat="49.03229" lon="1.15689">
        <ele>50.7</ele>
        <time>2015-12-20T09:12:03Z</time>
      </trkpt>
      <trkpt lat="49.03226" lon="1.15702">
        <ele>50.6</ele>
        <time>2015-12-20T09:12:05Z</time>
      </trkpt>
      <trkpt lat="49.03223" lon="1.15717">
        <ele>50.6</ele>
        <time>2015-12-20T09:12:07Z</time>
      </trkpt>
      <trkpt lat="49.03221" lon="1.15732">
        <ele>50.6</ele>
        <time>2015-12-20T09:12:09Z</time>
      </trkpt>
      <trkpt lat="49.03218" lon="1.15747">
        <ele>50.6</ele>
        <time>2015-12-20T09:12:11Z</time>
      </trkpt>
      <trkpt lat="49.03214" lon="1.15763">
        <ele>50.6</ele>
        <time>2015-12-20T09:12:13Z</time>
      </trkpt>
      <trkpt lat="49.03211" lon="1.15779">
        <ele>50.6</ele>
        <time>2015-12-20T09:12:15Z</time>
      </trkpt>
      <trkpt lat="49.03208" lon="1.15795">
        <ele>50.6</ele>
        <time>2015-12-20T09:12:17Z</time>
      </trkpt>
      <trkpt lat="49.03204" lon="1.1581">
        <ele>50.6</ele>
        <time>2015-12-20T09:12:19Z</time>
      </trkpt>
      <trkpt lat="49.03199" lon="1.15824">
        <ele>50.6</ele>
        <time>2015-12-20T09:12:21Z</time>
      </trkpt>
      <trkpt lat="49.03194" lon="1.15839">
        <ele>50.6</ele>
        <time>2015-12-20T09:12:23Z</time>
      </trkpt>
      <trkpt lat="49.0319" lon="1.15853">
        <ele>50.6</ele>
        <time>2015-12-20T09:12:25Z</time>
      </trkpt>
      <trkpt lat="49.03184" lon="1.15865">
        <ele>50.6</ele>
        <time>2015-12-20T09:12:27Z</time>
      </trkpt>
      <trkpt lat="49.03177" lon="1.15881">
        <ele>50.6</ele>
        <time>2015-12-20T09:12:30Z</time>
      </trkpt>
      <trkpt lat="49.03171" lon="1.15892">
        <ele>50.6</ele>
        <time>2015-12-20T09:12:32Z</time>
      </trkpt>
      <trkpt lat="49.03164" lon="1.15902">
        <ele>50.7</ele>
        <time>2015-12-20T09:12:34Z</time>
      </trkpt>
      <trkpt lat="49.03158" lon="1.15913">
        <ele>50.7</ele>
        <time>2015-12-20T09:12:36Z</time>
      </trkpt>
      <trkpt lat="49.03149" lon="1.15928">
        <ele>50.8</ele>
        <time>2015-12-20T09:12:39Z</time>
      </trkpt>
      <trkpt lat="49.03141" lon="1.15943">
        <ele>50.9</ele>
        <time>2015-12-20T09:12:42Z</time>
      </trkpt>
      <trkpt lat="49.03132" lon="1.15958">
        <ele>51</ele>
        <time>2015-12-20T09:12:45Z</time>
      </trkpt>
      <trkpt lat="49.03124" lon="1.15973">
        <ele>51.2</ele>
        <time>2015-12-20T09:12:48Z</time>
      </trkpt>
      <trkpt lat="49.03118" lon="1.15983">
        <ele>51.4</ele>
        <time>2015-12-20T09:12:50Z</time>
      </trkpt>
      <trkpt lat="49.03109" lon="1.15998">
        <ele>51.7</ele>
        <time>2015-12-20T09:12:53Z</time>
      </trkpt>
      <trkpt lat="49.03099" lon="1.16012">
        <ele>52.1</ele>
        <time>2015-12-20T09:12:56Z</time>
      </trkpt>
      <trkpt lat="49.0309" lon="1.16026">
        <ele>52.5</ele>
        <time>2015-12-20T09:12:59Z</time>
      </trkpt>
      <trkpt lat="49.03081" lon="1.1604">
        <ele>52.9</ele>
        <time>2015-12-20T09:13:02Z</time>
      </trkpt>
      <trkpt lat="49.03073" lon="1.16053">
        <ele>53.3</ele>
        <time>2015-12-20T09:13:05Z</time>
      </trkpt>
      <trkpt lat="49.03065" lon="1.16067">
        <ele>53.6</ele>
        <time>2015-12-20T09:13:08Z</time>
      </trkpt>
      <trkpt lat="49.03058" lon="1.16082">
        <ele>53.9</ele>
        <time>2015-12-20T09:13:11Z</time>
      </trkpt>
      <trkpt lat="49.03051" lon="1.16094">
        <ele>54.3</ele>
        <time>2015-12-20T09:13:14Z</time>
      </trkpt>
      <trkpt lat="49.03044" lon="1.16109">
        <ele>54.8</ele>
        <time>2015-12-20T09:13:17Z</time>
      </trkpt>
      <trkpt lat="49.03037" lon="1.16123">
        <ele>55.2</ele>
        <time>2015-12-20T09:13:20Z</time>
      </trkpt>
      <trkpt lat="49.03032" lon="1.16138">
        <ele>55.6</ele>
        <time>2015-12-20T09:13:23Z</time>
      </trkpt>
      <trkpt lat="49.03027" lon="1.16154">
        <ele>56.1</ele>
        <time>2015-12-20T09:13:26Z</time>
      </trkpt>
      <trkpt lat="49.03022" lon="1.1617">
        <ele>56.5</ele>
        <time>2015-12-20T09:13:29Z</time>
      </trkpt>
      <trkpt lat="49.03018" lon="1.16187">
        <ele>56.9</ele>
        <time>2015-12-20T09:13:32Z</time>
      </trkpt>
      <trkpt lat="49.03013" lon="1.16204">
        <ele>57.4</ele>
        <time>2015-12-20T09:13:35Z</time>
      </trkpt>
      <trkpt lat="49.03008" lon="1.16221">
        <ele>57.8</ele>
        <time>2015-12-20T09:13:38Z</time>
      </trkpt>
      <trkpt lat="49.03003" lon="1.16238">
        <ele>58.2</ele>
        <time>2015-12-20T09:13:41Z</time>
      </trkpt>
      <trkpt lat="49.02999" lon="1.16253">
        <ele>58.7</ele>
        <time>2015-12-20T09:13:44Z</time>
      </trkpt>
      <trkpt lat="49.02995" lon="1.16268">
        <ele>59.2</ele>
        <time>2015-12-20T09:13:47Z</time>
      </trkpt>
      <trkpt lat="49.02991" lon="1.16284">
        <ele>59.7</ele>
        <time>2015-12-20T09:13:50Z</time>
      </trkpt>
      <trkpt lat="49.02986" lon="1.163">
        <ele>60.1</ele>
        <time>2015-12-20T09:13:53Z</time>
      </trkpt>
      <trkpt lat="49.02981" lon="1.16316">
        <ele>60.6</ele>
        <time>2015-12-20T09:13:56Z</time>
      </trkpt>
      <trkpt lat="49.02977" lon="1.16331">
        <ele>61.2</ele>
        <time>2015-12-20T09:13:59Z</time>
      </trkpt>
      <trkpt lat="49.02973" lon="1.16346">
        <ele>61.7</ele>
        <time>2015-12-20T09:14:02Z</time>
      </trkpt>
      <trkpt lat="49.02969" lon="1.16361">
        <ele>62.2</ele>
        <time>2015-12-20T09:14:05Z</time>
      </trkpt>
      <trkpt lat="49.02965" lon="1.16376">
        <ele>62.7</ele>
        <time>2015-12-20T09:14:08Z</time>
      </trkpt>
      <trkpt lat="49.02961" lon="1.16392">
        <ele>63.2</ele>
        <time>2015-12-20T09:14:11Z</time>
      </trkpt>
      <trkpt lat="49.02957" lon="1.16407">
        <ele>63.6</ele>
        <time>2015-12-20T09:14:14Z</time>
      </trkpt>
      <trkpt lat="49.02953" lon="1.16422">
        <ele>64.1</ele>
        <time>2015-12-20T09:14:17Z</time>
      </trkpt>
      <trkpt lat="49.02949" lon="1.16437">
        <ele>64.6</ele>
        <time>2015-12-20T09:14:20Z</time>
      </trkpt>
      <trkpt lat="49.02945" lon="1.16451">
        <ele>65</ele>
        <time>2015-12-20T09:14:23Z</time>
      </trkpt>
      <trkpt lat="49.02941" lon="1.16466">
        <ele>65.5</ele>
        <time>2015-12-20T09:14:26Z</time>
      </trkpt>
      <trkpt lat="49.02938" lon="1.1648">
        <ele>65.9</ele>
        <time>2015-12-20T09:14:29Z</time>
      </trkpt>
      <trkpt lat="49.02935" lon="1.16496">
        <ele>66.4</ele>
        <time>2015-12-20T09:14:32Z</time>
      </trkpt>
      <trkpt lat="49.0293" lon="1.1651">
        <ele>66.8</ele>
        <time>2015-12-20T09:14:35Z</time>
      </trkpt>
      <trkpt lat="49.02926" lon="1.16525">
        <ele>67.4</ele>
        <time>2015-12-20T09:14:38Z</time>
      </trkpt>
      <trkpt lat="49.02925" lon="1.16544">
        <ele>67.9</ele>
        <time>2015-12-20T09:14:41Z</time>
      </trkpt>
      <trkpt lat="49.02923" lon="1.1656">
        <ele>68.5</ele>
        <time>2015-12-20T09:14:44Z</time>
      </trkpt>
      <trkpt lat="49.02919" lon="1.16574">
        <ele>69</ele>
        <time>2015-12-20T09:14:47Z</time>
      </trkpt>
      <trkpt lat="49.02912" lon="1.1659">
        <ele>69.5</ele>
        <time>2015-12-20T09:14:51Z</time>
      </trkpt>
      <trkpt lat="49.02906" lon="1.16604">
        <ele>70.1</ele>
        <time>2015-12-20T09:14:55Z</time>
      </trkpt>
      <trkpt lat="49.029" lon="1.16616">
        <ele>70.7</ele>
        <time>2015-12-20T09:14:59Z</time>
      </trkpt>
      <trkpt lat="49.02909" lon="1.16619">
        <ele>72.3</ele>
        <time>2015-12-20T09:15:09Z</time>
      </trkpt>
      <trkpt lat="49.02917" lon="1.16608">
        <ele>73.3</ele>
        <time>2015-12-20T09:15:15Z</time>
      </trkpt>
      <trkpt lat="49.02925" lon="1.166">
        <ele>74</ele>
        <time>2015-12-20T09:15:21Z</time>
      </trkpt>
      <trkpt lat="49.02935" lon="1.16604">
        <ele>75.8</ele>
        <time>2015-12-20T09:15:29Z</time>
      </trkpt>
      <trkpt lat="49.02945" lon="1.16609">
        <ele>78.4</ele>
        <time>2015-12-20T09:15:38Z</time>
      </trkpt>
      <trkpt lat="49.02954" lon="1.16614">
        <ele>80.6</ele>
        <time>2015-12-20T09:15:45Z</time>
      </trkpt>
      <trkpt lat="49.02964" lon="1.16609">
        <ele>87.5</ele>
        <time>2015-12-20T09:16:17Z</time>
      </trkpt>
      <trkpt lat="49.02973" lon="1.16614">
        <ele>90</ele>
        <time>2015-12-20T09:16:38Z</time>
      </trkpt>
      <trkpt lat="49.0298" lon="1.16623">
        <ele>92.6</ele>
        <time>2015-12-20T09:16:50Z</time>
      </trkpt>
      <trkpt lat="49.0299" lon="1.16619">
        <ele>97.9</ele>
        <time>2015-12-20T09:17:49Z</time>
      </trkpt>
      <trkpt lat="49.02997" lon="1.1661">
        <ele>98.3</ele>
        <time>2015-12-20T09:17:54Z</time>
      </trkpt>
      <trkpt lat="49.03003" lon="1.16598">
        <ele>99.4</ele>
        <time>2015-12-20T09:18:05Z</time>
      </trkpt>
      <trkpt lat="49.03008" lon="1.16585">
        <ele>99.9</ele>
        <time>2015-12-20T09:18:11Z</time>
      </trkpt>
      <trkpt lat="49.03013" lon="1.16572">
        <ele>100.3</ele>
        <time>2015-12-20T09:18:16Z</time>
      </trkpt>
      <trkpt lat="49.03018" lon="1.16559">
        <ele>100.5</ele>
        <time>2015-12-20T09:18:21Z</time>
      </trkpt>
      <trkpt lat="49.03023" lon="1.16548">
        <ele>100.8</ele>
        <time>2015-12-20T09:18:26Z</time>
      </trkpt>
      <trkpt lat="49.03027" lon="1.16534">
        <ele>101.4</ele>
        <time>2015-12-20T09:18:31Z</time>
      </trkpt>
      <trkpt lat="49.03035" lon="1.16524">
        <ele>101.9</ele>
        <time>2015-12-20T09:18:37Z</time>
      </trkpt>
      <trkpt lat="49.03036" lon="1.16509">
        <ele>102.2</ele>
        <time>2015-12-20T09:18:42Z</time>
      </trkpt>
      <trkpt lat="49.03044" lon="1.16499">
        <ele>102.7</ele>
        <time>2015-12-20T09:20:31Z</time>
      </trkpt>
      <trkpt lat="49.03053" lon="1.16497">
        <ele>102.7</ele>
        <time>2015-12-20T09:20:34Z</time>
      </trkpt>
      <trkpt lat="49.03063" lon="1.16497">
        <ele>102.8</ele>
        <time>2015-12-20T09:20:37Z</time>
      </trkpt>
      <trkpt lat="49.03074" lon="1.16502">
        <ele>102.9</ele>
        <time>2015-12-20T09:20:41Z</time>
      </trkpt>
      <trkpt lat="49.0308" lon="1.16515">
        <ele>103.2</ele>
        <time>2015-12-20T09:20:45Z</time>
      </trkpt>
      <trkpt lat="49.0308" lon="1.16531">
        <ele>103.5</ele>
        <time>2015-12-20T09:20:49Z</time>
      </trkpt>
      <trkpt lat="49.03078" lon="1.16545">
        <ele>103.7</ele>
        <time>2015-12-20T09:20:53Z</time>
      </trkpt>
      <trkpt lat="49.03075" lon="1.16561">
        <ele>104.1</ele>
        <time>2015-12-20T09:20:58Z</time>
      </trkpt>
      <trkpt lat="49.03071" lon="1.16574">
        <ele>104.6</ele>
        <time>2015-12-20T09:21:02Z</time>
      </trkpt>
      <trkpt lat="49.0307" lon="1.16589">
        <ele>105.1</ele>
        <time>2015-12-20T09:21:06Z</time>
      </trkpt>
      <trkpt lat="49.03066" lon="1.16603">
        <ele>105.8</ele>
        <time>2015-12-20T09:21:11Z</time>
      </trkpt>
      <trkpt lat="49.03065" lon="1.16619">
        <ele>106.2</ele>
        <time>2015-12-20T09:21:15Z</time>
      </trkpt>
      <trkpt lat="49.03062" lon="1.16634">
        <ele>107.1</ele>
        <time>2015-12-20T09:21:21Z</time>
      </trkpt>
      <trkpt lat="49.03062" lon="1.16649">
        <ele>108.2</ele>
        <time>2015-12-20T09:21:26Z</time>
      </trkpt>
      <trkpt lat="49.03065" lon="1.1667">
        <ele>109.3</ele>
        <time>2015-12-20T09:21:31Z</time>
      </trkpt>
      <trkpt lat="49.03066" lon="1.16684">
        <ele>110.1</ele>
        <time>2015-12-20T09:21:35Z</time>
      </trkpt>
      <trkpt lat="49.03068" lon="1.167">
        <ele>111.1</ele>
        <time>2015-12-20T09:21:40Z</time>
      </trkpt>
      <trkpt lat="49.03077" lon="1.16705">
        <ele>112.2</ele>
        <time>2015-12-20T09:21:46Z</time>
      </trkpt>
      <trkpt lat="49.03088" lon="1.16705">
        <ele>112.9</ele>
        <time>2015-12-20T09:21:50Z</time>
      </trkpt>
      <trkpt lat="49.03097" lon="1.16694">
        <ele>113.3</ele>
        <time>2015-12-20T09:21:54Z</time>
      </trkpt>
      <trkpt lat="49.03107" lon="1.16688">
        <ele>113.5</ele>
        <time>2015-12-20T09:21:57Z</time>
      </trkpt>
      <trkpt lat="49.03119" lon="1.16685">
        <ele>113.6</ele>
        <time>2015-12-20T09:22:00Z</time>
      </trkpt>
      <trkpt lat="49.0313" lon="1.16681">
        <ele>113.5</ele>
        <time>2015-12-20T09:22:03Z</time>
      </trkpt>
      <trkpt lat="49.03141" lon="1.16676">
        <ele>113.5</ele>
        <time>2015-12-20T09:22:06Z</time>
      </trkpt>
      <trkpt lat="49.03151" lon="1.16672">
        <ele>113.3</ele>
        <time>2015-12-20T09:22:09Z</time>
      </trkpt>
      <trkpt lat="49.03162" lon="1.16666">
        <ele>113</ele>
        <time>2015-12-20T09:22:13Z</time>
      </trkpt>
      <trkpt lat="49.03172" lon="1.16659">
        <ele>112.8</ele>
        <time>2015-12-20T09:22:16Z</time>
      </trkpt>
      <trkpt lat="49.03183" lon="1.16652">
        <ele>112.6</ele>
        <time>2015-12-20T09:22:19Z</time>
      </trkpt>
      <trkpt lat="49.03193" lon="1.16646">
        <ele>112.2</ele>
        <time>2015-12-20T09:22:22Z</time>
      </trkpt>
      <trkpt lat="49.03205" lon="1.16638">
        <ele>111.7</ele>
        <time>2015-12-20T09:22:25Z</time>
      </trkpt>
      <trkpt lat="49.03216" lon="1.16629">
        <ele>111.2</ele>
        <time>2015-12-20T09:22:28Z</time>
      </trkpt>
      <trkpt lat="49.03224" lon="1.16623">
        <ele>110.9</ele>
        <time>2015-12-20T09:22:30Z</time>
      </trkpt>
      <trkpt lat="49.03236" lon="1.16613">
        <ele>110.2</ele>
        <time>2015-12-20T09:22:33Z</time>
      </trkpt>
      <trkpt lat="49.03244" lon="1.16604">
        <ele>109.5</ele>
        <time>2015-12-20T09:22:35Z</time>
      </trkpt>
      <trkpt lat="49.03251" lon="1.16592">
        <ele>108.8</ele>
        <time>2015-12-20T09:22:37Z</time>
      </trkpt>
      <trkpt lat="49.03259" lon="1.1658">
        <ele>108.1</ele>
        <time>2015-12-20T09:22:39Z</time>
      </trkpt>
      <trkpt lat="49.0327" lon="1.16566">
        <ele>107.4</ele>
        <time>2015-12-20T09:22:41Z</time>
      </trkpt>
      <trkpt lat="49.03281" lon="1.16554">
        <ele>106.6</ele>
        <time>2015-12-20T09:22:43Z</time>
      </trkpt>
      <trkpt lat="49.03291" lon="1.16545">
        <ele>105.6</ele>
        <time>2015-12-20T09:22:45Z</time>
      </trkpt>
      <trkpt lat="49.033" lon="1.16539">
        <ele>104.5</ele>
        <time>2015-12-20T09:22:47Z</time>
      </trkpt>
      <trkpt lat="49.0331" lon="1.1654">
        <ele>103</ele>
        <time>2015-12-20T09:22:50Z</time>
      </trkpt>
      <trkpt lat="49.03317" lon="1.16551">
        <ele>101.1</ele>
        <time>2015-12-20T09:22:54Z</time>
      </trkpt>
      <trkpt lat="49.03322" lon="1.16565">
        <ele>99.5</ele>
        <time>2015-12-20T09:22:58Z</time>
      </trkpt>
      <trkpt lat="49.03323" lon="1.16581">
        <ele>98.2</ele>
        <time>2015-12-20T09:23:02Z</time>
      </trkpt>
      <trkpt lat="49.03317" lon="1.16591">
        <ele>97.2</ele>
        <time>2015-12-20T09:23:06Z</time>
      </trkpt>
      <trkpt lat="49.03307" lon="1.16599">
        <ele>96.6</ele>
        <time>2015-12-20T09:23:10Z</time>
      </trkpt>
      <trkpt lat="49.03302" lon="1.16616">
        <ele>96.4</ele>
        <time>2015-12-20T09:23:16Z</time>
      </trkpt>
      <trkpt lat="49.03297" lon="1.16629">
        <ele>96.4</ele>
        <time>2015-12-20T09:23:20Z</time>
      </trkpt>
      <trkpt lat="49.03295" lon="1.16643">
        <ele>96.5</ele>
        <time>2015-12-20T09:23:24Z</time>
      </trkpt>
      <trkpt lat="49.03293" lon="1.16658">
        <ele>96.5</ele>
        <time>2015-12-20T09:23:27Z</time>
      </trkpt>
      <trkpt lat="49.03284" lon="1.16671">
        <ele>97.1</ele>
        <time>2015-12-20T09:23:32Z</time>
      </trkpt>
      <trkpt lat="49.03277" lon="1.16684">
        <ele>97.7</ele>
        <time>2015-12-20T09:23:36Z</time>
      </trkpt>
      <trkpt lat="49.03269" lon="1.16696">
        <ele>98.2</ele>
        <time>2015-12-20T09:23:39Z</time>
      </trkpt>
      <trkpt lat="49.03262" lon="1.16707">
        <ele>98.9</ele>
        <time>2015-12-20T09:23:44Z</time>
      </trkpt>
      <trkpt lat="49.03257" lon="1.16723">
        <ele>99.6</ele>
        <time>2015-12-20T09:23:49Z</time>
      </trkpt>
      <trkpt lat="49.03248" lon="1.16731">
        <ele>100.3</ele>
        <time>2015-12-20T09:23:53Z</time>
      </trkpt>
      <trkpt lat="49.0324" lon="1.16738">
        <ele>101.3</ele>
        <time>2015-12-20T09:23:58Z</time>
      </trkpt>
      <trkpt lat="49.0323" lon="1.16737">
        <ele>102.2</ele>
        <time>2015-12-20T09:24:03Z</time>
      </trkpt>
      <trkpt lat="49.03221" lon="1.16738">
        <ele>103.4</ele>
        <time>2015-12-20T09:24:08Z</time>
      </trkpt>
      <trkpt lat="49.03215" lon="1.16751">
        <ele>104.6</ele>
        <time>2015-12-20T09:24:14Z</time>
      </trkpt>
      <trkpt lat="49.0321" lon="1.16762">
        <ele>105.5</ele>
        <time>2015-12-20T09:24:20Z</time>
      </trkpt>
      <trkpt lat="49.03205" lon="1.16774">
        <ele>106</ele>
        <time>2015-12-20T09:24:24Z</time>
      </trkpt>
      <trkpt lat="49.03201" lon="1.16786">
        <ele>106.5</ele>
        <time>2015-12-20T09:24:29Z</time>
      </trkpt>
      <trkpt lat="49.03198" lon="1.168">
        <ele>106.8</ele>
        <time>2015-12-20T09:24:34Z</time>
      </trkpt>
      <trkpt lat="49.03193" lon="1.16814">
        <ele>107.2</ele>
        <time>2015-12-20T09:24:39Z</time>
      </trkpt>
      <trkpt lat="49.03187" lon="1.16828">
        <ele>107.6</ele>
        <time>2015-12-20T09:24:43Z</time>
      </trkpt>
      <trkpt lat="49.0318" lon="1.16842">
        <ele>108.1</ele>
        <time>2015-12-20T09:24:47Z</time>
      </trkpt>
      <trkpt lat="49.03176" lon="1.16858">
        <ele>108.9</ele>
        <time>2015-12-20T09:24:52Z</time>
      </trkpt>
      <trkpt lat="49.0318" lon="1.16873">
        <ele>109.5</ele>
        <time>2015-12-20T09:24:56Z</time>
      </trkpt>
      <trkpt lat="49.0318" lon="1.16888">
        <ele>110.1</ele>
        <time>2015-12-20T09:25:00Z</time>
      </trkpt>
      <trkpt lat="49.03185" lon="1.16899">
        <ele>110.7</ele>
        <time>2015-12-20T09:25:05Z</time>
      </trkpt>
      <trkpt lat="49.03194" lon="1.16887">
        <ele>110.6</ele>
        <time>2015-12-20T09:25:09Z</time>
      </trkpt>
      <trkpt lat="49.03204" lon="1.16872">
        <ele>110.2</ele>
        <time>2015-12-20T09:25:12Z</time>
      </trkpt>
      <trkpt lat="49.03212" lon="1.16859">
        <ele>109.6</ele>
        <time>2015-12-20T09:25:14Z</time>
      </trkpt>
      <trkpt lat="49.03219" lon="1.16848">
        <ele>109</ele>
        <time>2015-12-20T09:25:16Z</time>
      </trkpt>
      <trkpt lat="49.03229" lon="1.16838">
        <ele>107.6</ele>
        <time>2015-12-20T09:25:19Z</time>
      </trkpt>
      <trkpt lat="49.03227" lon="1.16855">
        <ele>104</ele>
        <time>2015-12-20T09:25:28Z</time>
      </trkpt>
      <trkpt lat="49.03223" lon="1.16868">
        <ele>103.1</ele>
        <time>2015-12-20T09:25:31Z</time>
      </trkpt>
      <trkpt lat="49.0322" lon="1.16884">
        <ele>102.3</ele>
        <time>2015-12-20T09:25:34Z</time>
      </trkpt>
      <trkpt lat="49.03219" lon="1.169">
        <ele>101.7</ele>
        <time>2015-12-20T09:25:37Z</time>
      </trkpt>
      <trkpt lat="49.0322" lon="1.16914">
        <ele>101.2</ele>
        <time>2015-12-20T09:25:40Z</time>
      </trkpt>
      <trkpt lat="49.03219" lon="1.16928">
        <ele>100.7</ele>
        <time>2015-12-20T09:25:43Z</time>
      </trkpt>
      <trkpt lat="49.03219" lon="1.16945">
        <ele>100.3</ele>
        <time>2015-12-20T09:25:46Z</time>
      </trkpt>
      <trkpt lat="49.03218" lon="1.16961">
        <ele>100</ele>
        <time>2015-12-20T09:25:49Z</time>
      </trkpt>
      <trkpt lat="49.03219" lon="1.16976">
        <ele>99.7</ele>
        <time>2015-12-20T09:25:52Z</time>
      </trkpt>
      <trkpt lat="49.03222" lon="1.16994">
        <ele>99.6</ele>
        <time>2015-12-20T09:25:57Z</time>
      </trkpt>
      <trkpt lat="49.03228" lon="1.1701">
        <ele>99.5</ele>
        <time>2015-12-20T09:25:59Z</time>
      </trkpt>
      <trkpt lat="49.0323" lon="1.1703">
        <ele>99.4</ele>
        <time>2015-12-20T09:26:02Z</time>
      </trkpt>
      <trkpt lat="49.03232" lon="1.17047">
        <ele>99.3</ele>
        <time>2015-12-20T09:26:05Z</time>
      </trkpt>
      <trkpt lat="49.03233" lon="1.17065">
        <ele>99.3</ele>
        <time>2015-12-20T09:26:08Z</time>
      </trkpt>
      <trkpt lat="49.03234" lon="1.17079">
        <ele>99.2</ele>
        <time>2015-12-20T09:26:10Z</time>
      </trkpt>
      <trkpt lat="49.03235" lon="1.17094">
        <ele>99.2</ele>
        <time>2015-12-20T09:26:13Z</time>
      </trkpt>
      <trkpt lat="49.03236" lon="1.17109">
        <ele>99.3</ele>
        <time>2015-12-20T09:26:16Z</time>
      </trkpt>
      <trkpt lat="49.03241" lon="1.17123">
        <ele>99.4</ele>
        <time>2015-12-20T09:26:18Z</time>
      </trkpt>
      <trkpt lat="49.03247" lon="1.17139">
        <ele>99.5</ele>
        <time>2015-12-20T09:26:20Z</time>
      </trkpt>
      <trkpt lat="49.03253" lon="1.17158">
        <ele>99.7</ele>
        <time>2015-12-20T09:26:23Z</time>
      </trkpt>
      <trkpt lat="49.03256" lon="1.17171">
        <ele>99.7</ele>
        <time>2015-12-20T09:26:25Z</time>
      </trkpt>
      <trkpt lat="49.03256" lon="1.17189">
        <ele>99.6</ele>
        <time>2015-12-20T09:26:29Z</time>
      </trkpt>
      <trkpt lat="49.03253" lon="1.17207">
        <ele>99.8</ele>
        <time>2015-12-20T09:26:33Z</time>
      </trkpt>
      <trkpt lat="49.03248" lon="1.17222">
        <ele>100.3</ele>
        <time>2015-12-20T09:26:37Z</time>
      </trkpt>
      <trkpt lat="49.03242" lon="1.17234">
        <ele>101.2</ele>
        <time>2015-12-20T09:26:42Z</time>
      </trkpt>
      <trkpt lat="49.03235" lon="1.17243">
        <ele>102.2</ele>
        <time>2015-12-20T09:26:46Z</time>
      </trkpt>
      <trkpt lat="49.03227" lon="1.17248">
        <ele>103.2</ele>
        <time>2015-12-20T09:26:50Z</time>
      </trkpt>
      <trkpt lat="49.03217" lon="1.17254">
        <ele>104.5</ele>
        <time>2015-12-20T09:26:55Z</time>
      </trkpt>
      <trkpt lat="49.03206" lon="1.17254">
        <ele>105.7</ele>
        <time>2015-12-20T09:26:59Z</time>
      </trkpt>
      <trkpt lat="49.03197" lon="1.17251">
        <ele>106.8</ele>
        <time>2015-12-20T09:27:04Z</time>
      </trkpt>
      <trkpt lat="49.03188" lon="1.17246">
        <ele>108.3</ele>
        <time>2015-12-20T09:27:09Z</time>
      </trkpt>
      <trkpt lat="49.03178" lon="1.17242">
        <ele>109.5</ele>
        <time>2015-12-20T09:27:14Z</time>
      </trkpt>
      <trkpt lat="49.03169" lon="1.17237">
        <ele>110.4</ele>
        <time>2015-12-20T09:27:18Z</time>
      </trkpt>
      <trkpt lat="49.03159" lon="1.17233">
        <ele>111.1</ele>
        <time>2015-12-20T09:27:22Z</time>
      </trkpt>
      <trkpt lat="49.0315" lon="1.17229">
        <ele>111.9</ele>
        <time>2015-12-20T09:27:27Z</time>
      </trkpt>
      <trkpt lat="49.0314" lon="1.17239">
        <ele>112.8</ele>
        <time>2015-12-20T09:27:38Z</time>
      </trkpt>
      <trkpt lat="49.03132" lon="1.17248">
        <ele>113</ele>
        <time>2015-12-20T09:27:41Z</time>
      </trkpt>
      <trkpt lat="49.03128" lon="1.17261">
        <ele>113.3</ele>
        <time>2015-12-20T09:27:49Z</time>
      </trkpt>
      <trkpt lat="49.0312" lon="1.17265">
        <ele>113.6</ele>
        <time>2015-12-20T09:29:28Z</time>
      </trkpt>
      <trkpt lat="49.03129" lon="1.17265">
        <ele>113.6</ele>
        <time>2015-12-20T09:31:11Z</time>
      </trkpt>
      <trkpt lat="49.0312" lon="1.1726">
        <ele>112.5</ele>
        <time>2015-12-20T09:34:32Z</time>
      </trkpt>
      <trkpt lat="49.03116" lon="1.17272">
        <ele>112.2</ele>
        <time>2015-12-20T09:34:44Z</time>
      </trkpt>
      <trkpt lat="49.03116" lon="1.17286">
        <ele>112.1</ele>
        <time>2015-12-20T09:35:47Z</time>
      </trkpt>
      <trkpt lat="49.03119" lon="1.173">
        <ele>112.1</ele>
        <time>2015-12-20T09:35:52Z</time>
      </trkpt>
      <trkpt lat="49.03124" lon="1.17316">
        <ele>112.1</ele>
        <time>2015-12-20T09:35:56Z</time>
      </trkpt>
      <trkpt lat="49.03129" lon="1.17329">
        <ele>112.1</ele>
        <time>2015-12-20T09:35:59Z</time>
      </trkpt>
      <trkpt lat="49.03133" lon="1.17342">
        <ele>112.1</ele>
        <time>2015-12-20T09:36:02Z</time>
      </trkpt>
      <trkpt lat="49.03137" lon="1.17354">
        <ele>112.1</ele>
        <time>2015-12-20T09:36:05Z</time>
      </trkpt>
      <trkpt lat="49.03142" lon="1.17367">
        <ele>112.1</ele>
        <time>2015-12-20T09:36:08Z</time>
      </trkpt>
      <trkpt lat="49.03146" lon="1.17381">
        <ele>112.3</ele>
        <time>2015-12-20T09:36:11Z</time>
      </trkpt>
      <trkpt lat="49.0315" lon="1.17395">
        <ele>112.4</ele>
        <time>2015-12-20T09:36:14Z</time>
      </trkpt>
      <trkpt lat="49.03161" lon="1.17398">
        <ele>112.6</ele>
        <time>2015-12-20T09:36:18Z</time>
      </trkpt>
      <trkpt lat="49.0317" lon="1.17391">
        <ele>112.7</ele>
        <time>2015-12-20T09:36:21Z</time>
      </trkpt>
      <trkpt lat="49.03179" lon="1.17383">
        <ele>112.8</ele>
        <time>2015-12-20T09:36:24Z</time>
      </trkpt>
      <trkpt lat="49.03189" lon="1.17376">
        <ele>112.8</ele>
        <time>2015-12-20T09:36:27Z</time>
      </trkpt>
      <trkpt lat="49.03199" lon="1.17369">
        <ele>112.9</ele>
        <time>2015-12-20T09:36:30Z</time>
      </trkpt>
      <trkpt lat="49.03209" lon="1.17362">
        <ele>112.9</ele>
        <time>2015-12-20T09:36:33Z</time>
      </trkpt>
      <trkpt lat="49.03218" lon="1.17355">
        <ele>113</ele>
        <time>2015-12-20T09:36:36Z</time>
      </trkpt>
      <trkpt lat="49.03229" lon="1.1735">
        <ele>113</ele>
        <time>2015-12-20T09:36:39Z</time>
      </trkpt>
      <trkpt lat="49.0324" lon="1.17347">
        <ele>113</ele>
        <time>2015-12-20T09:36:42Z</time>
      </trkpt>
      <trkpt lat="49.03245" lon="1.17359">
        <ele>112.9</ele>
        <time>2015-12-20T09:36:46Z</time>
      </trkpt>
      <trkpt lat="49.03255" lon="1.17366">
        <ele>112.7</ele>
        <time>2015-12-20T09:36:51Z</time>
      </trkpt>
      <trkpt lat="49.03264" lon="1.17365">
        <ele>112.6</ele>
        <time>2015-12-20T09:36:54Z</time>
      </trkpt>
      <trkpt lat="49.03273" lon="1.17364">
        <ele>112.6</ele>
        <time>2015-12-20T09:36:57Z</time>
      </trkpt>
      <trkpt lat="49.03283" lon="1.17366">
        <ele>112.5</ele>
        <time>2015-12-20T09:37:00Z</time>
      </trkpt>
      <trkpt lat="49.03292" lon="1.17374">
        <ele>112.4</ele>
        <time>2015-12-20T09:37:05Z</time>
      </trkpt>
      <trkpt lat="49.03296" lon="1.1739">
        <ele>112.4</ele>
        <time>2015-12-20T09:37:11Z</time>
      </trkpt>
      <trkpt lat="49.033" lon="1.17406">
        <ele>112.3</ele>
        <time>2015-12-20T09:37:15Z</time>
      </trkpt>
      <trkpt lat="49.03303" lon="1.17421">
        <ele>112.3</ele>
        <time>2015-12-20T09:37:19Z</time>
      </trkpt>
      <trkpt lat="49.03306" lon="1.17436">
        <ele>112.3</ele>
        <time>2015-12-20T09:37:22Z</time>
      </trkpt>
      <trkpt lat="49.03311" lon="1.1745">
        <ele>112.4</ele>
        <time>2015-12-20T09:37:25Z</time>
      </trkpt>
      <trkpt lat="49.03316" lon="1.17469">
        <ele>112.4</ele>
        <time>2015-12-20T09:37:29Z</time>
      </trkpt>
      <trkpt lat="49.03316" lon="1.17486">
        <ele>112.6</ele>
        <time>2015-12-20T09:37:33Z</time>
      </trkpt>
      <trkpt lat="49.03312" lon="1.17499">
        <ele>112.8</ele>
        <time>2015-12-20T09:37:36Z</time>
      </trkpt>
      <trkpt lat="49.0331" lon="1.17515">
        <ele>112.9</ele>
        <time>2015-12-20T09:37:40Z</time>
      </trkpt>
      <trkpt lat="49.03314" lon="1.17538">
        <ele>113</ele>
        <time>2015-12-20T09:37:43Z</time>
      </trkpt>
      <trkpt lat="49.03319" lon="1.17555">
        <ele>113.1</ele>
        <time>2015-12-20T09:37:46Z</time>
      </trkpt>
      <trkpt lat="49.03325" lon="1.17571">
        <ele>113.3</ele>
        <time>2015-12-20T09:37:50Z</time>
      </trkpt>
      <trkpt lat="49.03331" lon="1.17583">
        <ele>113.3</ele>
        <time>2015-12-20T09:37:53Z</time>
      </trkpt>
      <trkpt lat="49.03337" lon="1.17593">
        <ele>113.4</ele>
        <time>2015-12-20T09:37:56Z</time>
      </trkpt>
      <trkpt lat="49.03345" lon="1.17604">
        <ele>113.5</ele>
        <time>2015-12-20T09:37:58Z</time>
      </trkpt>
      <trkpt lat="49.03352" lon="1.17614">
        <ele>113.5</ele>
        <time>2015-12-20T09:38:01Z</time>
      </trkpt>
      <trkpt lat="49.03359" lon="1.17624">
        <ele>113.5</ele>
        <time>2015-12-20T09:38:04Z</time>
      </trkpt>
      <trkpt lat="49.03366" lon="1.17638">
        <ele>113.7</ele>
        <time>2015-12-20T09:38:07Z</time>
      </trkpt>
      <trkpt lat="49.03371" lon="1.17652">
        <ele>113.8</ele>
        <time>2015-12-20T09:38:10Z</time>
      </trkpt>
      <trkpt lat="49.03379" lon="1.17662">
        <ele>114.1</ele>
        <time>2015-12-20T09:38:14Z</time>
      </trkpt>
      <trkpt lat="49.03384" lon="1.17673">
        <ele>114.4</ele>
        <time>2015-12-20T09:38:18Z</time>
      </trkpt>
      <trkpt lat="49.03391" lon="1.17683">
        <ele>115</ele>
        <time>2015-12-20T09:38:24Z</time>
      </trkpt>
      <trkpt lat="49.03403" lon="1.17681">
        <ele>115.3</ele>
        <time>2015-12-20T09:38:28Z</time>
      </trkpt>
      <trkpt lat="49.03411" lon="1.17675">
        <ele>115.6</ele>
        <time>2015-12-20T09:38:33Z</time>
      </trkpt>
      <trkpt lat="49.03417" lon="1.17661">
        <ele>115.8</ele>
        <time>2015-12-20T09:38:37Z</time>
      </trkpt>
      <trkpt lat="49.03423" lon="1.17651">
        <ele>115.9</ele>
        <time>2015-12-20T09:38:40Z</time>
      </trkpt>
      <trkpt lat="49.03431" lon="1.17641">
        <ele>116</ele>
        <time>2015-12-20T09:38:44Z</time>
      </trkpt>
      <trkpt lat="49.03441" lon="1.17638">
        <ele>116</ele>
        <time>2015-12-20T09:38:48Z</time>
      </trkpt>
      <trkpt lat="49.03446" lon="1.17651">
        <ele>116.1</ele>
        <time>2015-12-20T09:38:52Z</time>
      </trkpt>
      <trkpt lat="49.03445" lon="1.17667">
        <ele>116.2</ele>
        <time>2015-12-20T09:39:00Z</time>
      </trkpt>
      <trkpt lat="49.03441" lon="1.17681">
        <ele>116.2</ele>
        <time>2015-12-20T09:39:03Z</time>
      </trkpt>
      <trkpt lat="49.0344" lon="1.17698">
        <ele>116.4</ele>
        <time>2015-12-20T09:39:07Z</time>
      </trkpt>
      <trkpt lat="49.03439" lon="1.17713">
        <ele>116.6</ele>
        <time>2015-12-20T09:39:10Z</time>
      </trkpt>
      <trkpt lat="49.03439" lon="1.17727">
        <ele>116.7</ele>
        <time>2015-12-20T09:39:13Z</time>
      </trkpt>
      <trkpt lat="49.03439" lon="1.17742">
        <ele>116.8</ele>
        <time>2015-12-20T09:39:16Z</time>
      </trkpt>
      <trkpt lat="49.03438" lon="1.17757">
        <ele>117</ele>
        <time>2015-12-20T09:39:19Z</time>
      </trkpt>
      <trkpt lat="49.03429" lon="1.17766">
        <ele>117.2</ele>
        <time>2015-12-20T09:39:23Z</time>
      </trkpt>
      <trkpt lat="49.03418" lon="1.17772">
        <ele>117.4</ele>
        <time>2015-12-20T09:39:27Z</time>
      </trkpt>
      <trkpt lat="49.03408" lon="1.1778">
        <ele>117.5</ele>
        <time>2015-12-20T09:39:30Z</time>
      </trkpt>
      <trkpt lat="49.03402" lon="1.17793">
        <ele>117.7</ele>
        <time>2015-12-20T09:39:34Z</time>
      </trkpt>
      <trkpt lat="49.03397" lon="1.17805">
        <ele>117.8</ele>
        <time>2015-12-20T09:39:37Z</time>
      </trkpt>
      <trkpt lat="49.0339" lon="1.1782">
        <ele>117.9</ele>
        <time>2015-12-20T09:39:40Z</time>
      </trkpt>
      <trkpt lat="49.03383" lon="1.17833">
        <ele>117.9</ele>
        <time>2015-12-20T09:39:43Z</time>
      </trkpt>
      <trkpt lat="49.03375" lon="1.17847">
        <ele>118</ele>
        <time>2015-12-20T09:39:46Z</time>
      </trkpt>
      <trkpt lat="49.03368" lon="1.17862">
        <ele>118</ele>
        <time>2015-12-20T09:39:49Z</time>
      </trkpt>
      <trkpt lat="49.03358" lon="1.17858">
        <ele>118.1</ele>
        <time>2015-12-20T09:39:54Z</time>
      </trkpt>
      <trkpt lat="49.03354" lon="1.17846">
        <ele>118.1</ele>
        <time>2015-12-20T09:39:57Z</time>
      </trkpt>
      <trkpt lat="49.03348" lon="1.17834">
        <ele>118.1</ele>
        <time>2015-12-20T09:40:00Z</time>
      </trkpt>
      <trkpt lat="49.0334" lon="1.17826">
        <ele>118.1</ele>
        <time>2015-12-20T09:40:03Z</time>
      </trkpt>
      <trkpt lat="49.0333" lon="1.17831">
        <ele>118.1</ele>
        <time>2015-12-20T09:40:06Z</time>
      </trkpt>
      <trkpt lat="49.03319" lon="1.1784">
        <ele>118.1</ele>
        <time>2015-12-20T09:40:09Z</time>
      </trkpt>
      <trkpt lat="49.03307" lon="1.17848">
        <ele>118.1</ele>
        <time>2015-12-20T09:40:12Z</time>
      </trkpt>
      <trkpt lat="49.03295" lon="1.17856">
        <ele>118.2</ele>
        <time>2015-12-20T09:40:15Z</time>
      </trkpt>
      <trkpt lat="49.03283" lon="1.17865">
        <ele>118.2</ele>
        <time>2015-12-20T09:40:18Z</time>
      </trkpt>
      <trkpt lat="49.03274" lon="1.17871">
        <ele>118.2</ele>
        <time>2015-12-20T09:40:20Z</time>
      </trkpt>
      <trkpt lat="49.03265" lon="1.17877">
        <ele>118.2</ele>
        <time>2015-12-20T09:40:22Z</time>
      </trkpt>
      <trkpt lat="49.03254" lon="1.17886">
        <ele>118.2</ele>
        <time>2015-12-20T09:40:25Z</time>
      </trkpt>
      <trkpt lat="49.03243" lon="1.17894">
        <ele>118.2</ele>
        <time>2015-12-20T09:40:28Z</time>
      </trkpt>
      <trkpt lat="49.03234" lon="1.179">
        <ele>118.2</ele>
        <time>2015-12-20T09:40:31Z</time>
      </trkpt>
      <trkpt lat="49.0323" lon="1.17916">
        <ele>118.2</ele>
        <time>2015-12-20T09:40:36Z</time>
      </trkpt>
      <trkpt lat="49.03238" lon="1.17927">
        <ele>118.2</ele>
        <time>2015-12-20T09:40:41Z</time>
      </trkpt>
      <trkpt lat="49.03246" lon="1.17941">
        <ele>118.1</ele>
        <time>2015-12-20T09:40:45Z</time>
      </trkpt>
      <trkpt lat="49.0325" lon="1.17953">
        <ele>118.1</ele>
        <time>2015-12-20T09:40:48Z</time>
      </trkpt>
      <trkpt lat="49.03252" lon="1.17968">
        <ele>118.1</ele>
        <time>2015-12-20T09:40:52Z</time>
      </trkpt>
      <trkpt lat="49.03243" lon="1.17974">
        <ele>118</ele>
        <time>2015-12-20T09:40:55Z</time>
      </trkpt>
      <trkpt lat="49.03233" lon="1.17981">
        <ele>118</ele>
        <time>2015-12-20T09:40:58Z</time>
      </trkpt>
      <trkpt lat="49.03222" lon="1.17989">
        <ele>118</ele>
        <time>2015-12-20T09:41:01Z</time>
      </trkpt>
      <trkpt lat="49.03212" lon="1.17998">
        <ele>118</ele>
        <time>2015-12-20T09:41:04Z</time>
      </trkpt>
      <trkpt lat="49.03214" lon="1.18006">
        <ele>117.9</ele>
        <time>2015-12-20T09:44:37Z</time>
      </trkpt>
      <trkpt lat="49.03205" lon="1.18014">
        <ele>117.9</ele>
        <time>2015-12-20T09:44:40Z</time>
      </trkpt>
      <trkpt lat="49.03198" lon="1.18027">
        <ele>117.9</ele>
        <time>2015-12-20T09:44:43Z</time>
      </trkpt>
      <trkpt lat="49.03194" lon="1.18043">
        <ele>117.9</ele>
        <time>2015-12-20T09:44:46Z</time>
      </trkpt>
      <trkpt lat="49.03192" lon="1.18059">
        <ele>118</ele>
        <time>2015-12-20T09:44:49Z</time>
      </trkpt>
      <trkpt lat="49.0319" lon="1.18074">
        <ele>118</ele>
        <time>2015-12-20T09:44:52Z</time>
      </trkpt>
      <trkpt lat="49.03187" lon="1.18089">
        <ele>118</ele>
        <time>2015-12-20T09:44:55Z</time>
      </trkpt>
      <trkpt lat="49.03187" lon="1.18104">
        <ele>118</ele>
        <time>2015-12-20T09:44:58Z</time>
      </trkpt>
      <trkpt lat="49.03189" lon="1.18118">
        <ele>118</ele>
        <time>2015-12-20T09:45:01Z</time>
      </trkpt>
      <trkpt lat="49.03191" lon="1.18123">
        <ele>118</ele>
        <time>2015-12-20T09:45:42Z</time>
      </trkpt>
      <trkpt lat="49.03187" lon="1.18141">
        <ele>133.1</ele>
        <time>2015-12-20T09:47:29Z</time>
      </trkpt>
      <trkpt lat="49.03172" lon="1.1815">
        <ele>117.8</ele>
        <time>2015-12-20T09:55:33Z</time>
      </trkpt>
      <trkpt lat="49.03161" lon="1.18158">
        <ele>117.8</ele>
        <time>2015-12-20T09:55:36Z</time>
      </trkpt>
      <trkpt lat="49.03149" lon="1.18165">
        <ele>117.8</ele>
        <time>2015-12-20T09:55:39Z</time>
      </trkpt>
      <trkpt lat="49.03138" lon="1.18174">
        <ele>117.8</ele>
        <time>2015-12-20T09:55:42Z</time>
      </trkpt>
      <trkpt lat="49.03127" lon="1.18181">
        <ele>118</ele>
        <time>2015-12-20T09:55:45Z</time>
      </trkpt>
      <trkpt lat="49.03115" lon="1.18189">
        <ele>118.1</ele>
        <time>2015-12-20T09:55:48Z</time>
      </trkpt>
      <trkpt lat="49.03104" lon="1.18196">
        <ele>118.2</ele>
        <time>2015-12-20T09:55:51Z</time>
      </trkpt>
      <trkpt lat="49.03094" lon="1.18202">
        <ele>118.3</ele>
        <time>2015-12-20T09:55:54Z</time>
      </trkpt>
      <trkpt lat="49.03083" lon="1.18211">
        <ele>118.4</ele>
        <time>2015-12-20T09:55:57Z</time>
      </trkpt>
      <trkpt lat="49.03072" lon="1.18218">
        <ele>118.5</ele>
        <time>2015-12-20T09:56:00Z</time>
      </trkpt>
      <trkpt lat="49.03061" lon="1.18226">
        <ele>118.6</ele>
        <time>2015-12-20T09:56:03Z</time>
      </trkpt>
      <trkpt lat="49.03049" lon="1.18233">
        <ele>118.6</ele>
        <time>2015-12-20T09:56:06Z</time>
      </trkpt>
      <trkpt lat="49.03037" lon="1.18238">
        <ele>118.7</ele>
        <time>2015-12-20T09:56:09Z</time>
      </trkpt>
      <trkpt lat="49.03029" lon="1.18244">
        <ele>118.8</ele>
        <time>2015-12-20T09:56:12Z</time>
      </trkpt>
      <trkpt lat="49.0302" lon="1.18254">
        <ele>118.9</ele>
        <time>2015-12-20T09:56:15Z</time>
      </trkpt>
      <trkpt lat="49.0301" lon="1.18262">
        <ele>119</ele>
        <time>2015-12-20T09:56:18Z</time>
      </trkpt>
      <trkpt lat="49.03006" lon="1.18275">
        <ele>119</ele>
        <time>2015-12-20T09:56:21Z</time>
      </trkpt>
      <trkpt lat="49.03009" lon="1.18293">
        <ele>118.9</ele>
        <time>2015-12-20T09:56:24Z</time>
      </trkpt>
      <trkpt lat="49.03015" lon="1.18309">
        <ele>118.9</ele>
        <time>2015-12-20T09:56:27Z</time>
      </trkpt>
      <trkpt lat="49.03023" lon="1.18324">
        <ele>118.8</ele>
        <time>2015-12-20T09:56:30Z</time>
      </trkpt>
      <trkpt lat="49.0302" lon="1.18343">
        <ele>118.8</ele>
        <time>2015-12-20T09:56:33Z</time>
      </trkpt>
      <trkpt lat="49.03015" lon="1.18355">
        <ele>118.8</ele>
        <time>2015-12-20T09:56:35Z</time>
      </trkpt>
      <trkpt lat="49.03006" lon="1.18361">
        <ele>118.8</ele>
        <time>2015-12-20T09:56:37Z</time>
      </trkpt>
      <trkpt lat="49.02997" lon="1.18368">
        <ele>118.7</ele>
        <time>2015-12-20T09:56:39Z</time>
      </trkpt>
      <trkpt lat="49.02988" lon="1.18373">
        <ele>118.7</ele>
        <time>2015-12-20T09:56:41Z</time>
      </trkpt>
      <trkpt lat="49.02979" lon="1.18379">
        <ele>118.6</ele>
        <time>2015-12-20T09:56:43Z</time>
      </trkpt>
      <trkpt lat="49.02969" lon="1.18385">
        <ele>118.5</ele>
        <time>2015-12-20T09:56:45Z</time>
      </trkpt>
      <trkpt lat="49.02959" lon="1.18392">
        <ele>118.4</ele>
        <time>2015-12-20T09:56:47Z</time>
      </trkpt>
      <trkpt lat="49.02949" lon="1.18399">
        <ele>118.3</ele>
        <time>2015-12-20T09:56:49Z</time>
      </trkpt>
      <trkpt lat="49.02939" lon="1.18405">
        <ele>118.2</ele>
        <time>2015-12-20T09:56:51Z</time>
      </trkpt>
      <trkpt lat="49.02929" lon="1.1841">
        <ele>118</ele>
        <time>2015-12-20T09:56:53Z</time>
      </trkpt>
      <trkpt lat="49.0292" lon="1.18411">
        <ele>117.8</ele>
        <time>2015-12-20T09:56:55Z</time>
      </trkpt>
      <trkpt lat="49.02907" lon="1.18413">
        <ele>117.6</ele>
        <time>2015-12-20T09:56:58Z</time>
      </trkpt>
      <trkpt lat="49.02896" lon="1.18417">
        <ele>117.4</ele>
        <time>2015-12-20T09:57:01Z</time>
      </trkpt>
      <trkpt lat="49.02889" lon="1.18428">
        <ele>116.9</ele>
        <time>2015-12-20T09:57:06Z</time>
      </trkpt>
      <trkpt lat="49.02879" lon="1.18431">
        <ele>116.6</ele>
        <time>2015-12-20T09:57:09Z</time>
      </trkpt>
      <trkpt lat="49.02867" lon="1.18429">
        <ele>116.2</ele>
        <time>2015-12-20T09:57:12Z</time>
      </trkpt>
      <trkpt lat="49.02857" lon="1.18418">
        <ele>115.9</ele>
        <time>2015-12-20T09:57:15Z</time>
      </trkpt>
      <trkpt lat="49.02847" lon="1.18417">
        <ele>115.7</ele>
        <time>2015-12-20T09:57:18Z</time>
      </trkpt>
      <trkpt lat="49.02837" lon="1.18425">
        <ele>115.4</ele>
        <time>2015-12-20T09:57:21Z</time>
      </trkpt>
      <trkpt lat="49.0283" lon="1.1844">
        <ele>115.3</ele>
        <time>2015-12-20T09:57:24Z</time>
      </trkpt>
      <trkpt lat="49.02825" lon="1.18459">
        <ele>115.1</ele>
        <time>2015-12-20T09:57:27Z</time>
      </trkpt>
      <trkpt lat="49.02816" lon="1.18473">
        <ele>115</ele>
        <time>2015-12-20T09:57:30Z</time>
      </trkpt>
      <trkpt lat="49.02807" lon="1.18477">
        <ele>114.9</ele>
        <time>2015-12-20T09:57:32Z</time>
      </trkpt>
      <trkpt lat="49.02798" lon="1.1848">
        <ele>114.9</ele>
        <time>2015-12-20T09:57:34Z</time>
      </trkpt>
      <trkpt lat="49.02789" lon="1.18481">
        <ele>114.8</ele>
        <time>2015-12-20T09:57:36Z</time>
      </trkpt>
      <trkpt lat="49.02779" lon="1.18482">
        <ele>114.8</ele>
        <time>2015-12-20T09:57:38Z</time>
      </trkpt>
      <trkpt lat="49.0277" lon="1.18483">
        <ele>114.7</ele>
        <time>2015-12-20T09:57:40Z</time>
      </trkpt>
      <trkpt lat="49.0276" lon="1.18485">
        <ele>114.7</ele>
        <time>2015-12-20T09:57:42Z</time>
      </trkpt>
      <trkpt lat="49.0275" lon="1.18486">
        <ele>114.6</ele>
        <time>2015-12-20T09:57:44Z</time>
      </trkpt>
      <trkpt lat="49.0274" lon="1.18488">
        <ele>114.6</ele>
        <time>2015-12-20T09:57:46Z</time>
      </trkpt>
      <trkpt lat="49.02721" lon="1.18491">
        <ele>114.6</ele>
        <time>2015-12-20T09:57:50Z</time>
      </trkpt>
      <trkpt lat="49.02702" lon="1.18493">
        <ele>114.5</ele>
        <time>2015-12-20T09:57:54Z</time>
      </trkpt>
      <trkpt lat="49.02681" lon="1.18497">
        <ele>114.3</ele>
        <time>2015-12-20T09:58:19Z</time>
      </trkpt>
      <trkpt lat="49.02674" lon="1.18498">
        <ele>113.7</ele>
        <time>2015-12-20T10:01:11Z</time>
      </trkpt>
      <trkpt lat="49.02662" lon="1.18499">
        <ele>113.7</ele>
        <time>2015-12-20T10:01:14Z</time>
      </trkpt>
      <trkpt lat="49.02649" lon="1.18501">
        <ele>113.7</ele>
        <time>2015-12-20T10:01:17Z</time>
      </trkpt>
      <trkpt lat="49.02636" lon="1.18504">
        <ele>113.7</ele>
        <time>2015-12-20T10:01:20Z</time>
      </trkpt>
      <trkpt lat="49.02624" lon="1.18506">
        <ele>113.7</ele>
        <time>2015-12-20T10:01:23Z</time>
      </trkpt>
      <trkpt lat="49.02611" lon="1.18507">
        <ele>113.7</ele>
        <time>2015-12-20T10:01:26Z</time>
      </trkpt>
      <trkpt lat="49.02597" lon="1.18507">
        <ele>113.7</ele>
        <time>2015-12-20T10:01:29Z</time>
      </trkpt>
      <trkpt lat="49.02588" lon="1.18508">
        <ele>113.7</ele>
        <time>2015-12-20T10:01:31Z</time>
      </trkpt>
      <trkpt lat="49.02579" lon="1.18509">
        <ele>113.7</ele>
        <time>2015-12-20T10:01:33Z</time>
      </trkpt>
      <trkpt lat="49.0257" lon="1.1851">
        <ele>113.7</ele>
        <time>2015-12-20T10:01:35Z</time>
      </trkpt>
      <trkpt lat="49.0256" lon="1.18512">
        <ele>113.7</ele>
        <time>2015-12-20T10:01:37Z</time>
      </trkpt>
      <trkpt lat="49.02551" lon="1.18513">
        <ele>113.7</ele>
        <time>2015-12-20T10:01:39Z</time>
      </trkpt>
      <trkpt lat="49.02542" lon="1.18515">
        <ele>113.7</ele>
        <time>2015-12-20T10:01:41Z</time>
      </trkpt>
      <trkpt lat="49.02532" lon="1.18516">
        <ele>113.7</ele>
        <time>2015-12-20T10:01:43Z</time>
      </trkpt>
      <trkpt lat="49.02523" lon="1.18517">
        <ele>113.7</ele>
        <time>2015-12-20T10:01:45Z</time>
      </trkpt>
      <trkpt lat="49.02513" lon="1.18518">
        <ele>113.7</ele>
        <time>2015-12-20T10:01:47Z</time>
      </trkpt>
      <trkpt lat="49.02503" lon="1.1852">
        <ele>113.8</ele>
        <time>2015-12-20T10:01:49Z</time>
      </trkpt>
      <trkpt lat="49.02493" lon="1.18521">
        <ele>113.8</ele>
        <time>2015-12-20T10:01:51Z</time>
      </trkpt>
      <trkpt lat="49.02484" lon="1.18522">
        <ele>113.8</ele>
        <time>2015-12-20T10:01:53Z</time>
      </trkpt>
      <trkpt lat="49.02474" lon="1.18523">
        <ele>113.9</ele>
        <time>2015-12-20T10:01:55Z</time>
      </trkpt>
      <trkpt lat="49.02465" lon="1.18525">
        <ele>114</ele>
        <time>2015-12-20T10:01:57Z</time>
      </trkpt>
      <trkpt lat="49.02456" lon="1.18526">
        <ele>114</ele>
        <time>2015-12-20T10:01:59Z</time>
      </trkpt>
      <trkpt lat="49.02447" lon="1.18527">
        <ele>114.1</ele>
        <time>2015-12-20T10:02:01Z</time>
      </trkpt>
      <trkpt lat="49.02438" lon="1.18529">
        <ele>114.2</ele>
        <time>2015-12-20T10:02:03Z</time>
      </trkpt>
      <trkpt lat="49.02428" lon="1.1853">
        <ele>114.2</ele>
        <time>2015-12-20T10:02:05Z</time>
      </trkpt>
      <trkpt lat="49.02419" lon="1.18531">
        <ele>114.3</ele>
        <time>2015-12-20T10:02:07Z</time>
      </trkpt>
      <trkpt lat="49.02409" lon="1.18532">
        <ele>114.4</ele>
        <time>2015-12-20T10:02:09Z</time>
      </trkpt>
      <trkpt lat="49.024" lon="1.18532">
        <ele>114.4</ele>
        <time>2015-12-20T10:02:11Z</time>
      </trkpt>
      <trkpt lat="49.02391" lon="1.18533">
        <ele>114.5</ele>
        <time>2015-12-20T10:02:13Z</time>
      </trkpt>
      <trkpt lat="49.02377" lon="1.18535">
        <ele>114.6</ele>
        <time>2015-12-20T10:02:16Z</time>
      </trkpt>
      <trkpt lat="49.02364" lon="1.18536">
        <ele>114.8</ele>
        <time>2015-12-20T10:02:19Z</time>
      </trkpt>
      <trkpt lat="49.02352" lon="1.18538">
        <ele>114.9</ele>
        <time>2015-12-20T10:02:22Z</time>
      </trkpt>
      <trkpt lat="49.02339" lon="1.18539">
        <ele>115.1</ele>
        <time>2015-12-20T10:02:25Z</time>
      </trkpt>
      <trkpt lat="49.02326" lon="1.18541">
        <ele>115.2</ele>
        <time>2015-12-20T10:02:28Z</time>
      </trkpt>
      <trkpt lat="49.02314" lon="1.18543">
        <ele>115.2</ele>
        <time>2015-12-20T10:02:31Z</time>
      </trkpt>
      <trkpt lat="49.02301" lon="1.18544">
        <ele>115.4</ele>
        <time>2015-12-20T10:02:34Z</time>
      </trkpt>
      <trkpt lat="49.02287" lon="1.18546">
        <ele>115.5</ele>
        <time>2015-12-20T10:02:37Z</time>
      </trkpt>
      <trkpt lat="49.02275" lon="1.18548">
        <ele>115.6</ele>
        <time>2015-12-20T10:02:40Z</time>
      </trkpt>
      <trkpt lat="49.02263" lon="1.18549">
        <ele>115.8</ele>
        <time>2015-12-20T10:02:43Z</time>
      </trkpt>
      <trkpt lat="49.02251" lon="1.1855">
        <ele>115.8</ele>
        <time>2015-12-20T10:02:46Z</time>
      </trkpt>
      <trkpt lat="49.0224" lon="1.18542">
        <ele>115.9</ele>
        <time>2015-12-20T10:02:49Z</time>
      </trkpt>
      <trkpt lat="49.02232" lon="1.18527">
        <ele>116.1</ele>
        <time>2015-12-20T10:02:52Z</time>
      </trkpt>
      <trkpt lat="49.02227" lon="1.18507">
        <ele>116.2</ele>
        <time>2015-12-20T10:02:55Z</time>
      </trkpt>
      <trkpt lat="49.02226" lon="1.18493">
        <ele>116.3</ele>
        <time>2015-12-20T10:02:57Z</time>
      </trkpt>
      <trkpt lat="49.02226" lon="1.18479">
        <ele>116.4</ele>
        <time>2015-12-20T10:02:59Z</time>
      </trkpt>
      <trkpt lat="49.02225" lon="1.18465">
        <ele>116.5</ele>
        <time>2015-12-20T10:03:01Z</time>
      </trkpt>
      <trkpt lat="49.02224" lon="1.18451">
        <ele>116.6</ele>
        <time>2015-12-20T10:03:03Z</time>
      </trkpt>
      <trkpt lat="49.02222" lon="1.18431">
        <ele>116.7</ele>
        <time>2015-12-20T10:03:06Z</time>
      </trkpt>
      <trkpt lat="49.02221" lon="1.18417">
        <ele>116.8</ele>
        <time>2015-12-20T10:03:08Z</time>
      </trkpt>
      <trkpt lat="49.02221" lon="1.18403">
        <ele>116.8</ele>
        <time>2015-12-20T10:03:10Z</time>
      </trkpt>
      <trkpt lat="49.0222" lon="1.18389">
        <ele>116.9</ele>
        <time>2015-12-20T10:03:12Z</time>
      </trkpt>
      <trkpt lat="49.02219" lon="1.18374">
        <ele>116.9</ele>
        <time>2015-12-20T10:03:14Z</time>
      </trkpt>
      <trkpt lat="49.02218" lon="1.1836">
        <ele>116.9</ele>
        <time>2015-12-20T10:03:16Z</time>
      </trkpt>
      <trkpt lat="49.02218" lon="1.18345">
        <ele>117</ele>
        <time>2015-12-20T10:03:18Z</time>
      </trkpt>
      <trkpt lat="49.02217" lon="1.1833">
        <ele>117</ele>
        <time>2015-12-20T10:03:20Z</time>
      </trkpt>
      <trkpt lat="49.02217" lon="1.18315">
        <ele>117</ele>
        <time>2015-12-20T10:03:22Z</time>
      </trkpt>
      <trkpt lat="49.02216" lon="1.18299">
        <ele>117.1</ele>
        <time>2015-12-20T10:03:24Z</time>
      </trkpt>
      <trkpt lat="49.02215" lon="1.18284">
        <ele>117.1</ele>
        <time>2015-12-20T10:03:26Z</time>
      </trkpt>
      <trkpt lat="49.02214" lon="1.18268">
        <ele>117.1</ele>
        <time>2015-12-20T10:03:28Z</time>
      </trkpt>
      <trkpt lat="49.02212" lon="1.18253">
        <ele>117.2</ele>
        <time>2015-12-20T10:03:30Z</time>
      </trkpt>
      <trkpt lat="49.02207" lon="1.18239">
        <ele>117.2</ele>
        <time>2015-12-20T10:03:32Z</time>
      </trkpt>
      <trkpt lat="49.02203" lon="1.18225">
        <ele>117.2</ele>
        <time>2015-12-20T10:03:34Z</time>
      </trkpt>
      <trkpt lat="49.02196" lon="1.18212">
        <ele>117.2</ele>
        <time>2015-12-20T10:03:36Z</time>
      </trkpt>
      <trkpt lat="49.02188" lon="1.18197">
        <ele>117.2</ele>
        <time>2015-12-20T10:03:39Z</time>
      </trkpt>
      <trkpt lat="49.02181" lon="1.18183">
        <ele>117.3</ele>
        <time>2015-12-20T10:03:42Z</time>
      </trkpt>
      <trkpt lat="49.02173" lon="1.1817">
        <ele>117.3</ele>
        <time>2015-12-20T10:03:45Z</time>
      </trkpt>
      <trkpt lat="49.02161" lon="1.18176">
        <ele>117.4</ele>
        <time>2015-12-20T10:03:48Z</time>
      </trkpt>
      <trkpt lat="49.02151" lon="1.18189">
        <ele>117.4</ele>
        <time>2015-12-20T10:03:51Z</time>
      </trkpt>
      <trkpt lat="49.0214" lon="1.18202">
        <ele>117.4</ele>
        <time>2015-12-20T10:03:54Z</time>
      </trkpt>
      <trkpt lat="49.02133" lon="1.1821">
        <ele>117.5</ele>
        <time>2015-12-20T10:03:56Z</time>
      </trkpt>
      <trkpt lat="49.02122" lon="1.1822">
        <ele>117.5</ele>
        <time>2015-12-20T10:03:59Z</time>
      </trkpt>
      <trkpt lat="49.0211" lon="1.18227">
        <ele>117.6</ele>
        <time>2015-12-20T10:04:02Z</time>
      </trkpt>
      <trkpt lat="49.021" lon="1.18231">
        <ele>117.6</ele>
        <time>2015-12-20T10:04:04Z</time>
      </trkpt>
      <trkpt lat="49.02091" lon="1.18233">
        <ele>117.6</ele>
        <time>2015-12-20T10:04:06Z</time>
      </trkpt>
      <trkpt lat="49.02081" lon="1.18234">
        <ele>117.6</ele>
        <time>2015-12-20T10:04:08Z</time>
      </trkpt>
      <trkpt lat="49.02072" lon="1.18233">
        <ele>117.7</ele>
        <time>2015-12-20T10:04:10Z</time>
      </trkpt>
      <trkpt lat="49.02062" lon="1.18234">
        <ele>117.7</ele>
        <time>2015-12-20T10:04:12Z</time>
      </trkpt>
      <trkpt lat="49.02053" lon="1.18237">
        <ele>117.7</ele>
        <time>2015-12-20T10:04:14Z</time>
      </trkpt>
      <trkpt lat="49.02041" lon="1.18237">
        <ele>117.7</ele>
        <time>2015-12-20T10:04:17Z</time>
      </trkpt>
      <trkpt lat="49.02033" lon="1.18243">
        <ele>117.8</ele>
        <time>2015-12-20T10:04:20Z</time>
      </trkpt>
      <trkpt lat="49.02026" lon="1.18251">
        <ele>117.8</ele>
        <time>2015-12-20T10:04:25Z</time>
      </trkpt>
      <trkpt lat="49.02016" lon="1.1826">
        <ele>117.9</ele>
        <time>2015-12-20T10:05:24Z</time>
      </trkpt>
      <trkpt lat="49.02007" lon="1.1827">
        <ele>117.9</ele>
        <time>2015-12-20T10:05:27Z</time>
      </trkpt>
      <trkpt lat="49.01999" lon="1.1828">
        <ele>117.9</ele>
        <time>2015-12-20T10:05:30Z</time>
      </trkpt>
      <trkpt lat="49.01991" lon="1.18291">
        <ele>117.9</ele>
        <time>2015-12-20T10:05:34Z</time>
      </trkpt>
      <trkpt lat="49.01983" lon="1.18301">
        <ele>118</ele>
        <time>2015-12-20T10:05:37Z</time>
      </trkpt>
      <trkpt lat="49.01974" lon="1.18312">
        <ele>118</ele>
        <time>2015-12-20T10:05:40Z</time>
      </trkpt>
      <trkpt lat="49.01964" lon="1.18321">
        <ele>118.1</ele>
        <time>2015-12-20T10:05:43Z</time>
      </trkpt>
      <trkpt lat="49.01951" lon="1.18328">
        <ele>118.3</ele>
        <time>2015-12-20T10:05:46Z</time>
      </trkpt>
      <trkpt lat="49.01944" lon="1.18336">
        <ele>118.4</ele>
        <time>2015-12-20T10:05:48Z</time>
      </trkpt>
      <trkpt lat="49.01936" lon="1.18344">
        <ele>118.5</ele>
        <time>2015-12-20T10:05:50Z</time>
      </trkpt>
      <trkpt lat="49.01928" lon="1.18352">
        <ele>118.6</ele>
        <time>2015-12-20T10:05:52Z</time>
      </trkpt>
      <trkpt lat="49.01921" lon="1.18361">
        <ele>118.7</ele>
        <time>2015-12-20T10:05:54Z</time>
      </trkpt>
      <trkpt lat="49.01913" lon="1.18369">
        <ele>118.8</ele>
        <time>2015-12-20T10:05:56Z</time>
      </trkpt>
      <trkpt lat="49.01906" lon="1.18377">
        <ele>118.9</ele>
        <time>2015-12-20T10:05:58Z</time>
      </trkpt>
      <trkpt lat="49.01898" lon="1.18385">
        <ele>119</ele>
        <time>2015-12-20T10:06:00Z</time>
      </trkpt>
      <trkpt lat="49.0189" lon="1.18392">
        <ele>119.1</ele>
        <time>2015-12-20T10:06:02Z</time>
      </trkpt>
      <trkpt lat="49.01882" lon="1.184">
        <ele>119.3</ele>
        <time>2015-12-20T10:06:04Z</time>
      </trkpt>
      <trkpt lat="49.01874" lon="1.18408">
        <ele>119.5</ele>
        <time>2015-12-20T10:06:06Z</time>
      </trkpt>
      <trkpt lat="49.01865" lon="1.18417">
        <ele>119.7</ele>
        <time>2015-12-20T10:06:08Z</time>
      </trkpt>
      <trkpt lat="49.01857" lon="1.18425">
        <ele>119.8</ele>
        <time>2015-12-20T10:06:10Z</time>
      </trkpt>
      <trkpt lat="49.01848" lon="1.18434">
        <ele>120</ele>
        <time>2015-12-20T10:06:12Z</time>
      </trkpt>
      <trkpt lat="49.0184" lon="1.18442">
        <ele>120.1</ele>
        <time>2015-12-20T10:06:14Z</time>
      </trkpt>
      <trkpt lat="49.01832" lon="1.18451">
        <ele>120.2</ele>
        <time>2015-12-20T10:06:16Z</time>
      </trkpt>
      <trkpt lat="49.01823" lon="1.18459">
        <ele>120.3</ele>
        <time>2015-12-20T10:06:18Z</time>
      </trkpt>
      <trkpt lat="49.01815" lon="1.18468">
        <ele>120.4</ele>
        <time>2015-12-20T10:06:20Z</time>
      </trkpt>
      <trkpt lat="49.01807" lon="1.18476">
        <ele>120.5</ele>
        <time>2015-12-20T10:06:22Z</time>
      </trkpt>
      <trkpt lat="49.01799" lon="1.18485">
        <ele>120.6</ele>
        <time>2015-12-20T10:06:24Z</time>
      </trkpt>
      <trkpt lat="49.01791" lon="1.18493">
        <ele>120.7</ele>
        <time>2015-12-20T10:06:26Z</time>
      </trkpt>
      <trkpt lat="49.01782" lon="1.18502">
        <ele>120.8</ele>
        <time>2015-12-20T10:06:28Z</time>
      </trkpt>
      <trkpt lat="49.01774" lon="1.18511">
        <ele>120.9</ele>
        <time>2015-12-20T10:06:30Z</time>
      </trkpt>
      <trkpt lat="49.01766" lon="1.1852">
        <ele>121</ele>
        <time>2015-12-20T10:06:32Z</time>
      </trkpt>
      <trkpt lat="49.01757" lon="1.18529">
        <ele>121.1</ele>
        <time>2015-12-20T10:06:34Z</time>
      </trkpt>
      <trkpt lat="49.01749" lon="1.18538">
        <ele>121.1</ele>
        <time>2015-12-20T10:06:36Z</time>
      </trkpt>
      <trkpt lat="49.0174" lon="1.18547">
        <ele>121.2</ele>
        <time>2015-12-20T10:06:38Z</time>
      </trkpt>
      <trkpt lat="49.01731" lon="1.18557">
        <ele>121.3</ele>
        <time>2015-12-20T10:06:40Z</time>
      </trkpt>
      <trkpt lat="49.01722" lon="1.18565">
        <ele>121.4</ele>
        <time>2015-12-20T10:06:42Z</time>
      </trkpt>
      <trkpt lat="49.01713" lon="1.18575">
        <ele>121.5</ele>
        <time>2015-12-20T10:06:44Z</time>
      </trkpt>
      <trkpt lat="49.01704" lon="1.18584">
        <ele>121.6</ele>
        <time>2015-12-20T10:06:46Z</time>
      </trkpt>
      <trkpt lat="49.01696" lon="1.18593">
        <ele>121.6</ele>
        <time>2015-12-20T10:06:48Z</time>
      </trkpt>
      <trkpt lat="49.01687" lon="1.18603">
        <ele>121.7</ele>
        <time>2015-12-20T10:06:50Z</time>
      </trkpt>
      <trkpt lat="49.01678" lon="1.18612">
        <ele>121.7</ele>
        <time>2015-12-20T10:06:52Z</time>
      </trkpt>
      <trkpt lat="49.01668" lon="1.18622">
        <ele>121.7</ele>
        <time>2015-12-20T10:06:54Z</time>
      </trkpt>
      <trkpt lat="49.01659" lon="1.18631">
        <ele>121.7</ele>
        <time>2015-12-20T10:06:56Z</time>
      </trkpt>
      <trkpt lat="49.0165" lon="1.1864">
        <ele>121.7</ele>
        <time>2015-12-20T10:06:58Z</time>
      </trkpt>
      <trkpt lat="49.01641" lon="1.18649">
        <ele>121.8</ele>
        <time>2015-12-20T10:07:00Z</time>
      </trkpt>
      <trkpt lat="49.01632" lon="1.18659">
        <ele>121.7</ele>
        <time>2015-12-20T10:07:02Z</time>
      </trkpt>
      <trkpt lat="49.01623" lon="1.18668">
        <ele>121.7</ele>
        <time>2015-12-20T10:07:04Z</time>
      </trkpt>
      <trkpt lat="49.01614" lon="1.18677">
        <ele>121.7</ele>
        <time>2015-12-20T10:07:06Z</time>
      </trkpt>
      <trkpt lat="49.01606" lon="1.18686">
        <ele>121.6</ele>
        <time>2015-12-20T10:07:08Z</time>
      </trkpt>
      <trkpt lat="49.01597" lon="1.18694">
        <ele>121.6</ele>
        <time>2015-12-20T10:07:10Z</time>
      </trkpt>
      <trkpt lat="49.01588" lon="1.18702">
        <ele>121.5</ele>
        <time>2015-12-20T10:07:12Z</time>
      </trkpt>
      <trkpt lat="49.01579" lon="1.18708">
        <ele>121.5</ele>
        <time>2015-12-20T10:07:14Z</time>
      </trkpt>
      <trkpt lat="49.0157" lon="1.18712">
        <ele>121.5</ele>
        <time>2015-12-20T10:07:16Z</time>
      </trkpt>
      <trkpt lat="49.01557" lon="1.18712">
        <ele>121.4</ele>
        <time>2015-12-20T10:07:19Z</time>
      </trkpt>
      <trkpt lat="49.01545" lon="1.18705">
        <ele>121.4</ele>
        <time>2015-12-20T10:07:22Z</time>
      </trkpt>
      <trkpt lat="49.01532" lon="1.18702">
        <ele>121.4</ele>
        <time>2015-12-20T10:07:25Z</time>
      </trkpt>
      <trkpt lat="49.01523" lon="1.18707">
        <ele>121.3</ele>
        <time>2015-12-20T10:07:27Z</time>
      </trkpt>
      <trkpt lat="49.01514" lon="1.18714">
        <ele>121.3</ele>
        <time>2015-12-20T10:07:29Z</time>
      </trkpt>
      <trkpt lat="49.01504" lon="1.18718">
        <ele>121.3</ele>
        <time>2015-12-20T10:07:31Z</time>
      </trkpt>
      <trkpt lat="49.01494" lon="1.18718">
        <ele>121.2</ele>
        <time>2015-12-20T10:07:33Z</time>
      </trkpt>
      <trkpt lat="49.01483" lon="1.18719">
        <ele>121.2</ele>
        <time>2015-12-20T10:07:35Z</time>
      </trkpt>
      <trkpt lat="49.01473" lon="1.1872">
        <ele>121.1</ele>
        <time>2015-12-20T10:07:37Z</time>
      </trkpt>
      <trkpt lat="49.01463" lon="1.18719">
        <ele>121.1</ele>
        <time>2015-12-20T10:07:39Z</time>
      </trkpt>
      <trkpt lat="49.01453" lon="1.18719">
        <ele>121</ele>
        <time>2015-12-20T10:07:41Z</time>
      </trkpt>
      <trkpt lat="49.01443" lon="1.18718">
        <ele>120.9</ele>
        <time>2015-12-20T10:07:43Z</time>
      </trkpt>
      <trkpt lat="49.01433" lon="1.18717">
        <ele>120.9</ele>
        <time>2015-12-20T10:07:45Z</time>
      </trkpt>
      <trkpt lat="49.01423" lon="1.18716">
        <ele>120.8</ele>
        <time>2015-12-20T10:07:47Z</time>
      </trkpt>
      <trkpt lat="49.01414" lon="1.18713">
        <ele>120.8</ele>
        <time>2015-12-20T10:07:49Z</time>
      </trkpt>
      <trkpt lat="49.01405" lon="1.18705">
        <ele>120.7</ele>
        <time>2015-12-20T10:07:51Z</time>
      </trkpt>
      <trkpt lat="49.01396" lon="1.18699">
        <ele>120.6</ele>
        <time>2015-12-20T10:07:53Z</time>
      </trkpt>
      <trkpt lat="49.01386" lon="1.18698">
        <ele>120.5</ele>
        <time>2015-12-20T10:07:55Z</time>
      </trkpt>
      <trkpt lat="49.01376" lon="1.18699">
        <ele>120.5</ele>
        <time>2015-12-20T10:07:57Z</time>
      </trkpt>
      <trkpt lat="49.01367" lon="1.18701">
        <ele>120.4</ele>
        <time>2015-12-20T10:07:59Z</time>
      </trkpt>
      <trkpt lat="49.01354" lon="1.18696">
        <ele>120.2</ele>
        <time>2015-12-20T10:08:02Z</time>
      </trkpt>
      <trkpt lat="49.01343" lon="1.18687">
        <ele>120</ele>
        <time>2015-12-20T10:08:05Z</time>
      </trkpt>
      <trkpt lat="49.01331" lon="1.18678">
        <ele>119.9</ele>
        <time>2015-12-20T10:08:08Z</time>
      </trkpt>
      <trkpt lat="49.0132" lon="1.18669">
        <ele>119.7</ele>
        <time>2015-12-20T10:08:11Z</time>
      </trkpt>
      <trkpt lat="49.0131" lon="1.18661">
        <ele>119.6</ele>
        <time>2015-12-20T10:08:14Z</time>
      </trkpt>
      <trkpt lat="49.013" lon="1.18657">
        <ele>119.5</ele>
        <time>2015-12-20T10:08:17Z</time>
      </trkpt>
      <trkpt lat="49.01291" lon="1.18668">
        <ele>119.4</ele>
        <time>2015-12-20T10:08:22Z</time>
      </trkpt>
      <trkpt lat="49.01289" lon="1.18681">
        <ele>119.2</ele>
        <time>2015-12-20T10:08:27Z</time>
      </trkpt>
      <trkpt lat="49.01287" lon="1.18696">
        <ele>119</ele>
        <time>2015-12-20T10:08:31Z</time>
      </trkpt>
      <trkpt lat="49.01286" lon="1.18711">
        <ele>118.9</ele>
        <time>2015-12-20T10:08:34Z</time>
      </trkpt>
      <trkpt lat="49.01282" lon="1.18725">
        <ele>118.7</ele>
        <time>2015-12-20T10:08:37Z</time>
      </trkpt>
      <trkpt lat="49.01279" lon="1.1874">
        <ele>118.5</ele>
        <time>2015-12-20T10:08:40Z</time>
      </trkpt>
      <trkpt lat="49.01279" lon="1.18757">
        <ele>118.4</ele>
        <time>2015-12-20T10:08:43Z</time>
      </trkpt>
      <trkpt lat="49.01281" lon="1.18775">
        <ele>118.3</ele>
        <time>2015-12-20T10:08:46Z</time>
      </trkpt>
      <trkpt lat="49.01282" lon="1.18794">
        <ele>118.2</ele>
        <time>2015-12-20T10:08:49Z</time>
      </trkpt>
      <trkpt lat="49.01282" lon="1.18814">
        <ele>118.1</ele>
        <time>2015-12-20T10:08:52Z</time>
      </trkpt>
      <trkpt lat="49.01281" lon="1.18834">
        <ele>118</ele>
        <time>2015-12-20T10:08:55Z</time>
      </trkpt>
      <trkpt lat="49.01278" lon="1.18854">
        <ele>118</ele>
        <time>2015-12-20T10:08:58Z</time>
      </trkpt>
      <trkpt lat="49.01272" lon="1.1887">
        <ele>117.9</ele>
        <time>2015-12-20T10:09:01Z</time>
      </trkpt>
      <trkpt lat="49.0126" lon="1.18878">
        <ele>117.9</ele>
        <time>2015-12-20T10:09:04Z</time>
      </trkpt>
      <trkpt lat="49.01247" lon="1.18881">
        <ele>117.8</ele>
        <time>2015-12-20T10:09:07Z</time>
      </trkpt>
      <trkpt lat="49.01233" lon="1.18879">
        <ele>117.8</ele>
        <time>2015-12-20T10:09:10Z</time>
      </trkpt>
      <trkpt lat="49.01221" lon="1.18875">
        <ele>117.8</ele>
        <time>2015-12-20T10:09:13Z</time>
      </trkpt>
      <trkpt lat="49.01209" lon="1.1887">
        <ele>117.7</ele>
        <time>2015-12-20T10:09:16Z</time>
      </trkpt>
      <trkpt lat="49.01197" lon="1.18862">
        <ele>117.7</ele>
        <time>2015-12-20T10:09:19Z</time>
      </trkpt>
      <trkpt lat="49.01188" lon="1.18856">
        <ele>117.7</ele>
        <time>2015-12-20T10:09:21Z</time>
      </trkpt>
      <trkpt lat="49.01177" lon="1.18846">
        <ele>117.7</ele>
        <time>2015-12-20T10:09:24Z</time>
      </trkpt>
      <trkpt lat="49.01168" lon="1.18833">
        <ele>117.7</ele>
        <time>2015-12-20T10:09:27Z</time>
      </trkpt>
      <trkpt lat="49.01163" lon="1.18821">
        <ele>117.7</ele>
        <time>2015-12-20T10:09:29Z</time>
      </trkpt>
      <trkpt lat="49.01158" lon="1.18808">
        <ele>117.7</ele>
        <time>2015-12-20T10:09:31Z</time>
      </trkpt>
      <trkpt lat="49.01154" lon="1.18789">
        <ele>117.5</ele>
        <time>2015-12-20T10:09:34Z</time>
      </trkpt>
      <trkpt lat="49.01151" lon="1.18771">
        <ele>117.4</ele>
        <time>2015-12-20T10:09:37Z</time>
      </trkpt>
      <trkpt lat="49.01148" lon="1.18754">
        <ele>117.3</ele>
        <time>2015-12-20T10:09:40Z</time>
      </trkpt>
      <trkpt lat="49.01144" lon="1.1874">
        <ele>117.3</ele>
        <time>2015-12-20T10:09:43Z</time>
      </trkpt>
      <trkpt lat="49.01138" lon="1.18727">
        <ele>117.2</ele>
        <time>2015-12-20T10:09:46Z</time>
      </trkpt>
      <trkpt lat="49.01131" lon="1.18716">
        <ele>117.2</ele>
        <time>2015-12-20T10:09:49Z</time>
      </trkpt>
      <trkpt lat="49.01122" lon="1.18707">
        <ele>117.2</ele>
        <time>2015-12-20T10:09:52Z</time>
      </trkpt>
      <trkpt lat="49.01112" lon="1.18704">
        <ele>117.2</ele>
        <time>2015-12-20T10:09:55Z</time>
      </trkpt>
      <trkpt lat="49.01101" lon="1.18706">
        <ele>117.2</ele>
        <time>2015-12-20T10:09:58Z</time>
      </trkpt>
      <trkpt lat="49.0109" lon="1.18706">
        <ele>117.2</ele>
        <time>2015-12-20T10:10:01Z</time>
      </trkpt>
      <trkpt lat="49.01079" lon="1.187">
        <ele>117.1</ele>
        <time>2015-12-20T10:10:04Z</time>
      </trkpt>
      <trkpt lat="49.01071" lon="1.1869">
        <ele>117.1</ele>
        <time>2015-12-20T10:10:07Z</time>
      </trkpt>
      <trkpt lat="49.01064" lon="1.18681">
        <ele>117.1</ele>
        <time>2015-12-20T10:10:10Z</time>
      </trkpt>
      <trkpt lat="49.01057" lon="1.18667">
        <ele>117</ele>
        <time>2015-12-20T10:10:14Z</time>
      </trkpt>
      <trkpt lat="49.01051" lon="1.18655">
        <ele>117</ele>
        <time>2015-12-20T10:10:17Z</time>
      </trkpt>
      <trkpt lat="49.01044" lon="1.18642">
        <ele>117</ele>
        <time>2015-12-20T10:10:20Z</time>
      </trkpt>
      <trkpt lat="49.01038" lon="1.18628">
        <ele>117</ele>
        <time>2015-12-20T10:10:23Z</time>
      </trkpt>
      <trkpt lat="49.01032" lon="1.18614">
        <ele>117</ele>
        <time>2015-12-20T10:10:26Z</time>
      </trkpt>
      <trkpt lat="49.01025" lon="1.18602">
        <ele>117</ele>
        <time>2015-12-20T10:10:29Z</time>
      </trkpt>
      <trkpt lat="49.0102" lon="1.18589">
        <ele>117.1</ele>
        <time>2015-12-20T10:10:32Z</time>
      </trkpt>
      <trkpt lat="49.01015" lon="1.18576">
        <ele>117.1</ele>
        <time>2015-12-20T10:10:35Z</time>
      </trkpt>
      <trkpt lat="49.0101" lon="1.18564">
        <ele>117.1</ele>
        <time>2015-12-20T10:10:38Z</time>
      </trkpt>
      <trkpt lat="49.01003" lon="1.18556">
        <ele>117.3</ele>
        <time>2015-12-20T10:10:41Z</time>
      </trkpt>
      <trkpt lat="49.00994" lon="1.18548">
        <ele>117.4</ele>
        <time>2015-12-20T10:10:44Z</time>
      </trkpt>
      <trkpt lat="49.00984" lon="1.18543">
        <ele>117.6</ele>
        <time>2015-12-20T10:10:47Z</time>
      </trkpt>
      <trkpt lat="49.00974" lon="1.18541">
        <ele>117.7</ele>
        <time>2015-12-20T10:10:50Z</time>
      </trkpt>
      <trkpt lat="49.00965" lon="1.18539">
        <ele>117.8</ele>
        <time>2015-12-20T10:10:53Z</time>
      </trkpt>
      <trkpt lat="49.00954" lon="1.18536">
        <ele>117.9</ele>
        <time>2015-12-20T10:10:57Z</time>
      </trkpt>
      <trkpt lat="49.00943" lon="1.18533">
        <ele>117.9</ele>
        <time>2015-12-20T10:11:02Z</time>
      </trkpt>
      <trkpt lat="49.00935" lon="1.18528">
        <ele>117.8</ele>
        <time>2015-12-20T10:11:06Z</time>
      </trkpt>
      <trkpt lat="49.00926" lon="1.18522">
        <ele>117.8</ele>
        <time>2015-12-20T10:11:10Z</time>
      </trkpt>
      <trkpt lat="49.00917" lon="1.18513">
        <ele>117.7</ele>
        <time>2015-12-20T10:11:14Z</time>
      </trkpt>
      <trkpt lat="49.00907" lon="1.18504">
        <ele>117.7</ele>
        <time>2015-12-20T10:11:18Z</time>
      </trkpt>
      <trkpt lat="49.00899" lon="1.18493">
        <ele>117.7</ele>
        <time>2015-12-20T10:11:22Z</time>
      </trkpt>
      <trkpt lat="49.00892" lon="1.18484">
        <ele>117.7</ele>
        <time>2015-12-20T10:11:31Z</time>
      </trkpt>
      <trkpt lat="49.00883" lon="1.18481">
        <ele>118</ele>
        <time>2015-12-20T10:11:38Z</time>
      </trkpt>
      <trkpt lat="49.00874" lon="1.18476">
        <ele>118.7</ele>
        <time>2015-12-20T10:11:44Z</time>
      </trkpt>
      <trkpt lat="49.00864" lon="1.18472">
        <ele>119.9</ele>
        <time>2015-12-20T10:11:50Z</time>
      </trkpt>
      <trkpt lat="49.00854" lon="1.18467">
        <ele>121.3</ele>
        <time>2015-12-20T10:11:56Z</time>
      </trkpt>
      <trkpt lat="49.00846" lon="1.18462">
        <ele>124.4</ele>
        <time>2015-12-20T10:13:30Z</time>
      </trkpt>
      <trkpt lat="49.00836" lon="1.18457">
        <ele>124.4</ele>
        <time>2015-12-20T10:13:36Z</time>
      </trkpt>
      <trkpt lat="49.00826" lon="1.18452">
        <ele>124.3</ele>
        <time>2015-12-20T10:13:40Z</time>
      </trkpt>
      <trkpt lat="49.00816" lon="1.18446">
        <ele>124.3</ele>
        <time>2015-12-20T10:13:44Z</time>
      </trkpt>
      <trkpt lat="49.00806" lon="1.1844">
        <ele>124.3</ele>
        <time>2015-12-20T10:13:48Z</time>
      </trkpt>
      <trkpt lat="49.00796" lon="1.18434">
        <ele>124.3</ele>
        <time>2015-12-20T10:13:52Z</time>
      </trkpt>
      <trkpt lat="49.00785" lon="1.18428">
        <ele>124.4</ele>
        <time>2015-12-20T10:13:56Z</time>
      </trkpt>
      <trkpt lat="49.00775" lon="1.18422">
        <ele>124.6</ele>
        <time>2015-12-20T10:14:00Z</time>
      </trkpt>
      <trkpt lat="49.00765" lon="1.18416">
        <ele>124.8</ele>
        <time>2015-12-20T10:14:04Z</time>
      </trkpt>
      <trkpt lat="49.00754" lon="1.18412">
        <ele>125</ele>
        <time>2015-12-20T10:14:08Z</time>
      </trkpt>
      <trkpt lat="49.00745" lon="1.18409">
        <ele>125.1</ele>
        <time>2015-12-20T10:14:11Z</time>
      </trkpt>
      <trkpt lat="49.00736" lon="1.18405">
        <ele>125.2</ele>
        <time>2015-12-20T10:14:14Z</time>
      </trkpt>
      <trkpt lat="49.00725" lon="1.18403">
        <ele>125.4</ele>
        <time>2015-12-20T10:14:18Z</time>
      </trkpt>
      <trkpt lat="49.00718" lon="1.18395">
        <ele>125.4</ele>
        <time>2015-12-20T10:14:21Z</time>
      </trkpt>
      <trkpt lat="49.00706" lon="1.18387">
        <ele>124.9</ele>
        <time>2015-12-20T10:14:24Z</time>
      </trkpt>
      <trkpt lat="49.00696" lon="1.18388">
        <ele>124.2</ele>
        <time>2015-12-20T10:14:26Z</time>
      </trkpt>
      <trkpt lat="49.00687" lon="1.18396">
        <ele>123.4</ele>
        <time>2015-12-20T10:14:29Z</time>
      </trkpt>
      <trkpt lat="49.00679" lon="1.18405">
        <ele>122.5</ele>
        <time>2015-12-20T10:14:33Z</time>
      </trkpt>
      <trkpt lat="49.0067" lon="1.18414">
        <ele>121.9</ele>
        <time>2015-12-20T10:14:37Z</time>
      </trkpt>
      <trkpt lat="49.00661" lon="1.18421">
        <ele>121.4</ele>
        <time>2015-12-20T10:14:41Z</time>
      </trkpt>
      <trkpt lat="49.0065" lon="1.18424">
        <ele>121.1</ele>
        <time>2015-12-20T10:14:45Z</time>
      </trkpt>
      <trkpt lat="49.00639" lon="1.18427">
        <ele>120.9</ele>
        <time>2015-12-20T10:14:49Z</time>
      </trkpt>
      <trkpt lat="49.00627" lon="1.1843">
        <ele>120.7</ele>
        <time>2015-12-20T10:14:53Z</time>
      </trkpt>
      <trkpt lat="49.00618" lon="1.18433">
        <ele>120.6</ele>
        <time>2015-12-20T10:14:56Z</time>
      </trkpt>
      <trkpt lat="49.00607" lon="1.18437">
        <ele>120.5</ele>
        <time>2015-12-20T10:15:00Z</time>
      </trkpt>
      <trkpt lat="49.00595" lon="1.18439">
        <ele>120.5</ele>
        <time>2015-12-20T10:15:04Z</time>
      </trkpt>
      <trkpt lat="49.00586" lon="1.18442">
        <ele>120.4</ele>
        <time>2015-12-20T10:15:07Z</time>
      </trkpt>
      <trkpt lat="49.00577" lon="1.18445">
        <ele>120.4</ele>
        <time>2015-12-20T10:15:10Z</time>
      </trkpt>
      <trkpt lat="49.00568" lon="1.18448">
        <ele>120.3</ele>
        <time>2015-12-20T10:15:13Z</time>
      </trkpt>
      <trkpt lat="49.00559" lon="1.1845">
        <ele>120.3</ele>
        <time>2015-12-20T10:15:16Z</time>
      </trkpt>
      <trkpt lat="49.00549" lon="1.18454">
        <ele>120.3</ele>
        <time>2015-12-20T10:15:19Z</time>
      </trkpt>
      <trkpt lat="49.0054" lon="1.18457">
        <ele>120.2</ele>
        <time>2015-12-20T10:15:22Z</time>
      </trkpt>
      <trkpt lat="49.0053" lon="1.1846">
        <ele>120.1</ele>
        <time>2015-12-20T10:15:25Z</time>
      </trkpt>
      <trkpt lat="49.00521" lon="1.18463">
        <ele>120</ele>
        <time>2015-12-20T10:15:28Z</time>
      </trkpt>
      <trkpt lat="49.00511" lon="1.18465">
        <ele>119.9</ele>
        <time>2015-12-20T10:15:31Z</time>
      </trkpt>
      <trkpt lat="49.00502" lon="1.18466">
        <ele>119.8</ele>
        <time>2015-12-20T10:15:34Z</time>
      </trkpt>
      <trkpt lat="49.00493" lon="1.18467">
        <ele>119.7</ele>
        <time>2015-12-20T10:15:37Z</time>
      </trkpt>
      <trkpt lat="49.00481" lon="1.18468">
        <ele>119.6</ele>
        <time>2015-12-20T10:15:41Z</time>
      </trkpt>
      <trkpt lat="49.0047" lon="1.1847">
        <ele>119.5</ele>
        <time>2015-12-20T10:15:45Z</time>
      </trkpt>
      <trkpt lat="49.00458" lon="1.18472">
        <ele>119.6</ele>
        <time>2015-12-20T10:15:49Z</time>
      </trkpt>
      <trkpt lat="49.00446" lon="1.18474">
        <ele>119.6</ele>
        <time>2015-12-20T10:15:53Z</time>
      </trkpt>
      <trkpt lat="49.00437" lon="1.18476">
        <ele>119.7</ele>
        <time>2015-12-20T10:15:56Z</time>
      </trkpt>
      <trkpt lat="49.00425" lon="1.18477">
        <ele>119.6</ele>
        <time>2015-12-20T10:16:00Z</time>
      </trkpt>
      <trkpt lat="49.00414" lon="1.18475">
        <ele>119.6</ele>
        <time>2015-12-20T10:16:04Z</time>
      </trkpt>
      <trkpt lat="49.00404" lon="1.18473">
        <ele>119.6</ele>
        <time>2015-12-20T10:16:08Z</time>
      </trkpt>
      <trkpt lat="49.00393" lon="1.18471">
        <ele>119.6</ele>
        <time>2015-12-20T10:16:12Z</time>
      </trkpt>
      <trkpt lat="49.00382" lon="1.18469">
        <ele>119.6</ele>
        <time>2015-12-20T10:16:16Z</time>
      </trkpt>
      <trkpt lat="49.00371" lon="1.18468">
        <ele>119.7</ele>
        <time>2015-12-20T10:16:20Z</time>
      </trkpt>
      <trkpt lat="49.00361" lon="1.18465">
        <ele>119.8</ele>
        <time>2015-12-20T10:16:24Z</time>
      </trkpt>
      <trkpt lat="49.0035" lon="1.1846">
        <ele>120</ele>
        <time>2015-12-20T10:16:28Z</time>
      </trkpt>
      <trkpt lat="49.00338" lon="1.18457">
        <ele>120.1</ele>
        <time>2015-12-20T10:16:32Z</time>
      </trkpt>
      <trkpt lat="49.00329" lon="1.18454">
        <ele>120.3</ele>
        <time>2015-12-20T10:16:35Z</time>
      </trkpt>
      <trkpt lat="49.0032" lon="1.18452">
        <ele>120.4</ele>
        <time>2015-12-20T10:16:38Z</time>
      </trkpt>
      <trkpt lat="49.00311" lon="1.18449">
        <ele>120.5</ele>
        <time>2015-12-20T10:16:41Z</time>
      </trkpt>
      <trkpt lat="49.00302" lon="1.18443">
        <ele>120.6</ele>
        <time>2015-12-20T10:16:44Z</time>
      </trkpt>
      <trkpt lat="49.00293" lon="1.18441">
        <ele>120.7</ele>
        <time>2015-12-20T10:16:47Z</time>
      </trkpt>
      <trkpt lat="49.00281" lon="1.18434">
        <ele>120.9</ele>
        <time>2015-12-20T10:16:51Z</time>
      </trkpt>
      <trkpt lat="49.00273" lon="1.1843">
        <ele>120.9</ele>
        <time>2015-12-20T10:16:54Z</time>
      </trkpt>
      <trkpt lat="49.00261" lon="1.18425">
        <ele>121.1</ele>
        <time>2015-12-20T10:16:58Z</time>
      </trkpt>
      <trkpt lat="49.00252" lon="1.1842">
        <ele>121.3</ele>
        <time>2015-12-20T10:17:01Z</time>
      </trkpt>
      <trkpt lat="49.00243" lon="1.18415">
        <ele>121.4</ele>
        <time>2015-12-20T10:17:04Z</time>
      </trkpt>
      <trkpt lat="49.00233" lon="1.18409">
        <ele>121.5</ele>
        <time>2015-12-20T10:17:08Z</time>
      </trkpt>
      <trkpt lat="49.00224" lon="1.18404">
        <ele>121.6</ele>
        <time>2015-12-20T10:17:11Z</time>
      </trkpt>
      <trkpt lat="49.00215" lon="1.18398">
        <ele>121.7</ele>
        <time>2015-12-20T10:17:14Z</time>
      </trkpt>
      <trkpt lat="49.00206" lon="1.18394">
        <ele>121.9</ele>
        <time>2015-12-20T10:17:17Z</time>
      </trkpt>
      <trkpt lat="49.00195" lon="1.18387">
        <ele>122.1</ele>
        <time>2015-12-20T10:17:21Z</time>
      </trkpt>
      <trkpt lat="49.00184" lon="1.18385">
        <ele>122.2</ele>
        <time>2015-12-20T10:17:25Z</time>
      </trkpt>
      <trkpt lat="49.00172" lon="1.1838">
        <ele>122.3</ele>
        <time>2015-12-20T10:17:29Z</time>
      </trkpt>
      <trkpt lat="49.00163" lon="1.18375">
        <ele>122.3</ele>
        <time>2015-12-20T10:17:32Z</time>
      </trkpt>
      <trkpt lat="49.00154" lon="1.18369">
        <ele>122.4</ele>
        <time>2015-12-20T10:17:35Z</time>
      </trkpt>
      <trkpt lat="49.00145" lon="1.18363">
        <ele>122.4</ele>
        <time>2015-12-20T10:17:38Z</time>
      </trkpt>
      <trkpt lat="49.00135" lon="1.18355">
        <ele>122.4</ele>
        <time>2015-12-20T10:17:41Z</time>
      </trkpt>
      <trkpt lat="49.00125" lon="1.18348">
        <ele>122.4</ele>
        <time>2015-12-20T10:17:44Z</time>
      </trkpt>
      <trkpt lat="49.00117" lon="1.1834">
        <ele>122.3</ele>
        <time>2015-12-20T10:17:47Z</time>
      </trkpt>
      <trkpt lat="49.00107" lon="1.18331">
        <ele>122.2</ele>
        <time>2015-12-20T10:17:51Z</time>
      </trkpt>
      <trkpt lat="49.00095" lon="1.18328">
        <ele>122.1</ele>
        <time>2015-12-20T10:17:55Z</time>
      </trkpt>
      <trkpt lat="49.00086" lon="1.18324">
        <ele>122</ele>
        <time>2015-12-20T10:17:58Z</time>
      </trkpt>
      <trkpt lat="49.00076" lon="1.18317">
        <ele>122</ele>
        <time>2015-12-20T10:18:02Z</time>
      </trkpt>
      <trkpt lat="49.00065" lon="1.18314">
        <ele>121.9</ele>
        <time>2015-12-20T10:18:06Z</time>
      </trkpt>
      <trkpt lat="49.00058" lon="1.18303">
        <ele>121.8</ele>
        <time>2015-12-20T10:18:09Z</time>
      </trkpt>
      <trkpt lat="49.00051" lon="1.18293">
        <ele>121.8</ele>
        <time>2015-12-20T10:18:12Z</time>
      </trkpt>
      <trkpt lat="49.00043" lon="1.18281">
        <ele>121.7</ele>
        <time>2015-12-20T10:18:15Z</time>
      </trkpt>
      <trkpt lat="49.00033" lon="1.18269">
        <ele>121.6</ele>
        <time>2015-12-20T10:18:18Z</time>
      </trkpt>
      <trkpt lat="49.00024" lon="1.18256">
        <ele>121.6</ele>
        <time>2015-12-20T10:18:21Z</time>
      </trkpt>
      <trkpt lat="49.00015" lon="1.18243">
        <ele>121.6</ele>
        <time>2015-12-20T10:18:24Z</time>
      </trkpt>
      <trkpt lat="49.00006" lon="1.18229">
        <ele>121.5</ele>
        <time>2015-12-20T10:18:27Z</time>
      </trkpt>
      <trkpt lat="48.99996" lon="1.18214">
        <ele>121.5</ele>
        <time>2015-12-20T10:18:30Z</time>
      </trkpt>
      <trkpt lat="48.99987" lon="1.18199">
        <ele>121.5</ele>
        <time>2015-12-20T10:18:33Z</time>
      </trkpt>
      <trkpt lat="48.99981" lon="1.18189">
        <ele>121.6</ele>
        <time>2015-12-20T10:18:35Z</time>
      </trkpt>
      <trkpt lat="48.99975" lon="1.18178">
        <ele>121.6</ele>
        <time>2015-12-20T10:18:37Z</time>
      </trkpt>
      <trkpt lat="48.99969" lon="1.18168">
        <ele>121.6</ele>
        <time>2015-12-20T10:18:39Z</time>
      </trkpt>
      <trkpt lat="48.99962" lon="1.18158">
        <ele>121.6</ele>
        <time>2015-12-20T10:18:41Z</time>
      </trkpt>
      <trkpt lat="48.99953" lon="1.18144">
        <ele>121.6</ele>
        <time>2015-12-20T10:18:44Z</time>
      </trkpt>
      <trkpt lat="48.99944" lon="1.1813">
        <ele>121.6</ele>
        <time>2015-12-20T10:18:47Z</time>
      </trkpt>
      <trkpt lat="48.99935" lon="1.18116">
        <ele>121.5</ele>
        <time>2015-12-20T10:18:50Z</time>
      </trkpt>
      <trkpt lat="48.99926" lon="1.18101">
        <ele>121.5</ele>
        <time>2015-12-20T10:18:53Z</time>
      </trkpt>
      <trkpt lat="48.99918" lon="1.18086">
        <ele>121.4</ele>
        <time>2015-12-20T10:18:56Z</time>
      </trkpt>
      <trkpt lat="48.99909" lon="1.18071">
        <ele>121.4</ele>
        <time>2015-12-20T10:18:59Z</time>
      </trkpt>
      <trkpt lat="48.99901" lon="1.18056">
        <ele>121.4</ele>
        <time>2015-12-20T10:19:02Z</time>
      </trkpt>
      <trkpt lat="48.99892" lon="1.18039">
        <ele>121.4</ele>
        <time>2015-12-20T10:19:05Z</time>
      </trkpt>
      <trkpt lat="48.99886" lon="1.18028">
        <ele>121.4</ele>
        <time>2015-12-20T10:19:07Z</time>
      </trkpt>
      <trkpt lat="48.9988" lon="1.18017">
        <ele>121.4</ele>
        <time>2015-12-20T10:19:09Z</time>
      </trkpt>
      <trkpt lat="48.99873" lon="1.18001">
        <ele>121.3</ele>
        <time>2015-12-20T10:19:12Z</time>
      </trkpt>
      <trkpt lat="48.99867" lon="1.17989">
        <ele>121.3</ele>
        <time>2015-12-20T10:19:14Z</time>
      </trkpt>
      <trkpt lat="48.99862" lon="1.17978">
        <ele>121.3</ele>
        <time>2015-12-20T10:19:16Z</time>
      </trkpt>
      <trkpt lat="48.99859" lon="1.17961">
        <ele>121.3</ele>
        <time>2015-12-20T10:19:19Z</time>
      </trkpt>
      <trkpt lat="48.99863" lon="1.17946">
        <ele>121.3</ele>
        <time>2015-12-20T10:19:22Z</time>
      </trkpt>
      <trkpt lat="48.99873" lon="1.17935">
        <ele>121.3</ele>
        <time>2015-12-20T10:19:25Z</time>
      </trkpt>
      <trkpt lat="48.99883" lon="1.17923">
        <ele>121.4</ele>
        <time>2015-12-20T10:19:28Z</time>
      </trkpt>
      <trkpt lat="48.99894" lon="1.17911">
        <ele>121.4</ele>
        <time>2015-12-20T10:19:31Z</time>
      </trkpt>
      <trkpt lat="48.99901" lon="1.17903">
        <ele>121.4</ele>
        <time>2015-12-20T10:19:33Z</time>
      </trkpt>
      <trkpt lat="48.99909" lon="1.17895">
        <ele>121.4</ele>
        <time>2015-12-20T10:19:35Z</time>
      </trkpt>
      <trkpt lat="48.99917" lon="1.17886">
        <ele>121.5</ele>
        <time>2015-12-20T10:19:37Z</time>
      </trkpt>
      <trkpt lat="48.99924" lon="1.17878">
        <ele>121.5</ele>
        <time>2015-12-20T10:19:39Z</time>
      </trkpt>
      <trkpt lat="48.99933" lon="1.17872">
        <ele>121.5</ele>
        <time>2015-12-20T10:19:41Z</time>
      </trkpt>
      <trkpt lat="48.99941" lon="1.17866">
        <ele>121.6</ele>
        <time>2015-12-20T10:19:43Z</time>
      </trkpt>
      <trkpt lat="48.9995" lon="1.17861">
        <ele>121.6</ele>
        <time>2015-12-20T10:19:45Z</time>
      </trkpt>
      <trkpt lat="48.99959" lon="1.17857">
        <ele>121.6</ele>
        <time>2015-12-20T10:19:47Z</time>
      </trkpt>
      <trkpt lat="48.99968" lon="1.17855">
        <ele>121.6</ele>
        <time>2015-12-20T10:19:49Z</time>
      </trkpt>
      <trkpt lat="48.99978" lon="1.17853">
        <ele>121.6</ele>
        <time>2015-12-20T10:19:51Z</time>
      </trkpt>
      <trkpt lat="48.99988" lon="1.1785">
        <ele>121.6</ele>
        <time>2015-12-20T10:19:53Z</time>
      </trkpt>
      <trkpt lat="48.99998" lon="1.17849">
        <ele>121.6</ele>
        <time>2015-12-20T10:19:55Z</time>
      </trkpt>
      <trkpt lat="49.00007" lon="1.17848">
        <ele>121.6</ele>
        <time>2015-12-20T10:19:57Z</time>
      </trkpt>
      <trkpt lat="49.00017" lon="1.17848">
        <ele>121.7</ele>
        <time>2015-12-20T10:19:59Z</time>
      </trkpt>
      <trkpt lat="49.00027" lon="1.17848">
        <ele>121.7</ele>
        <time>2015-12-20T10:20:01Z</time>
      </trkpt>
      <trkpt lat="49.00037" lon="1.17849">
        <ele>121.7</ele>
        <time>2015-12-20T10:20:03Z</time>
      </trkpt>
      <trkpt lat="49.00047" lon="1.1785">
        <ele>121.7</ele>
        <time>2015-12-20T10:20:05Z</time>
      </trkpt>
      <trkpt lat="49.00057" lon="1.17852">
        <ele>121.8</ele>
        <time>2015-12-20T10:20:07Z</time>
      </trkpt>
      <trkpt lat="49.00066" lon="1.17856">
        <ele>121.8</ele>
        <time>2015-12-20T10:20:09Z</time>
      </trkpt>
      <trkpt lat="49.00076" lon="1.17859">
        <ele>121.9</ele>
        <time>2015-12-20T10:20:11Z</time>
      </trkpt>
      <trkpt lat="49.00085" lon="1.17864">
        <ele>122</ele>
        <time>2015-12-20T10:20:13Z</time>
      </trkpt>
      <trkpt lat="49.00096" lon="1.17865">
        <ele>122.1</ele>
        <time>2015-12-20T10:20:16Z</time>
      </trkpt>
      <trkpt lat="49.00106" lon="1.17865">
        <ele>122.3</ele>
        <time>2015-12-20T10:20:19Z</time>
      </trkpt>
      <trkpt lat="49.00115" lon="1.17857">
        <ele>122.5</ele>
        <time>2015-12-20T10:20:24Z</time>
      </trkpt>
      <trkpt lat="49.00125" lon="1.17856">
        <ele>122.7</ele>
        <time>2015-12-20T10:20:29Z</time>
      </trkpt>
      <trkpt lat="49.00134" lon="1.17856">
        <ele>122.8</ele>
        <time>2015-12-20T10:20:34Z</time>
      </trkpt>
      <trkpt lat="49.00143" lon="1.17856">
        <ele>122.8</ele>
        <time>2015-12-20T10:20:38Z</time>
      </trkpt>
      <trkpt lat="49.00153" lon="1.17854">
        <ele>122.9</ele>
        <time>2015-12-20T10:20:41Z</time>
      </trkpt>
      <trkpt lat="49.00162" lon="1.17853">
        <ele>122.9</ele>
        <time>2015-12-20T10:20:44Z</time>
      </trkpt>
      <trkpt lat="49.00173" lon="1.17848">
        <ele>122.9</ele>
        <time>2015-12-20T10:20:47Z</time>
      </trkpt>
      <trkpt lat="49.00183" lon="1.17837">
        <ele>123</ele>
        <time>2015-12-20T10:20:50Z</time>
      </trkpt>
      <trkpt lat="49.00193" lon="1.17832">
        <ele>123.1</ele>
        <time>2015-12-20T10:20:53Z</time>
      </trkpt>
      <trkpt lat="49.00204" lon="1.17827">
        <ele>123.2</ele>
        <time>2015-12-20T10:20:57Z</time>
      </trkpt>
      <trkpt lat="49.00212" lon="1.17822">
        <ele>123.7</ele>
        <time>2015-12-20T10:21:18Z</time>
      </trkpt>
      <trkpt lat="49.00223" lon="1.17815">
        <ele>123.8</ele>
        <time>2015-12-20T10:21:24Z</time>
      </trkpt>
      <trkpt lat="49.00233" lon="1.17808">
        <ele>123.9</ele>
        <time>2015-12-20T10:21:27Z</time>
      </trkpt>
      <trkpt lat="49.00243" lon="1.17802">
        <ele>123.9</ele>
        <time>2015-12-20T10:21:30Z</time>
      </trkpt>
      <trkpt lat="49.00253" lon="1.17794">
        <ele>124</ele>
        <time>2015-12-20T10:21:33Z</time>
      </trkpt>
      <trkpt lat="49.00262" lon="1.17786">
        <ele>124</ele>
        <time>2015-12-20T10:21:36Z</time>
      </trkpt>
      <trkpt lat="49.00271" lon="1.17776">
        <ele>123.9</ele>
        <time>2015-12-20T10:21:39Z</time>
      </trkpt>
      <trkpt lat="49.00281" lon="1.17766">
        <ele>123.9</ele>
        <time>2015-12-20T10:21:42Z</time>
      </trkpt>
      <trkpt lat="49.00292" lon="1.17755">
        <ele>123.9</ele>
        <time>2015-12-20T10:21:45Z</time>
      </trkpt>
      <trkpt lat="49.00302" lon="1.17745">
        <ele>123.8</ele>
        <time>2015-12-20T10:21:48Z</time>
      </trkpt>
      <trkpt lat="49.00311" lon="1.17735">
        <ele>123.8</ele>
        <time>2015-12-20T10:21:51Z</time>
      </trkpt>
      <trkpt lat="49.00321" lon="1.17724">
        <ele>123.8</ele>
        <time>2015-12-20T10:21:54Z</time>
      </trkpt>
      <trkpt lat="49.0033" lon="1.17713">
        <ele>123.8</ele>
        <time>2015-12-20T10:21:57Z</time>
      </trkpt>
      <trkpt lat="49.00333" lon="1.17699">
        <ele>123.7</ele>
        <time>2015-12-20T10:22:00Z</time>
      </trkpt>
      <trkpt lat="49.00334" lon="1.17684">
        <ele>123.6</ele>
        <time>2015-12-20T10:22:03Z</time>
      </trkpt>
      <trkpt lat="49.00335" lon="1.1767">
        <ele>123.6</ele>
        <time>2015-12-20T10:22:06Z</time>
      </trkpt>
      <trkpt lat="49.00337" lon="1.17656">
        <ele>123.6</ele>
        <time>2015-12-20T10:22:09Z</time>
      </trkpt>
      <trkpt lat="49.00331" lon="1.17639">
        <ele>123.5</ele>
        <time>2015-12-20T10:22:13Z</time>
      </trkpt>
      <trkpt lat="49.00323" lon="1.17632">
        <ele>123.5</ele>
        <time>2015-12-20T10:22:17Z</time>
      </trkpt>
      <trkpt lat="49.00313" lon="1.17633">
        <ele>123.5</ele>
        <time>2015-12-20T10:22:21Z</time>
      </trkpt>
      <trkpt lat="49.00305" lon="1.17644">
        <ele>123.5</ele>
        <time>2015-12-20T10:22:25Z</time>
      </trkpt>
      <trkpt lat="49.00297" lon="1.17656">
        <ele>123.4</ele>
        <time>2015-12-20T10:22:29Z</time>
      </trkpt>
      <trkpt lat="49.00291" lon="1.17639">
        <ele>123.4</ele>
        <time>2015-12-20T10:22:45Z</time>
      </trkpt>
      <trkpt lat="49.00284" lon="1.17629">
        <ele>123.4</ele>
        <time>2015-12-20T10:22:47Z</time>
      </trkpt>
      <trkpt lat="49.00275" lon="1.17619">
        <ele>123.4</ele>
        <time>2015-12-20T10:22:49Z</time>
      </trkpt>
      <trkpt lat="49.00265" lon="1.17609">
        <ele>123.4</ele>
        <time>2015-12-20T10:22:51Z</time>
      </trkpt>
      <trkpt lat="49.00257" lon="1.17599">
        <ele>123.5</ele>
        <time>2015-12-20T10:22:53Z</time>
      </trkpt>
      <trkpt lat="49.00246" lon="1.17598">
        <ele>123.6</ele>
        <time>2015-12-20T10:22:56Z</time>
      </trkpt>
      <trkpt lat="49.00245" lon="1.17615">
        <ele>123.6</ele>
        <time>2015-12-20T10:22:59Z</time>
      </trkpt>
      <trkpt lat="49.00242" lon="1.17628">
        <ele>123.7</ele>
        <time>2015-12-20T10:23:02Z</time>
      </trkpt>
      <trkpt lat="49.00235" lon="1.17642">
        <ele>123.7</ele>
        <time>2015-12-20T10:23:05Z</time>
      </trkpt>
      <trkpt lat="49.00228" lon="1.17655">
        <ele>123.7</ele>
        <time>2015-12-20T10:23:08Z</time>
      </trkpt>
      <trkpt lat="49.00219" lon="1.17663">
        <ele>123.8</ele>
        <time>2015-12-20T10:23:12Z</time>
      </trkpt>
      <trkpt lat="49.00213" lon="1.17675">
        <ele>123.8</ele>
        <time>2015-12-20T10:23:17Z</time>
      </trkpt>
      <trkpt lat="49.00203" lon="1.17685">
        <ele>123.8</ele>
        <time>2015-12-20T10:23:21Z</time>
      </trkpt>
      <trkpt lat="49.00195" lon="1.17693">
        <ele>123.7</ele>
        <time>2015-12-20T10:23:24Z</time>
      </trkpt>
      <trkpt lat="49.00187" lon="1.17702">
        <ele>123.7</ele>
        <time>2015-12-20T10:23:27Z</time>
      </trkpt>
      <trkpt lat="49.00178" lon="1.17711">
        <ele>123.6</ele>
        <time>2015-12-20T10:23:30Z</time>
      </trkpt>
      <trkpt lat="49.00169" lon="1.17722">
        <ele>123.5</ele>
        <time>2015-12-20T10:23:33Z</time>
      </trkpt>
      <trkpt lat="49.0016" lon="1.17733">
        <ele>123.4</ele>
        <time>2015-12-20T10:23:36Z</time>
      </trkpt>
      <trkpt lat="49.00151" lon="1.17745">
        <ele>123.3</ele>
        <time>2015-12-20T10:23:39Z</time>
      </trkpt>
      <trkpt lat="49.00141" lon="1.17756">
        <ele>123.2</ele>
        <time>2015-12-20T10:23:42Z</time>
      </trkpt>
      <trkpt lat="49.00132" lon="1.17768">
        <ele>123.1</ele>
        <time>2015-12-20T10:23:45Z</time>
      </trkpt>
      <trkpt lat="49.00124" lon="1.17778">
        <ele>123.1</ele>
        <time>2015-12-20T10:23:48Z</time>
      </trkpt>
      <trkpt lat="49.00115" lon="1.17788">
        <ele>123.1</ele>
        <time>2015-12-20T10:23:51Z</time>
      </trkpt>
      <trkpt lat="49.00105" lon="1.17792">
        <ele>123</ele>
        <time>2015-12-20T10:23:54Z</time>
      </trkpt>
      <trkpt lat="49.00095" lon="1.17787">
        <ele>123</ele>
        <time>2015-12-20T10:23:57Z</time>
      </trkpt>
      <trkpt lat="49.00084" lon="1.17781">
        <ele>122.9</ele>
        <time>2015-12-20T10:24:00Z</time>
      </trkpt>
      <trkpt lat="49.00073" lon="1.17775">
        <ele>122.9</ele>
        <time>2015-12-20T10:24:03Z</time>
      </trkpt>
      <trkpt lat="49.00062" lon="1.1777">
        <ele>122.9</ele>
        <time>2015-12-20T10:24:06Z</time>
      </trkpt>
      <trkpt lat="49.00052" lon="1.17769">
        <ele>122.8</ele>
        <time>2015-12-20T10:24:09Z</time>
      </trkpt>
      <trkpt lat="49.0004" lon="1.17774">
        <ele>122.8</ele>
        <time>2015-12-20T10:24:12Z</time>
      </trkpt>
      <trkpt lat="49.0003" lon="1.17782">
        <ele>122.8</ele>
        <time>2015-12-20T10:24:15Z</time>
      </trkpt>
      <trkpt lat="49.00021" lon="1.17792">
        <ele>122.7</ele>
        <time>2015-12-20T10:24:18Z</time>
      </trkpt>
      <trkpt lat="49.00014" lon="1.17801">
        <ele>122.6</ele>
        <time>2015-12-20T10:24:21Z</time>
      </trkpt>
      <trkpt lat="49.00007" lon="1.17811">
        <ele>122.5</ele>
        <time>2015-12-20T10:24:26Z</time>
      </trkpt>
      <trkpt lat="49.00005" lon="1.17795">
        <ele>123</ele>
        <time>2015-12-20T10:24:33Z</time>
      </trkpt>
      <trkpt lat="49.00011" lon="1.17783">
        <ele>123.4</ele>
        <time>2015-12-20T10:24:38Z</time>
      </trkpt>
      <trkpt lat="49.00016" lon="1.17771">
        <ele>123.8</ele>
        <time>2015-12-20T10:24:43Z</time>
      </trkpt>
      <trkpt lat="49.0002" lon="1.17756">
        <ele>123.6</ele>
        <time>2015-12-20T10:24:47Z</time>
      </trkpt>
      <trkpt lat="49.0003" lon="1.1775">
        <ele>123.3</ele>
        <time>2015-12-20T10:24:51Z</time>
      </trkpt>
      <trkpt lat="49.00038" lon="1.17743">
        <ele>123.1</ele>
        <time>2015-12-20T10:24:55Z</time>
      </trkpt>
      <trkpt lat="49.00047" lon="1.17737">
        <ele>122.7</ele>
        <time>2015-12-20T10:24:59Z</time>
      </trkpt>
      <trkpt lat="49.00051" lon="1.17725">
        <ele>122.4</ele>
        <time>2015-12-20T10:25:03Z</time>
      </trkpt>
      <trkpt lat="49.00053" lon="1.1771">
        <ele>122.2</ele>
        <time>2015-12-20T10:25:07Z</time>
      </trkpt>
      <trkpt lat="49.00058" lon="1.17696">
        <ele>122</ele>
        <time>2015-12-20T10:25:12Z</time>
      </trkpt>
      <trkpt lat="49.00068" lon="1.17685">
        <ele>121.9</ele>
        <time>2015-12-20T10:25:16Z</time>
      </trkpt>
      <trkpt lat="49.00077" lon="1.17674">
        <ele>121.9</ele>
        <time>2015-12-20T10:25:19Z</time>
      </trkpt>
      <trkpt lat="49.00086" lon="1.17662">
        <ele>121.8</ele>
        <time>2015-12-20T10:25:22Z</time>
      </trkpt>
      <trkpt lat="49.00096" lon="1.17649">
        <ele>121.8</ele>
        <time>2015-12-20T10:25:25Z</time>
      </trkpt>
      <trkpt lat="49.00104" lon="1.17641">
        <ele>121.7</ele>
        <time>2015-12-20T10:25:27Z</time>
      </trkpt>
      <trkpt lat="49.00111" lon="1.17633">
        <ele>121.7</ele>
        <time>2015-12-20T10:25:29Z</time>
      </trkpt>
      <trkpt lat="49.00119" lon="1.17625">
        <ele>121.7</ele>
        <time>2015-12-20T10:25:31Z</time>
      </trkpt>
      <trkpt lat="49.0013" lon="1.17613">
        <ele>121.7</ele>
        <time>2015-12-20T10:25:34Z</time>
      </trkpt>
      <trkpt lat="49.00137" lon="1.17605">
        <ele>121.6</ele>
        <time>2015-12-20T10:25:36Z</time>
      </trkpt>
      <trkpt lat="49.00148" lon="1.17593">
        <ele>121.6</ele>
        <time>2015-12-20T10:25:39Z</time>
      </trkpt>
      <trkpt lat="49.00155" lon="1.17584">
        <ele>121.6</ele>
        <time>2015-12-20T10:25:41Z</time>
      </trkpt>
      <trkpt lat="49.00163" lon="1.17574">
        <ele>121.6</ele>
        <time>2015-12-20T10:25:43Z</time>
      </trkpt>
      <trkpt lat="49.00169" lon="1.17565">
        <ele>121.6</ele>
        <time>2015-12-20T10:25:45Z</time>
      </trkpt>
      <trkpt lat="49.00179" lon="1.17551">
        <ele>121.5</ele>
        <time>2015-12-20T10:25:48Z</time>
      </trkpt>
      <trkpt lat="49.00189" lon="1.17537">
        <ele>121.5</ele>
        <time>2015-12-20T10:25:51Z</time>
      </trkpt>
      <trkpt lat="49.00196" lon="1.17528">
        <ele>121.5</ele>
        <time>2015-12-20T10:25:53Z</time>
      </trkpt>
      <trkpt lat="49.00202" lon="1.17518">
        <ele>121.5</ele>
        <time>2015-12-20T10:25:55Z</time>
      </trkpt>
      <trkpt lat="49.00209" lon="1.17504">
        <ele>121.5</ele>
        <time>2015-12-20T10:25:58Z</time>
      </trkpt>
      <trkpt lat="49.00208" lon="1.17487">
        <ele>121.6</ele>
        <time>2015-12-20T10:26:02Z</time>
      </trkpt>
      <trkpt lat="49.00214" lon="1.17474">
        <ele>121.6</ele>
        <time>2015-12-20T10:26:06Z</time>
      </trkpt>
      <trkpt lat="49.00221" lon="1.17461">
        <ele>121.7</ele>
        <time>2015-12-20T10:26:10Z</time>
      </trkpt>
      <trkpt lat="49.00224" lon="1.17448">
        <ele>121.8</ele>
        <time>2015-12-20T10:26:12Z</time>
      </trkpt>
      <trkpt lat="49.00228" lon="1.17434">
        <ele>121.8</ele>
        <time>2015-12-20T10:26:14Z</time>
      </trkpt>
      <trkpt lat="49.00233" lon="1.17421">
        <ele>121.9</ele>
        <time>2015-12-20T10:26:16Z</time>
      </trkpt>
      <trkpt lat="49.00238" lon="1.17408">
        <ele>121.9</ele>
        <time>2015-12-20T10:26:18Z</time>
      </trkpt>
      <trkpt lat="49.00245" lon="1.17396">
        <ele>121.9</ele>
        <time>2015-12-20T10:26:20Z</time>
      </trkpt>
      <trkpt lat="49.00251" lon="1.17384">
        <ele>122</ele>
        <time>2015-12-20T10:26:22Z</time>
      </trkpt>
      <trkpt lat="49.00258" lon="1.17372">
        <ele>122.1</ele>
        <time>2015-12-20T10:26:24Z</time>
      </trkpt>
      <trkpt lat="49.00265" lon="1.1736">
        <ele>122.2</ele>
        <time>2015-12-20T10:26:26Z</time>
      </trkpt>
      <trkpt lat="49.00272" lon="1.17348">
        <ele>122.2</ele>
        <time>2015-12-20T10:26:28Z</time>
      </trkpt>
      <trkpt lat="49.00279" lon="1.17336">
        <ele>122.3</ele>
        <time>2015-12-20T10:26:30Z</time>
      </trkpt>
      <trkpt lat="49.00286" lon="1.17324">
        <ele>122.4</ele>
        <time>2015-12-20T10:26:32Z</time>
      </trkpt>
      <trkpt lat="49.00292" lon="1.17312">
        <ele>122.4</ele>
        <time>2015-12-20T10:26:34Z</time>
      </trkpt>
      <trkpt lat="49.00298" lon="1.173">
        <ele>122.5</ele>
        <time>2015-12-20T10:26:36Z</time>
      </trkpt>
      <trkpt lat="49.00303" lon="1.17289">
        <ele>122.5</ele>
        <time>2015-12-20T10:26:38Z</time>
      </trkpt>
      <trkpt lat="49.00298" lon="1.17271">
        <ele>122.6</ele>
        <time>2015-12-20T10:26:41Z</time>
      </trkpt>
      <trkpt lat="49.00289" lon="1.17263">
        <ele>122.6</ele>
        <time>2015-12-20T10:26:43Z</time>
      </trkpt>
      <trkpt lat="49.00281" lon="1.17254">
        <ele>122.7</ele>
        <time>2015-12-20T10:26:45Z</time>
      </trkpt>
      <trkpt lat="49.00274" lon="1.17242">
        <ele>122.7</ele>
        <time>2015-12-20T10:26:47Z</time>
      </trkpt>
      <trkpt lat="49.00267" lon="1.17229">
        <ele>122.7</ele>
        <time>2015-12-20T10:26:49Z</time>
      </trkpt>
      <trkpt lat="49.00261" lon="1.17215">
        <ele>122.7</ele>
        <time>2015-12-20T10:26:51Z</time>
      </trkpt>
      <trkpt lat="49.00254" lon="1.17205">
        <ele>122.7</ele>
        <time>2015-12-20T10:26:53Z</time>
      </trkpt>
      <trkpt lat="49.00245" lon="1.17202">
        <ele>122.6</ele>
        <time>2015-12-20T10:26:55Z</time>
      </trkpt>
      <trkpt lat="49.00235" lon="1.17204">
        <ele>122.6</ele>
        <time>2015-12-20T10:26:58Z</time>
      </trkpt>
      <trkpt lat="49.00225" lon="1.1721">
        <ele>122.5</ele>
        <time>2015-12-20T10:27:01Z</time>
      </trkpt>
      <trkpt lat="49.00213" lon="1.17214">
        <ele>122.5</ele>
        <time>2015-12-20T10:27:04Z</time>
      </trkpt>
      <trkpt lat="49.00204" lon="1.1721">
        <ele>122.4</ele>
        <time>2015-12-20T10:27:07Z</time>
      </trkpt>
      <trkpt lat="49.00196" lon="1.17201">
        <ele>122.3</ele>
        <time>2015-12-20T10:27:13Z</time>
      </trkpt>
      <trkpt lat="49.00192" lon="1.17187">
        <ele>122.3</ele>
        <time>2015-12-20T10:27:18Z</time>
      </trkpt>
      <trkpt lat="49.00196" lon="1.17171">
        <ele>122.2</ele>
        <time>2015-12-20T10:27:26Z</time>
      </trkpt>
      <trkpt lat="49.00206" lon="1.1716">
        <ele>122.2</ele>
        <time>2015-12-20T10:27:30Z</time>
      </trkpt>
      <trkpt lat="49.00217" lon="1.17157">
        <ele>122.2</ele>
        <time>2015-12-20T10:27:33Z</time>
      </trkpt>
      <trkpt lat="49.00228" lon="1.17153">
        <ele>122.2</ele>
        <time>2015-12-20T10:27:36Z</time>
      </trkpt>
      <trkpt lat="49.00238" lon="1.17147">
        <ele>122.2</ele>
        <time>2015-12-20T10:27:40Z</time>
      </trkpt>
      <trkpt lat="49.00236" lon="1.1713">
        <ele>122.2</ele>
        <time>2015-12-20T10:27:44Z</time>
      </trkpt>
      <trkpt lat="49.00231" lon="1.17115">
        <ele>122.2</ele>
        <time>2015-12-20T10:27:47Z</time>
      </trkpt>
      <trkpt lat="49.00225" lon="1.17098">
        <ele>122.2</ele>
        <time>2015-12-20T10:27:50Z</time>
      </trkpt>
      <trkpt lat="49.00219" lon="1.17081">
        <ele>122.2</ele>
        <time>2015-12-20T10:27:53Z</time>
      </trkpt>
      <trkpt lat="49.00213" lon="1.17066">
        <ele>122.2</ele>
        <time>2015-12-20T10:27:56Z</time>
      </trkpt>
      <trkpt lat="49.00205" lon="1.1705">
        <ele>122.3</ele>
        <time>2015-12-20T10:27:59Z</time>
      </trkpt>
      <trkpt lat="49.00198" lon="1.17033">
        <ele>122.3</ele>
        <time>2015-12-20T10:28:02Z</time>
      </trkpt>
      <trkpt lat="49.00189" lon="1.17018">
        <ele>122.5</ele>
        <time>2015-12-20T10:28:05Z</time>
      </trkpt>
      <trkpt lat="49.00181" lon="1.17003">
        <ele>122.6</ele>
        <time>2015-12-20T10:28:08Z</time>
      </trkpt>
      <trkpt lat="49.00172" lon="1.16987">
        <ele>122.7</ele>
        <time>2015-12-20T10:28:11Z</time>
      </trkpt>
      <trkpt lat="49.00163" lon="1.16972">
        <ele>122.9</ele>
        <time>2015-12-20T10:28:14Z</time>
      </trkpt>
      <trkpt lat="49.00157" lon="1.16962">
        <ele>123</ele>
        <time>2015-12-20T10:28:16Z</time>
      </trkpt>
      <trkpt lat="49.00148" lon="1.16946">
        <ele>123.1</ele>
        <time>2015-12-20T10:28:19Z</time>
      </trkpt>
      <trkpt lat="49.00142" lon="1.16935">
        <ele>123.1</ele>
        <time>2015-12-20T10:28:21Z</time>
      </trkpt>
      <trkpt lat="49.00136" lon="1.16925">
        <ele>123.2</ele>
        <time>2015-12-20T10:28:23Z</time>
      </trkpt>
      <trkpt lat="49.0013" lon="1.16914">
        <ele>123.2</ele>
        <time>2015-12-20T10:28:25Z</time>
      </trkpt>
      <trkpt lat="49.00124" lon="1.16904">
        <ele>123.3</ele>
        <time>2015-12-20T10:28:27Z</time>
      </trkpt>
      <trkpt lat="49.00118" lon="1.16893">
        <ele>123.3</ele>
        <time>2015-12-20T10:28:29Z</time>
      </trkpt>
      <trkpt lat="49.00111" lon="1.16882">
        <ele>123.3</ele>
        <time>2015-12-20T10:28:31Z</time>
      </trkpt>
      <trkpt lat="49.00104" lon="1.16871">
        <ele>123.4</ele>
        <time>2015-12-20T10:28:33Z</time>
      </trkpt>
      <trkpt lat="49.00098" lon="1.1686">
        <ele>123.4</ele>
        <time>2015-12-20T10:28:35Z</time>
      </trkpt>
      <trkpt lat="49.00092" lon="1.1685">
        <ele>123.4</ele>
        <time>2015-12-20T10:28:37Z</time>
      </trkpt>
      <trkpt lat="49.00085" lon="1.16839">
        <ele>123.4</ele>
        <time>2015-12-20T10:28:39Z</time>
      </trkpt>
      <trkpt lat="49.00078" lon="1.16829">
        <ele>123.4</ele>
        <time>2015-12-20T10:28:41Z</time>
      </trkpt>
      <trkpt lat="49.00073" lon="1.1681">
        <ele>123.5</ele>
        <time>2015-12-20T10:28:44Z</time>
      </trkpt>
      <trkpt lat="49.00082" lon="1.16797">
        <ele>123.5</ele>
        <time>2015-12-20T10:28:47Z</time>
      </trkpt>
      <trkpt lat="49.00094" lon="1.16791">
        <ele>123.4</ele>
        <time>2015-12-20T10:28:50Z</time>
      </trkpt>
      <trkpt lat="49.00103" lon="1.16787">
        <ele>123.3</ele>
        <time>2015-12-20T10:28:52Z</time>
      </trkpt>
      <trkpt lat="49.00112" lon="1.16781">
        <ele>123.3</ele>
        <time>2015-12-20T10:28:54Z</time>
      </trkpt>
      <trkpt lat="49.00121" lon="1.16777">
        <ele>123.2</ele>
        <time>2015-12-20T10:28:56Z</time>
      </trkpt>
      <trkpt lat="49.00131" lon="1.16772">
        <ele>123.1</ele>
        <time>2015-12-20T10:28:58Z</time>
      </trkpt>
      <trkpt lat="49.0014" lon="1.16767">
        <ele>123.1</ele>
        <time>2015-12-20T10:29:00Z</time>
      </trkpt>
      <trkpt lat="49.00153" lon="1.1676">
        <ele>123</ele>
        <time>2015-12-20T10:29:03Z</time>
      </trkpt>
      <trkpt lat="49.00161" lon="1.16754">
        <ele>123</ele>
        <time>2015-12-20T10:29:05Z</time>
      </trkpt>
      <trkpt lat="49.00171" lon="1.1675">
        <ele>123</ele>
        <time>2015-12-20T10:29:07Z</time>
      </trkpt>
      <trkpt lat="49.00181" lon="1.16743">
        <ele>122.9</ele>
        <time>2015-12-20T10:29:09Z</time>
      </trkpt>
      <trkpt lat="49.00191" lon="1.16737">
        <ele>122.9</ele>
        <time>2015-12-20T10:29:11Z</time>
      </trkpt>
      <trkpt lat="49.002" lon="1.16732">
        <ele>122.9</ele>
        <time>2015-12-20T10:29:13Z</time>
      </trkpt>
      <trkpt lat="49.0021" lon="1.16727">
        <ele>122.9</ele>
        <time>2015-12-20T10:29:15Z</time>
      </trkpt>
      <trkpt lat="49.0022" lon="1.16723">
        <ele>122.8</ele>
        <time>2015-12-20T10:29:17Z</time>
      </trkpt>
      <trkpt lat="49.0023" lon="1.16718">
        <ele>122.8</ele>
        <time>2015-12-20T10:29:19Z</time>
      </trkpt>
      <trkpt lat="49.00239" lon="1.16714">
        <ele>122.8</ele>
        <time>2015-12-20T10:29:21Z</time>
      </trkpt>
      <trkpt lat="49.00248" lon="1.1671">
        <ele>122.8</ele>
        <time>2015-12-20T10:29:23Z</time>
      </trkpt>
      <trkpt lat="49.00258" lon="1.16705">
        <ele>122.8</ele>
        <time>2015-12-20T10:29:25Z</time>
      </trkpt>
      <trkpt lat="49.00267" lon="1.16701">
        <ele>122.8</ele>
        <time>2015-12-20T10:29:27Z</time>
      </trkpt>
      <trkpt lat="49.00276" lon="1.16696">
        <ele>122.8</ele>
        <time>2015-12-20T10:29:29Z</time>
      </trkpt>
      <trkpt lat="49.00286" lon="1.16692">
        <ele>122.8</ele>
        <time>2015-12-20T10:29:31Z</time>
      </trkpt>
      <trkpt lat="49.00295" lon="1.16688">
        <ele>122.8</ele>
        <time>2015-12-20T10:29:33Z</time>
      </trkpt>
      <trkpt lat="49.00304" lon="1.16683">
        <ele>122.8</ele>
        <time>2015-12-20T10:29:35Z</time>
      </trkpt>
      <trkpt lat="49.00314" lon="1.16678">
        <ele>122.8</ele>
        <time>2015-12-20T10:29:37Z</time>
      </trkpt>
      <trkpt lat="49.00323" lon="1.16673">
        <ele>122.8</ele>
        <time>2015-12-20T10:29:39Z</time>
      </trkpt>
      <trkpt lat="49.00332" lon="1.16669">
        <ele>122.7</ele>
        <time>2015-12-20T10:29:41Z</time>
      </trkpt>
      <trkpt lat="49.00341" lon="1.16664">
        <ele>122.7</ele>
        <time>2015-12-20T10:29:43Z</time>
      </trkpt>
      <trkpt lat="49.00351" lon="1.16658">
        <ele>122.7</ele>
        <time>2015-12-20T10:29:45Z</time>
      </trkpt>
      <trkpt lat="49.0036" lon="1.16652">
        <ele>122.7</ele>
        <time>2015-12-20T10:29:47Z</time>
      </trkpt>
      <trkpt lat="49.0037" lon="1.16647">
        <ele>122.7</ele>
        <time>2015-12-20T10:29:49Z</time>
      </trkpt>
      <trkpt lat="49.0038" lon="1.16643">
        <ele>122.7</ele>
        <time>2015-12-20T10:29:51Z</time>
      </trkpt>
      <trkpt lat="49.0039" lon="1.16639">
        <ele>122.7</ele>
        <time>2015-12-20T10:29:53Z</time>
      </trkpt>
      <trkpt lat="49.004" lon="1.16635">
        <ele>122.7</ele>
        <time>2015-12-20T10:29:55Z</time>
      </trkpt>
      <trkpt lat="49.0041" lon="1.16631">
        <ele>122.7</ele>
        <time>2015-12-20T10:29:57Z</time>
      </trkpt>
      <trkpt lat="49.00419" lon="1.16627">
        <ele>122.7</ele>
        <time>2015-12-20T10:29:59Z</time>
      </trkpt>
      <trkpt lat="49.00429" lon="1.16624">
        <ele>122.7</ele>
        <time>2015-12-20T10:30:01Z</time>
      </trkpt>
      <trkpt lat="49.00439" lon="1.16622">
        <ele>122.7</ele>
        <time>2015-12-20T10:30:03Z</time>
      </trkpt>
      <trkpt lat="49.00449" lon="1.1662">
        <ele>122.7</ele>
        <time>2015-12-20T10:30:05Z</time>
      </trkpt>
      <trkpt lat="49.00458" lon="1.16618">
        <ele>122.6</ele>
        <time>2015-12-20T10:30:07Z</time>
      </trkpt>
      <trkpt lat="49.00468" lon="1.16616">
        <ele>122.7</ele>
        <time>2015-12-20T10:30:09Z</time>
      </trkpt>
      <trkpt lat="49.00477" lon="1.16614">
        <ele>122.7</ele>
        <time>2015-12-20T10:30:11Z</time>
      </trkpt>
      <trkpt lat="49.00487" lon="1.16613">
        <ele>122.7</ele>
        <time>2015-12-20T10:30:13Z</time>
      </trkpt>
      <trkpt lat="49.00496" lon="1.16611">
        <ele>122.8</ele>
        <time>2015-12-20T10:30:15Z</time>
      </trkpt>
      <trkpt lat="49.00506" lon="1.16609">
        <ele>122.8</ele>
        <time>2015-12-20T10:30:17Z</time>
      </trkpt>
      <trkpt lat="49.00518" lon="1.166">
        <ele>122.8</ele>
        <time>2015-12-20T10:30:20Z</time>
      </trkpt>
      <trkpt lat="49.00529" lon="1.16591">
        <ele>122.8</ele>
        <time>2015-12-20T10:30:23Z</time>
      </trkpt>
      <trkpt lat="49.00538" lon="1.16584">
        <ele>122.9</ele>
        <time>2015-12-20T10:30:25Z</time>
      </trkpt>
      <trkpt lat="49.00549" lon="1.16575">
        <ele>122.9</ele>
        <time>2015-12-20T10:30:28Z</time>
      </trkpt>
      <trkpt lat="49.0056" lon="1.16567">
        <ele>122.9</ele>
        <time>2015-12-20T10:30:31Z</time>
      </trkpt>
      <trkpt lat="49.00572" lon="1.16558">
        <ele>122.9</ele>
        <time>2015-12-20T10:30:34Z</time>
      </trkpt>
      <trkpt lat="49.00582" lon="1.1655">
        <ele>123</ele>
        <time>2015-12-20T10:30:37Z</time>
      </trkpt>
      <trkpt lat="49.00589" lon="1.16537">
        <ele>123</ele>
        <time>2015-12-20T10:30:41Z</time>
      </trkpt>
      <trkpt lat="49.00588" lon="1.16522">
        <ele>123.1</ele>
        <time>2015-12-20T10:30:44Z</time>
      </trkpt>
      <trkpt lat="49.00587" lon="1.16505">
        <ele>123.1</ele>
        <time>2015-12-20T10:30:47Z</time>
      </trkpt>
      <trkpt lat="49.0059" lon="1.16489">
        <ele>123.2</ele>
        <time>2015-12-20T10:30:50Z</time>
      </trkpt>
      <trkpt lat="49.00595" lon="1.16471">
        <ele>123.2</ele>
        <time>2015-12-20T10:30:53Z</time>
      </trkpt>
      <trkpt lat="49.00597" lon="1.16452">
        <ele>123.3</ele>
        <time>2015-12-20T10:30:56Z</time>
      </trkpt>
      <trkpt lat="49.00595" lon="1.16432">
        <ele>123.3</ele>
        <time>2015-12-20T10:30:59Z</time>
      </trkpt>
      <trkpt lat="49.00592" lon="1.16418">
        <ele>123.4</ele>
        <time>2015-12-20T10:31:01Z</time>
      </trkpt>
      <trkpt lat="49.0059" lon="1.16404">
        <ele>123.4</ele>
        <time>2015-12-20T10:31:03Z</time>
      </trkpt>
      <trkpt lat="49.00588" lon="1.1639">
        <ele>123.4</ele>
        <time>2015-12-20T10:31:05Z</time>
      </trkpt>
      <trkpt lat="49.00585" lon="1.16377">
        <ele>123.5</ele>
        <time>2015-12-20T10:31:07Z</time>
      </trkpt>
      <trkpt lat="49.00583" lon="1.16363">
        <ele>123.5</ele>
        <time>2015-12-20T10:31:09Z</time>
      </trkpt>
      <trkpt lat="49.0058" lon="1.1635">
        <ele>123.5</ele>
        <time>2015-12-20T10:31:11Z</time>
      </trkpt>
      <trkpt lat="49.00575" lon="1.16331">
        <ele>123.5</ele>
        <time>2015-12-20T10:31:14Z</time>
      </trkpt>
      <trkpt lat="49.0057" lon="1.16314">
        <ele>123.6</ele>
        <time>2015-12-20T10:31:17Z</time>
      </trkpt>
      <trkpt lat="49.00575" lon="1.163">
        <ele>123.6</ele>
        <time>2015-12-20T10:31:20Z</time>
      </trkpt>
      <trkpt lat="49.00584" lon="1.16291">
        <ele>123.6</ele>
        <time>2015-12-20T10:31:23Z</time>
      </trkpt>
      <trkpt lat="49.00594" lon="1.16282">
        <ele>123.7</ele>
        <time>2015-12-20T10:31:26Z</time>
      </trkpt>
      <trkpt lat="49.00595" lon="1.16268">
        <ele>123.7</ele>
        <time>2015-12-20T10:31:29Z</time>
      </trkpt>
      <trkpt lat="49.00595" lon="1.16249">
        <ele>123.7</ele>
        <time>2015-12-20T10:31:32Z</time>
      </trkpt>
      <trkpt lat="49.00597" lon="1.1623">
        <ele>123.8</ele>
        <time>2015-12-20T10:31:35Z</time>
      </trkpt>
      <trkpt lat="49.00601" lon="1.16216">
        <ele>123.8</ele>
        <time>2015-12-20T10:31:38Z</time>
      </trkpt>
      <trkpt lat="49.00604" lon="1.162">
        <ele>125.6</ele>
        <time>2015-12-20T10:31:50Z</time>
      </trkpt>
      <trkpt lat="49.00611" lon="1.16193">
        <ele>126.5</ele>
        <time>2015-12-20T10:31:53Z</time>
      </trkpt>
      <trkpt lat="49.0062" lon="1.16185">
        <ele>127.3</ele>
        <time>2015-12-20T10:31:56Z</time>
      </trkpt>
      <trkpt lat="49.00631" lon="1.16182">
        <ele>127.9</ele>
        <time>2015-12-20T10:31:59Z</time>
      </trkpt>
      <trkpt lat="49.00638" lon="1.16193">
        <ele>128.2</ele>
        <time>2015-12-20T10:32:02Z</time>
      </trkpt>
      <trkpt lat="49.00649" lon="1.162">
        <ele>127</ele>
        <time>2015-12-20T10:32:13Z</time>
      </trkpt>
      <trkpt lat="49.00658" lon="1.16211">
        <ele>126.6</ele>
        <time>2015-12-20T10:32:16Z</time>
      </trkpt>
      <trkpt lat="49.00669" lon="1.16212">
        <ele>126.2</ele>
        <time>2015-12-20T10:32:19Z</time>
      </trkpt>
      <trkpt lat="49.00679" lon="1.16205">
        <ele>126</ele>
        <time>2015-12-20T10:32:22Z</time>
      </trkpt>
      <trkpt lat="49.0069" lon="1.16199">
        <ele>125.8</ele>
        <time>2015-12-20T10:32:25Z</time>
      </trkpt>
      <trkpt lat="49.00701" lon="1.1619">
        <ele>125.6</ele>
        <time>2015-12-20T10:32:28Z</time>
      </trkpt>
      <trkpt lat="49.00712" lon="1.16183">
        <ele>125.4</ele>
        <time>2015-12-20T10:32:31Z</time>
      </trkpt>
      <trkpt lat="49.00723" lon="1.16177">
        <ele>125.3</ele>
        <time>2015-12-20T10:32:34Z</time>
      </trkpt>
      <trkpt lat="49.00734" lon="1.16171">
        <ele>125.2</ele>
        <time>2015-12-20T10:32:37Z</time>
      </trkpt>
      <trkpt lat="49.00742" lon="1.16164">
        <ele>125.1</ele>
        <time>2015-12-20T10:32:40Z</time>
      </trkpt>
      <trkpt lat="49.00752" lon="1.16153">
        <ele>125</ele>
        <time>2015-12-20T10:32:43Z</time>
      </trkpt>
      <trkpt lat="49.00764" lon="1.16145">
        <ele>124.9</ele>
        <time>2015-12-20T10:32:46Z</time>
      </trkpt>
      <trkpt lat="49.00773" lon="1.1614">
        <ele>124.8</ele>
        <time>2015-12-20T10:32:48Z</time>
      </trkpt>
      <trkpt lat="49.00782" lon="1.16135">
        <ele>124.7</ele>
        <time>2015-12-20T10:32:50Z</time>
      </trkpt>
      <trkpt lat="49.00793" lon="1.16126">
        <ele>124.6</ele>
        <time>2015-12-20T10:32:53Z</time>
      </trkpt>
      <trkpt lat="49.00799" lon="1.16111">
        <ele>124.6</ele>
        <time>2015-12-20T10:32:56Z</time>
      </trkpt>
      <trkpt lat="49.00804" lon="1.16093">
        <ele>124.5</ele>
        <time>2015-12-20T10:32:59Z</time>
      </trkpt>
      <trkpt lat="49.00809" lon="1.16074">
        <ele>124.5</ele>
        <time>2015-12-20T10:33:02Z</time>
      </trkpt>
      <trkpt lat="49.00812" lon="1.16061">
        <ele>124.4</ele>
        <time>2015-12-20T10:33:04Z</time>
      </trkpt>
      <trkpt lat="49.00817" lon="1.16043">
        <ele>124.3</ele>
        <time>2015-12-20T10:33:07Z</time>
      </trkpt>
      <trkpt lat="49.00823" lon="1.16026">
        <ele>124.2</ele>
        <time>2015-12-20T10:33:10Z</time>
      </trkpt>
      <trkpt lat="49.00831" lon="1.16012">
        <ele>124.1</ele>
        <time>2015-12-20T10:33:13Z</time>
      </trkpt>
      <trkpt lat="49.00839" lon="1.16004">
        <ele>124</ele>
        <time>2015-12-20T10:33:16Z</time>
      </trkpt>
      <trkpt lat="49.00838" lon="1.15989">
        <ele>123.9</ele>
        <time>2015-12-20T10:33:22Z</time>
      </trkpt>
      <trkpt lat="49.00831" lon="1.15979">
        <ele>123.8</ele>
        <time>2015-12-20T10:33:26Z</time>
      </trkpt>
      <trkpt lat="49.00831" lon="1.15962">
        <ele>123.8</ele>
        <time>2015-12-20T10:33:29Z</time>
      </trkpt>
      <trkpt lat="49.00827" lon="1.15944">
        <ele>123.7</ele>
        <time>2015-12-20T10:33:32Z</time>
      </trkpt>
      <trkpt lat="49.00823" lon="1.15925">
        <ele>123.7</ele>
        <time>2015-12-20T10:33:35Z</time>
      </trkpt>
      <trkpt lat="49.00822" lon="1.15911">
        <ele>123.6</ele>
        <time>2015-12-20T10:33:38Z</time>
      </trkpt>
      <trkpt lat="49.00814" lon="1.15901">
        <ele>123.4</ele>
        <time>2015-12-20T10:33:45Z</time>
      </trkpt>
      <trkpt lat="49.0081" lon="1.15885">
        <ele>123.3</ele>
        <time>2015-12-20T10:33:50Z</time>
      </trkpt>
      <trkpt lat="49.00806" lon="1.15869">
        <ele>123.2</ele>
        <time>2015-12-20T10:33:53Z</time>
      </trkpt>
      <trkpt lat="49.00802" lon="1.15854">
        <ele>123.1</ele>
        <time>2015-12-20T10:33:56Z</time>
      </trkpt>
      <trkpt lat="49.00798" lon="1.15836">
        <ele>123</ele>
        <time>2015-12-20T10:33:59Z</time>
      </trkpt>
      <trkpt lat="49.00792" lon="1.1582">
        <ele>122.9</ele>
        <time>2015-12-20T10:34:02Z</time>
      </trkpt>
      <trkpt lat="49.00783" lon="1.15807">
        <ele>122.8</ele>
        <time>2015-12-20T10:34:05Z</time>
      </trkpt>
      <trkpt lat="49.00776" lon="1.15792">
        <ele>122.6</ele>
        <time>2015-12-20T10:34:08Z</time>
      </trkpt>
      <trkpt lat="49.00767" lon="1.15781">
        <ele>122.4</ele>
        <time>2015-12-20T10:34:11Z</time>
      </trkpt>
      <trkpt lat="49.00758" lon="1.1577">
        <ele>122.3</ele>
        <time>2015-12-20T10:34:14Z</time>
      </trkpt>
      <trkpt lat="49.00749" lon="1.1576">
        <ele>122.2</ele>
        <time>2015-12-20T10:34:17Z</time>
      </trkpt>
      <trkpt lat="49.00739" lon="1.15751">
        <ele>122.1</ele>
        <time>2015-12-20T10:34:20Z</time>
      </trkpt>
      <trkpt lat="49.0073" lon="1.15742">
        <ele>122.1</ele>
        <time>2015-12-20T10:34:23Z</time>
      </trkpt>
      <trkpt lat="49.00729" lon="1.15727">
        <ele>122</ele>
        <time>2015-12-20T10:34:26Z</time>
      </trkpt>
      <trkpt lat="49.00725" lon="1.15708">
        <ele>122</ele>
        <time>2015-12-20T10:34:29Z</time>
      </trkpt>
      <trkpt lat="49.00719" lon="1.15689">
        <ele>122</ele>
        <time>2015-12-20T10:34:32Z</time>
      </trkpt>
      <trkpt lat="49.00715" lon="1.1567">
        <ele>122</ele>
        <time>2015-12-20T10:34:35Z</time>
      </trkpt>
      <trkpt lat="49.00706" lon="1.15663">
        <ele>122</ele>
        <time>2015-12-20T10:34:38Z</time>
      </trkpt>
      <trkpt lat="49.00697" lon="1.15668">
        <ele>122</ele>
        <time>2015-12-20T10:34:41Z</time>
      </trkpt>
      <trkpt lat="49.00687" lon="1.15674">
        <ele>122</ele>
        <time>2015-12-20T10:34:44Z</time>
      </trkpt>
      <trkpt lat="49.00676" lon="1.15678">
        <ele>122</ele>
        <time>2015-12-20T10:34:47Z</time>
      </trkpt>
      <trkpt lat="49.0067" lon="1.15664">
        <ele>122</ele>
        <time>2015-12-20T10:34:50Z</time>
      </trkpt>
      <trkpt lat="49.00666" lon="1.15645">
        <ele>122</ele>
        <time>2015-12-20T10:34:53Z</time>
      </trkpt>
      <trkpt lat="49.00663" lon="1.15632">
        <ele>122</ele>
        <time>2015-12-20T10:34:55Z</time>
      </trkpt>
      <trkpt lat="49.0066" lon="1.15619">
        <ele>122</ele>
        <time>2015-12-20T10:34:57Z</time>
      </trkpt>
      <trkpt lat="49.00657" lon="1.15606">
        <ele>122</ele>
        <time>2015-12-20T10:34:59Z</time>
      </trkpt>
      <trkpt lat="49.00653" lon="1.15587">
        <ele>122</ele>
        <time>2015-12-20T10:35:02Z</time>
      </trkpt>
      <trkpt lat="49.00642" lon="1.15581">
        <ele>122</ele>
        <time>2015-12-20T10:35:05Z</time>
      </trkpt>
      <trkpt lat="49.00631" lon="1.15586">
        <ele>122</ele>
        <time>2015-12-20T10:35:08Z</time>
      </trkpt>
      <trkpt lat="49.00622" lon="1.15598">
        <ele>122</ele>
        <time>2015-12-20T10:35:11Z</time>
      </trkpt>
      <trkpt lat="49.00612" lon="1.15609">
        <ele>122</ele>
        <time>2015-12-20T10:35:14Z</time>
      </trkpt>
      <trkpt lat="49.00601" lon="1.15614">
        <ele>122</ele>
        <time>2015-12-20T10:35:17Z</time>
      </trkpt>
      <trkpt lat="49.00589" lon="1.15615">
        <ele>122</ele>
        <time>2015-12-20T10:35:20Z</time>
      </trkpt>
      <trkpt lat="49.00577" lon="1.15616">
        <ele>122.1</ele>
        <time>2015-12-20T10:35:23Z</time>
      </trkpt>
      <trkpt lat="49.00566" lon="1.15618">
        <ele>122.2</ele>
        <time>2015-12-20T10:35:26Z</time>
      </trkpt>
      <trkpt lat="49.00556" lon="1.15623">
        <ele>122.3</ele>
        <time>2015-12-20T10:35:29Z</time>
      </trkpt>
      <trkpt lat="49.00548" lon="1.15632">
        <ele>122.3</ele>
        <time>2015-12-20T10:35:33Z</time>
      </trkpt>
      <trkpt lat="49.00536" lon="1.15635">
        <ele>122.4</ele>
        <time>2015-12-20T10:35:38Z</time>
      </trkpt>
      <trkpt lat="49.00525" lon="1.15638">
        <ele>122.6</ele>
        <time>2015-12-20T10:35:41Z</time>
      </trkpt>
      <trkpt lat="49.00513" lon="1.15641">
        <ele>122.9</ele>
        <time>2015-12-20T10:35:44Z</time>
      </trkpt>
      <trkpt lat="49.00502" lon="1.15641">
        <ele>123.1</ele>
        <time>2015-12-20T10:35:47Z</time>
      </trkpt>
      <trkpt lat="49.00492" lon="1.15644">
        <ele>123.2</ele>
        <time>2015-12-20T10:35:50Z</time>
      </trkpt>
      <trkpt lat="49.00485" lon="1.15652">
        <ele>123.4</ele>
        <time>2015-12-20T10:35:53Z</time>
      </trkpt>
      <trkpt lat="49.00476" lon="1.15659">
        <ele>123.5</ele>
        <time>2015-12-20T10:35:57Z</time>
      </trkpt>
      <trkpt lat="49.00467" lon="1.15666">
        <ele>123.6</ele>
        <time>2015-12-20T10:36:00Z</time>
      </trkpt>
      <trkpt lat="49.00458" lon="1.15671">
        <ele>123.7</ele>
        <time>2015-12-20T10:36:03Z</time>
      </trkpt>
      <trkpt lat="49.00447" lon="1.15666">
        <ele>123.8</ele>
        <time>2015-12-20T10:36:06Z</time>
      </trkpt>
      <trkpt lat="49.00443" lon="1.15652">
        <ele>123.9</ele>
        <time>2015-12-20T10:36:09Z</time>
      </trkpt>
      <trkpt lat="49.0044" lon="1.15636">
        <ele>124</ele>
        <time>2015-12-20T10:36:12Z</time>
      </trkpt>
      <trkpt lat="49.00437" lon="1.15621">
        <ele>124</ele>
        <time>2015-12-20T10:36:15Z</time>
      </trkpt>
      <trkpt lat="49.00435" lon="1.15606">
        <ele>124.1</ele>
        <time>2015-12-20T10:36:18Z</time>
      </trkpt>
      <trkpt lat="49.00432" lon="1.15591">
        <ele>124.1</ele>
        <time>2015-12-20T10:36:21Z</time>
      </trkpt>
      <trkpt lat="49.00429" lon="1.15576">
        <ele>124.2</ele>
        <time>2015-12-20T10:36:24Z</time>
      </trkpt>
      <trkpt lat="49.00427" lon="1.1556">
        <ele>124.2</ele>
        <time>2015-12-20T10:36:27Z</time>
      </trkpt>
      <trkpt lat="49.00423" lon="1.15543">
        <ele>124.3</ele>
        <time>2015-12-20T10:36:30Z</time>
      </trkpt>
      <trkpt lat="49.00416" lon="1.15527">
        <ele>124.3</ele>
        <time>2015-12-20T10:36:33Z</time>
      </trkpt>
      <trkpt lat="49.00411" lon="1.15513">
        <ele>124.5</ele>
        <time>2015-12-20T10:36:36Z</time>
      </trkpt>
      <trkpt lat="49.00406" lon="1.15497">
        <ele>124.6</ele>
        <time>2015-12-20T10:36:39Z</time>
      </trkpt>
      <trkpt lat="49.00403" lon="1.15483">
        <ele>124.7</ele>
        <time>2015-12-20T10:36:42Z</time>
      </trkpt>
      <trkpt lat="49.00401" lon="1.15468">
        <ele>124.9</ele>
        <time>2015-12-20T10:36:45Z</time>
      </trkpt>
      <trkpt lat="49.004" lon="1.15452">
        <ele>125.1</ele>
        <time>2015-12-20T10:36:48Z</time>
      </trkpt>
      <trkpt lat="49.00397" lon="1.15432">
        <ele>125.2</ele>
        <time>2015-12-20T10:36:51Z</time>
      </trkpt>
      <trkpt lat="49.00397" lon="1.15413">
        <ele>125.3</ele>
        <time>2015-12-20T10:36:54Z</time>
      </trkpt>
      <trkpt lat="49.00395" lon="1.15396">
        <ele>125.4</ele>
        <time>2015-12-20T10:36:57Z</time>
      </trkpt>
      <trkpt lat="49.00394" lon="1.15379">
        <ele>125.5</ele>
        <time>2015-12-20T10:37:00Z</time>
      </trkpt>
      <trkpt lat="49.00389" lon="1.15365">
        <ele>125.5</ele>
        <time>2015-12-20T10:37:03Z</time>
      </trkpt>
      <trkpt lat="49.00386" lon="1.15349">
        <ele>125.6</ele>
        <time>2015-12-20T10:37:06Z</time>
      </trkpt>
      <trkpt lat="49.00384" lon="1.15331">
        <ele>125.6</ele>
        <time>2015-12-20T10:37:09Z</time>
      </trkpt>
      <trkpt lat="49.00382" lon="1.15314">
        <ele>125.7</ele>
        <time>2015-12-20T10:37:12Z</time>
      </trkpt>
      <trkpt lat="49.0038" lon="1.15296">
        <ele>125.7</ele>
        <time>2015-12-20T10:37:15Z</time>
      </trkpt>
      <trkpt lat="49.00378" lon="1.15276">
        <ele>125.6</ele>
        <time>2015-12-20T10:37:18Z</time>
      </trkpt>
      <trkpt lat="49.00379" lon="1.15259">
        <ele>125.6</ele>
        <time>2015-12-20T10:37:21Z</time>
      </trkpt>
      <trkpt lat="49.00385" lon="1.15245">
        <ele>125.6</ele>
        <time>2015-12-20T10:37:24Z</time>
      </trkpt>
      <trkpt lat="49.00392" lon="1.15231">
        <ele>125.6</ele>
        <time>2015-12-20T10:37:27Z</time>
      </trkpt>
      <trkpt lat="49.00402" lon="1.15218">
        <ele>125.6</ele>
        <time>2015-12-20T10:37:30Z</time>
      </trkpt>
      <trkpt lat="49.00412" lon="1.15205">
        <ele>125.5</ele>
        <time>2015-12-20T10:37:33Z</time>
      </trkpt>
      <trkpt lat="49.00423" lon="1.15193">
        <ele>125.2</ele>
        <time>2015-12-20T10:37:36Z</time>
      </trkpt>
      <trkpt lat="49.0043" lon="1.15185">
        <ele>125</ele>
        <time>2015-12-20T10:37:38Z</time>
      </trkpt>
      <trkpt lat="49.0044" lon="1.15173">
        <ele>124.8</ele>
        <time>2015-12-20T10:37:41Z</time>
      </trkpt>
      <trkpt lat="49.00452" lon="1.15164">
        <ele>124.7</ele>
        <time>2015-12-20T10:37:44Z</time>
      </trkpt>
      <trkpt lat="49.00464" lon="1.15158">
        <ele>124.5</ele>
        <time>2015-12-20T10:37:47Z</time>
      </trkpt>
      <trkpt lat="49.00476" lon="1.15153">
        <ele>124.5</ele>
        <time>2015-12-20T10:37:50Z</time>
      </trkpt>
      <trkpt lat="49.00489" lon="1.1515">
        <ele>124.4</ele>
        <time>2015-12-20T10:37:53Z</time>
      </trkpt>
      <trkpt lat="49.005" lon="1.15145">
        <ele>124.3</ele>
        <time>2015-12-20T10:37:56Z</time>
      </trkpt>
      <trkpt lat="49.0051" lon="1.15142">
        <ele>124.2</ele>
        <time>2015-12-20T10:37:59Z</time>
      </trkpt>
      <trkpt lat="49.00521" lon="1.15141">
        <ele>124.1</ele>
        <time>2015-12-20T10:38:03Z</time>
      </trkpt>
      <trkpt lat="49.00534" lon="1.15146">
        <ele>123.9</ele>
        <time>2015-12-20T10:38:07Z</time>
      </trkpt>
      <trkpt lat="49.00546" lon="1.15146">
        <ele>123.5</ele>
        <time>2015-12-20T10:38:10Z</time>
      </trkpt>
      <trkpt lat="49.00556" lon="1.15143">
        <ele>123.1</ele>
        <time>2015-12-20T10:38:14Z</time>
      </trkpt>
      <trkpt lat="49.00566" lon="1.15142">
        <ele>122.9</ele>
        <time>2015-12-20T10:38:17Z</time>
      </trkpt>
      <trkpt lat="49.00578" lon="1.15143">
        <ele>122.8</ele>
        <time>2015-12-20T10:38:20Z</time>
      </trkpt>
      <trkpt lat="49.0059" lon="1.15143">
        <ele>122.7</ele>
        <time>2015-12-20T10:38:23Z</time>
      </trkpt>
      <trkpt lat="49.006" lon="1.15144">
        <ele>122.7</ele>
        <time>2015-12-20T10:38:26Z</time>
      </trkpt>
      <trkpt lat="49.00611" lon="1.15146">
        <ele>122.8</ele>
        <time>2015-12-20T10:38:29Z</time>
      </trkpt>
      <trkpt lat="49.00621" lon="1.15142">
        <ele>122.9</ele>
        <time>2015-12-20T10:38:33Z</time>
      </trkpt>
      <trkpt lat="49.0063" lon="1.1514">
        <ele>122.9</ele>
        <time>2015-12-20T10:38:35Z</time>
      </trkpt>
      <trkpt lat="49.00642" lon="1.15144">
        <ele>122.9</ele>
        <time>2015-12-20T10:38:38Z</time>
      </trkpt>
      <trkpt lat="49.00653" lon="1.15141">
        <ele>122.9</ele>
        <time>2015-12-20T10:38:41Z</time>
      </trkpt>
      <trkpt lat="49.00666" lon="1.15136">
        <ele>122.8</ele>
        <time>2015-12-20T10:38:44Z</time>
      </trkpt>
      <trkpt lat="49.00677" lon="1.15132">
        <ele>122.7</ele>
        <time>2015-12-20T10:38:47Z</time>
      </trkpt>
      <trkpt lat="49.00687" lon="1.15131">
        <ele>122.5</ele>
        <time>2015-12-20T10:38:50Z</time>
      </trkpt>
      <trkpt lat="49.00698" lon="1.15131">
        <ele>122.3</ele>
        <time>2015-12-20T10:38:53Z</time>
      </trkpt>
      <trkpt lat="49.00705" lon="1.15119">
        <ele>122.1</ele>
        <time>2015-12-20T10:38:56Z</time>
      </trkpt>
      <trkpt lat="49.0071" lon="1.15106">
        <ele>121.9</ele>
        <time>2015-12-20T10:39:00Z</time>
      </trkpt>
      <trkpt lat="49.00718" lon="1.15098">
        <ele>121.7</ele>
        <time>2015-12-20T10:39:04Z</time>
      </trkpt>
      <trkpt lat="49.0073" lon="1.151">
        <ele>121.6</ele>
        <time>2015-12-20T10:39:08Z</time>
      </trkpt>
      <trkpt lat="49.00738" lon="1.15091">
        <ele>121.4</ele>
        <time>2015-12-20T10:39:11Z</time>
      </trkpt>
      <trkpt lat="49.00747" lon="1.15086">
        <ele>121.2</ele>
        <time>2015-12-20T10:39:16Z</time>
      </trkpt>
      <trkpt lat="49.00755" lon="1.15094">
        <ele>121</ele>
        <time>2015-12-20T10:39:23Z</time>
      </trkpt>
      <trkpt lat="49.00765" lon="1.15099">
        <ele>120.8</ele>
        <time>2015-12-20T10:39:27Z</time>
      </trkpt>
      <trkpt lat="49.00774" lon="1.15092">
        <ele>119.8</ele>
        <time>2015-12-20T10:43:14Z</time>
      </trkpt>
      <trkpt lat="49.00785" lon="1.15089">
        <ele>119.8</ele>
        <time>2015-12-20T10:43:18Z</time>
      </trkpt>
      <trkpt lat="49.00796" lon="1.15083">
        <ele>119.8</ele>
        <time>2015-12-20T10:43:21Z</time>
      </trkpt>
      <trkpt lat="49.00807" lon="1.15075">
        <ele>119.8</ele>
        <time>2015-12-20T10:43:24Z</time>
      </trkpt>
      <trkpt lat="49.00816" lon="1.1507">
        <ele>119.8</ele>
        <time>2015-12-20T10:43:26Z</time>
      </trkpt>
      <trkpt lat="49.00825" lon="1.15065">
        <ele>119.8</ele>
        <time>2015-12-20T10:43:28Z</time>
      </trkpt>
      <trkpt lat="49.00833" lon="1.1506">
        <ele>119.8</ele>
        <time>2015-12-20T10:43:30Z</time>
      </trkpt>
      <trkpt lat="49.00842" lon="1.15055">
        <ele>119.8</ele>
        <time>2015-12-20T10:43:32Z</time>
      </trkpt>
      <trkpt lat="49.00852" lon="1.1505">
        <ele>119.8</ele>
        <time>2015-12-20T10:43:34Z</time>
      </trkpt>
      <trkpt lat="49.00862" lon="1.15044">
        <ele>119.7</ele>
        <time>2015-12-20T10:43:36Z</time>
      </trkpt>
      <trkpt lat="49.00873" lon="1.15039">
        <ele>119.7</ele>
        <time>2015-12-20T10:43:38Z</time>
      </trkpt>
      <trkpt lat="49.00884" lon="1.15034">
        <ele>119.7</ele>
        <time>2015-12-20T10:43:40Z</time>
      </trkpt>
      <trkpt lat="49.00895" lon="1.1503">
        <ele>119.7</ele>
        <time>2015-12-20T10:43:42Z</time>
      </trkpt>
      <trkpt lat="49.00905" lon="1.15027">
        <ele>119.5</ele>
        <time>2015-12-20T10:43:44Z</time>
      </trkpt>
      <trkpt lat="49.00918" lon="1.15023">
        <ele>119.3</ele>
        <time>2015-12-20T10:43:47Z</time>
      </trkpt>
      <trkpt lat="49.00928" lon="1.15018">
        <ele>119.1</ele>
        <time>2015-12-20T10:43:50Z</time>
      </trkpt>
      <trkpt lat="49.00942" lon="1.15016">
        <ele>118.8</ele>
        <time>2015-12-20T10:43:53Z</time>
      </trkpt>
      <trkpt lat="49.00951" lon="1.15014">
        <ele>118.6</ele>
        <time>2015-12-20T10:43:55Z</time>
      </trkpt>
      <trkpt lat="49.00964" lon="1.15012">
        <ele>118.2</ele>
        <time>2015-12-20T10:43:58Z</time>
      </trkpt>
      <trkpt lat="49.00976" lon="1.15012">
        <ele>117.8</ele>
        <time>2015-12-20T10:44:01Z</time>
      </trkpt>
      <trkpt lat="49.00985" lon="1.15012">
        <ele>117.5</ele>
        <time>2015-12-20T10:44:03Z</time>
      </trkpt>
      <trkpt lat="49.00995" lon="1.15013">
        <ele>117.2</ele>
        <time>2015-12-20T10:44:05Z</time>
      </trkpt>
      <trkpt lat="49.01006" lon="1.15015">
        <ele>116.9</ele>
        <time>2015-12-20T10:44:07Z</time>
      </trkpt>
      <trkpt lat="49.01017" lon="1.15015">
        <ele>116.6</ele>
        <time>2015-12-20T10:44:09Z</time>
      </trkpt>
      <trkpt lat="49.01027" lon="1.1501">
        <ele>116.3</ele>
        <time>2015-12-20T10:44:11Z</time>
      </trkpt>
      <trkpt lat="49.01036" lon="1.15001">
        <ele>116</ele>
        <time>2015-12-20T10:44:13Z</time>
      </trkpt>
      <trkpt lat="49.01045" lon="1.14993">
        <ele>115.7</ele>
        <time>2015-12-20T10:44:15Z</time>
      </trkpt>
      <trkpt lat="49.01053" lon="1.14985">
        <ele>115.3</ele>
        <time>2015-12-20T10:44:17Z</time>
      </trkpt>
      <trkpt lat="49.01062" lon="1.14977">
        <ele>115</ele>
        <time>2015-12-20T10:44:19Z</time>
      </trkpt>
      <trkpt lat="49.0107" lon="1.14968">
        <ele>114.7</ele>
        <time>2015-12-20T10:44:21Z</time>
      </trkpt>
      <trkpt lat="49.01078" lon="1.14957">
        <ele>114.4</ele>
        <time>2015-12-20T10:44:23Z</time>
      </trkpt>
      <trkpt lat="49.01087" lon="1.14948">
        <ele>114.1</ele>
        <time>2015-12-20T10:44:25Z</time>
      </trkpt>
      <trkpt lat="49.01096" lon="1.14938">
        <ele>113.8</ele>
        <time>2015-12-20T10:44:27Z</time>
      </trkpt>
      <trkpt lat="49.01106" lon="1.14929">
        <ele>113.5</ele>
        <time>2015-12-20T10:44:29Z</time>
      </trkpt>
      <trkpt lat="49.01116" lon="1.1492">
        <ele>113.2</ele>
        <time>2015-12-20T10:44:31Z</time>
      </trkpt>
      <trkpt lat="49.01126" lon="1.1491">
        <ele>112.9</ele>
        <time>2015-12-20T10:44:33Z</time>
      </trkpt>
      <trkpt lat="49.01136" lon="1.14901">
        <ele>112.6</ele>
        <time>2015-12-20T10:44:35Z</time>
      </trkpt>
      <trkpt lat="49.01145" lon="1.14891">
        <ele>112.2</ele>
        <time>2015-12-20T10:44:37Z</time>
      </trkpt>
      <trkpt lat="49.01152" lon="1.1488">
        <ele>111.9</ele>
        <time>2015-12-20T10:44:39Z</time>
      </trkpt>
      <trkpt lat="49.0115" lon="1.14866">
        <ele>111.7</ele>
        <time>2015-12-20T10:44:41Z</time>
      </trkpt>
      <trkpt lat="49.01145" lon="1.14852">
        <ele>111.4</ele>
        <time>2015-12-20T10:44:43Z</time>
      </trkpt>
      <trkpt lat="49.01138" lon="1.14839">
        <ele>111.2</ele>
        <time>2015-12-20T10:44:45Z</time>
      </trkpt>
      <trkpt lat="49.01131" lon="1.14827">
        <ele>111</ele>
        <time>2015-12-20T10:44:47Z</time>
      </trkpt>
      <trkpt lat="49.01124" lon="1.14817">
        <ele>110.9</ele>
        <time>2015-12-20T10:44:49Z</time>
      </trkpt>
      <trkpt lat="49.01117" lon="1.14807">
        <ele>110.7</ele>
        <time>2015-12-20T10:44:51Z</time>
      </trkpt>
      <trkpt lat="49.0111" lon="1.14797">
        <ele>110.6</ele>
        <time>2015-12-20T10:44:53Z</time>
      </trkpt>
      <trkpt lat="49.01106" lon="1.14781">
        <ele>110.5</ele>
        <time>2015-12-20T10:44:56Z</time>
      </trkpt>
      <trkpt lat="49.01116" lon="1.14768">
        <ele>110.3</ele>
        <time>2015-12-20T10:44:59Z</time>
      </trkpt>
      <trkpt lat="49.01123" lon="1.14759">
        <ele>110.3</ele>
        <time>2015-12-20T10:45:01Z</time>
      </trkpt>
      <trkpt lat="49.0113" lon="1.14742">
        <ele>110.2</ele>
        <time>2015-12-20T10:45:04Z</time>
      </trkpt>
      <trkpt lat="49.01133" lon="1.14723">
        <ele>110.1</ele>
        <time>2015-12-20T10:45:07Z</time>
      </trkpt>
      <trkpt lat="49.01134" lon="1.14705">
        <ele>110</ele>
        <time>2015-12-20T10:45:10Z</time>
      </trkpt>
      <trkpt lat="49.01135" lon="1.14688">
        <ele>110</ele>
        <time>2015-12-20T10:45:13Z</time>
      </trkpt>
      <trkpt lat="49.01136" lon="1.1467">
        <ele>109.9</ele>
        <time>2015-12-20T10:45:16Z</time>
      </trkpt>
      <trkpt lat="49.01137" lon="1.14651">
        <ele>109.9</ele>
        <time>2015-12-20T10:45:19Z</time>
      </trkpt>
      <trkpt lat="49.01139" lon="1.14634">
        <ele>109.9</ele>
        <time>2015-12-20T10:45:22Z</time>
      </trkpt>
      <trkpt lat="49.0114" lon="1.14619">
        <ele>109.8</ele>
        <time>2015-12-20T10:45:25Z</time>
      </trkpt>
      <trkpt lat="49.01139" lon="1.14605">
        <ele>109.8</ele>
        <time>2015-12-20T10:45:29Z</time>
      </trkpt>
      <trkpt lat="49.01142" lon="1.14591">
        <ele>109.7</ele>
        <time>2015-12-20T10:49:31Z</time>
      </trkpt>
      <trkpt lat="49.0115" lon="1.14582">
        <ele>109.7</ele>
        <time>2015-12-20T10:49:35Z</time>
      </trkpt>
      <trkpt lat="49.0116" lon="1.14575">
        <ele>109.7</ele>
        <time>2015-12-20T10:49:38Z</time>
      </trkpt>
      <trkpt lat="49.01169" lon="1.14567">
        <ele>109.7</ele>
        <time>2015-12-20T10:49:41Z</time>
      </trkpt>
      <trkpt lat="49.01181" lon="1.1456">
        <ele>109.7</ele>
        <time>2015-12-20T10:49:44Z</time>
      </trkpt>
      <trkpt lat="49.01194" lon="1.14556">
        <ele>109.6</ele>
        <time>2015-12-20T10:49:47Z</time>
      </trkpt>
      <trkpt lat="49.01203" lon="1.14543">
        <ele>109.4</ele>
        <time>2015-12-20T10:49:50Z</time>
      </trkpt>
      <trkpt lat="49.01213" lon="1.14529">
        <ele>109.3</ele>
        <time>2015-12-20T10:49:53Z</time>
      </trkpt>
      <trkpt lat="49.01222" lon="1.14519">
        <ele>109.1</ele>
        <time>2015-12-20T10:49:56Z</time>
      </trkpt>
      <trkpt lat="49.01232" lon="1.14512">
        <ele>108.7</ele>
        <time>2015-12-20T10:49:59Z</time>
      </trkpt>
      <trkpt lat="49.01242" lon="1.14512">
        <ele>108.1</ele>
        <time>2015-12-20T10:50:03Z</time>
      </trkpt>
      <trkpt lat="49.01252" lon="1.14513">
        <ele>107.7</ele>
        <time>2015-12-20T10:50:06Z</time>
      </trkpt>
      <trkpt lat="49.01262" lon="1.1452">
        <ele>107.1</ele>
        <time>2015-12-20T10:50:10Z</time>
      </trkpt>
      <trkpt lat="49.0127" lon="1.14529">
        <ele>106.8</ele>
        <time>2015-12-20T10:50:13Z</time>
      </trkpt>
      <trkpt lat="49.01279" lon="1.14532">
        <ele>106.5</ele>
        <time>2015-12-20T10:50:15Z</time>
      </trkpt>
      <trkpt lat="49.01293" lon="1.14532">
        <ele>106</ele>
        <time>2015-12-20T10:50:18Z</time>
      </trkpt>
      <trkpt lat="49.01305" lon="1.14523">
        <ele>105.4</ele>
        <time>2015-12-20T10:50:21Z</time>
      </trkpt>
      <trkpt lat="49.01314" lon="1.14512">
        <ele>104.6</ele>
        <time>2015-12-20T10:50:24Z</time>
      </trkpt>
      <trkpt lat="49.01317" lon="1.14499">
        <ele>103.1</ele>
        <time>2015-12-20T10:50:29Z</time>
      </trkpt>
      <trkpt lat="49.01313" lon="1.14483">
        <ele>101.8</ele>
        <time>2015-12-20T10:50:34Z</time>
      </trkpt>
      <trkpt lat="49.01308" lon="1.14471">
        <ele>101.1</ele>
        <time>2015-12-20T10:50:37Z</time>
      </trkpt>
      <trkpt lat="49.01304" lon="1.14458">
        <ele>100.6</ele>
        <time>2015-12-20T10:50:40Z</time>
      </trkpt>
      <trkpt lat="49.01298" lon="1.14439">
        <ele>100.2</ele>
        <time>2015-12-20T10:50:43Z</time>
      </trkpt>
      <trkpt lat="49.01294" lon="1.14425">
        <ele>99.9</ele>
        <time>2015-12-20T10:50:45Z</time>
      </trkpt>
      <trkpt lat="49.01291" lon="1.14411">
        <ele>99.5</ele>
        <time>2015-12-20T10:50:47Z</time>
      </trkpt>
      <trkpt lat="49.01286" lon="1.14395">
        <ele>99.2</ele>
        <time>2015-12-20T10:50:49Z</time>
      </trkpt>
      <trkpt lat="49.01283" lon="1.14378">
        <ele>98.8</ele>
        <time>2015-12-20T10:50:51Z</time>
      </trkpt>
      <trkpt lat="49.01277" lon="1.14362">
        <ele>98.3</ele>
        <time>2015-12-20T10:50:54Z</time>
      </trkpt>
      <trkpt lat="49.01267" lon="1.14353">
        <ele>97.9</ele>
        <time>2015-12-20T10:50:57Z</time>
      </trkpt>
      <trkpt lat="49.01257" lon="1.14348">
        <ele>97.8</ele>
        <time>2015-12-20T10:51:00Z</time>
      </trkpt>
      <trkpt lat="49.01245" lon="1.14344">
        <ele>97.7</ele>
        <time>2015-12-20T10:51:03Z</time>
      </trkpt>
      <trkpt lat="49.01233" lon="1.14338">
        <ele>97.7</ele>
        <time>2015-12-20T10:51:06Z</time>
      </trkpt>
      <trkpt lat="49.01222" lon="1.14334">
        <ele>97.6</ele>
        <time>2015-12-20T10:51:09Z</time>
      </trkpt>
      <trkpt lat="49.01208" lon="1.14327">
        <ele>97.6</ele>
        <time>2015-12-20T10:51:12Z</time>
      </trkpt>
      <trkpt lat="49.01198" lon="1.14321">
        <ele>97.6</ele>
        <time>2015-12-20T10:51:14Z</time>
      </trkpt>
      <trkpt lat="49.01187" lon="1.14315">
        <ele>97.5</ele>
        <time>2015-12-20T10:51:16Z</time>
      </trkpt>
      <trkpt lat="49.01175" lon="1.14307">
        <ele>97.5</ele>
        <time>2015-12-20T10:51:18Z</time>
      </trkpt>
      <trkpt lat="49.01164" lon="1.143">
        <ele>97.3</ele>
        <time>2015-12-20T10:51:20Z</time>
      </trkpt>
      <trkpt lat="49.01155" lon="1.14295">
        <ele>97.2</ele>
        <time>2015-12-20T10:51:22Z</time>
      </trkpt>
      <trkpt lat="49.01142" lon="1.1429">
        <ele>97.1</ele>
        <time>2015-12-20T10:51:25Z</time>
      </trkpt>
      <trkpt lat="49.01131" lon="1.14291">
        <ele>97</ele>
        <time>2015-12-20T10:51:28Z</time>
      </trkpt>
      <trkpt lat="49.01119" lon="1.14297">
        <ele>97</ele>
        <time>2015-12-20T10:51:31Z</time>
      </trkpt>
      <trkpt lat="49.01107" lon="1.14304">
        <ele>97</ele>
        <time>2015-12-20T10:51:34Z</time>
      </trkpt>
      <trkpt lat="49.01096" lon="1.1431">
        <ele>97.2</ele>
        <time>2015-12-20T10:51:37Z</time>
      </trkpt>
      <trkpt lat="49.01084" lon="1.14315">
        <ele>97.4</ele>
        <time>2015-12-20T10:51:40Z</time>
      </trkpt>
      <trkpt lat="49.01072" lon="1.1432">
        <ele>97.6</ele>
        <time>2015-12-20T10:51:43Z</time>
      </trkpt>
      <trkpt lat="49.01062" lon="1.14324">
        <ele>97.9</ele>
        <time>2015-12-20T10:51:46Z</time>
      </trkpt>
      <trkpt lat="49.01053" lon="1.1433">
        <ele>98.4</ele>
        <time>2015-12-20T10:51:49Z</time>
      </trkpt>
      <trkpt lat="49.01041" lon="1.14338">
        <ele>98.7</ele>
        <time>2015-12-20T10:51:52Z</time>
      </trkpt>
      <trkpt lat="49.01031" lon="1.14345">
        <ele>98.8</ele>
        <time>2015-12-20T10:51:54Z</time>
      </trkpt>
      <trkpt lat="49.0102" lon="1.14353">
        <ele>98.8</ele>
        <time>2015-12-20T10:51:56Z</time>
      </trkpt>
      <trkpt lat="49.01013" lon="1.14365">
        <ele>98.8</ele>
        <time>2015-12-20T10:51:58Z</time>
      </trkpt>
      <trkpt lat="49.01005" lon="1.14379">
        <ele>98.7</ele>
        <time>2015-12-20T10:52:01Z</time>
      </trkpt>
      <trkpt lat="49.00999" lon="1.1439">
        <ele>99</ele>
        <time>2015-12-20T10:52:06Z</time>
      </trkpt>
      <trkpt lat="49.00992" lon="1.14401">
        <ele>99.4</ele>
        <time>2015-12-20T10:52:10Z</time>
      </trkpt>
      <trkpt lat="49.00985" lon="1.14412">
        <ele>100.1</ele>
        <time>2015-12-20T10:52:15Z</time>
      </trkpt>
      <trkpt lat="49.00979" lon="1.14423">
        <ele>100.8</ele>
        <time>2015-12-20T10:52:20Z</time>
      </trkpt>
      <trkpt lat="49.00971" lon="1.14434">
        <ele>101.6</ele>
        <time>2015-12-20T10:52:24Z</time>
      </trkpt>
      <trkpt lat="49.00964" lon="1.14441">
        <ele>102.5</ele>
        <time>2015-12-20T10:52:28Z</time>
      </trkpt>
      <trkpt lat="49.00956" lon="1.14452">
        <ele>103.2</ele>
        <time>2015-12-20T10:52:32Z</time>
      </trkpt>
      <trkpt lat="49.00954" lon="1.14465">
        <ele>103.8</ele>
        <time>2015-12-20T10:52:36Z</time>
      </trkpt>
      <trkpt lat="49.00947" lon="1.14476">
        <ele>104.8</ele>
        <time>2015-12-20T10:52:42Z</time>
      </trkpt>
      <trkpt lat="49.00935" lon="1.14477">
        <ele>105.4</ele>
        <time>2015-12-20T10:52:46Z</time>
      </trkpt>
      <trkpt lat="49.00926" lon="1.14482">
        <ele>105.7</ele>
        <time>2015-12-20T10:52:49Z</time>
      </trkpt>
      <trkpt lat="49.00918" lon="1.14486">
        <ele>105.9</ele>
        <time>2015-12-20T10:52:52Z</time>
      </trkpt>
      <trkpt lat="49.00909" lon="1.14489">
        <ele>106.2</ele>
        <time>2015-12-20T10:52:56Z</time>
      </trkpt>
      <trkpt lat="49.00898" lon="1.14484">
        <ele>106.4</ele>
        <time>2015-12-20T10:53:01Z</time>
      </trkpt>
      <trkpt lat="49.00888" lon="1.14477">
        <ele>106.2</ele>
        <time>2015-12-20T10:53:06Z</time>
      </trkpt>
      <trkpt lat="49.00877" lon="1.14474">
        <ele>105.9</ele>
        <time>2015-12-20T10:53:10Z</time>
      </trkpt>
      <trkpt lat="49.00867" lon="1.14471">
        <ele>105.8</ele>
        <time>2015-12-20T10:53:14Z</time>
      </trkpt>
      <trkpt lat="49.0086" lon="1.14462">
        <ele>105.8</ele>
        <time>2015-12-20T10:53:18Z</time>
      </trkpt>
      <trkpt lat="49.0085" lon="1.1446">
        <ele>105.7</ele>
        <time>2015-12-20T10:53:22Z</time>
      </trkpt>
      <trkpt lat="49.0084" lon="1.14465">
        <ele>105.8</ele>
        <time>2015-12-20T10:53:27Z</time>
      </trkpt>
      <trkpt lat="49.00831" lon="1.14467">
        <ele>106</ele>
        <time>2015-12-20T10:53:31Z</time>
      </trkpt>
      <trkpt lat="49.0082" lon="1.14465">
        <ele>106.5</ele>
        <time>2015-12-20T10:53:36Z</time>
      </trkpt>
      <trkpt lat="49.0081" lon="1.14462">
        <ele>106.7</ele>
        <time>2015-12-20T10:53:39Z</time>
      </trkpt>
      <trkpt lat="49.00798" lon="1.14461">
        <ele>107.1</ele>
        <time>2015-12-20T10:53:43Z</time>
      </trkpt>
      <trkpt lat="49.00788" lon="1.14458">
        <ele>107.4</ele>
        <time>2015-12-20T10:53:48Z</time>
      </trkpt>
      <trkpt lat="49.00779" lon="1.14459">
        <ele>107.5</ele>
        <time>2015-12-20T10:53:51Z</time>
      </trkpt>
      <trkpt lat="49.00769" lon="1.14463">
        <ele>107.6</ele>
        <time>2015-12-20T10:53:54Z</time>
      </trkpt>
      <trkpt lat="49.00759" lon="1.14468">
        <ele>107.7</ele>
        <time>2015-12-20T10:53:57Z</time>
      </trkpt>
      <trkpt lat="49.0075" lon="1.14473">
        <ele>107.9</ele>
        <time>2015-12-20T10:54:00Z</time>
      </trkpt>
      <trkpt lat="49.00741" lon="1.14475">
        <ele>108</ele>
        <time>2015-12-20T10:54:03Z</time>
      </trkpt>
      <trkpt lat="49.00733" lon="1.14468">
        <ele>108.2</ele>
        <time>2015-12-20T10:54:06Z</time>
      </trkpt>
      <trkpt lat="49.0072" lon="1.14464">
        <ele>108.4</ele>
        <time>2015-12-20T10:54:09Z</time>
      </trkpt>
      <trkpt lat="49.00709" lon="1.14472">
        <ele>108.6</ele>
        <time>2015-12-20T10:54:12Z</time>
      </trkpt>
      <trkpt lat="49.00701" lon="1.1448">
        <ele>108.7</ele>
        <time>2015-12-20T10:54:15Z</time>
      </trkpt>
      <trkpt lat="49.00692" lon="1.14488">
        <ele>108.8</ele>
        <time>2015-12-20T10:54:18Z</time>
      </trkpt>
      <trkpt lat="49.00702" lon="1.14487">
        <ele>109.1</ele>
        <time>2015-12-20T10:54:25Z</time>
      </trkpt>
      <trkpt lat="49.00713" lon="1.14477">
        <ele>109.2</ele>
        <time>2015-12-20T10:54:28Z</time>
      </trkpt>
      <trkpt lat="49.00723" lon="1.14468">
        <ele>109.2</ele>
        <time>2015-12-20T10:54:31Z</time>
      </trkpt>
      <trkpt lat="49.00734" lon="1.14472">
        <ele>109.2</ele>
        <time>2015-12-20T10:54:34Z</time>
      </trkpt>
      <trkpt lat="49.00744" lon="1.14486">
        <ele>109.2</ele>
        <time>2015-12-20T10:54:37Z</time>
      </trkpt>
      <trkpt lat="49.00745" lon="1.14502">
        <ele>109.4</ele>
        <time>2015-12-20T10:54:40Z</time>
      </trkpt>
      <trkpt lat="49.00734" lon="1.14494">
        <ele>109.6</ele>
        <time>2015-12-20T10:54:43Z</time>
      </trkpt>
      <trkpt lat="49.00724" lon="1.14491">
        <ele>109.8</ele>
        <time>2015-12-20T10:54:45Z</time>
      </trkpt>
      <trkpt lat="49.00715" lon="1.1449">
        <ele>109.9</ele>
        <time>2015-12-20T10:54:47Z</time>
      </trkpt>
      <trkpt lat="49.00705" lon="1.14496">
        <ele>110</ele>
        <time>2015-12-20T10:54:49Z</time>
      </trkpt>
      <trkpt lat="49.00698" lon="1.14505">
        <ele>110.1</ele>
        <time>2015-12-20T10:54:51Z</time>
      </trkpt>
      <trkpt lat="49.00697" lon="1.1452">
        <ele>110.5</ele>
        <time>2015-12-20T10:54:55Z</time>
      </trkpt>
      <trkpt lat="49.00705" lon="1.14531">
        <ele>110.8</ele>
        <time>2015-12-20T10:54:59Z</time>
      </trkpt>
      <trkpt lat="49.00713" lon="1.14541">
        <ele>111</ele>
        <time>2015-12-20T10:55:04Z</time>
      </trkpt>
      <trkpt lat="49.00718" lon="1.14553">
        <ele>111.2</ele>
        <time>2015-12-20T10:55:08Z</time>
      </trkpt>
      <trkpt lat="49.00716" lon="1.14567">
        <ele>111.3</ele>
        <time>2015-12-20T10:55:12Z</time>
      </trkpt>
      <trkpt lat="49.00705" lon="1.14559">
        <ele>111.5</ele>
        <time>2015-12-20T10:55:17Z</time>
      </trkpt>
      <trkpt lat="49.00697" lon="1.14552">
        <ele>111.6</ele>
        <time>2015-12-20T10:55:20Z</time>
      </trkpt>
      <trkpt lat="49.00688" lon="1.14543">
        <ele>111.8</ele>
        <time>2015-12-20T10:55:23Z</time>
      </trkpt>
      <trkpt lat="49.00681" lon="1.14531">
        <ele>111.9</ele>
        <time>2015-12-20T10:55:26Z</time>
      </trkpt>
      <trkpt lat="49.00675" lon="1.14516">
        <ele>111.9</ele>
        <time>2015-12-20T10:55:29Z</time>
      </trkpt>
      <trkpt lat="49.00667" lon="1.14505">
        <ele>112</ele>
        <time>2015-12-20T10:55:32Z</time>
      </trkpt>
      <trkpt lat="49.00659" lon="1.14496">
        <ele>111.9</ele>
        <time>2015-12-20T10:55:36Z</time>
      </trkpt>
      <trkpt lat="49.00654" lon="1.1448">
        <ele>110.8</ele>
        <time>2015-12-20T10:56:40Z</time>
      </trkpt>
      <trkpt lat="49.0065" lon="1.14465">
        <ele>110.8</ele>
        <time>2015-12-20T10:56:43Z</time>
      </trkpt>
      <trkpt lat="49.00649" lon="1.14449">
        <ele>110.8</ele>
        <time>2015-12-20T10:56:46Z</time>
      </trkpt>
      <trkpt lat="49.00641" lon="1.14434">
        <ele>110.7</ele>
        <time>2015-12-20T10:56:49Z</time>
      </trkpt>
      <trkpt lat="49.00637" lon="1.14421">
        <ele>110.7</ele>
        <time>2015-12-20T10:56:51Z</time>
      </trkpt>
      <trkpt lat="49.00634" lon="1.14405">
        <ele>110.7</ele>
        <time>2015-12-20T10:56:53Z</time>
      </trkpt>
      <trkpt lat="49.0063" lon="1.1439">
        <ele>110.7</ele>
        <time>2015-12-20T10:56:55Z</time>
      </trkpt>
      <trkpt lat="49.00626" lon="1.14374">
        <ele>110.7</ele>
        <time>2015-12-20T10:56:57Z</time>
      </trkpt>
      <trkpt lat="49.00623" lon="1.14358">
        <ele>110.7</ele>
        <time>2015-12-20T10:56:59Z</time>
      </trkpt>
      <trkpt lat="49.00619" lon="1.14341">
        <ele>110.6</ele>
        <time>2015-12-20T10:57:01Z</time>
      </trkpt>
      <trkpt lat="49.00615" lon="1.14325">
        <ele>110.6</ele>
        <time>2015-12-20T10:57:03Z</time>
      </trkpt>
      <trkpt lat="49.00611" lon="1.1431">
        <ele>110.4</ele>
        <time>2015-12-20T10:57:05Z</time>
      </trkpt>
      <trkpt lat="49.00608" lon="1.14294">
        <ele>110.3</ele>
        <time>2015-12-20T10:57:07Z</time>
      </trkpt>
      <trkpt lat="49.00604" lon="1.14279">
        <ele>110.2</ele>
        <time>2015-12-20T10:57:09Z</time>
      </trkpt>
      <trkpt lat="49.00601" lon="1.14265">
        <ele>110.1</ele>
        <time>2015-12-20T10:57:11Z</time>
      </trkpt>
      <trkpt lat="49.00598" lon="1.14251">
        <ele>110</ele>
        <time>2015-12-20T10:57:13Z</time>
      </trkpt>
      <trkpt lat="49.00596" lon="1.14237">
        <ele>110</ele>
        <time>2015-12-20T10:57:15Z</time>
      </trkpt>
      <trkpt lat="49.00592" lon="1.14224">
        <ele>109.9</ele>
        <time>2015-12-20T10:57:17Z</time>
      </trkpt>
      <trkpt lat="49.00588" lon="1.14209">
        <ele>109.8</ele>
        <time>2015-12-20T10:57:19Z</time>
      </trkpt>
      <trkpt lat="49.00584" lon="1.14195">
        <ele>109.7</ele>
        <time>2015-12-20T10:57:21Z</time>
      </trkpt>
      <trkpt lat="49.00579" lon="1.14181">
        <ele>109.6</ele>
        <time>2015-12-20T10:57:23Z</time>
      </trkpt>
      <trkpt lat="49.00576" lon="1.14167">
        <ele>109.5</ele>
        <time>2015-12-20T10:57:25Z</time>
      </trkpt>
      <trkpt lat="49.00572" lon="1.14153">
        <ele>109.4</ele>
        <time>2015-12-20T10:57:27Z</time>
      </trkpt>
      <trkpt lat="49.00568" lon="1.14139">
        <ele>109.3</ele>
        <time>2015-12-20T10:57:29Z</time>
      </trkpt>
      <trkpt lat="49.00564" lon="1.14126">
        <ele>109.3</ele>
        <time>2015-12-20T10:57:31Z</time>
      </trkpt>
      <trkpt lat="49.00562" lon="1.14109">
        <ele>109.2</ele>
        <time>2015-12-20T10:57:34Z</time>
      </trkpt>
      <trkpt lat="49.00565" lon="1.14094">
        <ele>109.1</ele>
        <time>2015-12-20T10:57:37Z</time>
      </trkpt>
      <trkpt lat="49.00561" lon="1.14078">
        <ele>109</ele>
        <time>2015-12-20T10:57:41Z</time>
      </trkpt>
      <trkpt lat="49.00559" lon="1.14064">
        <ele>108.9</ele>
        <time>2015-12-20T10:57:47Z</time>
      </trkpt>
      <trkpt lat="49.00567" lon="1.1405">
        <ele>108.8</ele>
        <time>2015-12-20T10:57:51Z</time>
      </trkpt>
      <trkpt lat="49.0057" lon="1.14031">
        <ele>108.7</ele>
        <time>2015-12-20T10:57:54Z</time>
      </trkpt>
      <trkpt lat="49.00572" lon="1.14011">
        <ele>108.6</ele>
        <time>2015-12-20T10:57:57Z</time>
      </trkpt>
      <trkpt lat="49.00574" lon="1.13995">
        <ele>108.5</ele>
        <time>2015-12-20T10:57:59Z</time>
      </trkpt>
      <trkpt lat="49.00574" lon="1.13981">
        <ele>108.4</ele>
        <time>2015-12-20T10:58:01Z</time>
      </trkpt>
      <trkpt lat="49.00573" lon="1.13967">
        <ele>108.3</ele>
        <time>2015-12-20T10:58:03Z</time>
      </trkpt>
      <trkpt lat="49.00573" lon="1.13952">
        <ele>108.2</ele>
        <time>2015-12-20T10:58:05Z</time>
      </trkpt>
      <trkpt lat="49.00567" lon="1.13936">
        <ele>108.1</ele>
        <time>2015-12-20T10:58:07Z</time>
      </trkpt>
      <trkpt lat="49.00562" lon="1.13923">
        <ele>108</ele>
        <time>2015-12-20T10:58:09Z</time>
      </trkpt>
      <trkpt lat="49.00562" lon="1.13909">
        <ele>107.9</ele>
        <time>2015-12-20T10:58:11Z</time>
      </trkpt>
      <trkpt lat="49.00561" lon="1.13893">
        <ele>107.7</ele>
        <time>2015-12-20T10:58:14Z</time>
      </trkpt>
      <trkpt lat="49.00552" lon="1.1388">
        <ele>107.6</ele>
        <time>2015-12-20T10:58:17Z</time>
      </trkpt>
      <trkpt lat="49.00541" lon="1.13867">
        <ele>107.5</ele>
        <time>2015-12-20T10:58:20Z</time>
      </trkpt>
      <trkpt lat="49.00531" lon="1.13855">
        <ele>107.4</ele>
        <time>2015-12-20T10:58:23Z</time>
      </trkpt>
      <trkpt lat="49.00525" lon="1.13844">
        <ele>107.3</ele>
        <time>2015-12-20T10:58:25Z</time>
      </trkpt>
      <trkpt lat="49.00523" lon="1.1383">
        <ele>107.3</ele>
        <time>2015-12-20T10:58:27Z</time>
      </trkpt>
      <trkpt lat="49.00517" lon="1.1381">
        <ele>107.2</ele>
        <time>2015-12-20T10:58:30Z</time>
      </trkpt>
      <trkpt lat="49.00516" lon="1.13795">
        <ele>107.2</ele>
        <time>2015-12-20T10:58:32Z</time>
      </trkpt>
      <trkpt lat="49.00516" lon="1.13781">
        <ele>107.2</ele>
        <time>2015-12-20T10:58:34Z</time>
      </trkpt>
      <trkpt lat="49.00514" lon="1.1376">
        <ele>107.2</ele>
        <time>2015-12-20T10:58:37Z</time>
      </trkpt>
      <trkpt lat="49.00513" lon="1.13746">
        <ele>107.2</ele>
        <time>2015-12-20T10:58:39Z</time>
      </trkpt>
      <trkpt lat="49.00514" lon="1.13727">
        <ele>107.2</ele>
        <time>2015-12-20T10:58:42Z</time>
      </trkpt>
      <trkpt lat="49.00516" lon="1.13713">
        <ele>107.2</ele>
        <time>2015-12-20T10:58:44Z</time>
      </trkpt>
      <trkpt lat="49.0052" lon="1.13695">
        <ele>107.2</ele>
        <time>2015-12-20T10:58:47Z</time>
      </trkpt>
      <trkpt lat="49.00524" lon="1.13678">
        <ele>107.2</ele>
        <time>2015-12-20T10:58:49Z</time>
      </trkpt>
      <trkpt lat="49.0053" lon="1.13664">
        <ele>107.1</ele>
        <time>2015-12-20T10:58:53Z</time>
      </trkpt>
      <trkpt lat="49.00539" lon="1.13653">
        <ele>107</ele>
        <time>2015-12-20T10:58:56Z</time>
      </trkpt>
      <trkpt lat="49.00547" lon="1.13646">
        <ele>106.9</ele>
        <time>2015-12-20T10:58:58Z</time>
      </trkpt>
      <trkpt lat="49.00557" lon="1.13638">
        <ele>106.8</ele>
        <time>2015-12-20T10:59:00Z</time>
      </trkpt>
      <trkpt lat="49.00566" lon="1.13633">
        <ele>106.7</ele>
        <time>2015-12-20T10:59:02Z</time>
      </trkpt>
      <trkpt lat="49.00575" lon="1.13625">
        <ele>106.7</ele>
        <time>2015-12-20T10:59:05Z</time>
      </trkpt>
      <trkpt lat="49.00584" lon="1.1362">
        <ele>106.6</ele>
        <time>2015-12-20T10:59:08Z</time>
      </trkpt>
      <trkpt lat="49.00589" lon="1.13609">
        <ele>106.5</ele>
        <time>2015-12-20T10:59:11Z</time>
      </trkpt>
      <trkpt lat="49.00589" lon="1.13595">
        <ele>106.5</ele>
        <time>2015-12-20T10:59:15Z</time>
      </trkpt>
      <trkpt lat="49.00591" lon="1.1358">
        <ele>106.4</ele>
        <time>2015-12-20T10:59:21Z</time>
      </trkpt>
      <trkpt lat="49.00596" lon="1.13568">
        <ele>106.4</ele>
        <time>2015-12-20T10:59:26Z</time>
      </trkpt>
      <trkpt lat="49.00598" lon="1.13552">
        <ele>106.4</ele>
        <time>2015-12-20T10:59:30Z</time>
      </trkpt>
      <trkpt lat="49.00601" lon="1.13536">
        <ele>106.4</ele>
        <time>2015-12-20T10:59:34Z</time>
      </trkpt>
      <trkpt lat="49.00603" lon="1.13521">
        <ele>106.4</ele>
        <time>2015-12-20T10:59:38Z</time>
      </trkpt>
      <trkpt lat="49.00606" lon="1.13506">
        <ele>106.5</ele>
        <time>2015-12-20T10:59:42Z</time>
      </trkpt>
      <trkpt lat="49.00609" lon="1.1349">
        <ele>106.7</ele>
        <time>2015-12-20T10:59:47Z</time>
      </trkpt>
      <trkpt lat="49.00611" lon="1.13474">
        <ele>106.8</ele>
        <time>2015-12-20T10:59:51Z</time>
      </trkpt>
      <trkpt lat="49.00614" lon="1.1346">
        <ele>107</ele>
        <time>2015-12-20T10:59:55Z</time>
      </trkpt>
      <trkpt lat="49.00616" lon="1.13446">
        <ele>107</ele>
        <time>2015-12-20T10:59:58Z</time>
      </trkpt>
      <trkpt lat="49.00617" lon="1.1343">
        <ele>107.1</ele>
        <time>2015-12-20T11:00:02Z</time>
      </trkpt>
      <trkpt lat="49.00616" lon="1.13413">
        <ele>107.3</ele>
        <time>2015-12-20T11:00:06Z</time>
      </trkpt>
      <trkpt lat="49.00615" lon="1.13397">
        <ele>107.4</ele>
        <time>2015-12-20T11:00:10Z</time>
      </trkpt>
      <trkpt lat="49.00607" lon="1.13389">
        <ele>107.5</ele>
        <time>2015-12-20T11:00:13Z</time>
      </trkpt>
      <trkpt lat="49.00604" lon="1.13374">
        <ele>107.5</ele>
        <time>2015-12-20T11:00:17Z</time>
      </trkpt>
      <trkpt lat="49.00602" lon="1.13357">
        <ele>107.6</ele>
        <time>2015-12-20T11:00:20Z</time>
      </trkpt>
      <trkpt lat="49.00601" lon="1.13337">
        <ele>107.7</ele>
        <time>2015-12-20T11:00:23Z</time>
      </trkpt>
      <trkpt lat="49.00599" lon="1.13324">
        <ele>107.8</ele>
        <time>2015-12-20T11:00:25Z</time>
      </trkpt>
      <trkpt lat="49.00593" lon="1.13309">
        <ele>108</ele>
        <time>2015-12-20T11:00:28Z</time>
      </trkpt>
      <trkpt lat="49.00593" lon="1.13294">
        <ele>108.2</ele>
        <time>2015-12-20T11:00:31Z</time>
      </trkpt>
      <trkpt lat="49.00597" lon="1.1328">
        <ele>108.4</ele>
        <time>2015-12-20T11:00:34Z</time>
      </trkpt>
      <trkpt lat="49.00605" lon="1.13272">
        <ele>108.5</ele>
        <time>2015-12-20T11:00:37Z</time>
      </trkpt>
      <trkpt lat="49.00609" lon="1.13256">
        <ele>108.7</ele>
        <time>2015-12-20T11:00:40Z</time>
      </trkpt>
      <trkpt lat="49.00612" lon="1.13238">
        <ele>108.8</ele>
        <time>2015-12-20T11:00:43Z</time>
      </trkpt>
      <trkpt lat="49.00611" lon="1.13223">
        <ele>109</ele>
        <time>2015-12-20T11:00:46Z</time>
      </trkpt>
      <trkpt lat="49.00609" lon="1.13208">
        <ele>109.1</ele>
        <time>2015-12-20T11:00:49Z</time>
      </trkpt>
      <trkpt lat="49.00609" lon="1.13192">
        <ele>109.3</ele>
        <time>2015-12-20T11:00:53Z</time>
      </trkpt>
      <trkpt lat="49.00613" lon="1.13178">
        <ele>109.4</ele>
        <time>2015-12-20T11:00:57Z</time>
      </trkpt>
      <trkpt lat="49.0062" lon="1.13165">
        <ele>109.7</ele>
        <time>2015-12-20T11:01:00Z</time>
      </trkpt>
      <trkpt lat="49.00625" lon="1.1315">
        <ele>109.9</ele>
        <time>2015-12-20T11:01:03Z</time>
      </trkpt>
      <trkpt lat="49.00628" lon="1.13137">
        <ele>110.1</ele>
        <time>2015-12-20T11:01:06Z</time>
      </trkpt>
      <trkpt lat="49.00626" lon="1.13124">
        <ele>110.3</ele>
        <time>2015-12-20T11:01:10Z</time>
      </trkpt>
      <trkpt lat="49.00624" lon="1.13106">
        <ele>110.5</ele>
        <time>2015-12-20T11:01:17Z</time>
      </trkpt>
      <trkpt lat="49.00623" lon="1.13093">
        <ele>110.6</ele>
        <time>2015-12-20T11:01:20Z</time>
      </trkpt>
      <trkpt lat="49.0062" lon="1.13076">
        <ele>110.6</ele>
        <time>2015-12-20T11:01:23Z</time>
      </trkpt>
      <trkpt lat="49.00615" lon="1.13056">
        <ele>110.7</ele>
        <time>2015-12-20T11:01:26Z</time>
      </trkpt>
      <trkpt lat="49.00611" lon="1.13042">
        <ele>110.7</ele>
        <time>2015-12-20T11:01:28Z</time>
      </trkpt>
      <trkpt lat="49.00607" lon="1.13028">
        <ele>110.7</ele>
        <time>2015-12-20T11:01:30Z</time>
      </trkpt>
      <trkpt lat="49.00604" lon="1.13013">
        <ele>110.7</ele>
        <time>2015-12-20T11:01:32Z</time>
      </trkpt>
      <trkpt lat="49.00601" lon="1.13">
        <ele>110.6</ele>
        <time>2015-12-20T11:01:34Z</time>
      </trkpt>
      <trkpt lat="49.00597" lon="1.12987">
        <ele>110.6</ele>
        <time>2015-12-20T11:01:36Z</time>
      </trkpt>
      <trkpt lat="49.00595" lon="1.12974">
        <ele>110.6</ele>
        <time>2015-12-20T11:01:38Z</time>
      </trkpt>
      <trkpt lat="49.00592" lon="1.1296">
        <ele>110.6</ele>
        <time>2015-12-20T11:01:40Z</time>
      </trkpt>
      <trkpt lat="49.00589" lon="1.12947">
        <ele>110.6</ele>
        <time>2015-12-20T11:01:42Z</time>
      </trkpt>
      <trkpt lat="49.00586" lon="1.12933">
        <ele>110.6</ele>
        <time>2015-12-20T11:01:44Z</time>
      </trkpt>
      <trkpt lat="49.00581" lon="1.12915">
        <ele>110.6</ele>
        <time>2015-12-20T11:01:47Z</time>
      </trkpt>
      <trkpt lat="49.00578" lon="1.12901">
        <ele>110.6</ele>
        <time>2015-12-20T11:01:51Z</time>
      </trkpt>
      <trkpt lat="49.00576" lon="1.12883">
        <ele>110.6</ele>
        <time>2015-12-20T11:01:55Z</time>
      </trkpt>
      <trkpt lat="49.00575" lon="1.12867">
        <ele>110.6</ele>
        <time>2015-12-20T11:01:58Z</time>
      </trkpt>
      <trkpt lat="49.00572" lon="1.12849">
        <ele>110.6</ele>
        <time>2015-12-20T11:02:01Z</time>
      </trkpt>
      <trkpt lat="49.00569" lon="1.1283">
        <ele>110.5</ele>
        <time>2015-12-20T11:02:04Z</time>
      </trkpt>
      <trkpt lat="49.00559" lon="1.12822">
        <ele>110.4</ele>
        <time>2015-12-20T11:02:07Z</time>
      </trkpt>
      <trkpt lat="49.00548" lon="1.12829">
        <ele>110.3</ele>
        <time>2015-12-20T11:02:10Z</time>
      </trkpt>
      <trkpt lat="49.00536" lon="1.12836">
        <ele>110.3</ele>
        <time>2015-12-20T11:02:13Z</time>
      </trkpt>
      <trkpt lat="49.00524" lon="1.12842">
        <ele>110.2</ele>
        <time>2015-12-20T11:02:16Z</time>
      </trkpt>
      <trkpt lat="49.00513" lon="1.12844">
        <ele>110.2</ele>
        <time>2015-12-20T11:02:19Z</time>
      </trkpt>
      <trkpt lat="49.00508" lon="1.12829">
        <ele>110.2</ele>
        <time>2015-12-20T11:02:23Z</time>
      </trkpt>
      <trkpt lat="49.00505" lon="1.12815">
        <ele>110.2</ele>
        <time>2015-12-20T11:02:26Z</time>
      </trkpt>
      <trkpt lat="49.00511" lon="1.12801">
        <ele>110.1</ele>
        <time>2015-12-20T11:02:29Z</time>
      </trkpt>
      <trkpt lat="49.00517" lon="1.12786">
        <ele>110.1</ele>
        <time>2015-12-20T11:02:32Z</time>
      </trkpt>
      <trkpt lat="49.00521" lon="1.1277">
        <ele>110.1</ele>
        <time>2015-12-20T11:02:35Z</time>
      </trkpt>
      <trkpt lat="49.00529" lon="1.1276">
        <ele>110.1</ele>
        <time>2015-12-20T11:02:38Z</time>
      </trkpt>
      <trkpt lat="49.00537" lon="1.1275">
        <ele>110.1</ele>
        <time>2015-12-20T11:02:41Z</time>
      </trkpt>
      <trkpt lat="49.00542" lon="1.12737">
        <ele>110.1</ele>
        <time>2015-12-20T11:02:44Z</time>
      </trkpt>
      <trkpt lat="49.00553" lon="1.12726">
        <ele>110.1</ele>
        <time>2015-12-20T11:02:47Z</time>
      </trkpt>
      <trkpt lat="49.0056" lon="1.1271">
        <ele>110.1</ele>
        <time>2015-12-20T11:02:50Z</time>
      </trkpt>
      <trkpt lat="49.00568" lon="1.12696">
        <ele>110.1</ele>
        <time>2015-12-20T11:02:53Z</time>
      </trkpt>
      <trkpt lat="49.00572" lon="1.12683">
        <ele>110.2</ele>
        <time>2015-12-20T11:02:56Z</time>
      </trkpt>
      <trkpt lat="49.00581" lon="1.12673">
        <ele>110.2</ele>
        <time>2015-12-20T11:02:59Z</time>
      </trkpt>
      <trkpt lat="49.00589" lon="1.12661">
        <ele>110.2</ele>
        <time>2015-12-20T11:03:02Z</time>
      </trkpt>
      <trkpt lat="49.00595" lon="1.1265">
        <ele>110.2</ele>
        <time>2015-12-20T11:03:04Z</time>
      </trkpt>
      <trkpt lat="49.00598" lon="1.12631">
        <ele>110.3</ele>
        <time>2015-12-20T11:03:07Z</time>
      </trkpt>
      <trkpt lat="49.00602" lon="1.12619">
        <ele>110.4</ele>
        <time>2015-12-20T11:03:10Z</time>
      </trkpt>
      <trkpt lat="49.0061" lon="1.12608">
        <ele>110.5</ele>
        <time>2015-12-20T11:03:14Z</time>
      </trkpt>
      <trkpt lat="49.00613" lon="1.12589">
        <ele>110.6</ele>
        <time>2015-12-20T11:03:17Z</time>
      </trkpt>
      <trkpt lat="49.00615" lon="1.12573">
        <ele>110.7</ele>
        <time>2015-12-20T11:03:20Z</time>
      </trkpt>
      <trkpt lat="49.00612" lon="1.12557">
        <ele>110.7</ele>
        <time>2015-12-20T11:03:23Z</time>
      </trkpt>
      <trkpt lat="49.00606" lon="1.12542">
        <ele>110.7</ele>
        <time>2015-12-20T11:03:27Z</time>
      </trkpt>
      <trkpt lat="49.00603" lon="1.12525">
        <ele>110.8</ele>
        <time>2015-12-20T11:03:31Z</time>
      </trkpt>
      <trkpt lat="49.00607" lon="1.12511">
        <ele>110.8</ele>
        <time>2015-12-20T11:03:38Z</time>
      </trkpt>
      <trkpt lat="49.00606" lon="1.12496">
        <ele>110.9</ele>
        <time>2015-12-20T11:04:04Z</time>
      </trkpt>
      <trkpt lat="49.00604" lon="1.12481">
        <ele>110.9</ele>
        <time>2015-12-20T11:05:12Z</time>
      </trkpt>
      <trkpt lat="49.00604" lon="1.12463">
        <ele>110.9</ele>
        <time>2015-12-20T11:05:16Z</time>
      </trkpt>
      <trkpt lat="49.00606" lon="1.12445">
        <ele>110.9</ele>
        <time>2015-12-20T11:05:19Z</time>
      </trkpt>
      <trkpt lat="49.00608" lon="1.12429">
        <ele>110.9</ele>
        <time>2015-12-20T11:05:22Z</time>
      </trkpt>
      <trkpt lat="49.00614" lon="1.12416">
        <ele>110.9</ele>
        <time>2015-12-20T11:05:27Z</time>
      </trkpt>
      <trkpt lat="49.00612" lon="1.12401">
        <ele>110.9</ele>
        <time>2015-12-20T11:05:31Z</time>
      </trkpt>
      <trkpt lat="49.00608" lon="1.12384">
        <ele>110.8</ele>
        <time>2015-12-20T11:05:34Z</time>
      </trkpt>
      <trkpt lat="49.00605" lon="1.1237">
        <ele>110.8</ele>
        <time>2015-12-20T11:05:36Z</time>
      </trkpt>
      <trkpt lat="49.00602" lon="1.12358">
        <ele>110.7</ele>
        <time>2015-12-20T11:05:38Z</time>
      </trkpt>
      <trkpt lat="49.00598" lon="1.12343">
        <ele>110.7</ele>
        <time>2015-12-20T11:05:40Z</time>
      </trkpt>
      <trkpt lat="49.00595" lon="1.12327">
        <ele>110.7</ele>
        <time>2015-12-20T11:05:42Z</time>
      </trkpt>
      <trkpt lat="49.0059" lon="1.12309">
        <ele>110.6</ele>
        <time>2015-12-20T11:05:45Z</time>
      </trkpt>
      <trkpt lat="49.00585" lon="1.12295">
        <ele>110.5</ele>
        <time>2015-12-20T11:05:47Z</time>
      </trkpt>
      <trkpt lat="49.00579" lon="1.12282">
        <ele>110.5</ele>
        <time>2015-12-20T11:05:49Z</time>
      </trkpt>
      <trkpt lat="49.00574" lon="1.1227">
        <ele>110.4</ele>
        <time>2015-12-20T11:05:51Z</time>
      </trkpt>
      <trkpt lat="49.00566" lon="1.12253">
        <ele>110.3</ele>
        <time>2015-12-20T11:05:54Z</time>
      </trkpt>
      <trkpt lat="49.00556" lon="1.12243">
        <ele>109.8</ele>
        <time>2015-12-20T11:05:57Z</time>
      </trkpt>
      <trkpt lat="49.00556" lon="1.12229">
        <ele>109.3</ele>
        <time>2015-12-20T11:06:01Z</time>
      </trkpt>
      <trkpt lat="49.00559" lon="1.12211">
        <ele>108.8</ele>
        <time>2015-12-20T11:06:05Z</time>
      </trkpt>
      <trkpt lat="49.00566" lon="1.122">
        <ele>108.5</ele>
        <time>2015-12-20T11:06:09Z</time>
      </trkpt>
      <trkpt lat="49.00575" lon="1.12201">
        <ele>108.3</ele>
        <time>2015-12-20T11:06:13Z</time>
      </trkpt>
      <trkpt lat="49.00585" lon="1.12193">
        <ele>108.2</ele>
        <time>2015-12-20T11:06:16Z</time>
      </trkpt>
      <trkpt lat="49.00593" lon="1.12179">
        <ele>108.1</ele>
        <time>2015-12-20T11:06:19Z</time>
      </trkpt>
      <trkpt lat="49.00603" lon="1.12166">
        <ele>108</ele>
        <time>2015-12-20T11:06:22Z</time>
      </trkpt>
      <trkpt lat="49.0061" lon="1.12157">
        <ele>108</ele>
        <time>2015-12-20T11:06:24Z</time>
      </trkpt>
      <trkpt lat="49.00614" lon="1.12144">
        <ele>108</ele>
        <time>2015-12-20T11:06:26Z</time>
      </trkpt>
      <trkpt lat="49.00619" lon="1.12131">
        <ele>108.1</ele>
        <time>2015-12-20T11:06:28Z</time>
      </trkpt>
      <trkpt lat="49.00625" lon="1.12117">
        <ele>108.1</ele>
        <time>2015-12-20T11:06:31Z</time>
      </trkpt>
      <trkpt lat="49.00633" lon="1.12103">
        <ele>108.2</ele>
        <time>2015-12-20T11:06:35Z</time>
      </trkpt>
      <trkpt lat="49.0064" lon="1.12089">
        <ele>108.3</ele>
        <time>2015-12-20T11:06:38Z</time>
      </trkpt>
      <trkpt lat="49.00643" lon="1.12076">
        <ele>108.3</ele>
        <time>2015-12-20T11:06:40Z</time>
      </trkpt>
      <trkpt lat="49.00647" lon="1.12063">
        <ele>108.3</ele>
        <time>2015-12-20T11:06:42Z</time>
      </trkpt>
      <trkpt lat="49.00655" lon="1.12047">
        <ele>108.4</ele>
        <time>2015-12-20T11:06:45Z</time>
      </trkpt>
      <trkpt lat="49.00662" lon="1.12037">
        <ele>108.5</ele>
        <time>2015-12-20T11:06:48Z</time>
      </trkpt>
      <trkpt lat="49.00671" lon="1.12028">
        <ele>108.6</ele>
        <time>2015-12-20T11:06:51Z</time>
      </trkpt>
      <trkpt lat="49.0068" lon="1.12014">
        <ele>108.7</ele>
        <time>2015-12-20T11:06:54Z</time>
      </trkpt>
      <trkpt lat="49.00685" lon="1.12002">
        <ele>108.8</ele>
        <time>2015-12-20T11:06:56Z</time>
      </trkpt>
      <trkpt lat="49.00684" lon="1.11983">
        <ele>108.9</ele>
        <time>2015-12-20T11:06:59Z</time>
      </trkpt>
      <trkpt lat="49.00681" lon="1.11965">
        <ele>109.1</ele>
        <time>2015-12-20T11:07:02Z</time>
      </trkpt>
      <trkpt lat="49.00679" lon="1.11951">
        <ele>109.2</ele>
        <time>2015-12-20T11:07:04Z</time>
      </trkpt>
      <trkpt lat="49.00676" lon="1.11932">
        <ele>109.4</ele>
        <time>2015-12-20T11:07:07Z</time>
      </trkpt>
      <trkpt lat="49.00674" lon="1.11918">
        <ele>109.4</ele>
        <time>2015-12-20T11:07:09Z</time>
      </trkpt>
      <trkpt lat="49.00671" lon="1.11904">
        <ele>109.5</ele>
        <time>2015-12-20T11:07:11Z</time>
      </trkpt>
      <trkpt lat="49.00667" lon="1.11887">
        <ele>109.6</ele>
        <time>2015-12-20T11:07:14Z</time>
      </trkpt>
      <trkpt lat="49.00666" lon="1.11872">
        <ele>109.7</ele>
        <time>2015-12-20T11:07:17Z</time>
      </trkpt>
      <trkpt lat="49.00665" lon="1.11859">
        <ele>109.8</ele>
        <time>2015-12-20T11:07:50Z</time>
      </trkpt>
      <trkpt lat="49.00654" lon="1.11851">
        <ele>109.7</ele>
        <time>2015-12-20T11:08:45Z</time>
      </trkpt>
      <trkpt lat="49.00645" lon="1.11845">
        <ele>109.7</ele>
        <time>2015-12-20T11:08:47Z</time>
      </trkpt>
      <trkpt lat="49.00637" lon="1.11839">
        <ele>109.7</ele>
        <time>2015-12-20T11:08:49Z</time>
      </trkpt>
      <trkpt lat="49.00628" lon="1.11833">
        <ele>109.7</ele>
        <time>2015-12-20T11:08:51Z</time>
      </trkpt>
      <trkpt lat="49.00619" lon="1.11827">
        <ele>109.7</ele>
        <time>2015-12-20T11:08:53Z</time>
      </trkpt>
      <trkpt lat="49.0061" lon="1.11821">
        <ele>109.7</ele>
        <time>2015-12-20T11:08:55Z</time>
      </trkpt>
      <trkpt lat="49.00601" lon="1.11815">
        <ele>109.7</ele>
        <time>2015-12-20T11:08:57Z</time>
      </trkpt>
      <trkpt lat="49.00593" lon="1.11809">
        <ele>109.8</ele>
        <time>2015-12-20T11:08:59Z</time>
      </trkpt>
      <trkpt lat="49.00584" lon="1.11803">
        <ele>109.8</ele>
        <time>2015-12-20T11:09:01Z</time>
      </trkpt>
      <trkpt lat="49.00576" lon="1.11797">
        <ele>109.9</ele>
        <time>2015-12-20T11:09:03Z</time>
      </trkpt>
      <trkpt lat="49.00567" lon="1.11791">
        <ele>110.1</ele>
        <time>2015-12-20T11:09:05Z</time>
      </trkpt>
      <trkpt lat="49.00559" lon="1.11786">
        <ele>110.2</ele>
        <time>2015-12-20T11:09:07Z</time>
      </trkpt>
      <trkpt lat="49.00549" lon="1.11779">
        <ele>110.2</ele>
        <time>2015-12-20T11:09:09Z</time>
      </trkpt>
      <trkpt lat="49.00539" lon="1.11772">
        <ele>110.2</ele>
        <time>2015-12-20T11:09:11Z</time>
      </trkpt>
      <trkpt lat="49.00529" lon="1.11765">
        <ele>110.2</ele>
        <time>2015-12-20T11:09:13Z</time>
      </trkpt>
      <trkpt lat="49.00522" lon="1.11756">
        <ele>110</ele>
        <time>2015-12-20T11:09:15Z</time>
      </trkpt>
      <trkpt lat="49.00519" lon="1.1174">
        <ele>109.9</ele>
        <time>2015-12-20T11:09:17Z</time>
      </trkpt>
      <trkpt lat="49.0052" lon="1.11724">
        <ele>109.7</ele>
        <time>2015-12-20T11:09:19Z</time>
      </trkpt>
      <trkpt lat="49.00522" lon="1.1171">
        <ele>109.5</ele>
        <time>2015-12-20T11:09:21Z</time>
      </trkpt>
      <trkpt lat="49.00524" lon="1.1169">
        <ele>109.2</ele>
        <time>2015-12-20T11:09:24Z</time>
      </trkpt>
      <trkpt lat="49.00526" lon="1.11674">
        <ele>108.9</ele>
        <time>2015-12-20T11:09:26Z</time>
      </trkpt>
      <trkpt lat="49.00527" lon="1.1166">
        <ele>108.7</ele>
        <time>2015-12-20T11:09:28Z</time>
      </trkpt>
      <trkpt lat="49.00528" lon="1.11643">
        <ele>108.4</ele>
        <time>2015-12-20T11:09:30Z</time>
      </trkpt>
      <trkpt lat="49.0053" lon="1.11625">
        <ele>108.2</ele>
        <time>2015-12-20T11:09:32Z</time>
      </trkpt>
      <trkpt lat="49.00534" lon="1.11609">
        <ele>107.9</ele>
        <time>2015-12-20T11:09:34Z</time>
      </trkpt>
      <trkpt lat="49.00546" lon="1.11605">
        <ele>107.3</ele>
        <time>2015-12-20T11:09:37Z</time>
      </trkpt>
      <trkpt lat="49.00557" lon="1.11608">
        <ele>106.8</ele>
        <time>2015-12-20T11:09:39Z</time>
      </trkpt>
      <trkpt lat="49.00571" lon="1.11613">
        <ele>106.1</ele>
        <time>2015-12-20T11:09:41Z</time>
      </trkpt>
      <trkpt lat="49.00587" lon="1.1162">
        <ele>105.5</ele>
        <time>2015-12-20T11:09:43Z</time>
      </trkpt>
      <trkpt lat="49.00597" lon="1.11623">
        <ele>105.1</ele>
        <time>2015-12-20T11:09:44Z</time>
      </trkpt>
      <trkpt lat="49.00607" lon="1.11627">
        <ele>104.7</ele>
        <time>2015-12-20T11:09:45Z</time>
      </trkpt>
      <trkpt lat="49.00616" lon="1.1163">
        <ele>104.3</ele>
        <time>2015-12-20T11:09:46Z</time>
      </trkpt>
      <trkpt lat="49.00626" lon="1.11633">
        <ele>103.8</ele>
        <time>2015-12-20T11:09:47Z</time>
      </trkpt>
      <trkpt lat="49.00636" lon="1.11636">
        <ele>103.4</ele>
        <time>2015-12-20T11:09:48Z</time>
      </trkpt>
      <trkpt lat="49.00646" lon="1.11639">
        <ele>102.8</ele>
        <time>2015-12-20T11:09:49Z</time>
      </trkpt>
      <trkpt lat="49.00656" lon="1.11643">
        <ele>102.2</ele>
        <time>2015-12-20T11:09:50Z</time>
      </trkpt>
      <trkpt lat="49.00666" lon="1.11646">
        <ele>101.7</ele>
        <time>2015-12-20T11:09:51Z</time>
      </trkpt>
      <trkpt lat="49.00676" lon="1.1165">
        <ele>101.1</ele>
        <time>2015-12-20T11:09:52Z</time>
      </trkpt>
      <trkpt lat="49.00686" lon="1.11653">
        <ele>100.6</ele>
        <time>2015-12-20T11:09:53Z</time>
      </trkpt>
      <trkpt lat="49.00697" lon="1.11656">
        <ele>99.8</ele>
        <time>2015-12-20T11:09:54Z</time>
      </trkpt>
      <trkpt lat="49.00708" lon="1.1166">
        <ele>99.1</ele>
        <time>2015-12-20T11:09:55Z</time>
      </trkpt>
      <trkpt lat="49.00719" lon="1.11664">
        <ele>98.4</ele>
        <time>2015-12-20T11:09:56Z</time>
      </trkpt>
      <trkpt lat="49.0073" lon="1.11668">
        <ele>97.7</ele>
        <time>2015-12-20T11:09:57Z</time>
      </trkpt>
      <trkpt lat="49.00741" lon="1.11671">
        <ele>96.9</ele>
        <time>2015-12-20T11:09:58Z</time>
      </trkpt>
      <trkpt lat="49.00752" lon="1.11675">
        <ele>96.2</ele>
        <time>2015-12-20T11:09:59Z</time>
      </trkpt>
      <trkpt lat="49.00762" lon="1.11677">
        <ele>95.4</ele>
        <time>2015-12-20T11:10:00Z</time>
      </trkpt>
      <trkpt lat="49.00771" lon="1.1168">
        <ele>94.7</ele>
        <time>2015-12-20T11:10:01Z</time>
      </trkpt>
      <trkpt lat="49.00786" lon="1.11686">
        <ele>93.1</ele>
        <time>2015-12-20T11:10:03Z</time>
      </trkpt>
      <trkpt lat="49.00798" lon="1.11691">
        <ele>91.6</ele>
        <time>2015-12-20T11:10:05Z</time>
      </trkpt>
      <trkpt lat="49.00809" lon="1.11695">
        <ele>90</ele>
        <time>2015-12-20T11:10:07Z</time>
      </trkpt>
      <trkpt lat="49.00821" lon="1.117">
        <ele>88.6</ele>
        <time>2015-12-20T11:10:09Z</time>
      </trkpt>
      <trkpt lat="49.00833" lon="1.11703">
        <ele>87.2</ele>
        <time>2015-12-20T11:10:11Z</time>
      </trkpt>
      <trkpt lat="49.00846" lon="1.11708">
        <ele>85.2</ele>
        <time>2015-12-20T11:10:14Z</time>
      </trkpt>
      <trkpt lat="49.00855" lon="1.11713">
        <ele>84</ele>
        <time>2015-12-20T11:10:16Z</time>
      </trkpt>
      <trkpt lat="49.00869" lon="1.11717">
        <ele>82.8</ele>
        <time>2015-12-20T11:10:18Z</time>
      </trkpt>
      <trkpt lat="49.00884" lon="1.11723">
        <ele>81.4</ele>
        <time>2015-12-20T11:10:20Z</time>
      </trkpt>
      <trkpt lat="49.00899" lon="1.11728">
        <ele>79.7</ele>
        <time>2015-12-20T11:10:22Z</time>
      </trkpt>
      <trkpt lat="49.00911" lon="1.11731">
        <ele>78</ele>
        <time>2015-12-20T11:10:24Z</time>
      </trkpt>
      <trkpt lat="49.00925" lon="1.11728">
        <ele>76.5</ele>
        <time>2015-12-20T11:10:26Z</time>
      </trkpt>
      <trkpt lat="49.00935" lon="1.11721">
        <ele>75.1</ele>
        <time>2015-12-20T11:10:28Z</time>
      </trkpt>
      <trkpt lat="49.00945" lon="1.11723">
        <ele>73.6</ele>
        <time>2015-12-20T11:10:30Z</time>
      </trkpt>
      <trkpt lat="49.00956" lon="1.1173">
        <ele>72.4</ele>
        <time>2015-12-20T11:10:32Z</time>
      </trkpt>
      <trkpt lat="49.00969" lon="1.11737">
        <ele>71.2</ele>
        <time>2015-12-20T11:10:34Z</time>
      </trkpt>
      <trkpt lat="49.00985" lon="1.11744">
        <ele>69.9</ele>
        <time>2015-12-20T11:10:36Z</time>
      </trkpt>
      <trkpt lat="49.00994" lon="1.11747">
        <ele>69.3</ele>
        <time>2015-12-20T11:10:37Z</time>
      </trkpt>
      <trkpt lat="49.0101" lon="1.11754">
        <ele>68</ele>
        <time>2015-12-20T11:10:39Z</time>
      </trkpt>
      <trkpt lat="49.01023" lon="1.11759">
        <ele>66.5</ele>
        <time>2015-12-20T11:10:41Z</time>
      </trkpt>
      <trkpt lat="49.01033" lon="1.11763">
        <ele>65.1</ele>
        <time>2015-12-20T11:10:43Z</time>
      </trkpt>
      <trkpt lat="49.01042" lon="1.11761">
        <ele>61.9</ele>
        <time>2015-12-20T11:10:48Z</time>
      </trkpt>
      <trkpt lat="49.01088" lon="1.11787">
        <ele>74.4</ele>
        <time>2015-12-20T11:14:57Z</time>
      </trkpt>
      <trkpt lat="49.01305" lon="1.11902">
        <ele>69.8</ele>
        <time>2015-12-20T11:14:57Z</time>
      </trkpt>
      <trkpt lat="49.01473" lon="1.11985">
        <ele>69.7</ele>
        <time>2015-12-20T11:14:57Z</time>
      </trkpt>
      <trkpt lat="49.01665" lon="1.12282">
        <ele>69</ele>
        <time>2015-12-20T11:14:57Z</time>
      </trkpt>
      <trkpt lat="49.01791" lon="1.12465">
        <ele>67.9</ele>
        <time>2015-12-20T11:14:57Z</time>
      </trkpt>
      <trkpt lat="49.01852" lon="1.1262">
        <ele>69.4</ele>
        <time>2015-12-20T11:14:57Z</time>
      </trkpt>
      <trkpt lat="49.01909" lon="1.12913">
        <ele>70.4</ele>
        <time>2015-12-20T11:14:57Z</time>
      </trkpt>
      <trkpt lat="49.01929" lon="1.13043">
        <ele>65.4</ele>
        <time>2015-12-20T11:14:57Z</time>
      </trkpt>
      <trkpt lat="49.02015" lon="1.13233">
        <ele>65.1</ele>
        <time>2015-12-20T11:14:57Z</time>
      </trkpt>
      <trkpt lat="49.02055" lon="1.13368">
        <ele>66.1</ele>
        <time>2015-12-20T11:14:57Z</time>
      </trkpt>
      <trkpt lat="49.02098" lon="1.13532">
        <ele>66.4</ele>
        <time>2015-12-20T11:14:57Z</time>
      </trkpt>
      <trkpt lat="49.02122" lon="1.13653">
        <ele>65.8</ele>
        <time>2015-12-20T11:14:57Z</time>
      </trkpt>
      <trkpt lat="49.02241" lon="1.14004">
        <ele>66</ele>
        <time>2015-12-20T11:14:57Z</time>
      </trkpt>
    </trkseg>
  </trk>
</gpx>